<?xml version="1.0" encoding="UTF-8"?>
<gpx version="1.0" creator="GPSBabel - https://www.gpsbabel.org" xmlns="http://www.topografix.com/GPX/1/0">
  <time>2021-11-22T02:46:45.805Z</time>
  <bounds minlat="37.492659010" minlon="-106.841636370" maxlat="37.501156240" maxlon="-106.801256250"/>
  <trk>
    <name>CDT.Wolf Creek Pass.Jay.2017-07-02</name>
    <trkseg>
      <trkpt lat="37.492995610" lon="-106.801256250">
        <ele>3580.000</ele>
        <time>2017-07-02T15:04:59Z</time>
        <name>WPT</name>
      </trkpt>
      <trkpt lat="37.492956610" lon="-106.801257950">
        <ele>3576.000</ele>
        <time>2017-07-02T15:05:04Z</time>
        <name>WPT.1</name>
      </trkpt>
      <trkpt lat="37.492918270" lon="-106.801272710">
        <ele>3579.000</ele>
        <time>2017-07-02T15:05:07Z</time>
        <name>WPT.2</name>
      </trkpt>
      <trkpt lat="37.492903230" lon="-106.801320210">
        <ele>3582.000</ele>
        <time>2017-07-02T15:05:12Z</time>
        <name>WPT.3</name>
      </trkpt>
      <trkpt lat="37.492906250" lon="-106.801374060">
        <ele>3582.000</ele>
        <time>2017-07-02T15:05:16Z</time>
        <name>WPT.4</name>
      </trkpt>
      <trkpt lat="37.492924980" lon="-106.801414790">
        <ele>3583.000</ele>
        <time>2017-07-02T15:05:21Z</time>
        <name>WPT.5</name>
      </trkpt>
      <trkpt lat="37.492953760" lon="-106.801453970">
        <ele>3582.000</ele>
        <time>2017-07-02T15:05:25Z</time>
        <name>WPT.6</name>
      </trkpt>
      <trkpt lat="37.492986990" lon="-106.801498870">
        <ele>3578.000</ele>
        <time>2017-07-02T15:05:30Z</time>
        <name>WPT.7</name>
      </trkpt>
      <trkpt lat="37.493040310" lon="-106.801517040">
        <ele>3574.000</ele>
        <time>2017-07-02T15:05:33Z</time>
        <name>WPT.8</name>
      </trkpt>
      <trkpt lat="37.493080680" lon="-106.801540840">
        <ele>3574.000</ele>
        <time>2017-07-02T15:05:36Z</time>
        <name>WPT.9</name>
      </trkpt>
      <trkpt lat="37.493104440" lon="-106.801575300">
        <ele>3574.000</ele>
        <time>2017-07-02T15:05:40Z</time>
        <name>WPT.10</name>
      </trkpt>
      <trkpt lat="37.493109620" lon="-106.801631720">
        <ele>3572.000</ele>
        <time>2017-07-02T15:05:44Z</time>
        <name>WPT.11</name>
      </trkpt>
      <trkpt lat="37.493118460" lon="-106.801676560">
        <ele>3568.000</ele>
        <time>2017-07-02T15:05:47Z</time>
        <name>WPT.12</name>
      </trkpt>
      <trkpt lat="37.493119140" lon="-106.801732180">
        <ele>3568.000</ele>
        <time>2017-07-02T15:05:51Z</time>
        <name>WPT.13</name>
      </trkpt>
      <trkpt lat="37.493114530" lon="-106.801779410">
        <ele>3564.000</ele>
        <time>2017-07-02T15:05:56Z</time>
        <name>WPT.14</name>
      </trkpt>
      <trkpt lat="37.493094680" lon="-106.801824020">
        <ele>3564.000</ele>
        <time>2017-07-02T15:06:00Z</time>
        <name>WPT.15</name>
      </trkpt>
      <trkpt lat="37.493053110" lon="-106.801849150">
        <ele>3564.000</ele>
        <time>2017-07-02T15:06:04Z</time>
        <name>WPT.16</name>
      </trkpt>
      <trkpt lat="37.493023530" lon="-106.801886980">
        <ele>3563.000</ele>
        <time>2017-07-02T15:06:08Z</time>
        <name>WPT.17</name>
      </trkpt>
      <trkpt lat="37.493002590" lon="-106.801927940">
        <ele>3561.000</ele>
        <time>2017-07-02T15:06:20Z</time>
        <name>WPT.18</name>
      </trkpt>
      <trkpt lat="37.492962670" lon="-106.801946260">
        <ele>3561.000</ele>
        <time>2017-07-02T15:06:24Z</time>
        <name>WPT.19</name>
      </trkpt>
      <trkpt lat="37.492928280" lon="-106.801966170">
        <ele>3562.000</ele>
        <time>2017-07-02T15:06:27Z</time>
        <name>WPT.20</name>
      </trkpt>
      <trkpt lat="37.492899580" lon="-106.802002070">
        <ele>3563.000</ele>
        <time>2017-07-02T15:06:30Z</time>
        <name>WPT.21</name>
      </trkpt>
      <trkpt lat="37.492874060" lon="-106.802045450">
        <ele>3563.000</ele>
        <time>2017-07-02T15:06:33Z</time>
        <name>WPT.22</name>
      </trkpt>
      <trkpt lat="37.492840700" lon="-106.802075260">
        <ele>3563.000</ele>
        <time>2017-07-02T15:06:37Z</time>
        <name>WPT.23</name>
      </trkpt>
      <trkpt lat="37.492834390" lon="-106.802127640">
        <ele>3561.000</ele>
        <time>2017-07-02T15:06:41Z</time>
        <name>WPT.24</name>
      </trkpt>
      <trkpt lat="37.492822510" lon="-106.802185960">
        <ele>3560.000</ele>
        <time>2017-07-02T15:06:45Z</time>
        <name>WPT.25</name>
      </trkpt>
      <trkpt lat="37.492803880" lon="-106.802235400">
        <ele>3559.000</ele>
        <time>2017-07-02T15:06:48Z</time>
        <name>WPT.26</name>
      </trkpt>
      <trkpt lat="37.492787840" lon="-106.802277700">
        <ele>3559.000</ele>
        <time>2017-07-02T15:06:52Z</time>
        <name>WPT.27</name>
      </trkpt>
      <trkpt lat="37.492761030" lon="-106.802308740">
        <ele>3560.000</ele>
        <time>2017-07-02T15:07:25Z</time>
        <name>WPT.28</name>
      </trkpt>
      <trkpt lat="37.492742810" lon="-106.802356240">
        <ele>3560.000</ele>
        <time>2017-07-02T15:07:28Z</time>
        <name>WPT.29</name>
      </trkpt>
      <trkpt lat="37.492736180" lon="-106.802404460">
        <ele>3561.000</ele>
        <time>2017-07-02T15:07:30Z</time>
        <name>WPT.30</name>
      </trkpt>
      <trkpt lat="37.492731250" lon="-106.802452970">
        <ele>3561.000</ele>
        <time>2017-07-02T15:07:33Z</time>
        <name>WPT.31</name>
      </trkpt>
      <trkpt lat="37.492714700" lon="-106.802498160">
        <ele>3559.000</ele>
        <time>2017-07-02T15:07:37Z</time>
        <name>WPT.32</name>
      </trkpt>
      <trkpt lat="37.492689290" lon="-106.802542430">
        <ele>3559.000</ele>
        <time>2017-07-02T15:07:41Z</time>
        <name>WPT.33</name>
      </trkpt>
      <trkpt lat="37.492696010" lon="-106.802602350">
        <ele>3559.000</ele>
        <time>2017-07-02T15:09:25Z</time>
        <name>WPT.34</name>
      </trkpt>
      <trkpt lat="37.492687780" lon="-106.802652330">
        <ele>3560.000</ele>
        <time>2017-07-02T15:09:29Z</time>
        <name>WPT.35</name>
      </trkpt>
      <trkpt lat="37.492687430" lon="-106.802708200">
        <ele>3559.000</ele>
        <time>2017-07-02T15:09:32Z</time>
        <name>WPT.36</name>
      </trkpt>
      <trkpt lat="37.492683870" lon="-106.802766570">
        <ele>3558.000</ele>
        <time>2017-07-02T15:09:37Z</time>
        <name>WPT.37</name>
      </trkpt>
      <trkpt lat="37.492679700" lon="-106.802826170">
        <ele>3558.000</ele>
        <time>2017-07-02T15:09:40Z</time>
        <name>WPT.38</name>
      </trkpt>
      <trkpt lat="37.492677120" lon="-106.802889090">
        <ele>3558.000</ele>
        <time>2017-07-02T15:09:44Z</time>
        <name>WPT.39</name>
      </trkpt>
      <trkpt lat="37.492693960" lon="-106.802941680">
        <ele>3559.000</ele>
        <time>2017-07-02T15:09:47Z</time>
        <name>WPT.40</name>
      </trkpt>
      <trkpt lat="37.492704460" lon="-106.802997440">
        <ele>3558.000</ele>
        <time>2017-07-02T15:09:49Z</time>
        <name>WPT.41</name>
      </trkpt>
      <trkpt lat="37.492698610" lon="-106.803047680">
        <ele>3558.000</ele>
        <time>2017-07-02T15:09:52Z</time>
        <name>WPT.42</name>
      </trkpt>
      <trkpt lat="37.492696040" lon="-106.803095900">
        <ele>3556.000</ele>
        <time>2017-07-02T15:09:57Z</time>
        <name>WPT.43</name>
      </trkpt>
      <trkpt lat="37.492700710" lon="-106.803146200">
        <ele>3557.000</ele>
        <time>2017-07-02T15:10:00Z</time>
        <name>WPT.44</name>
      </trkpt>
      <trkpt lat="37.492699470" lon="-106.803200840">
        <ele>3557.000</ele>
        <time>2017-07-02T15:10:03Z</time>
        <name>WPT.45</name>
      </trkpt>
      <trkpt lat="37.492700100" lon="-106.803256440">
        <ele>3557.000</ele>
        <time>2017-07-02T15:10:05Z</time>
        <name>WPT.46</name>
      </trkpt>
      <trkpt lat="37.492701320" lon="-106.803304730">
        <ele>3555.000</ele>
        <time>2017-07-02T15:10:07Z</time>
        <name>WPT.47</name>
      </trkpt>
      <trkpt lat="37.492696080" lon="-106.803358930">
        <ele>3554.000</ele>
        <time>2017-07-02T15:10:11Z</time>
        <name>WPT.48</name>
      </trkpt>
      <trkpt lat="37.492683370" lon="-106.803408270">
        <ele>3557.000</ele>
        <time>2017-07-02T15:10:16Z</time>
        <name>WPT.49</name>
      </trkpt>
      <trkpt lat="37.492673200" lon="-106.803476430">
        <ele>3557.000</ele>
        <time>2017-07-02T15:10:19Z</time>
        <name>WPT.50</name>
      </trkpt>
      <trkpt lat="37.492668900" lon="-106.803532280">
        <ele>3556.000</ele>
        <time>2017-07-02T15:10:22Z</time>
        <name>WPT.51</name>
      </trkpt>
      <trkpt lat="37.492659010" lon="-106.803588670">
        <ele>3556.000</ele>
        <time>2017-07-02T15:10:26Z</time>
        <name>WPT.52</name>
      </trkpt>
      <trkpt lat="37.492661040" lon="-106.803651200">
        <ele>3557.000</ele>
        <time>2017-07-02T15:10:29Z</time>
        <name>WPT.53</name>
      </trkpt>
      <trkpt lat="37.492669410" lon="-106.803702650">
        <ele>3557.000</ele>
        <time>2017-07-02T15:10:31Z</time>
        <name>WPT.54</name>
      </trkpt>
      <trkpt lat="37.492678550" lon="-106.803758720">
        <ele>3557.000</ele>
        <time>2017-07-02T15:10:33Z</time>
        <name>WPT.55</name>
      </trkpt>
      <trkpt lat="37.492680520" lon="-106.803818000">
        <ele>3556.000</ele>
        <time>2017-07-02T15:10:36Z</time>
        <name>WPT.56</name>
      </trkpt>
      <trkpt lat="37.492682460" lon="-106.803875940">
        <ele>3555.000</ele>
        <time>2017-07-02T15:10:40Z</time>
        <name>WPT.57</name>
      </trkpt>
      <trkpt lat="37.492682810" lon="-106.803929900">
        <ele>3555.000</ele>
        <time>2017-07-02T15:10:44Z</time>
        <name>WPT.58</name>
      </trkpt>
      <trkpt lat="37.492689460" lon="-106.803979760">
        <ele>3554.000</ele>
        <time>2017-07-02T15:10:49Z</time>
        <name>WPT.59</name>
      </trkpt>
      <trkpt lat="37.492677420" lon="-106.804037130">
        <ele>3555.000</ele>
        <time>2017-07-02T15:10:55Z</time>
        <name>WPT.60</name>
      </trkpt>
      <trkpt lat="37.492686900" lon="-106.804089710">
        <ele>3556.000</ele>
        <time>2017-07-02T15:10:58Z</time>
        <name>WPT.61</name>
      </trkpt>
      <trkpt lat="37.492698330" lon="-106.804148520">
        <ele>3555.000</ele>
        <time>2017-07-02T15:11:01Z</time>
        <name>WPT.62</name>
      </trkpt>
      <trkpt lat="37.492707340" lon="-106.804198280">
        <ele>3553.000</ele>
        <time>2017-07-02T15:11:04Z</time>
        <name>WPT.63</name>
      </trkpt>
      <trkpt lat="37.492715360" lon="-106.804254120">
        <ele>3554.000</ele>
        <time>2017-07-02T15:11:07Z</time>
        <name>WPT.64</name>
      </trkpt>
      <trkpt lat="37.492727880" lon="-106.804301020">
        <ele>3554.000</ele>
        <time>2017-07-02T15:11:11Z</time>
        <name>WPT.65</name>
      </trkpt>
      <trkpt lat="37.492729120" lon="-106.804356800">
        <ele>3554.000</ele>
        <time>2017-07-02T15:13:09Z</time>
        <name>WPT.66</name>
      </trkpt>
      <trkpt lat="37.492742820" lon="-106.804411590">
        <ele>3554.000</ele>
        <time>2017-07-02T15:13:12Z</time>
        <name>WPT.67</name>
      </trkpt>
      <trkpt lat="37.492757050" lon="-106.804457020">
        <ele>3554.000</ele>
        <time>2017-07-02T15:13:14Z</time>
        <name>WPT.68</name>
      </trkpt>
      <trkpt lat="37.492769620" lon="-106.804500860">
        <ele>3555.000</ele>
        <time>2017-07-02T15:13:16Z</time>
        <name>WPT.69</name>
      </trkpt>
      <trkpt lat="37.492783560" lon="-106.804562010">
        <ele>3554.000</ele>
        <time>2017-07-02T15:13:19Z</time>
        <name>WPT.70</name>
      </trkpt>
      <trkpt lat="37.492784630" lon="-106.804615830">
        <ele>3555.000</ele>
        <time>2017-07-02T15:13:22Z</time>
        <name>WPT.71</name>
      </trkpt>
      <trkpt lat="37.492788480" lon="-106.804665860">
        <ele>3557.000</ele>
        <time>2017-07-02T15:13:25Z</time>
        <name>WPT.72</name>
      </trkpt>
      <trkpt lat="37.492789030" lon="-106.804711310">
        <ele>3556.000</ele>
        <time>2017-07-02T15:13:28Z</time>
        <name>WPT.73</name>
      </trkpt>
      <trkpt lat="37.492793490" lon="-106.804767890">
        <ele>3556.000</ele>
        <time>2017-07-02T15:13:31Z</time>
        <name>WPT.74</name>
      </trkpt>
      <trkpt lat="37.492796950" lon="-106.804813210">
        <ele>3555.000</ele>
        <time>2017-07-02T15:13:33Z</time>
        <name>WPT.75</name>
      </trkpt>
      <trkpt lat="37.492798800" lon="-106.804861280">
        <ele>3556.000</ele>
        <time>2017-07-02T15:13:36Z</time>
        <name>WPT.76</name>
      </trkpt>
      <trkpt lat="37.492795600" lon="-106.804912350">
        <ele>3556.000</ele>
        <time>2017-07-02T15:13:41Z</time>
        <name>WPT.77</name>
      </trkpt>
      <trkpt lat="37.492794440" lon="-106.804967330">
        <ele>3555.000</ele>
        <time>2017-07-02T15:13:45Z</time>
        <name>WPT.78</name>
      </trkpt>
      <trkpt lat="37.492806850" lon="-106.805010910">
        <ele>3554.000</ele>
        <time>2017-07-02T15:13:48Z</time>
        <name>WPT.79</name>
      </trkpt>
      <trkpt lat="37.492829830" lon="-106.805054880">
        <ele>3553.000</ele>
        <time>2017-07-02T15:13:52Z</time>
        <name>WPT.80</name>
      </trkpt>
      <trkpt lat="37.492846280" lon="-106.805101760">
        <ele>3552.000</ele>
        <time>2017-07-02T15:13:55Z</time>
        <name>WPT.81</name>
      </trkpt>
      <trkpt lat="37.492867800" lon="-106.805153020">
        <ele>3551.000</ele>
        <time>2017-07-02T15:13:59Z</time>
        <name>WPT.82</name>
      </trkpt>
      <trkpt lat="37.492895160" lon="-106.805197950">
        <ele>3550.000</ele>
        <time>2017-07-02T15:14:02Z</time>
        <name>WPT.83</name>
      </trkpt>
      <trkpt lat="37.492898430" lon="-106.805247380">
        <ele>3547.000</ele>
        <time>2017-07-02T15:14:06Z</time>
        <name>WPT.84</name>
      </trkpt>
      <trkpt lat="37.492877190" lon="-106.805298360">
        <ele>3546.000</ele>
        <time>2017-07-02T15:14:09Z</time>
        <name>WPT.85</name>
      </trkpt>
      <trkpt lat="37.492868920" lon="-106.805351360">
        <ele>3545.000</ele>
        <time>2017-07-02T15:14:13Z</time>
        <name>WPT.86</name>
      </trkpt>
      <trkpt lat="37.492889960" lon="-106.805392990">
        <ele>3543.000</ele>
        <time>2017-07-02T15:14:16Z</time>
        <name>WPT.87</name>
      </trkpt>
      <trkpt lat="37.492902840" lon="-106.805443370">
        <ele>3541.000</ele>
        <time>2017-07-02T15:14:21Z</time>
        <name>WPT.88</name>
      </trkpt>
      <trkpt lat="37.492905570" lon="-106.805490320">
        <ele>3541.000</ele>
        <time>2017-07-02T15:14:32Z</time>
        <name>WPT.89</name>
      </trkpt>
      <trkpt lat="37.492881570" lon="-106.805530600">
        <ele>3541.000</ele>
        <time>2017-07-02T15:14:40Z</time>
        <name>WPT.90</name>
      </trkpt>
      <trkpt lat="37.492864520" lon="-106.805570660">
        <ele>3541.000</ele>
        <time>2017-07-02T15:14:44Z</time>
        <name>WPT.91</name>
      </trkpt>
      <trkpt lat="37.492848490" lon="-106.805618180">
        <ele>3543.000</ele>
        <time>2017-07-02T15:14:49Z</time>
        <name>WPT.92</name>
      </trkpt>
      <trkpt lat="37.492827020" lon="-106.805658100">
        <ele>3543.000</ele>
        <time>2017-07-02T15:14:55Z</time>
        <name>WPT.93</name>
      </trkpt>
      <trkpt lat="37.492810400" lon="-106.805704560">
        <ele>3545.000</ele>
        <time>2017-07-02T15:14:59Z</time>
        <name>WPT.94</name>
      </trkpt>
      <trkpt lat="37.492780640" lon="-106.805735250">
        <ele>3545.000</ele>
        <time>2017-07-02T15:15:03Z</time>
        <name>WPT.95</name>
      </trkpt>
      <trkpt lat="37.492774030" lon="-106.805785880">
        <ele>3546.000</ele>
        <time>2017-07-02T15:15:08Z</time>
        <name>WPT.96</name>
      </trkpt>
      <trkpt lat="37.492795050" lon="-106.805833810">
        <ele>3546.000</ele>
        <time>2017-07-02T15:15:14Z</time>
        <name>WPT.97</name>
      </trkpt>
      <trkpt lat="37.492810670" lon="-106.805878980">
        <ele>3543.000</ele>
        <time>2017-07-02T15:15:17Z</time>
        <name>WPT.98</name>
      </trkpt>
      <trkpt lat="37.492824380" lon="-106.805925260">
        <ele>3542.000</ele>
        <time>2017-07-02T15:15:21Z</time>
        <name>WPT.99</name>
      </trkpt>
      <trkpt lat="37.492822740" lon="-106.805975820">
        <ele>3541.000</ele>
        <time>2017-07-02T15:15:27Z</time>
        <name>WPT.100</name>
      </trkpt>
      <trkpt lat="37.492833420" lon="-106.806025320">
        <ele>3539.000</ele>
        <time>2017-07-02T15:15:31Z</time>
        <name>WPT.101</name>
      </trkpt>
      <trkpt lat="37.492859620" lon="-106.806067240">
        <ele>3538.000</ele>
        <time>2017-07-02T15:15:34Z</time>
        <name>WPT.102</name>
      </trkpt>
      <trkpt lat="37.492878760" lon="-106.806106880">
        <ele>3538.000</ele>
        <time>2017-07-02T15:15:38Z</time>
        <name>WPT.103</name>
      </trkpt>
      <trkpt lat="37.492896830" lon="-106.806151440">
        <ele>3535.000</ele>
        <time>2017-07-02T15:15:41Z</time>
        <name>WPT.104</name>
      </trkpt>
      <trkpt lat="37.492916080" lon="-106.806196490">
        <ele>3534.000</ele>
        <time>2017-07-02T15:15:44Z</time>
        <name>WPT.105</name>
      </trkpt>
      <trkpt lat="37.492942610" lon="-106.806246340">
        <ele>3534.000</ele>
        <time>2017-07-02T15:15:47Z</time>
        <name>WPT.106</name>
      </trkpt>
      <trkpt lat="37.492972900" lon="-106.806286730">
        <ele>3533.000</ele>
        <time>2017-07-02T15:15:50Z</time>
        <name>WPT.107</name>
      </trkpt>
      <trkpt lat="37.493008530" lon="-106.806319920">
        <ele>3534.000</ele>
        <time>2017-07-02T15:15:55Z</time>
        <name>WPT.108</name>
      </trkpt>
      <trkpt lat="37.493036520" lon="-106.806355170">
        <ele>3535.000</ele>
        <time>2017-07-02T15:15:58Z</time>
        <name>WPT.109</name>
      </trkpt>
      <trkpt lat="37.493074630" lon="-106.806386910">
        <ele>3535.000</ele>
        <time>2017-07-02T15:16:06Z</time>
        <name>WPT.110</name>
      </trkpt>
      <trkpt lat="37.493109020" lon="-106.806404500">
        <ele>3531.000</ele>
        <time>2017-07-02T15:16:11Z</time>
        <name>WPT.111</name>
      </trkpt>
      <trkpt lat="37.493144800" lon="-106.806437410">
        <ele>3531.000</ele>
        <time>2017-07-02T15:16:16Z</time>
        <name>WPT.112</name>
      </trkpt>
      <trkpt lat="37.493169350" lon="-106.806476590">
        <ele>3535.000</ele>
        <time>2017-07-02T15:16:48Z</time>
        <name>WPT.113</name>
      </trkpt>
      <trkpt lat="37.493180450" lon="-106.806527690">
        <ele>3537.000</ele>
        <time>2017-07-02T15:16:54Z</time>
        <name>WPT.114</name>
      </trkpt>
      <trkpt lat="37.493212220" lon="-106.806555870">
        <ele>3535.000</ele>
        <time>2017-07-02T15:17:18Z</time>
        <name>WPT.115</name>
      </trkpt>
      <trkpt lat="37.493239780" lon="-106.806586470">
        <ele>3533.000</ele>
        <time>2017-07-02T15:17:25Z</time>
        <name>WPT.116</name>
      </trkpt>
      <trkpt lat="37.493254870" lon="-106.806633780">
        <ele>3534.000</ele>
        <time>2017-07-02T15:17:31Z</time>
        <name>WPT.117</name>
      </trkpt>
      <trkpt lat="37.493281640" lon="-106.806675100">
        <ele>3535.000</ele>
        <time>2017-07-02T15:17:38Z</time>
        <name>WPT.118</name>
      </trkpt>
      <trkpt lat="37.493309470" lon="-106.806717160">
        <ele>3534.000</ele>
        <time>2017-07-02T15:17:42Z</time>
        <name>WPT.119</name>
      </trkpt>
      <trkpt lat="37.493337150" lon="-106.806756310">
        <ele>3534.000</ele>
        <time>2017-07-02T15:17:49Z</time>
        <name>WPT.120</name>
      </trkpt>
      <trkpt lat="37.493365180" lon="-106.806790270">
        <ele>3533.000</ele>
        <time>2017-07-02T15:17:55Z</time>
        <name>WPT.121</name>
      </trkpt>
      <trkpt lat="37.493395920" lon="-106.806823880">
        <ele>3530.000</ele>
        <time>2017-07-02T15:18:01Z</time>
        <name>WPT.122</name>
      </trkpt>
      <trkpt lat="37.493424210" lon="-106.806855850">
        <ele>3530.000</ele>
        <time>2017-07-02T15:18:06Z</time>
        <name>WPT.123</name>
      </trkpt>
      <trkpt lat="37.493451560" lon="-106.806887550">
        <ele>3529.000</ele>
        <time>2017-07-02T15:18:13Z</time>
        <name>WPT.124</name>
      </trkpt>
      <trkpt lat="37.493486820" lon="-106.806907850">
        <ele>3529.000</ele>
        <time>2017-07-02T15:18:20Z</time>
        <name>WPT.125</name>
      </trkpt>
      <trkpt lat="37.493517650" lon="-106.806936940">
        <ele>3529.000</ele>
        <time>2017-07-02T15:18:25Z</time>
        <name>WPT.126</name>
      </trkpt>
      <trkpt lat="37.493550750" lon="-106.806967250">
        <ele>3530.000</ele>
        <time>2017-07-02T15:18:30Z</time>
        <name>WPT.127</name>
      </trkpt>
      <trkpt lat="37.493587450" lon="-106.807012860">
        <ele>3531.000</ele>
        <time>2017-07-02T15:18:35Z</time>
        <name>WPT.128</name>
      </trkpt>
      <trkpt lat="37.493623010" lon="-106.807034160">
        <ele>3531.000</ele>
        <time>2017-07-02T15:18:38Z</time>
        <name>WPT.129</name>
      </trkpt>
      <trkpt lat="37.493656900" lon="-106.807051150">
        <ele>3531.000</ele>
        <time>2017-07-02T15:18:40Z</time>
        <name>WPT.130</name>
      </trkpt>
      <trkpt lat="37.493703080" lon="-106.807064380">
        <ele>3531.000</ele>
        <time>2017-07-02T15:18:44Z</time>
        <name>WPT.131</name>
      </trkpt>
      <trkpt lat="37.493747800" lon="-106.807077890">
        <ele>3531.000</ele>
        <time>2017-07-02T15:18:47Z</time>
        <name>WPT.132</name>
      </trkpt>
      <trkpt lat="37.493777010" lon="-106.807113100">
        <ele>3529.000</ele>
        <time>2017-07-02T15:18:52Z</time>
        <name>WPT.133</name>
      </trkpt>
      <trkpt lat="37.493809890" lon="-106.807131850">
        <ele>3530.000</ele>
        <time>2017-07-02T15:18:55Z</time>
        <name>WPT.134</name>
      </trkpt>
      <trkpt lat="37.493845950" lon="-106.807159200">
        <ele>3531.000</ele>
        <time>2017-07-02T15:18:58Z</time>
        <name>WPT.135</name>
      </trkpt>
      <trkpt lat="37.493883620" lon="-106.807187190">
        <ele>3532.000</ele>
        <time>2017-07-02T15:19:05Z</time>
        <name>WPT.136</name>
      </trkpt>
      <trkpt lat="37.493931440" lon="-106.807200330">
        <ele>3533.000</ele>
        <time>2017-07-02T15:19:09Z</time>
        <name>WPT.137</name>
      </trkpt>
      <trkpt lat="37.493969030" lon="-106.807212260">
        <ele>3533.000</ele>
        <time>2017-07-02T15:19:12Z</time>
        <name>WPT.138</name>
      </trkpt>
      <trkpt lat="37.494006290" lon="-106.807216180">
        <ele>3532.000</ele>
        <time>2017-07-02T15:19:22Z</time>
        <name>WPT.139</name>
      </trkpt>
      <trkpt lat="37.494046620" lon="-106.807231250">
        <ele>3530.000</ele>
        <time>2017-07-02T15:19:43Z</time>
        <name>WPT.140</name>
      </trkpt>
      <trkpt lat="37.494079850" lon="-106.807258760">
        <ele>3531.000</ele>
        <time>2017-07-02T15:19:56Z</time>
        <name>WPT.141</name>
      </trkpt>
      <trkpt lat="37.494105000" lon="-106.807296130">
        <ele>3530.000</ele>
        <time>2017-07-02T15:20:01Z</time>
        <name>WPT.142</name>
      </trkpt>
      <trkpt lat="37.494138430" lon="-106.807320810">
        <ele>3530.000</ele>
        <time>2017-07-02T15:20:05Z</time>
        <name>WPT.143</name>
      </trkpt>
      <trkpt lat="37.494169240" lon="-106.807359070">
        <ele>3530.000</ele>
        <time>2017-07-02T15:20:09Z</time>
        <name>WPT.144</name>
      </trkpt>
      <trkpt lat="37.494197560" lon="-106.807389750">
        <ele>3530.000</ele>
        <time>2017-07-02T15:20:12Z</time>
        <name>WPT.145</name>
      </trkpt>
      <trkpt lat="37.494233820" lon="-106.807404090">
        <ele>3532.000</ele>
        <time>2017-07-02T15:20:16Z</time>
        <name>WPT.146</name>
      </trkpt>
      <trkpt lat="37.494266440" lon="-106.807428730">
        <ele>3531.000</ele>
        <time>2017-07-02T15:20:20Z</time>
        <name>WPT.147</name>
      </trkpt>
      <trkpt lat="37.494298120" lon="-106.807461140">
        <ele>3532.000</ele>
        <time>2017-07-02T15:20:24Z</time>
        <name>WPT.148</name>
      </trkpt>
      <trkpt lat="37.494334170" lon="-106.807489400">
        <ele>3531.000</ele>
        <time>2017-07-02T15:20:28Z</time>
        <name>WPT.149</name>
      </trkpt>
      <trkpt lat="37.494371370" lon="-106.807501840">
        <ele>3532.000</ele>
        <time>2017-07-02T15:20:33Z</time>
        <name>WPT.150</name>
      </trkpt>
      <trkpt lat="37.494407360" lon="-106.807522500">
        <ele>3533.000</ele>
        <time>2017-07-02T15:20:38Z</time>
        <name>WPT.151</name>
      </trkpt>
      <trkpt lat="37.494449510" lon="-106.807560270">
        <ele>3531.000</ele>
        <time>2017-07-02T15:20:42Z</time>
        <name>WPT.152</name>
      </trkpt>
      <trkpt lat="37.494483640" lon="-106.807597110">
        <ele>3531.000</ele>
        <time>2017-07-02T15:20:45Z</time>
        <name>WPT.153</name>
      </trkpt>
      <trkpt lat="37.494509960" lon="-106.807634380">
        <ele>3530.000</ele>
        <time>2017-07-02T15:20:48Z</time>
        <name>WPT.154</name>
      </trkpt>
      <trkpt lat="37.494535130" lon="-106.807677140">
        <ele>3529.000</ele>
        <time>2017-07-02T15:20:52Z</time>
        <name>WPT.155</name>
      </trkpt>
      <trkpt lat="37.494568520" lon="-106.807726830">
        <ele>3530.000</ele>
        <time>2017-07-02T15:20:56Z</time>
        <name>WPT.156</name>
      </trkpt>
      <trkpt lat="37.494598070" lon="-106.807755860">
        <ele>3526.000</ele>
        <time>2017-07-02T15:20:59Z</time>
        <name>WPT.157</name>
      </trkpt>
      <trkpt lat="37.494629630" lon="-106.807779640">
        <ele>3529.000</ele>
        <time>2017-07-02T15:21:29Z</time>
        <name>WPT.158</name>
      </trkpt>
      <trkpt lat="37.494663770" lon="-106.807760830">
        <ele>3528.000</ele>
        <time>2017-07-02T15:22:11Z</time>
        <name>WPT.159</name>
      </trkpt>
      <trkpt lat="37.494652720" lon="-106.807809300">
        <ele>3529.000</ele>
        <time>2017-07-02T15:22:53Z</time>
        <name>WPT.160</name>
      </trkpt>
      <trkpt lat="37.494672690" lon="-106.807866720">
        <ele>3530.000</ele>
        <time>2017-07-02T15:22:57Z</time>
        <name>WPT.161</name>
      </trkpt>
      <trkpt lat="37.494693490" lon="-106.807913910">
        <ele>3530.000</ele>
        <time>2017-07-02T15:23:01Z</time>
        <name>WPT.162</name>
      </trkpt>
      <trkpt lat="37.494708260" lon="-106.807961690">
        <ele>3528.000</ele>
        <time>2017-07-02T15:23:09Z</time>
        <name>WPT.163</name>
      </trkpt>
      <trkpt lat="37.494730440" lon="-106.808011100">
        <ele>3532.000</ele>
        <time>2017-07-02T15:23:18Z</time>
        <name>WPT.164</name>
      </trkpt>
      <trkpt lat="37.494739070" lon="-106.808065730">
        <ele>3530.000</ele>
        <time>2017-07-02T15:23:22Z</time>
        <name>WPT.165</name>
      </trkpt>
      <trkpt lat="37.494759500" lon="-106.808106190">
        <ele>3531.000</ele>
        <time>2017-07-02T15:23:25Z</time>
        <name>WPT.166</name>
      </trkpt>
      <trkpt lat="37.494782230" lon="-106.808148810">
        <ele>3530.000</ele>
        <time>2017-07-02T15:23:28Z</time>
        <name>WPT.167</name>
      </trkpt>
      <trkpt lat="37.494792730" lon="-106.808192690">
        <ele>3531.000</ele>
        <time>2017-07-02T15:23:31Z</time>
        <name>WPT.168</name>
      </trkpt>
      <trkpt lat="37.494811440" lon="-106.808237460">
        <ele>3530.000</ele>
        <time>2017-07-02T15:23:34Z</time>
        <name>WPT.169</name>
      </trkpt>
      <trkpt lat="37.494804370" lon="-106.808283830">
        <ele>3534.000</ele>
        <time>2017-07-02T15:23:39Z</time>
        <name>WPT.170</name>
      </trkpt>
      <trkpt lat="37.494810340" lon="-106.808343050">
        <ele>3535.000</ele>
        <time>2017-07-02T15:23:43Z</time>
        <name>WPT.171</name>
      </trkpt>
      <trkpt lat="37.494809130" lon="-106.808400080">
        <ele>3536.000</ele>
        <time>2017-07-02T15:23:46Z</time>
        <name>WPT.172</name>
      </trkpt>
      <trkpt lat="37.494817410" lon="-106.808451150">
        <ele>3534.000</ele>
        <time>2017-07-02T15:23:51Z</time>
        <name>WPT.173</name>
      </trkpt>
      <trkpt lat="37.494834490" lon="-106.808507160">
        <ele>3533.000</ele>
        <time>2017-07-02T15:23:54Z</time>
        <name>WPT.174</name>
      </trkpt>
      <trkpt lat="37.494860070" lon="-106.808554330">
        <ele>3531.000</ele>
        <time>2017-07-02T15:23:57Z</time>
        <name>WPT.175</name>
      </trkpt>
      <trkpt lat="37.494869850" lon="-106.808620500">
        <ele>3534.000</ele>
        <time>2017-07-02T15:24:02Z</time>
        <name>WPT.176</name>
      </trkpt>
      <trkpt lat="37.494880530" lon="-106.808678590">
        <ele>3532.000</ele>
        <time>2017-07-02T15:24:05Z</time>
        <name>WPT.177</name>
      </trkpt>
      <trkpt lat="37.494885660" lon="-106.808731760">
        <ele>3534.000</ele>
        <time>2017-07-02T15:24:08Z</time>
        <name>WPT.178</name>
      </trkpt>
      <trkpt lat="37.494895900" lon="-106.808777290">
        <ele>3533.000</ele>
        <time>2017-07-02T15:24:10Z</time>
        <name>WPT.179</name>
      </trkpt>
      <trkpt lat="37.494899410" lon="-106.808828100">
        <ele>3535.000</ele>
        <time>2017-07-02T15:24:14Z</time>
        <name>WPT.180</name>
      </trkpt>
      <trkpt lat="37.494901110" lon="-106.808875090">
        <ele>3535.000</ele>
        <time>2017-07-02T15:24:18Z</time>
        <name>WPT.181</name>
      </trkpt>
      <trkpt lat="37.494918590" lon="-106.808932650">
        <ele>3534.000</ele>
        <time>2017-07-02T15:25:28Z</time>
        <name>WPT.182</name>
      </trkpt>
      <trkpt lat="37.494930100" lon="-106.808975810">
        <ele>3535.000</ele>
        <time>2017-07-02T15:25:31Z</time>
        <name>WPT.183</name>
      </trkpt>
      <trkpt lat="37.494940820" lon="-106.809026520">
        <ele>3537.000</ele>
        <time>2017-07-02T15:25:35Z</time>
        <name>WPT.184</name>
      </trkpt>
      <trkpt lat="37.494954310" lon="-106.809070530">
        <ele>3537.000</ele>
        <time>2017-07-02T15:25:38Z</time>
        <name>WPT.185</name>
      </trkpt>
      <trkpt lat="37.494972430" lon="-106.809122370">
        <ele>3539.000</ele>
        <time>2017-07-02T15:25:42Z</time>
        <name>WPT.186</name>
      </trkpt>
      <trkpt lat="37.494993140" lon="-106.809182890">
        <ele>3540.000</ele>
        <time>2017-07-02T15:25:45Z</time>
        <name>WPT.187</name>
      </trkpt>
      <trkpt lat="37.495011500" lon="-106.809230050">
        <ele>3539.000</ele>
        <time>2017-07-02T15:25:49Z</time>
        <name>WPT.188</name>
      </trkpt>
      <trkpt lat="37.495032300" lon="-106.809275320">
        <ele>3537.000</ele>
        <time>2017-07-02T15:25:52Z</time>
        <name>WPT.189</name>
      </trkpt>
      <trkpt lat="37.495052190" lon="-106.809326020">
        <ele>3537.000</ele>
        <time>2017-07-02T15:25:56Z</time>
        <name>WPT.190</name>
      </trkpt>
      <trkpt lat="37.495069700" lon="-106.809368270">
        <ele>3536.000</ele>
        <time>2017-07-02T15:25:59Z</time>
        <name>WPT.191</name>
      </trkpt>
      <trkpt lat="37.495085370" lon="-106.809416610">
        <ele>3535.000</ele>
        <time>2017-07-02T15:26:03Z</time>
        <name>WPT.192</name>
      </trkpt>
      <trkpt lat="37.495097140" lon="-106.809460710">
        <ele>3535.000</ele>
        <time>2017-07-02T15:26:06Z</time>
        <name>WPT.193</name>
      </trkpt>
      <trkpt lat="37.495114010" lon="-106.809503060">
        <ele>3536.000</ele>
        <time>2017-07-02T15:26:12Z</time>
        <name>WPT.194</name>
      </trkpt>
      <trkpt lat="37.495116880" lon="-106.809567190">
        <ele>3536.000</ele>
        <time>2017-07-02T15:26:17Z</time>
        <name>WPT.195</name>
      </trkpt>
      <trkpt lat="37.495128080" lon="-106.809611780">
        <ele>3537.000</ele>
        <time>2017-07-02T15:26:21Z</time>
        <name>WPT.196</name>
      </trkpt>
      <trkpt lat="37.495145580" lon="-106.809662540">
        <ele>3537.000</ele>
        <time>2017-07-02T15:26:24Z</time>
        <name>WPT.197</name>
      </trkpt>
      <trkpt lat="37.495157500" lon="-106.809715140">
        <ele>3537.000</ele>
        <time>2017-07-02T15:26:28Z</time>
        <name>WPT.198</name>
      </trkpt>
      <trkpt lat="37.495169300" lon="-106.809758240">
        <ele>3538.000</ele>
        <time>2017-07-02T15:26:30Z</time>
        <name>WPT.199</name>
      </trkpt>
      <trkpt lat="37.495182910" lon="-106.809803100">
        <ele>3540.000</ele>
        <time>2017-07-02T15:26:34Z</time>
        <name>WPT.200</name>
      </trkpt>
      <trkpt lat="37.495194250" lon="-106.809852780">
        <ele>3542.000</ele>
        <time>2017-07-02T15:26:37Z</time>
        <name>WPT.201</name>
      </trkpt>
      <trkpt lat="37.495206820" lon="-106.809898320">
        <ele>3543.000</ele>
        <time>2017-07-02T15:26:42Z</time>
        <name>WPT.202</name>
      </trkpt>
      <trkpt lat="37.495215720" lon="-106.809946130">
        <ele>3542.000</ele>
        <time>2017-07-02T15:26:46Z</time>
        <name>WPT.203</name>
      </trkpt>
      <trkpt lat="37.495231920" lon="-106.809988300">
        <ele>3543.000</ele>
        <time>2017-07-02T15:26:49Z</time>
        <name>WPT.204</name>
      </trkpt>
      <trkpt lat="37.495253360" lon="-106.810035990">
        <ele>3542.000</ele>
        <time>2017-07-02T15:26:54Z</time>
        <name>WPT.205</name>
      </trkpt>
      <trkpt lat="37.495261770" lon="-106.810091240">
        <ele>3542.000</ele>
        <time>2017-07-02T15:26:59Z</time>
        <name>WPT.206</name>
      </trkpt>
      <trkpt lat="37.495289990" lon="-106.810126480">
        <ele>3539.000</ele>
        <time>2017-07-02T15:27:05Z</time>
        <name>WPT.207</name>
      </trkpt>
      <trkpt lat="37.495304800" lon="-106.810168590">
        <ele>3537.000</ele>
        <time>2017-07-02T15:27:20Z</time>
        <name>WPT.208</name>
      </trkpt>
      <trkpt lat="37.495315620" lon="-106.810215870">
        <ele>3536.000</ele>
        <time>2017-07-02T15:27:23Z</time>
        <name>WPT.209</name>
      </trkpt>
      <trkpt lat="37.495325230" lon="-106.810260410">
        <ele>3537.000</ele>
        <time>2017-07-02T15:27:26Z</time>
        <name>WPT.210</name>
      </trkpt>
      <trkpt lat="37.495336710" lon="-106.810307070">
        <ele>3538.000</ele>
        <time>2017-07-02T15:27:34Z</time>
        <name>WPT.211</name>
      </trkpt>
      <trkpt lat="37.495345990" lon="-106.810351520">
        <ele>3539.000</ele>
        <time>2017-07-02T15:27:41Z</time>
        <name>WPT.212</name>
      </trkpt>
      <trkpt lat="37.495361050" lon="-106.810395730">
        <ele>3541.000</ele>
        <time>2017-07-02T15:27:46Z</time>
        <name>WPT.213</name>
      </trkpt>
      <trkpt lat="37.495384510" lon="-106.810440830">
        <ele>3540.000</ele>
        <time>2017-07-02T15:27:52Z</time>
        <name>WPT.214</name>
      </trkpt>
      <trkpt lat="37.495398900" lon="-106.810495520">
        <ele>3540.000</ele>
        <time>2017-07-02T15:27:56Z</time>
        <name>WPT.215</name>
      </trkpt>
      <trkpt lat="37.495404390" lon="-106.810541610">
        <ele>3540.000</ele>
        <time>2017-07-02T15:28:01Z</time>
        <name>WPT.216</name>
      </trkpt>
      <trkpt lat="37.495394270" lon="-106.810596180">
        <ele>3542.000</ele>
        <time>2017-07-02T15:28:12Z</time>
        <name>WPT.217</name>
      </trkpt>
      <trkpt lat="37.495411710" lon="-106.810644950">
        <ele>3543.000</ele>
        <time>2017-07-02T15:28:15Z</time>
        <name>WPT.218</name>
      </trkpt>
      <trkpt lat="37.495422450" lon="-106.810691890">
        <ele>3544.000</ele>
        <time>2017-07-02T15:28:19Z</time>
        <name>WPT.219</name>
      </trkpt>
      <trkpt lat="37.495434070" lon="-106.810737590">
        <ele>3546.000</ele>
        <time>2017-07-02T15:28:22Z</time>
        <name>WPT.220</name>
      </trkpt>
      <trkpt lat="37.495439160" lon="-106.810796240">
        <ele>3546.000</ele>
        <time>2017-07-02T15:28:26Z</time>
        <name>WPT.221</name>
      </trkpt>
      <trkpt lat="37.495448870" lon="-106.810849780">
        <ele>3546.000</ele>
        <time>2017-07-02T15:28:30Z</time>
        <name>WPT.222</name>
      </trkpt>
      <trkpt lat="37.495471050" lon="-106.810890450">
        <ele>3546.000</ele>
        <time>2017-07-02T15:28:33Z</time>
        <name>WPT.223</name>
      </trkpt>
      <trkpt lat="37.495486170" lon="-106.810937040">
        <ele>3545.000</ele>
        <time>2017-07-02T15:28:37Z</time>
        <name>WPT.224</name>
      </trkpt>
      <trkpt lat="37.495519080" lon="-106.810988800">
        <ele>3541.000</ele>
        <time>2017-07-02T15:28:41Z</time>
        <name>WPT.225</name>
      </trkpt>
      <trkpt lat="37.495554150" lon="-106.811018760">
        <ele>3542.000</ele>
        <time>2017-07-02T15:28:44Z</time>
        <name>WPT.226</name>
      </trkpt>
      <trkpt lat="37.495590810" lon="-106.811061280">
        <ele>3542.000</ele>
        <time>2017-07-02T15:28:49Z</time>
        <name>WPT.227</name>
      </trkpt>
      <trkpt lat="37.495623510" lon="-106.811098660">
        <ele>3541.000</ele>
        <time>2017-07-02T15:28:53Z</time>
        <name>WPT.228</name>
      </trkpt>
      <trkpt lat="37.495646810" lon="-106.811137510">
        <ele>3541.000</ele>
        <time>2017-07-02T15:28:58Z</time>
        <name>WPT.229</name>
      </trkpt>
      <trkpt lat="37.495679480" lon="-106.811165840">
        <ele>3539.000</ele>
        <time>2017-07-02T15:29:02Z</time>
        <name>WPT.230</name>
      </trkpt>
      <trkpt lat="37.495706880" lon="-106.811200770">
        <ele>3541.000</ele>
        <time>2017-07-02T15:29:07Z</time>
        <name>WPT.231</name>
      </trkpt>
      <trkpt lat="37.495727650" lon="-106.811244040">
        <ele>3540.000</ele>
        <time>2017-07-02T15:29:14Z</time>
        <name>WPT.232</name>
      </trkpt>
      <trkpt lat="37.495749110" lon="-106.811280950">
        <ele>3539.000</ele>
        <time>2017-07-02T15:29:21Z</time>
        <name>WPT.233</name>
      </trkpt>
      <trkpt lat="37.495774970" lon="-106.811313370">
        <ele>3540.000</ele>
        <time>2017-07-02T15:29:30Z</time>
        <name>WPT.234</name>
      </trkpt>
      <trkpt lat="37.495792960" lon="-106.811358370">
        <ele>3539.000</ele>
        <time>2017-07-02T15:29:39Z</time>
        <name>WPT.235</name>
      </trkpt>
      <trkpt lat="37.495820860" lon="-106.811390540">
        <ele>3538.000</ele>
        <time>2017-07-02T15:29:46Z</time>
        <name>WPT.236</name>
      </trkpt>
      <trkpt lat="37.495846350" lon="-106.811430990">
        <ele>3532.000</ele>
        <time>2017-07-02T15:30:22Z</time>
        <name>WPT.237</name>
      </trkpt>
      <trkpt lat="37.495865390" lon="-106.811475550">
        <ele>3532.000</ele>
        <time>2017-07-02T15:30:25Z</time>
        <name>WPT.238</name>
      </trkpt>
      <trkpt lat="37.495891650" lon="-106.811522620">
        <ele>3533.000</ele>
        <time>2017-07-02T15:30:29Z</time>
        <name>WPT.239</name>
      </trkpt>
      <trkpt lat="37.495923070" lon="-106.811549490">
        <ele>3531.000</ele>
        <time>2017-07-02T15:30:33Z</time>
        <name>WPT.240</name>
      </trkpt>
      <trkpt lat="37.495959470" lon="-106.811559620">
        <ele>3527.000</ele>
        <time>2017-07-02T15:31:07Z</time>
        <name>WPT.241</name>
      </trkpt>
      <trkpt lat="37.496000940" lon="-106.811582280">
        <ele>3526.000</ele>
        <time>2017-07-02T15:31:18Z</time>
        <name>WPT.242</name>
      </trkpt>
      <trkpt lat="37.496030220" lon="-106.811608860">
        <ele>3526.000</ele>
        <time>2017-07-02T15:31:20Z</time>
        <name>WPT.243</name>
      </trkpt>
      <trkpt lat="37.496056670" lon="-106.811645010">
        <ele>3527.000</ele>
        <time>2017-07-02T15:31:24Z</time>
        <name>WPT.244</name>
      </trkpt>
      <trkpt lat="37.496078930" lon="-106.811694180">
        <ele>3527.000</ele>
        <time>2017-07-02T15:31:28Z</time>
        <name>WPT.245</name>
      </trkpt>
      <trkpt lat="37.496101520" lon="-106.811739410">
        <ele>3527.000</ele>
        <time>2017-07-02T15:31:31Z</time>
        <name>WPT.246</name>
      </trkpt>
      <trkpt lat="37.496117900" lon="-106.811780430">
        <ele>3527.000</ele>
        <time>2017-07-02T15:31:36Z</time>
        <name>WPT.247</name>
      </trkpt>
      <trkpt lat="37.496147330" lon="-106.811818560">
        <ele>3525.000</ele>
        <time>2017-07-02T15:31:39Z</time>
        <name>WPT.248</name>
      </trkpt>
      <trkpt lat="37.496174340" lon="-106.811852370">
        <ele>3526.000</ele>
        <time>2017-07-02T15:31:43Z</time>
        <name>WPT.249</name>
      </trkpt>
      <trkpt lat="37.496195950" lon="-106.811890160">
        <ele>3525.000</ele>
        <time>2017-07-02T15:32:06Z</time>
        <name>WPT.250</name>
      </trkpt>
      <trkpt lat="37.496230590" lon="-106.811914130">
        <ele>3523.000</ele>
        <time>2017-07-02T15:32:09Z</time>
        <name>WPT.251</name>
      </trkpt>
      <trkpt lat="37.496235150" lon="-106.811961470">
        <ele>3526.000</ele>
        <time>2017-07-02T15:32:17Z</time>
        <name>WPT.252</name>
      </trkpt>
      <trkpt lat="37.496245900" lon="-106.812005270">
        <ele>3526.000</ele>
        <time>2017-07-02T15:32:21Z</time>
        <name>WPT.253</name>
      </trkpt>
      <trkpt lat="37.496245910" lon="-106.812058520">
        <ele>3526.000</ele>
        <time>2017-07-02T15:32:40Z</time>
        <name>WPT.254</name>
      </trkpt>
      <trkpt lat="37.496262490" lon="-106.812107420">
        <ele>3524.000</ele>
        <time>2017-07-02T15:32:44Z</time>
        <name>WPT.255</name>
      </trkpt>
      <trkpt lat="37.496268620" lon="-106.812152760">
        <ele>3524.000</ele>
        <time>2017-07-02T15:32:47Z</time>
        <name>WPT.256</name>
      </trkpt>
      <trkpt lat="37.496262070" lon="-106.812197710">
        <ele>3527.000</ele>
        <time>2017-07-02T15:32:52Z</time>
        <name>WPT.257</name>
      </trkpt>
      <trkpt lat="37.496263870" lon="-106.812243320">
        <ele>3525.000</ele>
        <time>2017-07-02T15:32:55Z</time>
        <name>WPT.258</name>
      </trkpt>
      <trkpt lat="37.496293790" lon="-106.812269820">
        <ele>3524.000</ele>
        <time>2017-07-02T15:33:11Z</time>
        <name>WPT.259</name>
      </trkpt>
      <trkpt lat="37.496275290" lon="-106.812320830">
        <ele>3525.000</ele>
        <time>2017-07-02T15:33:16Z</time>
        <name>WPT.260</name>
      </trkpt>
      <trkpt lat="37.496267610" lon="-106.812365970">
        <ele>3525.000</ele>
        <time>2017-07-02T15:33:23Z</time>
        <name>WPT.261</name>
      </trkpt>
      <trkpt lat="37.496263140" lon="-106.812420130">
        <ele>3525.000</ele>
        <time>2017-07-02T15:33:26Z</time>
        <name>WPT.262</name>
      </trkpt>
      <trkpt lat="37.496242350" lon="-106.812467370">
        <ele>3526.000</ele>
        <time>2017-07-02T15:33:32Z</time>
        <name>WPT.263</name>
      </trkpt>
      <trkpt lat="37.496240940" lon="-106.812515890">
        <ele>3525.000</ele>
        <time>2017-07-02T15:33:35Z</time>
        <name>WPT.264</name>
      </trkpt>
      <trkpt lat="37.496237930" lon="-106.812569460">
        <ele>3527.000</ele>
        <time>2017-07-02T15:33:38Z</time>
        <name>WPT.265</name>
      </trkpt>
      <trkpt lat="37.496231180" lon="-106.812623730">
        <ele>3528.000</ele>
        <time>2017-07-02T15:33:42Z</time>
        <name>WPT.266</name>
      </trkpt>
      <trkpt lat="37.496241220" lon="-106.812668520">
        <ele>3527.000</ele>
        <time>2017-07-02T15:33:46Z</time>
        <name>WPT.267</name>
      </trkpt>
      <trkpt lat="37.496264410" lon="-106.812705580">
        <ele>3525.000</ele>
        <time>2017-07-02T15:33:50Z</time>
        <name>WPT.268</name>
      </trkpt>
      <trkpt lat="37.496283220" lon="-106.812758210">
        <ele>3525.000</ele>
        <time>2017-07-02T15:33:54Z</time>
        <name>WPT.269</name>
      </trkpt>
      <trkpt lat="37.496318440" lon="-106.812783580">
        <ele>3523.000</ele>
        <time>2017-07-02T15:34:00Z</time>
        <name>WPT.270</name>
      </trkpt>
      <trkpt lat="37.496319140" lon="-106.812834190">
        <ele>3524.000</ele>
        <time>2017-07-02T15:34:10Z</time>
        <name>WPT.271</name>
      </trkpt>
      <trkpt lat="37.496317130" lon="-106.812891550">
        <ele>3523.000</ele>
        <time>2017-07-02T15:34:16Z</time>
        <name>WPT.272</name>
      </trkpt>
      <trkpt lat="37.496305380" lon="-106.812946030">
        <ele>3523.000</ele>
        <time>2017-07-02T15:34:21Z</time>
        <name>WPT.273</name>
      </trkpt>
      <trkpt lat="37.496297490" lon="-106.812994430">
        <ele>3523.000</ele>
        <time>2017-07-02T15:34:26Z</time>
        <name>WPT.274</name>
      </trkpt>
      <trkpt lat="37.496300130" lon="-106.813048130">
        <ele>3524.000</ele>
        <time>2017-07-02T15:34:33Z</time>
        <name>WPT.275</name>
      </trkpt>
      <trkpt lat="37.496310050" lon="-106.813103090">
        <ele>3520.000</ele>
        <time>2017-07-02T15:34:38Z</time>
        <name>WPT.276</name>
      </trkpt>
      <trkpt lat="37.496325320" lon="-106.813145970">
        <ele>3522.000</ele>
        <time>2017-07-02T15:34:42Z</time>
        <name>WPT.277</name>
      </trkpt>
      <trkpt lat="37.496343370" lon="-106.813190420">
        <ele>3535.000</ele>
        <time>2017-07-02T15:34:48Z</time>
        <name>WPT.278</name>
      </trkpt>
      <trkpt lat="37.496318480" lon="-106.813224410">
        <ele>3524.000</ele>
        <time>2017-07-02T15:35:00Z</time>
        <name>WPT.279</name>
      </trkpt>
      <trkpt lat="37.496289860" lon="-106.813270460">
        <ele>3524.000</ele>
        <time>2017-07-02T15:35:04Z</time>
        <name>WPT.280</name>
      </trkpt>
      <trkpt lat="37.496269100" lon="-106.813309200">
        <ele>3519.000</ele>
        <time>2017-07-02T15:35:09Z</time>
        <name>WPT.281</name>
      </trkpt>
      <trkpt lat="37.496237440" lon="-106.813339060">
        <ele>3519.000</ele>
        <time>2017-07-02T15:35:13Z</time>
        <name>WPT.282</name>
      </trkpt>
      <trkpt lat="37.496218140" lon="-106.813381370">
        <ele>3519.000</ele>
        <time>2017-07-02T15:35:16Z</time>
        <name>WPT.283</name>
      </trkpt>
      <trkpt lat="37.496203490" lon="-106.813431000">
        <ele>3514.000</ele>
        <time>2017-07-02T15:35:56Z</time>
        <name>WPT.284</name>
      </trkpt>
      <trkpt lat="37.496198830" lon="-106.813481160">
        <ele>3514.000</ele>
        <time>2017-07-02T15:36:00Z</time>
        <name>WPT.285</name>
      </trkpt>
      <trkpt lat="37.496188880" lon="-106.813527110">
        <ele>3514.000</ele>
        <time>2017-07-02T15:36:03Z</time>
        <name>WPT.286</name>
      </trkpt>
      <trkpt lat="37.496196390" lon="-106.813572200">
        <ele>3515.000</ele>
        <time>2017-07-02T15:36:11Z</time>
        <name>WPT.287</name>
      </trkpt>
      <trkpt lat="37.496200990" lon="-106.813624630">
        <ele>3513.000</ele>
        <time>2017-07-02T15:36:25Z</time>
        <name>WPT.288</name>
      </trkpt>
      <trkpt lat="37.496233700" lon="-106.813660200">
        <ele>3512.000</ele>
        <time>2017-07-02T15:36:28Z</time>
        <name>WPT.289</name>
      </trkpt>
      <trkpt lat="37.496269130" lon="-106.813692030">
        <ele>3509.000</ele>
        <time>2017-07-02T15:36:30Z</time>
        <name>WPT.290</name>
      </trkpt>
      <trkpt lat="37.496303660" lon="-106.813720110">
        <ele>3510.000</ele>
        <time>2017-07-02T15:36:34Z</time>
        <name>WPT.291</name>
      </trkpt>
      <trkpt lat="37.496342860" lon="-106.813742420">
        <ele>3508.000</ele>
        <time>2017-07-02T15:36:38Z</time>
        <name>WPT.292</name>
      </trkpt>
      <trkpt lat="37.496386060" lon="-106.813755120">
        <ele>3506.000</ele>
        <time>2017-07-02T15:36:43Z</time>
        <name>WPT.293</name>
      </trkpt>
      <trkpt lat="37.496417070" lon="-106.813778530">
        <ele>3506.000</ele>
        <time>2017-07-02T15:36:48Z</time>
        <name>WPT.294</name>
      </trkpt>
      <trkpt lat="37.496444310" lon="-106.813810660">
        <ele>3356.000</ele>
        <time>2017-07-02T15:36:57Z</time>
        <name>WPT.295</name>
      </trkpt>
      <trkpt lat="37.496474290" lon="-106.813841420">
        <ele>3415.000</ele>
        <time>2017-07-02T15:37:00Z</time>
        <name>WPT.296</name>
      </trkpt>
      <trkpt lat="37.496515640" lon="-106.813868690">
        <ele>3464.000</ele>
        <time>2017-07-02T15:37:04Z</time>
        <name>WPT.297</name>
      </trkpt>
      <trkpt lat="37.496560190" lon="-106.813878630">
        <ele>3475.000</ele>
        <time>2017-07-02T15:37:07Z</time>
        <name>WPT.298</name>
      </trkpt>
      <trkpt lat="37.496603590" lon="-106.813892840">
        <ele>3483.000</ele>
        <time>2017-07-02T15:37:18Z</time>
        <name>WPT.299</name>
      </trkpt>
      <trkpt lat="37.496640740" lon="-106.813909220">
        <ele>3495.000</ele>
        <time>2017-07-02T15:37:24Z</time>
        <name>WPT.300</name>
      </trkpt>
      <trkpt lat="37.496668880" lon="-106.813943410">
        <ele>3495.000</ele>
        <time>2017-07-02T15:37:28Z</time>
        <name>WPT.301</name>
      </trkpt>
      <trkpt lat="37.496704620" lon="-106.813976240">
        <ele>3437.000</ele>
        <time>2017-07-02T15:37:46Z</time>
        <name>WPT.302</name>
      </trkpt>
      <trkpt lat="37.496746010" lon="-106.813991920">
        <ele>3462.000</ele>
        <time>2017-07-02T15:37:50Z</time>
        <name>WPT.303</name>
      </trkpt>
      <trkpt lat="37.496776870" lon="-106.814026100">
        <ele>3477.000</ele>
        <time>2017-07-02T15:37:55Z</time>
        <name>WPT.304</name>
      </trkpt>
      <trkpt lat="37.496794800" lon="-106.814068050">
        <ele>3483.000</ele>
        <time>2017-07-02T15:38:00Z</time>
        <name>WPT.305</name>
      </trkpt>
      <trkpt lat="37.496832310" lon="-106.814099960">
        <ele>3477.000</ele>
        <time>2017-07-02T15:38:06Z</time>
        <name>WPT.306</name>
      </trkpt>
      <trkpt lat="37.496867770" lon="-106.814086100">
        <ele>3395.000</ele>
        <time>2017-07-02T15:38:28Z</time>
        <name>WPT.307</name>
      </trkpt>
      <trkpt lat="37.496908810" lon="-106.814092860">
        <ele>2944.000</ele>
        <time>2017-07-02T15:38:31Z</time>
        <name>WPT.308</name>
      </trkpt>
      <trkpt lat="37.496958100" lon="-106.814101530">
        <ele>3127.000</ele>
        <time>2017-07-02T15:38:33Z</time>
        <name>WPT.309</name>
      </trkpt>
      <trkpt lat="37.497003390" lon="-106.814110510">
        <ele>3318.000</ele>
        <time>2017-07-02T15:38:36Z</time>
        <name>WPT.310</name>
      </trkpt>
      <trkpt lat="37.497033450" lon="-106.814137420">
        <ele>3398.000</ele>
        <time>2017-07-02T15:38:40Z</time>
        <name>WPT.311</name>
      </trkpt>
      <trkpt lat="37.497060710" lon="-106.814182210">
        <ele>3420.000</ele>
        <time>2017-07-02T15:38:44Z</time>
        <name>WPT.312</name>
      </trkpt>
      <trkpt lat="37.497102830" lon="-106.814207070">
        <ele>3441.000</ele>
        <time>2017-07-02T15:38:48Z</time>
        <name>WPT.313</name>
      </trkpt>
      <trkpt lat="37.497138380" lon="-106.814230660">
        <ele>3220.000</ele>
        <time>2017-07-02T15:38:53Z</time>
        <name>WPT.314</name>
      </trkpt>
      <trkpt lat="37.497179950" lon="-106.814258810">
        <ele>3365.000</ele>
        <time>2017-07-02T15:38:57Z</time>
        <name>WPT.315</name>
      </trkpt>
      <trkpt lat="37.497219180" lon="-106.814279520">
        <ele>3416.000</ele>
        <time>2017-07-02T15:39:00Z</time>
        <name>WPT.316</name>
      </trkpt>
      <trkpt lat="37.497253010" lon="-106.814304790">
        <ele>3413.000</ele>
        <time>2017-07-02T15:39:05Z</time>
        <name>WPT.317</name>
      </trkpt>
      <trkpt lat="37.497288880" lon="-106.814330810">
        <ele>3438.000</ele>
        <time>2017-07-02T15:39:09Z</time>
        <name>WPT.318</name>
      </trkpt>
      <trkpt lat="37.497324960" lon="-106.814357510">
        <ele>3449.000</ele>
        <time>2017-07-02T15:39:12Z</time>
        <name>WPT.319</name>
      </trkpt>
      <trkpt lat="37.497350500" lon="-106.814390190">
        <ele>3455.000</ele>
        <time>2017-07-02T15:39:15Z</time>
        <name>WPT.320</name>
      </trkpt>
      <trkpt lat="37.497387280" lon="-106.814427280">
        <ele>3446.000</ele>
        <time>2017-07-02T15:39:18Z</time>
        <name>WPT.321</name>
      </trkpt>
      <trkpt lat="37.497418520" lon="-106.814458290">
        <ele>3453.000</ele>
        <time>2017-07-02T15:39:22Z</time>
        <name>WPT.322</name>
      </trkpt>
      <trkpt lat="37.497446830" lon="-106.814493310">
        <ele>3452.000</ele>
        <time>2017-07-02T15:39:25Z</time>
        <name>WPT.323</name>
      </trkpt>
      <trkpt lat="37.497472710" lon="-106.814524820">
        <ele>3456.000</ele>
        <time>2017-07-02T15:39:29Z</time>
        <name>WPT.324</name>
      </trkpt>
      <trkpt lat="37.497503690" lon="-106.814574830">
        <ele>3144.000</ele>
        <time>2017-07-02T15:39:34Z</time>
        <name>WPT.325</name>
      </trkpt>
      <trkpt lat="37.497525620" lon="-106.814612990">
        <ele>3268.000</ele>
        <time>2017-07-02T15:39:37Z</time>
        <name>WPT.326</name>
      </trkpt>
      <trkpt lat="37.497548640" lon="-106.814651970">
        <ele>3387.000</ele>
        <time>2017-07-02T15:39:42Z</time>
        <name>WPT.327</name>
      </trkpt>
      <trkpt lat="37.497578930" lon="-106.814696550">
        <ele>3455.000</ele>
        <time>2017-07-02T15:39:46Z</time>
        <name>WPT.328</name>
      </trkpt>
      <trkpt lat="37.497597050" lon="-106.814738570">
        <ele>3466.000</ele>
        <time>2017-07-02T15:39:49Z</time>
        <name>WPT.329</name>
      </trkpt>
      <trkpt lat="37.497611820" lon="-106.814781530">
        <ele>3469.000</ele>
        <time>2017-07-02T15:39:52Z</time>
        <name>WPT.330</name>
      </trkpt>
      <trkpt lat="37.497624440" lon="-106.814832670">
        <ele>3468.000</ele>
        <time>2017-07-02T15:39:56Z</time>
        <name>WPT.331</name>
      </trkpt>
      <trkpt lat="37.497623130" lon="-106.814885590">
        <ele>3468.000</ele>
        <time>2017-07-02T15:40:00Z</time>
        <name>WPT.332</name>
      </trkpt>
      <trkpt lat="37.497627350" lon="-106.814933940">
        <ele>3467.000</ele>
        <time>2017-07-02T15:40:04Z</time>
        <name>WPT.333</name>
      </trkpt>
      <trkpt lat="37.497641610" lon="-106.814982540">
        <ele>3468.000</ele>
        <time>2017-07-02T15:40:07Z</time>
        <name>WPT.334</name>
      </trkpt>
      <trkpt lat="37.497635070" lon="-106.815027830">
        <ele>3469.000</ele>
        <time>2017-07-02T15:40:12Z</time>
        <name>WPT.335</name>
      </trkpt>
      <trkpt lat="37.497647560" lon="-106.815070680">
        <ele>3470.000</ele>
        <time>2017-07-02T15:40:16Z</time>
        <name>WPT.336</name>
      </trkpt>
      <trkpt lat="37.497655400" lon="-106.815120730">
        <ele>3472.000</ele>
        <time>2017-07-02T15:40:22Z</time>
        <name>WPT.337</name>
      </trkpt>
      <trkpt lat="37.497656420" lon="-106.815171620">
        <ele>2798.000</ele>
        <time>2017-07-02T15:40:25Z</time>
        <name>WPT.338</name>
      </trkpt>
      <trkpt lat="37.497669020" lon="-106.815231050">
        <ele>3160.000</ele>
        <time>2017-07-02T15:40:28Z</time>
        <name>WPT.339</name>
      </trkpt>
      <trkpt lat="37.497676300" lon="-106.815284550">
        <ele>3336.000</ele>
        <time>2017-07-02T15:40:31Z</time>
        <name>WPT.340</name>
      </trkpt>
      <trkpt lat="37.497665350" lon="-106.815336310">
        <ele>3407.000</ele>
        <time>2017-07-02T15:40:36Z</time>
        <name>WPT.341</name>
      </trkpt>
      <trkpt lat="37.497636400" lon="-106.815365170">
        <ele>3394.000</ele>
        <time>2017-07-02T15:40:47Z</time>
        <name>WPT.342</name>
      </trkpt>
      <trkpt lat="37.497616230" lon="-106.815412400">
        <ele>3475.000</ele>
        <time>2017-07-02T15:40:57Z</time>
        <name>WPT.343</name>
      </trkpt>
      <trkpt lat="37.497611840" lon="-106.815480770">
        <ele>3474.000</ele>
        <time>2017-07-02T15:40:59Z</time>
        <name>WPT.344</name>
      </trkpt>
      <trkpt lat="37.497609460" lon="-106.815528310">
        <ele>3475.000</ele>
        <time>2017-07-02T15:41:01Z</time>
        <name>WPT.345</name>
      </trkpt>
      <trkpt lat="37.497612980" lon="-106.815579980">
        <ele>2979.000</ele>
        <time>2017-07-02T15:41:05Z</time>
        <name>WPT.346</name>
      </trkpt>
      <trkpt lat="37.497598290" lon="-106.815621290">
        <ele>3218.000</ele>
        <time>2017-07-02T15:41:08Z</time>
        <name>WPT.347</name>
      </trkpt>
      <trkpt lat="37.497572400" lon="-106.815679310">
        <ele>3335.000</ele>
        <time>2017-07-02T15:41:11Z</time>
        <name>WPT.348</name>
      </trkpt>
      <trkpt lat="37.497552560" lon="-106.815723120">
        <ele>3423.000</ele>
        <time>2017-07-02T15:41:14Z</time>
        <name>WPT.349</name>
      </trkpt>
      <trkpt lat="37.497531140" lon="-106.815767240">
        <ele>3467.000</ele>
        <time>2017-07-02T15:41:17Z</time>
        <name>WPT.350</name>
      </trkpt>
      <trkpt lat="37.497508380" lon="-106.815825480">
        <ele>3476.000</ele>
        <time>2017-07-02T15:41:20Z</time>
        <name>WPT.351</name>
      </trkpt>
      <trkpt lat="37.497488910" lon="-106.815879920">
        <ele>3477.000</ele>
        <time>2017-07-02T15:41:25Z</time>
        <name>WPT.352</name>
      </trkpt>
      <trkpt lat="37.497466410" lon="-106.815931290">
        <ele>3478.000</ele>
        <time>2017-07-02T15:41:29Z</time>
        <name>WPT.353</name>
      </trkpt>
      <trkpt lat="37.497446890" lon="-106.815969660">
        <ele>3479.000</ele>
        <time>2017-07-02T15:41:32Z</time>
        <name>WPT.354</name>
      </trkpt>
      <trkpt lat="37.497426430" lon="-106.816008380">
        <ele>3477.000</ele>
        <time>2017-07-02T15:41:36Z</time>
        <name>WPT.355</name>
      </trkpt>
      <trkpt lat="37.497406920" lon="-106.816054620">
        <ele>3478.000</ele>
        <time>2017-07-02T15:41:41Z</time>
        <name>WPT.356</name>
      </trkpt>
      <trkpt lat="37.497380510" lon="-106.816103710">
        <ele>3478.000</ele>
        <time>2017-07-02T15:41:45Z</time>
        <name>WPT.357</name>
      </trkpt>
      <trkpt lat="37.497354460" lon="-106.816138720">
        <ele>3479.000</ele>
        <time>2017-07-02T15:41:48Z</time>
        <name>WPT.358</name>
      </trkpt>
      <trkpt lat="37.497318170" lon="-106.816153720">
        <ele>3479.000</ele>
        <time>2017-07-02T15:41:52Z</time>
        <name>WPT.359</name>
      </trkpt>
      <trkpt lat="37.497281990" lon="-106.816153690">
        <ele>3478.000</ele>
        <time>2017-07-02T15:41:55Z</time>
        <name>WPT.360</name>
      </trkpt>
      <trkpt lat="37.497244690" lon="-106.816148100">
        <ele>3479.000</ele>
        <time>2017-07-02T15:41:59Z</time>
        <name>WPT.361</name>
      </trkpt>
      <trkpt lat="37.497207900" lon="-106.816159580">
        <ele>3479.000</ele>
        <time>2017-07-02T15:42:03Z</time>
        <name>WPT.362</name>
      </trkpt>
      <trkpt lat="37.497176090" lon="-106.816192590">
        <ele>3321.000</ele>
        <time>2017-07-02T15:42:09Z</time>
        <name>WPT.363</name>
      </trkpt>
      <trkpt lat="37.497149430" lon="-106.816228580">
        <ele>3410.000</ele>
        <time>2017-07-02T15:42:12Z</time>
        <name>WPT.364</name>
      </trkpt>
      <trkpt lat="37.497115140" lon="-106.816275190">
        <ele>3421.000</ele>
        <time>2017-07-02T15:42:16Z</time>
        <name>WPT.365</name>
      </trkpt>
      <trkpt lat="37.497081860" lon="-106.816305890">
        <ele>3436.000</ele>
        <time>2017-07-02T15:42:19Z</time>
        <name>WPT.366</name>
      </trkpt>
      <trkpt lat="37.497048000" lon="-106.816337080">
        <ele>3502.000</ele>
        <time>2017-07-02T15:42:22Z</time>
        <name>WPT.367</name>
      </trkpt>
      <trkpt lat="37.497026120" lon="-106.816375030">
        <ele>3368.000</ele>
        <time>2017-07-02T15:42:56Z</time>
        <name>WPT.368</name>
      </trkpt>
      <trkpt lat="37.497010660" lon="-106.816418630">
        <ele>3431.000</ele>
        <time>2017-07-02T15:43:06Z</time>
        <name>WPT.369</name>
      </trkpt>
      <trkpt lat="37.496988690" lon="-106.816454520">
        <ele>3079.000</ele>
        <time>2017-07-02T15:43:11Z</time>
        <name>WPT.370</name>
      </trkpt>
      <trkpt lat="37.496974380" lon="-106.816497320">
        <ele>3483.000</ele>
        <time>2017-07-02T15:43:25Z</time>
        <name>WPT.371</name>
      </trkpt>
      <trkpt lat="37.496973500" lon="-106.816547850">
        <ele>3481.000</ele>
        <time>2017-07-02T15:43:29Z</time>
        <name>WPT.372</name>
      </trkpt>
      <trkpt lat="37.496978800" lon="-106.816594870">
        <ele>3481.000</ele>
        <time>2017-07-02T15:43:33Z</time>
        <name>WPT.373</name>
      </trkpt>
      <trkpt lat="37.496961900" lon="-106.816637220">
        <ele>3490.000</ele>
        <time>2017-07-02T15:43:37Z</time>
        <name>WPT.374</name>
      </trkpt>
      <trkpt lat="37.496919930" lon="-106.816666860">
        <ele>3366.000</ele>
        <time>2017-07-02T15:43:44Z</time>
        <name>WPT.375</name>
      </trkpt>
      <trkpt lat="37.496884530" lon="-106.816702670">
        <ele>3428.000</ele>
        <time>2017-07-02T15:43:49Z</time>
        <name>WPT.376</name>
      </trkpt>
      <trkpt lat="37.496859180" lon="-106.816741840">
        <ele>3441.000</ele>
        <time>2017-07-02T15:43:53Z</time>
        <name>WPT.377</name>
      </trkpt>
      <trkpt lat="37.496835590" lon="-106.816780240">
        <ele>3280.000</ele>
        <time>2017-07-02T15:43:59Z</time>
        <name>WPT.378</name>
      </trkpt>
      <trkpt lat="37.496824620" lon="-106.816854040">
        <ele>3157.000</ele>
        <time>2017-07-02T15:44:04Z</time>
        <name>WPT.379</name>
      </trkpt>
      <trkpt lat="37.496814010" lon="-106.816900930">
        <ele>3313.000</ele>
        <time>2017-07-02T15:44:07Z</time>
        <name>WPT.380</name>
      </trkpt>
      <trkpt lat="37.496799510" lon="-106.816954650">
        <ele>3384.000</ele>
        <time>2017-07-02T15:44:12Z</time>
        <name>WPT.381</name>
      </trkpt>
      <trkpt lat="37.496805620" lon="-106.817012170">
        <ele>3401.000</ele>
        <time>2017-07-02T15:44:15Z</time>
        <name>WPT.382</name>
      </trkpt>
      <trkpt lat="37.496792630" lon="-106.817054440">
        <ele>3423.000</ele>
        <time>2017-07-02T15:44:19Z</time>
        <name>WPT.383</name>
      </trkpt>
      <trkpt lat="37.496778100" lon="-106.817109620">
        <ele>3437.000</ele>
        <time>2017-07-02T15:44:23Z</time>
        <name>WPT.384</name>
      </trkpt>
      <trkpt lat="37.496790570" lon="-106.817166930">
        <ele>3447.000</ele>
        <time>2017-07-02T15:44:27Z</time>
        <name>WPT.385</name>
      </trkpt>
      <trkpt lat="37.496765550" lon="-106.817208700">
        <ele>3455.000</ele>
        <time>2017-07-02T15:44:31Z</time>
        <name>WPT.386</name>
      </trkpt>
      <trkpt lat="37.496740890" lon="-106.817252920">
        <ele>3458.000</ele>
        <time>2017-07-02T15:44:35Z</time>
        <name>WPT.387</name>
      </trkpt>
      <trkpt lat="37.496718350" lon="-106.817292290">
        <ele>3463.000</ele>
        <time>2017-07-02T15:44:38Z</time>
        <name>WPT.388</name>
      </trkpt>
      <trkpt lat="37.496694970" lon="-106.817328660">
        <ele>3464.000</ele>
        <time>2017-07-02T15:44:41Z</time>
        <name>WPT.389</name>
      </trkpt>
      <trkpt lat="37.496662890" lon="-106.817353460">
        <ele>3467.000</ele>
        <time>2017-07-02T15:44:46Z</time>
        <name>WPT.390</name>
      </trkpt>
      <trkpt lat="37.496623660" lon="-106.817373920">
        <ele>3467.000</ele>
        <time>2017-07-02T15:44:50Z</time>
        <name>WPT.391</name>
      </trkpt>
      <trkpt lat="37.496587150" lon="-106.817400010">
        <ele>3469.000</ele>
        <time>2017-07-02T15:44:53Z</time>
        <name>WPT.392</name>
      </trkpt>
      <trkpt lat="37.496557030" lon="-106.817432790">
        <ele>3471.000</ele>
        <time>2017-07-02T15:44:58Z</time>
        <name>WPT.393</name>
      </trkpt>
      <trkpt lat="37.496533460" lon="-106.817473970">
        <ele>3471.000</ele>
        <time>2017-07-02T15:45:01Z</time>
        <name>WPT.394</name>
      </trkpt>
      <trkpt lat="37.496525460" lon="-106.817531300">
        <ele>3475.000</ele>
        <time>2017-07-02T15:46:35Z</time>
        <name>WPT.395</name>
      </trkpt>
      <trkpt lat="37.496498720" lon="-106.817565510">
        <ele>3475.000</ele>
        <time>2017-07-02T15:46:40Z</time>
        <name>WPT.396</name>
      </trkpt>
      <trkpt lat="37.496460460" lon="-106.817573570">
        <ele>3475.000</ele>
        <time>2017-07-02T15:46:47Z</time>
        <name>WPT.397</name>
      </trkpt>
      <trkpt lat="37.496429790" lon="-106.817603170">
        <ele>3473.000</ele>
        <time>2017-07-02T15:46:51Z</time>
        <name>WPT.398</name>
      </trkpt>
      <trkpt lat="37.496395810" lon="-106.817635630">
        <ele>3471.000</ele>
        <time>2017-07-02T15:46:55Z</time>
        <name>WPT.399</name>
      </trkpt>
      <trkpt lat="37.496365290" lon="-106.817668010">
        <ele>3472.000</ele>
        <time>2017-07-02T15:46:59Z</time>
        <name>WPT.400</name>
      </trkpt>
      <trkpt lat="37.496333150" lon="-106.817709760">
        <ele>3472.000</ele>
        <time>2017-07-02T15:47:02Z</time>
        <name>WPT.401</name>
      </trkpt>
      <trkpt lat="37.496305830" lon="-106.817752960">
        <ele>3471.000</ele>
        <time>2017-07-02T15:47:06Z</time>
        <name>WPT.402</name>
      </trkpt>
      <trkpt lat="37.496276360" lon="-106.817794510">
        <ele>3471.000</ele>
        <time>2017-07-02T15:47:09Z</time>
        <name>WPT.403</name>
      </trkpt>
      <trkpt lat="37.496247930" lon="-106.817849110">
        <ele>3470.000</ele>
        <time>2017-07-02T15:47:12Z</time>
        <name>WPT.404</name>
      </trkpt>
      <trkpt lat="37.496228400" lon="-106.817903140">
        <ele>3471.000</ele>
        <time>2017-07-02T15:47:15Z</time>
        <name>WPT.405</name>
      </trkpt>
      <trkpt lat="37.496226130" lon="-106.817959230">
        <ele>3472.000</ele>
        <time>2017-07-02T15:47:21Z</time>
        <name>WPT.406</name>
      </trkpt>
      <trkpt lat="37.496225730" lon="-106.818010830">
        <ele>3469.000</ele>
        <time>2017-07-02T15:47:25Z</time>
        <name>WPT.407</name>
      </trkpt>
      <trkpt lat="37.496208000" lon="-106.818054020">
        <ele>3501.000</ele>
        <time>2017-07-02T15:47:31Z</time>
        <name>WPT.408</name>
      </trkpt>
      <trkpt lat="37.496190310" lon="-106.818101420">
        <ele>3501.000</ele>
        <time>2017-07-02T15:47:36Z</time>
        <name>WPT.409</name>
      </trkpt>
      <trkpt lat="37.496180870" lon="-106.818145970">
        <ele>3482.000</ele>
        <time>2017-07-02T15:47:40Z</time>
        <name>WPT.410</name>
      </trkpt>
      <trkpt lat="37.496181760" lon="-106.818195890">
        <ele>3481.000</ele>
        <time>2017-07-02T15:47:45Z</time>
        <name>WPT.411</name>
      </trkpt>
      <trkpt lat="37.496140640" lon="-106.818207640">
        <ele>3501.000</ele>
        <time>2017-07-02T15:47:49Z</time>
        <name>WPT.412</name>
      </trkpt>
      <trkpt lat="37.496095840" lon="-106.818200790">
        <ele>3493.000</ele>
        <time>2017-07-02T15:47:54Z</time>
        <name>WPT.413</name>
      </trkpt>
      <trkpt lat="37.496057770" lon="-106.818211730">
        <ele>3478.000</ele>
        <time>2017-07-02T15:47:59Z</time>
        <name>WPT.414</name>
      </trkpt>
      <trkpt lat="37.496025610" lon="-106.818240100">
        <ele>3473.000</ele>
        <time>2017-07-02T15:48:02Z</time>
        <name>WPT.415</name>
      </trkpt>
      <trkpt lat="37.496017320" lon="-106.818294560">
        <ele>3473.000</ele>
        <time>2017-07-02T15:48:07Z</time>
        <name>WPT.416</name>
      </trkpt>
      <trkpt lat="37.496008640" lon="-106.818338490">
        <ele>3475.000</ele>
        <time>2017-07-02T15:48:12Z</time>
        <name>WPT.417</name>
      </trkpt>
      <trkpt lat="37.495966600" lon="-106.818334270">
        <ele>3469.000</ele>
        <time>2017-07-02T15:48:19Z</time>
        <name>WPT.418</name>
      </trkpt>
      <trkpt lat="37.495927130" lon="-106.818318890">
        <ele>3467.000</ele>
        <time>2017-07-02T15:48:23Z</time>
        <name>WPT.419</name>
      </trkpt>
      <trkpt lat="37.495889870" lon="-106.818319140">
        <ele>3466.000</ele>
        <time>2017-07-02T15:48:28Z</time>
        <name>WPT.420</name>
      </trkpt>
      <trkpt lat="37.495849680" lon="-106.818310990">
        <ele>3462.000</ele>
        <time>2017-07-02T15:48:33Z</time>
        <name>WPT.421</name>
      </trkpt>
      <trkpt lat="37.495801840" lon="-106.818311120">
        <ele>3461.000</ele>
        <time>2017-07-02T15:48:36Z</time>
        <name>WPT.422</name>
      </trkpt>
      <trkpt lat="37.495758310" lon="-106.818319550">
        <ele>3465.000</ele>
        <time>2017-07-02T15:49:22Z</time>
        <name>WPT.423</name>
      </trkpt>
      <trkpt lat="37.495718500" lon="-106.818323750">
        <ele>3466.000</ele>
        <time>2017-07-02T15:49:26Z</time>
        <name>WPT.424</name>
      </trkpt>
      <trkpt lat="37.495675700" lon="-106.818323540">
        <ele>3459.000</ele>
        <time>2017-07-02T15:51:09Z</time>
        <name>WPT.425</name>
      </trkpt>
      <trkpt lat="37.495632780" lon="-106.818335030">
        <ele>3459.000</ele>
        <time>2017-07-02T15:51:14Z</time>
        <name>WPT.426</name>
      </trkpt>
      <trkpt lat="37.495595120" lon="-106.818335260">
        <ele>3458.000</ele>
        <time>2017-07-02T15:51:17Z</time>
        <name>WPT.427</name>
      </trkpt>
      <trkpt lat="37.495552150" lon="-106.818334000">
        <ele>3457.000</ele>
        <time>2017-07-02T15:51:20Z</time>
        <name>WPT.428</name>
      </trkpt>
      <trkpt lat="37.495517770" lon="-106.818349610">
        <ele>3455.000</ele>
        <time>2017-07-02T15:51:24Z</time>
        <name>WPT.429</name>
      </trkpt>
      <trkpt lat="37.495477820" lon="-106.818349320">
        <ele>3457.000</ele>
        <time>2017-07-02T15:51:29Z</time>
        <name>WPT.430</name>
      </trkpt>
      <trkpt lat="37.495440700" lon="-106.818324820">
        <ele>3456.000</ele>
        <time>2017-07-02T15:51:36Z</time>
        <name>WPT.431</name>
      </trkpt>
      <trkpt lat="37.495396640" lon="-106.818318300">
        <ele>3474.000</ele>
        <time>2017-07-02T15:51:39Z</time>
        <name>WPT.432</name>
      </trkpt>
      <trkpt lat="37.495359120" lon="-106.818328130">
        <ele>3466.000</ele>
        <time>2017-07-02T15:51:43Z</time>
        <name>WPT.433</name>
      </trkpt>
      <trkpt lat="37.495324180" lon="-106.818348720">
        <ele>3464.000</ele>
        <time>2017-07-02T15:51:47Z</time>
        <name>WPT.434</name>
      </trkpt>
      <trkpt lat="37.495288590" lon="-106.818369610">
        <ele>3464.000</ele>
        <time>2017-07-02T15:51:51Z</time>
        <name>WPT.435</name>
      </trkpt>
      <trkpt lat="37.495248030" lon="-106.818375280">
        <ele>3459.000</ele>
        <time>2017-07-02T15:51:56Z</time>
        <name>WPT.436</name>
      </trkpt>
      <trkpt lat="37.495215300" lon="-106.818397880">
        <ele>3490.000</ele>
        <time>2017-07-02T15:52:00Z</time>
        <name>WPT.437</name>
      </trkpt>
      <trkpt lat="37.495171220" lon="-106.818418830">
        <ele>3471.000</ele>
        <time>2017-07-02T15:52:05Z</time>
        <name>WPT.438</name>
      </trkpt>
      <trkpt lat="37.495132000" lon="-106.818433150">
        <ele>3464.000</ele>
        <time>2017-07-02T15:52:10Z</time>
        <name>WPT.439</name>
      </trkpt>
      <trkpt lat="37.495093460" lon="-106.818455270">
        <ele>3461.000</ele>
        <time>2017-07-02T15:52:14Z</time>
        <name>WPT.440</name>
      </trkpt>
      <trkpt lat="37.495069590" lon="-106.818495480">
        <ele>3457.000</ele>
        <time>2017-07-02T15:52:18Z</time>
        <name>WPT.441</name>
      </trkpt>
      <trkpt lat="37.495040450" lon="-106.818529490">
        <ele>3488.000</ele>
        <time>2017-07-02T15:52:21Z</time>
        <name>WPT.442</name>
      </trkpt>
      <trkpt lat="37.495018330" lon="-106.818566170">
        <ele>3473.000</ele>
        <time>2017-07-02T15:52:25Z</time>
        <name>WPT.443</name>
      </trkpt>
      <trkpt lat="37.494981630" lon="-106.818601150">
        <ele>3462.000</ele>
        <time>2017-07-02T15:52:30Z</time>
        <name>WPT.444</name>
      </trkpt>
      <trkpt lat="37.494960830" lon="-106.818651980">
        <ele>3462.000</ele>
        <time>2017-07-02T15:52:41Z</time>
        <name>WPT.445</name>
      </trkpt>
      <trkpt lat="37.494937920" lon="-106.818689320">
        <ele>3494.000</ele>
        <time>2017-07-02T15:52:46Z</time>
        <name>WPT.446</name>
      </trkpt>
      <trkpt lat="37.494911280" lon="-106.818720570">
        <ele>3486.000</ele>
        <time>2017-07-02T15:52:50Z</time>
        <name>WPT.447</name>
      </trkpt>
      <trkpt lat="37.494885130" lon="-106.818761900">
        <ele>3471.000</ele>
        <time>2017-07-02T15:52:54Z</time>
        <name>WPT.448</name>
      </trkpt>
      <trkpt lat="37.494851620" lon="-106.818792440">
        <ele>3466.000</ele>
        <time>2017-07-02T15:52:58Z</time>
        <name>WPT.449</name>
      </trkpt>
      <trkpt lat="37.494827930" lon="-106.818832180">
        <ele>3463.000</ele>
        <time>2017-07-02T15:53:03Z</time>
        <name>WPT.450</name>
      </trkpt>
      <trkpt lat="37.494831190" lon="-106.818892890">
        <ele>3459.000</ele>
        <time>2017-07-02T15:53:07Z</time>
        <name>WPT.451</name>
      </trkpt>
      <trkpt lat="37.494847860" lon="-106.818945600">
        <ele>3480.000</ele>
        <time>2017-07-02T15:53:11Z</time>
        <name>WPT.452</name>
      </trkpt>
      <trkpt lat="37.494862340" lon="-106.818995050">
        <ele>3480.000</ele>
        <time>2017-07-02T15:53:14Z</time>
        <name>WPT.453</name>
      </trkpt>
      <trkpt lat="37.494869450" lon="-106.819039510">
        <ele>3464.000</ele>
        <time>2017-07-02T15:53:19Z</time>
        <name>WPT.454</name>
      </trkpt>
      <trkpt lat="37.494885990" lon="-106.819083370">
        <ele>3457.000</ele>
        <time>2017-07-02T15:53:24Z</time>
        <name>WPT.455</name>
      </trkpt>
      <trkpt lat="37.494891940" lon="-106.819129880">
        <ele>3471.000</ele>
        <time>2017-07-02T15:53:28Z</time>
        <name>WPT.456</name>
      </trkpt>
      <trkpt lat="37.494906290" lon="-106.819181090">
        <ele>3463.000</ele>
        <time>2017-07-02T15:53:32Z</time>
        <name>WPT.457</name>
      </trkpt>
      <trkpt lat="37.494917440" lon="-106.819227140">
        <ele>3472.000</ele>
        <time>2017-07-02T15:53:35Z</time>
        <name>WPT.458</name>
      </trkpt>
      <trkpt lat="37.494938640" lon="-106.819270860">
        <ele>3465.000</ele>
        <time>2017-07-02T15:53:38Z</time>
        <name>WPT.459</name>
      </trkpt>
      <trkpt lat="37.494970210" lon="-106.819317480">
        <ele>3471.000</ele>
        <time>2017-07-02T15:53:42Z</time>
        <name>WPT.460</name>
      </trkpt>
      <trkpt lat="37.494990460" lon="-106.819367640">
        <ele>3458.000</ele>
        <time>2017-07-02T15:53:47Z</time>
        <name>WPT.461</name>
      </trkpt>
      <trkpt lat="37.495005460" lon="-106.819415940">
        <ele>3452.000</ele>
        <time>2017-07-02T15:53:55Z</time>
        <name>WPT.462</name>
      </trkpt>
      <trkpt lat="37.495031610" lon="-106.819460070">
        <ele>3471.000</ele>
        <time>2017-07-02T15:53:58Z</time>
        <name>WPT.463</name>
      </trkpt>
      <trkpt lat="37.495068600" lon="-106.819500890">
        <ele>3457.000</ele>
        <time>2017-07-02T15:54:01Z</time>
        <name>WPT.464</name>
      </trkpt>
      <trkpt lat="37.495114010" lon="-106.819528870">
        <ele>3455.000</ele>
        <time>2017-07-02T15:54:04Z</time>
        <name>WPT.465</name>
      </trkpt>
      <trkpt lat="37.495150980" lon="-106.819560480">
        <ele>3452.000</ele>
        <time>2017-07-02T15:54:08Z</time>
        <name>WPT.466</name>
      </trkpt>
      <trkpt lat="37.495189440" lon="-106.819558330">
        <ele>3447.000</ele>
        <time>2017-07-02T15:54:21Z</time>
        <name>WPT.467</name>
      </trkpt>
      <trkpt lat="37.495219310" lon="-106.819589520">
        <ele>3449.000</ele>
        <time>2017-07-02T15:55:18Z</time>
        <name>WPT.468</name>
      </trkpt>
      <trkpt lat="37.495261630" lon="-106.819595380">
        <ele>3447.000</ele>
        <time>2017-07-02T15:58:26Z</time>
        <name>WPT.469</name>
      </trkpt>
      <trkpt lat="37.495285830" lon="-106.819630850">
        <ele>3446.000</ele>
        <time>2017-07-02T15:58:31Z</time>
        <name>WPT.470</name>
      </trkpt>
      <trkpt lat="37.495326410" lon="-106.819646930">
        <ele>3445.000</ele>
        <time>2017-07-02T15:58:37Z</time>
        <name>WPT.471</name>
      </trkpt>
      <trkpt lat="37.495367410" lon="-106.819683280">
        <ele>3442.000</ele>
        <time>2017-07-02T15:58:41Z</time>
        <name>WPT.472</name>
      </trkpt>
      <trkpt lat="37.495412560" lon="-106.819698360">
        <ele>3442.000</ele>
        <time>2017-07-02T15:58:48Z</time>
        <name>WPT.473</name>
      </trkpt>
      <trkpt lat="37.495444500" lon="-106.819722750">
        <ele>3442.000</ele>
        <time>2017-07-02T15:58:52Z</time>
        <name>WPT.474</name>
      </trkpt>
      <trkpt lat="37.495486610" lon="-106.819742850">
        <ele>3440.000</ele>
        <time>2017-07-02T15:58:55Z</time>
        <name>WPT.475</name>
      </trkpt>
      <trkpt lat="37.495518670" lon="-106.819765590">
        <ele>3438.000</ele>
        <time>2017-07-02T15:58:58Z</time>
        <name>WPT.476</name>
      </trkpt>
      <trkpt lat="37.495547240" lon="-106.819794710">
        <ele>3439.000</ele>
        <time>2017-07-02T15:59:03Z</time>
        <name>WPT.477</name>
      </trkpt>
      <trkpt lat="37.495555860" lon="-106.819839990">
        <ele>3440.000</ele>
        <time>2017-07-02T15:59:18Z</time>
        <name>WPT.478</name>
      </trkpt>
      <trkpt lat="37.495581620" lon="-106.819890180">
        <ele>3439.000</ele>
        <time>2017-07-02T15:59:24Z</time>
        <name>WPT.479</name>
      </trkpt>
      <trkpt lat="37.495606650" lon="-106.819932140">
        <ele>3439.000</ele>
        <time>2017-07-02T15:59:28Z</time>
        <name>WPT.480</name>
      </trkpt>
      <trkpt lat="37.495632520" lon="-106.819978790">
        <ele>3440.000</ele>
        <time>2017-07-02T15:59:32Z</time>
        <name>WPT.481</name>
      </trkpt>
      <trkpt lat="37.495652460" lon="-106.820025790">
        <ele>3439.000</ele>
        <time>2017-07-02T15:59:36Z</time>
        <name>WPT.482</name>
      </trkpt>
      <trkpt lat="37.495669220" lon="-106.820077820">
        <ele>3440.000</ele>
        <time>2017-07-02T15:59:39Z</time>
        <name>WPT.483</name>
      </trkpt>
      <trkpt lat="37.495678270" lon="-106.820136180">
        <ele>3442.000</ele>
        <time>2017-07-02T15:59:44Z</time>
        <name>WPT.484</name>
      </trkpt>
      <trkpt lat="37.495671860" lon="-106.820191060">
        <ele>3444.000</ele>
        <time>2017-07-02T15:59:47Z</time>
        <name>WPT.485</name>
      </trkpt>
      <trkpt lat="37.495674210" lon="-106.820242980">
        <ele>3445.000</ele>
        <time>2017-07-02T15:59:50Z</time>
        <name>WPT.486</name>
      </trkpt>
      <trkpt lat="37.495694520" lon="-106.820282140">
        <ele>3445.000</ele>
        <time>2017-07-02T15:59:53Z</time>
        <name>WPT.487</name>
      </trkpt>
      <trkpt lat="37.495719310" lon="-106.820322290">
        <ele>3445.000</ele>
        <time>2017-07-02T15:59:56Z</time>
        <name>WPT.488</name>
      </trkpt>
      <trkpt lat="37.495708200" lon="-106.820372020">
        <ele>3447.000</ele>
        <time>2017-07-02T16:00:03Z</time>
        <name>WPT.489</name>
      </trkpt>
      <trkpt lat="37.495690740" lon="-106.820415900">
        <ele>3446.000</ele>
        <time>2017-07-02T16:00:07Z</time>
        <name>WPT.490</name>
      </trkpt>
      <trkpt lat="37.495681110" lon="-106.820475290">
        <ele>3446.000</ele>
        <time>2017-07-02T16:00:11Z</time>
        <name>WPT.491</name>
      </trkpt>
      <trkpt lat="37.495674360" lon="-106.820529800">
        <ele>3446.000</ele>
        <time>2017-07-02T16:00:15Z</time>
        <name>WPT.492</name>
      </trkpt>
      <trkpt lat="37.495669600" lon="-106.820579360">
        <ele>3446.000</ele>
        <time>2017-07-02T16:00:18Z</time>
        <name>WPT.493</name>
      </trkpt>
      <trkpt lat="37.495654370" lon="-106.820635790">
        <ele>3446.000</ele>
        <time>2017-07-02T16:00:22Z</time>
        <name>WPT.494</name>
      </trkpt>
      <trkpt lat="37.495641350" lon="-106.820679500">
        <ele>3458.000</ele>
        <time>2017-07-02T16:00:25Z</time>
        <name>WPT.495</name>
      </trkpt>
      <trkpt lat="37.495616130" lon="-106.820722640">
        <ele>3465.000</ele>
        <time>2017-07-02T16:00:29Z</time>
        <name>WPT.496</name>
      </trkpt>
      <trkpt lat="37.495597330" lon="-106.820773500">
        <ele>3461.000</ele>
        <time>2017-07-02T16:00:33Z</time>
        <name>WPT.497</name>
      </trkpt>
      <trkpt lat="37.495575310" lon="-106.820818870">
        <ele>3456.000</ele>
        <time>2017-07-02T16:00:36Z</time>
        <name>WPT.498</name>
      </trkpt>
      <trkpt lat="37.495552860" lon="-106.820862280">
        <ele>3461.000</ele>
        <time>2017-07-02T16:00:39Z</time>
        <name>WPT.499</name>
      </trkpt>
      <trkpt lat="37.495550740" lon="-106.820921120">
        <ele>3451.000</ele>
        <time>2017-07-02T16:00:42Z</time>
        <name>WPT.500</name>
      </trkpt>
      <trkpt lat="37.495558110" lon="-106.820972480">
        <ele>3449.000</ele>
        <time>2017-07-02T16:00:46Z</time>
        <name>WPT.501</name>
      </trkpt>
      <trkpt lat="37.495561660" lon="-106.821023570">
        <ele>3450.000</ele>
        <time>2017-07-02T16:00:49Z</time>
        <name>WPT.502</name>
      </trkpt>
      <trkpt lat="37.495552190" lon="-106.821080130">
        <ele>3449.000</ele>
        <time>2017-07-02T16:00:52Z</time>
        <name>WPT.503</name>
      </trkpt>
      <trkpt lat="37.495520940" lon="-106.821124170">
        <ele>3450.000</ele>
        <time>2017-07-02T16:00:57Z</time>
        <name>WPT.504</name>
      </trkpt>
      <trkpt lat="37.495516250" lon="-106.821179520">
        <ele>3450.000</ele>
        <time>2017-07-02T16:01:00Z</time>
        <name>WPT.505</name>
      </trkpt>
      <trkpt lat="37.495514430" lon="-106.821239060">
        <ele>3468.000</ele>
        <time>2017-07-02T16:01:04Z</time>
        <name>WPT.506</name>
      </trkpt>
      <trkpt lat="37.495493740" lon="-106.821291260">
        <ele>3458.000</ele>
        <time>2017-07-02T16:01:08Z</time>
        <name>WPT.507</name>
      </trkpt>
      <trkpt lat="37.495494920" lon="-106.821339850">
        <ele>3456.000</ele>
        <time>2017-07-02T16:01:10Z</time>
        <name>WPT.508</name>
      </trkpt>
      <trkpt lat="37.495483220" lon="-106.821388780">
        <ele>3467.000</ele>
        <time>2017-07-02T16:01:15Z</time>
        <name>WPT.509</name>
      </trkpt>
      <trkpt lat="37.495464250" lon="-106.821431780">
        <ele>3461.000</ele>
        <time>2017-07-02T16:01:19Z</time>
        <name>WPT.510</name>
      </trkpt>
      <trkpt lat="37.495449240" lon="-106.821488410">
        <ele>3458.000</ele>
        <time>2017-07-02T16:01:22Z</time>
        <name>WPT.511</name>
      </trkpt>
      <trkpt lat="37.495447970" lon="-106.821541530">
        <ele>3458.000</ele>
        <time>2017-07-02T16:01:27Z</time>
        <name>WPT.512</name>
      </trkpt>
      <trkpt lat="37.495430770" lon="-106.821601400">
        <ele>3481.000</ele>
        <time>2017-07-02T16:01:31Z</time>
        <name>WPT.513</name>
      </trkpt>
      <trkpt lat="37.495428730" lon="-106.821653530">
        <ele>3465.000</ele>
        <time>2017-07-02T16:01:34Z</time>
        <name>WPT.514</name>
      </trkpt>
      <trkpt lat="37.495406960" lon="-106.821703860">
        <ele>3460.000</ele>
        <time>2017-07-02T16:01:39Z</time>
        <name>WPT.515</name>
      </trkpt>
      <trkpt lat="37.495399480" lon="-106.821756850">
        <ele>3460.000</ele>
        <time>2017-07-02T16:01:42Z</time>
        <name>WPT.516</name>
      </trkpt>
      <trkpt lat="37.495372200" lon="-106.821797940">
        <ele>3460.000</ele>
        <time>2017-07-02T16:01:45Z</time>
        <name>WPT.517</name>
      </trkpt>
      <trkpt lat="37.495352080" lon="-106.821835500">
        <ele>3461.000</ele>
        <time>2017-07-02T16:01:48Z</time>
        <name>WPT.518</name>
      </trkpt>
      <trkpt lat="37.495322590" lon="-106.821880420">
        <ele>3460.000</ele>
        <time>2017-07-02T16:01:52Z</time>
        <name>WPT.519</name>
      </trkpt>
      <trkpt lat="37.495296980" lon="-106.821916280">
        <ele>3461.000</ele>
        <time>2017-07-02T16:01:55Z</time>
        <name>WPT.520</name>
      </trkpt>
      <trkpt lat="37.495280010" lon="-106.821969630">
        <ele>3461.000</ele>
        <time>2017-07-02T16:01:59Z</time>
        <name>WPT.521</name>
      </trkpt>
      <trkpt lat="37.495270120" lon="-106.822023760">
        <ele>3460.000</ele>
        <time>2017-07-02T16:02:03Z</time>
        <name>WPT.522</name>
      </trkpt>
      <trkpt lat="37.495252500" lon="-106.822064680">
        <ele>3461.000</ele>
        <time>2017-07-02T16:02:06Z</time>
        <name>WPT.523</name>
      </trkpt>
      <trkpt lat="37.495237550" lon="-106.822106470">
        <ele>3460.000</ele>
        <time>2017-07-02T16:02:09Z</time>
        <name>WPT.524</name>
      </trkpt>
      <trkpt lat="37.495225110" lon="-106.822149570">
        <ele>3460.000</ele>
        <time>2017-07-02T16:02:13Z</time>
        <name>WPT.525</name>
      </trkpt>
      <trkpt lat="37.495211330" lon="-106.822192560">
        <ele>3458.000</ele>
        <time>2017-07-02T16:02:21Z</time>
        <name>WPT.526</name>
      </trkpt>
      <trkpt lat="37.495218610" lon="-106.822239260">
        <ele>3458.000</ele>
        <time>2017-07-02T16:02:37Z</time>
        <name>WPT.527</name>
      </trkpt>
      <trkpt lat="37.495223980" lon="-106.822286690">
        <ele>3457.000</ele>
        <time>2017-07-02T16:04:29Z</time>
        <name>WPT.528</name>
      </trkpt>
      <trkpt lat="37.495203380" lon="-106.822336530">
        <ele>3457.000</ele>
        <time>2017-07-02T16:04:32Z</time>
        <name>WPT.529</name>
      </trkpt>
      <trkpt lat="37.495189990" lon="-106.822379610">
        <ele>3457.000</ele>
        <time>2017-07-02T16:04:37Z</time>
        <name>WPT.530</name>
      </trkpt>
      <trkpt lat="37.495190570" lon="-106.822437450">
        <ele>3456.000</ele>
        <time>2017-07-02T16:04:40Z</time>
        <name>WPT.531</name>
      </trkpt>
      <trkpt lat="37.495194930" lon="-106.822485430">
        <ele>3456.000</ele>
        <time>2017-07-02T16:04:44Z</time>
        <name>WPT.532</name>
      </trkpt>
      <trkpt lat="37.495207180" lon="-106.822540710">
        <ele>3456.000</ele>
        <time>2017-07-02T16:04:47Z</time>
        <name>WPT.533</name>
      </trkpt>
      <trkpt lat="37.495220680" lon="-106.822589800">
        <ele>3457.000</ele>
        <time>2017-07-02T16:04:50Z</time>
        <name>WPT.534</name>
      </trkpt>
      <trkpt lat="37.495228350" lon="-106.822639350">
        <ele>3456.000</ele>
        <time>2017-07-02T16:04:55Z</time>
        <name>WPT.535</name>
      </trkpt>
      <trkpt lat="37.495245860" lon="-106.822695790">
        <ele>3457.000</ele>
        <time>2017-07-02T16:04:58Z</time>
        <name>WPT.536</name>
      </trkpt>
      <trkpt lat="37.495280590" lon="-106.822737400">
        <ele>3456.000</ele>
        <time>2017-07-02T16:05:03Z</time>
        <name>WPT.537</name>
      </trkpt>
      <trkpt lat="37.495301760" lon="-106.822784670">
        <ele>3456.000</ele>
        <time>2017-07-02T16:05:06Z</time>
        <name>WPT.538</name>
      </trkpt>
      <trkpt lat="37.495328050" lon="-106.822840820">
        <ele>3457.000</ele>
        <time>2017-07-02T16:05:09Z</time>
        <name>WPT.539</name>
      </trkpt>
      <trkpt lat="37.495332660" lon="-106.822896870">
        <ele>3459.000</ele>
        <time>2017-07-02T16:05:15Z</time>
        <name>WPT.540</name>
      </trkpt>
      <trkpt lat="37.495347320" lon="-106.822942780">
        <ele>3459.000</ele>
        <time>2017-07-02T16:05:17Z</time>
        <name>WPT.541</name>
      </trkpt>
      <trkpt lat="37.495391620" lon="-106.822983270">
        <ele>3455.000</ele>
        <time>2017-07-02T16:05:19Z</time>
        <name>WPT.542</name>
      </trkpt>
      <trkpt lat="37.495420120" lon="-106.823016910">
        <ele>3454.000</ele>
        <time>2017-07-02T16:05:22Z</time>
        <name>WPT.543</name>
      </trkpt>
      <trkpt lat="37.495453050" lon="-106.823077310">
        <ele>3454.000</ele>
        <time>2017-07-02T16:05:25Z</time>
        <name>WPT.544</name>
      </trkpt>
      <trkpt lat="37.495468600" lon="-106.823119390">
        <ele>3457.000</ele>
        <time>2017-07-02T16:05:29Z</time>
        <name>WPT.545</name>
      </trkpt>
      <trkpt lat="37.495462100" lon="-106.823173250">
        <ele>3470.000</ele>
        <time>2017-07-02T16:05:34Z</time>
        <name>WPT.546</name>
      </trkpt>
      <trkpt lat="37.495487800" lon="-106.823217250">
        <ele>3466.000</ele>
        <time>2017-07-02T16:05:37Z</time>
        <name>WPT.547</name>
      </trkpt>
      <trkpt lat="37.495508440" lon="-106.823267780">
        <ele>3463.000</ele>
        <time>2017-07-02T16:05:43Z</time>
        <name>WPT.548</name>
      </trkpt>
      <trkpt lat="37.495521360" lon="-106.823311810">
        <ele>3466.000</ele>
        <time>2017-07-02T16:05:49Z</time>
        <name>WPT.549</name>
      </trkpt>
      <trkpt lat="37.495553990" lon="-106.823360810">
        <ele>3460.000</ele>
        <time>2017-07-02T16:05:53Z</time>
        <name>WPT.550</name>
      </trkpt>
      <trkpt lat="37.495586540" lon="-106.823398460">
        <ele>3459.000</ele>
        <time>2017-07-02T16:05:56Z</time>
        <name>WPT.551</name>
      </trkpt>
      <trkpt lat="37.495615960" lon="-106.823440430">
        <ele>3461.000</ele>
        <time>2017-07-02T16:06:10Z</time>
        <name>WPT.552</name>
      </trkpt>
      <trkpt lat="37.495643110" lon="-106.823484390">
        <ele>3459.000</ele>
        <time>2017-07-02T16:06:13Z</time>
        <name>WPT.553</name>
      </trkpt>
      <trkpt lat="37.495679980" lon="-106.823525050">
        <ele>3457.000</ele>
        <time>2017-07-02T16:06:17Z</time>
        <name>WPT.554</name>
      </trkpt>
      <trkpt lat="37.495707660" lon="-106.823557290">
        <ele>3455.000</ele>
        <time>2017-07-02T16:06:20Z</time>
        <name>WPT.555</name>
      </trkpt>
      <trkpt lat="37.495707020" lon="-106.823608290">
        <ele>3457.000</ele>
        <time>2017-07-02T16:06:25Z</time>
        <name>WPT.556</name>
      </trkpt>
      <trkpt lat="37.495681350" lon="-106.823654560">
        <ele>3458.000</ele>
        <time>2017-07-02T16:06:31Z</time>
        <name>WPT.557</name>
      </trkpt>
      <trkpt lat="37.495699330" lon="-106.823697690">
        <ele>3457.000</ele>
        <time>2017-07-02T16:06:36Z</time>
        <name>WPT.558</name>
      </trkpt>
      <trkpt lat="37.495741840" lon="-106.823709430">
        <ele>3455.000</ele>
        <time>2017-07-02T16:06:40Z</time>
        <name>WPT.559</name>
      </trkpt>
      <trkpt lat="37.495779140" lon="-106.823724500">
        <ele>3454.000</ele>
        <time>2017-07-02T16:06:44Z</time>
        <name>WPT.560</name>
      </trkpt>
      <trkpt lat="37.495804340" lon="-106.823761920">
        <ele>3454.000</ele>
        <time>2017-07-02T16:06:49Z</time>
        <name>WPT.561</name>
      </trkpt>
      <trkpt lat="37.495813940" lon="-106.823816420">
        <ele>3452.000</ele>
        <time>2017-07-02T16:06:54Z</time>
        <name>WPT.562</name>
      </trkpt>
      <trkpt lat="37.495827020" lon="-106.823867550">
        <ele>3453.000</ele>
        <time>2017-07-02T16:06:59Z</time>
        <name>WPT.563</name>
      </trkpt>
      <trkpt lat="37.495834560" lon="-106.823916730">
        <ele>3451.000</ele>
        <time>2017-07-02T16:07:04Z</time>
        <name>WPT.564</name>
      </trkpt>
      <trkpt lat="37.495844230" lon="-106.823968980">
        <ele>3451.000</ele>
        <time>2017-07-02T16:07:08Z</time>
        <name>WPT.565</name>
      </trkpt>
      <trkpt lat="37.495847000" lon="-106.824030130">
        <ele>3449.000</ele>
        <time>2017-07-02T16:07:13Z</time>
        <name>WPT.566</name>
      </trkpt>
      <trkpt lat="37.495847140" lon="-106.824078950">
        <ele>3450.000</ele>
        <time>2017-07-02T16:07:17Z</time>
        <name>WPT.567</name>
      </trkpt>
      <trkpt lat="37.495849310" lon="-106.824125210">
        <ele>3450.000</ele>
        <time>2017-07-02T16:07:20Z</time>
        <name>WPT.568</name>
      </trkpt>
      <trkpt lat="37.495860630" lon="-106.824175260">
        <ele>3449.000</ele>
        <time>2017-07-02T16:07:24Z</time>
        <name>WPT.569</name>
      </trkpt>
      <trkpt lat="37.495862480" lon="-106.824225050">
        <ele>3451.000</ele>
        <time>2017-07-02T16:07:29Z</time>
        <name>WPT.570</name>
      </trkpt>
      <trkpt lat="37.495879140" lon="-106.824274260">
        <ele>3449.000</ele>
        <time>2017-07-02T16:07:34Z</time>
        <name>WPT.571</name>
      </trkpt>
      <trkpt lat="37.495892550" lon="-106.824328630">
        <ele>3448.000</ele>
        <time>2017-07-02T16:07:38Z</time>
        <name>WPT.572</name>
      </trkpt>
      <trkpt lat="37.495900350" lon="-106.824377230">
        <ele>3448.000</ele>
        <time>2017-07-02T16:07:41Z</time>
        <name>WPT.573</name>
      </trkpt>
      <trkpt lat="37.495910130" lon="-106.824421340">
        <ele>3449.000</ele>
        <time>2017-07-02T16:07:47Z</time>
        <name>WPT.574</name>
      </trkpt>
      <trkpt lat="37.495902790" lon="-106.824468890">
        <ele>3452.000</ele>
        <time>2017-07-02T16:07:56Z</time>
        <name>WPT.575</name>
      </trkpt>
      <trkpt lat="37.495899180" lon="-106.824522680">
        <ele>3451.000</ele>
        <time>2017-07-02T16:08:01Z</time>
        <name>WPT.576</name>
      </trkpt>
      <trkpt lat="37.495895040" lon="-106.824571090">
        <ele>3450.000</ele>
        <time>2017-07-02T16:08:05Z</time>
        <name>WPT.577</name>
      </trkpt>
      <trkpt lat="37.495874130" lon="-106.824621790">
        <ele>3452.000</ele>
        <time>2017-07-02T16:08:10Z</time>
        <name>WPT.578</name>
      </trkpt>
      <trkpt lat="37.495849280" lon="-106.824665630">
        <ele>3453.000</ele>
        <time>2017-07-02T16:08:14Z</time>
        <name>WPT.579</name>
      </trkpt>
      <trkpt lat="37.495839190" lon="-106.824713160">
        <ele>3451.000</ele>
        <time>2017-07-02T16:08:18Z</time>
        <name>WPT.580</name>
      </trkpt>
      <trkpt lat="37.495816370" lon="-106.824762180">
        <ele>3450.000</ele>
        <time>2017-07-02T16:08:22Z</time>
        <name>WPT.581</name>
      </trkpt>
      <trkpt lat="37.495804100" lon="-106.824817380">
        <ele>3448.000</ele>
        <time>2017-07-02T16:08:27Z</time>
        <name>WPT.582</name>
      </trkpt>
      <trkpt lat="37.495807070" lon="-106.824873950">
        <ele>3446.000</ele>
        <time>2017-07-02T16:08:33Z</time>
        <name>WPT.583</name>
      </trkpt>
      <trkpt lat="37.495818320" lon="-106.824922980">
        <ele>3446.000</ele>
        <time>2017-07-02T16:08:45Z</time>
        <name>WPT.584</name>
      </trkpt>
      <trkpt lat="37.495833330" lon="-106.824969610">
        <ele>3445.000</ele>
        <time>2017-07-02T16:08:48Z</time>
        <name>WPT.585</name>
      </trkpt>
      <trkpt lat="37.495839250" lon="-106.825016310">
        <ele>3442.000</ele>
        <time>2017-07-02T16:08:51Z</time>
        <name>WPT.586</name>
      </trkpt>
      <trkpt lat="37.495839310" lon="-106.825065020">
        <ele>3442.000</ele>
        <time>2017-07-02T16:08:55Z</time>
        <name>WPT.587</name>
      </trkpt>
      <trkpt lat="37.495833560" lon="-106.825122470">
        <ele>3442.000</ele>
        <time>2017-07-02T16:08:59Z</time>
        <name>WPT.588</name>
      </trkpt>
      <trkpt lat="37.495829740" lon="-106.825171720">
        <ele>3443.000</ele>
        <time>2017-07-02T16:09:03Z</time>
        <name>WPT.589</name>
      </trkpt>
      <trkpt lat="37.495828220" lon="-106.825222100">
        <ele>3446.000</ele>
        <time>2017-07-02T16:09:07Z</time>
        <name>WPT.590</name>
      </trkpt>
      <trkpt lat="37.495822420" lon="-106.825267190">
        <ele>3445.000</ele>
        <time>2017-07-02T16:09:10Z</time>
        <name>WPT.591</name>
      </trkpt>
      <trkpt lat="37.495823270" lon="-106.825318930">
        <ele>3462.000</ele>
        <time>2017-07-02T16:09:14Z</time>
        <name>WPT.592</name>
      </trkpt>
      <trkpt lat="37.495823430" lon="-106.825372730">
        <ele>3448.000</ele>
        <time>2017-07-02T16:09:20Z</time>
        <name>WPT.593</name>
      </trkpt>
      <trkpt lat="37.495844690" lon="-106.825426330">
        <ele>3445.000</ele>
        <time>2017-07-02T16:09:24Z</time>
        <name>WPT.594</name>
      </trkpt>
      <trkpt lat="37.495844420" lon="-106.825473110">
        <ele>3445.000</ele>
        <time>2017-07-02T16:09:28Z</time>
        <name>WPT.595</name>
      </trkpt>
      <trkpt lat="37.495837040" lon="-106.825525480">
        <ele>3443.000</ele>
        <time>2017-07-02T16:09:32Z</time>
        <name>WPT.596</name>
      </trkpt>
      <trkpt lat="37.495815280" lon="-106.825571620">
        <ele>3443.000</ele>
        <time>2017-07-02T16:09:37Z</time>
        <name>WPT.597</name>
      </trkpt>
      <trkpt lat="37.495809700" lon="-106.825627850">
        <ele>3443.000</ele>
        <time>2017-07-02T16:09:40Z</time>
        <name>WPT.598</name>
      </trkpt>
      <trkpt lat="37.495806410" lon="-106.825681120">
        <ele>3444.000</ele>
        <time>2017-07-02T16:09:44Z</time>
        <name>WPT.599</name>
      </trkpt>
      <trkpt lat="37.495809310" lon="-106.825730880">
        <ele>3445.000</ele>
        <time>2017-07-02T16:09:47Z</time>
        <name>WPT.600</name>
      </trkpt>
      <trkpt lat="37.495790910" lon="-106.825784560">
        <ele>3445.000</ele>
        <time>2017-07-02T16:09:52Z</time>
        <name>WPT.601</name>
      </trkpt>
      <trkpt lat="37.495778750" lon="-106.825827970">
        <ele>3445.000</ele>
        <time>2017-07-02T16:09:56Z</time>
        <name>WPT.602</name>
      </trkpt>
      <trkpt lat="37.495783950" lon="-106.825874120">
        <ele>3444.000</ele>
        <time>2017-07-02T16:09:58Z</time>
        <name>WPT.603</name>
      </trkpt>
      <trkpt lat="37.495791110" lon="-106.825921410">
        <ele>3442.000</ele>
        <time>2017-07-02T16:10:01Z</time>
        <name>WPT.604</name>
      </trkpt>
      <trkpt lat="37.495794960" lon="-106.825977130">
        <ele>3444.000</ele>
        <time>2017-07-02T16:10:05Z</time>
        <name>WPT.605</name>
      </trkpt>
      <trkpt lat="37.495781880" lon="-106.826023300">
        <ele>3445.000</ele>
        <time>2017-07-02T16:10:12Z</time>
        <name>WPT.606</name>
      </trkpt>
      <trkpt lat="37.495775250" lon="-106.826079800">
        <ele>3445.000</ele>
        <time>2017-07-02T16:10:17Z</time>
        <name>WPT.607</name>
      </trkpt>
      <trkpt lat="37.495787670" lon="-106.826136280">
        <ele>3443.000</ele>
        <time>2017-07-02T16:10:20Z</time>
        <name>WPT.608</name>
      </trkpt>
      <trkpt lat="37.495807440" lon="-106.826174730">
        <ele>3442.000</ele>
        <time>2017-07-02T16:10:24Z</time>
        <name>WPT.609</name>
      </trkpt>
      <trkpt lat="37.495816390" lon="-106.826221480">
        <ele>3439.000</ele>
        <time>2017-07-02T16:10:27Z</time>
        <name>WPT.610</name>
      </trkpt>
      <trkpt lat="37.495809180" lon="-106.826274930">
        <ele>3438.000</ele>
        <time>2017-07-02T16:10:32Z</time>
        <name>WPT.611</name>
      </trkpt>
      <trkpt lat="37.495809990" lon="-106.826327460">
        <ele>3435.000</ele>
        <time>2017-07-02T16:10:36Z</time>
        <name>WPT.612</name>
      </trkpt>
      <trkpt lat="37.495779500" lon="-106.826364530">
        <ele>3435.000</ele>
        <time>2017-07-02T16:10:54Z</time>
        <name>WPT.613</name>
      </trkpt>
      <trkpt lat="37.495791320" lon="-106.826422530">
        <ele>3432.000</ele>
        <time>2017-07-02T16:10:59Z</time>
        <name>WPT.614</name>
      </trkpt>
      <trkpt lat="37.495803210" lon="-106.826477640">
        <ele>3431.000</ele>
        <time>2017-07-02T16:11:03Z</time>
        <name>WPT.615</name>
      </trkpt>
      <trkpt lat="37.495807400" lon="-106.826526480">
        <ele>3430.000</ele>
        <time>2017-07-02T16:11:08Z</time>
        <name>WPT.616</name>
      </trkpt>
      <trkpt lat="37.495825090" lon="-106.826578590">
        <ele>3428.000</ele>
        <time>2017-07-02T16:11:12Z</time>
        <name>WPT.617</name>
      </trkpt>
      <trkpt lat="37.495839790" lon="-106.826627860">
        <ele>3426.000</ele>
        <time>2017-07-02T16:11:18Z</time>
        <name>WPT.618</name>
      </trkpt>
      <trkpt lat="37.495847500" lon="-106.826678260">
        <ele>3424.000</ele>
        <time>2017-07-02T16:11:23Z</time>
        <name>WPT.619</name>
      </trkpt>
      <trkpt lat="37.495845520" lon="-106.826740370">
        <ele>3424.000</ele>
        <time>2017-07-02T16:11:28Z</time>
        <name>WPT.620</name>
      </trkpt>
      <trkpt lat="37.495830250" lon="-106.826786670">
        <ele>3425.000</ele>
        <time>2017-07-02T16:11:33Z</time>
        <name>WPT.621</name>
      </trkpt>
      <trkpt lat="37.495826500" lon="-106.826839690">
        <ele>3424.000</ele>
        <time>2017-07-02T16:11:38Z</time>
        <name>WPT.622</name>
      </trkpt>
      <trkpt lat="37.495844890" lon="-106.826888000">
        <ele>3420.000</ele>
        <time>2017-07-02T16:11:42Z</time>
        <name>WPT.623</name>
      </trkpt>
      <trkpt lat="37.495859900" lon="-106.826937310">
        <ele>3422.000</ele>
        <time>2017-07-02T16:11:46Z</time>
        <name>WPT.624</name>
      </trkpt>
      <trkpt lat="37.495868410" lon="-106.826997080">
        <ele>3423.000</ele>
        <time>2017-07-02T16:11:50Z</time>
        <name>WPT.625</name>
      </trkpt>
      <trkpt lat="37.495868460" lon="-106.827058770">
        <ele>3424.000</ele>
        <time>2017-07-02T16:11:55Z</time>
        <name>WPT.626</name>
      </trkpt>
      <trkpt lat="37.495888960" lon="-106.827098230">
        <ele>3424.000</ele>
        <time>2017-07-02T16:12:00Z</time>
        <name>WPT.627</name>
      </trkpt>
      <trkpt lat="37.495884080" lon="-106.827143930">
        <ele>3426.000</ele>
        <time>2017-07-02T16:12:03Z</time>
        <name>WPT.628</name>
      </trkpt>
      <trkpt lat="37.495880200" lon="-106.827192810">
        <ele>3426.000</ele>
        <time>2017-07-02T16:12:08Z</time>
        <name>WPT.629</name>
      </trkpt>
      <trkpt lat="37.495849950" lon="-106.827228210">
        <ele>3426.000</ele>
        <time>2017-07-02T16:13:51Z</time>
        <name>WPT.630</name>
      </trkpt>
      <trkpt lat="37.495844790" lon="-106.827276260">
        <ele>3426.000</ele>
        <time>2017-07-02T16:13:56Z</time>
        <name>WPT.631</name>
      </trkpt>
      <trkpt lat="37.495844750" lon="-106.827328500">
        <ele>3426.000</ele>
        <time>2017-07-02T16:14:04Z</time>
        <name>WPT.632</name>
      </trkpt>
      <trkpt lat="37.495825640" lon="-106.827374490">
        <ele>3426.000</ele>
        <time>2017-07-02T16:14:11Z</time>
        <name>WPT.633</name>
      </trkpt>
      <trkpt lat="37.495807210" lon="-106.827425160">
        <ele>3427.000</ele>
        <time>2017-07-02T16:14:16Z</time>
        <name>WPT.634</name>
      </trkpt>
      <trkpt lat="37.495823080" lon="-106.827485510">
        <ele>3422.000</ele>
        <time>2017-07-02T16:14:20Z</time>
        <name>WPT.635</name>
      </trkpt>
      <trkpt lat="37.495838770" lon="-106.827532040">
        <ele>3421.000</ele>
        <time>2017-07-02T16:14:23Z</time>
        <name>WPT.636</name>
      </trkpt>
      <trkpt lat="37.495854950" lon="-106.827572710">
        <ele>3422.000</ele>
        <time>2017-07-02T16:14:26Z</time>
        <name>WPT.637</name>
      </trkpt>
      <trkpt lat="37.495842250" lon="-106.827625020">
        <ele>3422.000</ele>
        <time>2017-07-02T16:14:31Z</time>
        <name>WPT.638</name>
      </trkpt>
      <trkpt lat="37.495833350" lon="-106.827676890">
        <ele>3419.000</ele>
        <time>2017-07-02T16:14:38Z</time>
        <name>WPT.639</name>
      </trkpt>
      <trkpt lat="37.495809720" lon="-106.827718510">
        <ele>3424.000</ele>
        <time>2017-07-02T16:14:49Z</time>
        <name>WPT.640</name>
      </trkpt>
      <trkpt lat="37.495783700" lon="-106.827755320">
        <ele>3424.000</ele>
        <time>2017-07-02T16:14:59Z</time>
        <name>WPT.641</name>
      </trkpt>
      <trkpt lat="37.495770470" lon="-106.827802110">
        <ele>3424.000</ele>
        <time>2017-07-02T16:15:02Z</time>
        <name>WPT.642</name>
      </trkpt>
      <trkpt lat="37.495740250" lon="-106.827848000">
        <ele>3422.000</ele>
        <time>2017-07-02T16:15:06Z</time>
        <name>WPT.643</name>
      </trkpt>
      <trkpt lat="37.495714640" lon="-106.827888930">
        <ele>3420.000</ele>
        <time>2017-07-02T16:15:09Z</time>
        <name>WPT.644</name>
      </trkpt>
      <trkpt lat="37.495704040" lon="-106.827937830">
        <ele>3418.000</ele>
        <time>2017-07-02T16:15:12Z</time>
        <name>WPT.645</name>
      </trkpt>
      <trkpt lat="37.495693770" lon="-106.827986300">
        <ele>3415.000</ele>
        <time>2017-07-02T16:15:15Z</time>
        <name>WPT.646</name>
      </trkpt>
      <trkpt lat="37.495676770" lon="-106.828031890">
        <ele>3414.000</ele>
        <time>2017-07-02T16:15:19Z</time>
        <name>WPT.647</name>
      </trkpt>
      <trkpt lat="37.495641410" lon="-106.828064480">
        <ele>3416.000</ele>
        <time>2017-07-02T16:15:23Z</time>
        <name>WPT.648</name>
      </trkpt>
      <trkpt lat="37.495603780" lon="-106.828076140">
        <ele>3415.000</ele>
        <time>2017-07-02T16:15:28Z</time>
        <name>WPT.649</name>
      </trkpt>
      <trkpt lat="37.495580560" lon="-106.828119830">
        <ele>3414.000</ele>
        <time>2017-07-02T16:15:33Z</time>
        <name>WPT.650</name>
      </trkpt>
      <trkpt lat="37.495556370" lon="-106.828171410">
        <ele>3413.000</ele>
        <time>2017-07-02T16:15:36Z</time>
        <name>WPT.651</name>
      </trkpt>
      <trkpt lat="37.495520500" lon="-106.828195280">
        <ele>3413.000</ele>
        <time>2017-07-02T16:15:59Z</time>
        <name>WPT.652</name>
      </trkpt>
      <trkpt lat="37.495490370" lon="-106.828224550">
        <ele>3412.000</ele>
        <time>2017-07-02T16:16:03Z</time>
        <name>WPT.653</name>
      </trkpt>
      <trkpt lat="37.495469930" lon="-106.828272970">
        <ele>3410.000</ele>
        <time>2017-07-02T16:16:08Z</time>
        <name>WPT.654</name>
      </trkpt>
      <trkpt lat="37.495451810" lon="-106.828313880">
        <ele>3408.000</ele>
        <time>2017-07-02T16:16:12Z</time>
        <name>WPT.655</name>
      </trkpt>
      <trkpt lat="37.495416000" lon="-106.828329130">
        <ele>3409.000</ele>
        <time>2017-07-02T16:16:17Z</time>
        <name>WPT.656</name>
      </trkpt>
      <trkpt lat="37.495377690" lon="-106.828334590">
        <ele>3408.000</ele>
        <time>2017-07-02T16:16:22Z</time>
        <name>WPT.657</name>
      </trkpt>
      <trkpt lat="37.495339820" lon="-106.828343150">
        <ele>3406.000</ele>
        <time>2017-07-02T16:16:27Z</time>
        <name>WPT.658</name>
      </trkpt>
      <trkpt lat="37.495303690" lon="-106.828345630">
        <ele>3407.000</ele>
        <time>2017-07-02T16:16:38Z</time>
        <name>WPT.659</name>
      </trkpt>
      <trkpt lat="37.495266150" lon="-106.828371110">
        <ele>3405.000</ele>
        <time>2017-07-02T16:16:49Z</time>
        <name>WPT.660</name>
      </trkpt>
      <trkpt lat="37.495229830" lon="-106.828394060">
        <ele>3406.000</ele>
        <time>2017-07-02T16:16:53Z</time>
        <name>WPT.661</name>
      </trkpt>
      <trkpt lat="37.495191440" lon="-106.828402170">
        <ele>3409.000</ele>
        <time>2017-07-02T16:17:02Z</time>
        <name>WPT.662</name>
      </trkpt>
      <trkpt lat="37.495153750" lon="-106.828410280">
        <ele>3410.000</ele>
        <time>2017-07-02T16:17:05Z</time>
        <name>WPT.663</name>
      </trkpt>
      <trkpt lat="37.495115210" lon="-106.828410240">
        <ele>3411.000</ele>
        <time>2017-07-02T16:17:09Z</time>
        <name>WPT.664</name>
      </trkpt>
      <trkpt lat="37.495072930" lon="-106.828424150">
        <ele>3412.000</ele>
        <time>2017-07-02T16:17:15Z</time>
        <name>WPT.665</name>
      </trkpt>
      <trkpt lat="37.495063910" lon="-106.828468270">
        <ele>3409.000</ele>
        <time>2017-07-02T16:17:22Z</time>
        <name>WPT.666</name>
      </trkpt>
      <trkpt lat="37.495071070" lon="-106.828514680">
        <ele>3406.000</ele>
        <time>2017-07-02T16:17:27Z</time>
        <name>WPT.667</name>
      </trkpt>
      <trkpt lat="37.495081860" lon="-106.828566870">
        <ele>3404.000</ele>
        <time>2017-07-02T16:17:31Z</time>
        <name>WPT.668</name>
      </trkpt>
      <trkpt lat="37.495101670" lon="-106.828605560">
        <ele>3402.000</ele>
        <time>2017-07-02T16:17:37Z</time>
        <name>WPT.669</name>
      </trkpt>
      <trkpt lat="37.495132640" lon="-106.828637940">
        <ele>3400.000</ele>
        <time>2017-07-02T16:17:39Z</time>
        <name>WPT.670</name>
      </trkpt>
      <trkpt lat="37.495166680" lon="-106.828666230">
        <ele>3397.000</ele>
        <time>2017-07-02T16:17:42Z</time>
        <name>WPT.671</name>
      </trkpt>
      <trkpt lat="37.495192550" lon="-106.828717050">
        <ele>3394.000</ele>
        <time>2017-07-02T16:17:46Z</time>
        <name>WPT.672</name>
      </trkpt>
      <trkpt lat="37.495217900" lon="-106.828774470">
        <ele>3397.000</ele>
        <time>2017-07-02T16:17:49Z</time>
        <name>WPT.673</name>
      </trkpt>
      <trkpt lat="37.495242300" lon="-106.828817160">
        <ele>3399.000</ele>
        <time>2017-07-02T16:17:51Z</time>
        <name>WPT.674</name>
      </trkpt>
      <trkpt lat="37.495263280" lon="-106.828857170">
        <ele>3400.000</ele>
        <time>2017-07-02T16:17:54Z</time>
        <name>WPT.675</name>
      </trkpt>
      <trkpt lat="37.495283080" lon="-106.828912650">
        <ele>3401.000</ele>
        <time>2017-07-02T16:17:57Z</time>
        <name>WPT.676</name>
      </trkpt>
      <trkpt lat="37.495299440" lon="-106.828961980">
        <ele>3428.000</ele>
        <time>2017-07-02T16:18:02Z</time>
        <name>WPT.677</name>
      </trkpt>
      <trkpt lat="37.495335060" lon="-106.828971540">
        <ele>3413.000</ele>
        <time>2017-07-02T16:18:09Z</time>
        <name>WPT.678</name>
      </trkpt>
      <trkpt lat="37.495355260" lon="-106.829013970">
        <ele>3403.000</ele>
        <time>2017-07-02T16:18:16Z</time>
        <name>WPT.679</name>
      </trkpt>
      <trkpt lat="37.495341570" lon="-106.829065880">
        <ele>3399.000</ele>
        <time>2017-07-02T16:18:23Z</time>
        <name>WPT.680</name>
      </trkpt>
      <trkpt lat="37.495326530" lon="-106.829111820">
        <ele>3401.000</ele>
        <time>2017-07-02T16:18:27Z</time>
        <name>WPT.681</name>
      </trkpt>
      <trkpt lat="37.495309000" lon="-106.829161520">
        <ele>3401.000</ele>
        <time>2017-07-02T16:18:34Z</time>
        <name>WPT.682</name>
      </trkpt>
      <trkpt lat="37.495327270" lon="-106.829207730">
        <ele>3433.000</ele>
        <time>2017-07-02T16:18:45Z</time>
        <name>WPT.683</name>
      </trkpt>
      <trkpt lat="37.495311170" lon="-106.829255330">
        <ele>3414.000</ele>
        <time>2017-07-02T16:18:50Z</time>
        <name>WPT.684</name>
      </trkpt>
      <trkpt lat="37.495313290" lon="-106.829300600">
        <ele>3411.000</ele>
        <time>2017-07-02T16:18:56Z</time>
        <name>WPT.685</name>
      </trkpt>
      <trkpt lat="37.495305220" lon="-106.829352880">
        <ele>3403.000</ele>
        <time>2017-07-02T16:19:03Z</time>
        <name>WPT.686</name>
      </trkpt>
      <trkpt lat="37.495286720" lon="-106.829404930">
        <ele>3207.000</ele>
        <time>2017-07-02T16:19:08Z</time>
        <name>WPT.687</name>
      </trkpt>
      <trkpt lat="37.495273840" lon="-106.829452090">
        <ele>3353.000</ele>
        <time>2017-07-02T16:19:12Z</time>
        <name>WPT.688</name>
      </trkpt>
      <trkpt lat="37.495257230" lon="-106.829498140">
        <ele>3381.000</ele>
        <time>2017-07-02T16:19:16Z</time>
        <name>WPT.689</name>
      </trkpt>
      <trkpt lat="37.495239410" lon="-106.829551380">
        <ele>3394.000</ele>
        <time>2017-07-02T16:19:20Z</time>
        <name>WPT.690</name>
      </trkpt>
      <trkpt lat="37.495209730" lon="-106.829597240">
        <ele>3398.000</ele>
        <time>2017-07-02T16:19:24Z</time>
        <name>WPT.691</name>
      </trkpt>
      <trkpt lat="37.495182800" lon="-106.829629650">
        <ele>3424.000</ele>
        <time>2017-07-02T16:19:28Z</time>
        <name>WPT.692</name>
      </trkpt>
      <trkpt lat="37.495160460" lon="-106.829678510">
        <ele>3405.000</ele>
        <time>2017-07-02T16:19:33Z</time>
        <name>WPT.693</name>
      </trkpt>
      <trkpt lat="37.495122320" lon="-106.829696950">
        <ele>3405.000</ele>
        <time>2017-07-02T16:19:40Z</time>
        <name>WPT.694</name>
      </trkpt>
      <trkpt lat="37.495094020" lon="-106.829733840">
        <ele>3401.000</ele>
        <time>2017-07-02T16:19:45Z</time>
        <name>WPT.695</name>
      </trkpt>
      <trkpt lat="37.495068870" lon="-106.829767420">
        <ele>3400.000</ele>
        <time>2017-07-02T16:19:53Z</time>
        <name>WPT.696</name>
      </trkpt>
      <trkpt lat="37.495044630" lon="-106.829816130">
        <ele>3402.000</ele>
        <time>2017-07-02T16:19:56Z</time>
        <name>WPT.697</name>
      </trkpt>
      <trkpt lat="37.495027480" lon="-106.829865090">
        <ele>3402.000</ele>
        <time>2017-07-02T16:20:00Z</time>
        <name>WPT.698</name>
      </trkpt>
      <trkpt lat="37.495057730" lon="-106.829895960">
        <ele>3400.000</ele>
        <time>2017-07-02T16:20:06Z</time>
        <name>WPT.699</name>
      </trkpt>
      <trkpt lat="37.495072900" lon="-106.829940170">
        <ele>3398.000</ele>
        <time>2017-07-02T16:20:14Z</time>
        <name>WPT.700</name>
      </trkpt>
      <trkpt lat="37.495090700" lon="-106.829985340">
        <ele>3398.000</ele>
        <time>2017-07-02T16:20:20Z</time>
        <name>WPT.701</name>
      </trkpt>
      <trkpt lat="37.495091130" lon="-106.830033340">
        <ele>3400.000</ele>
        <time>2017-07-02T16:20:26Z</time>
        <name>WPT.702</name>
      </trkpt>
      <trkpt lat="37.495094100" lon="-106.830081540">
        <ele>3398.000</ele>
        <time>2017-07-02T16:20:31Z</time>
        <name>WPT.703</name>
      </trkpt>
      <trkpt lat="37.495105050" lon="-106.830130370">
        <ele>3398.000</ele>
        <time>2017-07-02T16:20:36Z</time>
        <name>WPT.704</name>
      </trkpt>
      <trkpt lat="37.495121470" lon="-106.830185930">
        <ele>3196.000</ele>
        <time>2017-07-02T16:20:40Z</time>
        <name>WPT.705</name>
      </trkpt>
      <trkpt lat="37.495137780" lon="-106.830226750">
        <ele>3391.000</ele>
        <time>2017-07-02T16:20:55Z</time>
        <name>WPT.706</name>
      </trkpt>
      <trkpt lat="37.495172560" lon="-106.830245480">
        <ele>3393.000</ele>
        <time>2017-07-02T16:21:08Z</time>
        <name>WPT.707</name>
      </trkpt>
      <trkpt lat="37.495214580" lon="-106.830259590">
        <ele>3393.000</ele>
        <time>2017-07-02T16:21:11Z</time>
        <name>WPT.708</name>
      </trkpt>
      <trkpt lat="37.495249800" lon="-106.830279190">
        <ele>3391.000</ele>
        <time>2017-07-02T16:21:15Z</time>
        <name>WPT.709</name>
      </trkpt>
      <trkpt lat="37.495293280" lon="-106.830301070">
        <ele>3388.000</ele>
        <time>2017-07-02T16:21:18Z</time>
        <name>WPT.710</name>
      </trkpt>
      <trkpt lat="37.495334720" lon="-106.830317020">
        <ele>3387.000</ele>
        <time>2017-07-02T16:21:22Z</time>
        <name>WPT.711</name>
      </trkpt>
      <trkpt lat="37.495376410" lon="-106.830327300">
        <ele>3386.000</ele>
        <time>2017-07-02T16:21:27Z</time>
        <name>WPT.712</name>
      </trkpt>
      <trkpt lat="37.495414560" lon="-106.830353950">
        <ele>3388.000</ele>
        <time>2017-07-02T16:21:32Z</time>
        <name>WPT.713</name>
      </trkpt>
      <trkpt lat="37.495453280" lon="-106.830374190">
        <ele>3390.000</ele>
        <time>2017-07-02T16:21:36Z</time>
        <name>WPT.714</name>
      </trkpt>
      <trkpt lat="37.495485620" lon="-106.830411120">
        <ele>3390.000</ele>
        <time>2017-07-02T16:21:40Z</time>
        <name>WPT.715</name>
      </trkpt>
      <trkpt lat="37.495520310" lon="-106.830432550">
        <ele>3388.000</ele>
        <time>2017-07-02T16:21:49Z</time>
        <name>WPT.716</name>
      </trkpt>
      <trkpt lat="37.495548980" lon="-106.830462990">
        <ele>3388.000</ele>
        <time>2017-07-02T16:22:32Z</time>
        <name>WPT.717</name>
      </trkpt>
      <trkpt lat="37.495584020" lon="-106.830509910">
        <ele>3386.000</ele>
        <time>2017-07-02T16:22:41Z</time>
        <name>WPT.718</name>
      </trkpt>
      <trkpt lat="37.495616440" lon="-106.830537700">
        <ele>3384.000</ele>
        <time>2017-07-02T16:22:43Z</time>
        <name>WPT.719</name>
      </trkpt>
      <trkpt lat="37.495645730" lon="-106.830571030">
        <ele>3385.000</ele>
        <time>2017-07-02T16:22:46Z</time>
        <name>WPT.720</name>
      </trkpt>
      <trkpt lat="37.495666800" lon="-106.830610560">
        <ele>3386.000</ele>
        <time>2017-07-02T16:22:50Z</time>
        <name>WPT.721</name>
      </trkpt>
      <trkpt lat="37.495686720" lon="-106.830651780">
        <ele>3385.000</ele>
        <time>2017-07-02T16:22:52Z</time>
        <name>WPT.722</name>
      </trkpt>
      <trkpt lat="37.495719380" lon="-106.830686000">
        <ele>3385.000</ele>
        <time>2017-07-02T16:22:55Z</time>
        <name>WPT.723</name>
      </trkpt>
      <trkpt lat="37.495763630" lon="-106.830738960">
        <ele>3381.000</ele>
        <time>2017-07-02T16:23:13Z</time>
        <name>WPT.724</name>
      </trkpt>
      <trkpt lat="37.495795660" lon="-106.830763930">
        <ele>3380.000</ele>
        <time>2017-07-02T16:23:20Z</time>
        <name>WPT.725</name>
      </trkpt>
      <trkpt lat="37.495813270" lon="-106.830814590">
        <ele>3381.000</ele>
        <time>2017-07-02T16:23:27Z</time>
        <name>WPT.726</name>
      </trkpt>
      <trkpt lat="37.495845580" lon="-106.830849050">
        <ele>3381.000</ele>
        <time>2017-07-02T16:23:29Z</time>
        <name>WPT.727</name>
      </trkpt>
      <trkpt lat="37.495874600" lon="-106.830880010">
        <ele>3381.000</ele>
        <time>2017-07-02T16:23:31Z</time>
        <name>WPT.728</name>
      </trkpt>
      <trkpt lat="37.495921750" lon="-106.830923080">
        <ele>3226.000</ele>
        <time>2017-07-02T16:23:34Z</time>
        <name>WPT.729</name>
      </trkpt>
      <trkpt lat="37.495963720" lon="-106.830966940">
        <ele>3318.000</ele>
        <time>2017-07-02T16:23:37Z</time>
        <name>WPT.730</name>
      </trkpt>
      <trkpt lat="37.495998220" lon="-106.830999960">
        <ele>3339.000</ele>
        <time>2017-07-02T16:23:40Z</time>
        <name>WPT.731</name>
      </trkpt>
      <trkpt lat="37.496037150" lon="-106.831033660">
        <ele>3355.000</ele>
        <time>2017-07-02T16:23:44Z</time>
        <name>WPT.732</name>
      </trkpt>
      <trkpt lat="37.496071300" lon="-106.831076720">
        <ele>3368.000</ele>
        <time>2017-07-02T16:23:48Z</time>
        <name>WPT.733</name>
      </trkpt>
      <trkpt lat="37.496106850" lon="-106.831106260">
        <ele>3377.000</ele>
        <time>2017-07-02T16:23:54Z</time>
        <name>WPT.734</name>
      </trkpt>
      <trkpt lat="37.496141190" lon="-106.831150120">
        <ele>3378.000</ele>
        <time>2017-07-02T16:23:58Z</time>
        <name>WPT.735</name>
      </trkpt>
      <trkpt lat="37.496170840" lon="-106.831176570">
        <ele>3378.000</ele>
        <time>2017-07-02T16:24:01Z</time>
        <name>WPT.736</name>
      </trkpt>
      <trkpt lat="37.496205680" lon="-106.831211390">
        <ele>3174.000</ele>
        <time>2017-07-02T16:24:14Z</time>
        <name>WPT.737</name>
      </trkpt>
      <trkpt lat="37.496237180" lon="-106.831236990">
        <ele>3276.000</ele>
        <time>2017-07-02T16:24:18Z</time>
        <name>WPT.738</name>
      </trkpt>
      <trkpt lat="37.496264920" lon="-106.831268490">
        <ele>3345.000</ele>
        <time>2017-07-02T16:24:23Z</time>
        <name>WPT.739</name>
      </trkpt>
      <trkpt lat="37.496306130" lon="-106.831303220">
        <ele>3358.000</ele>
        <time>2017-07-02T16:24:26Z</time>
        <name>WPT.740</name>
      </trkpt>
      <trkpt lat="37.496332150" lon="-106.831349080">
        <ele>3370.000</ele>
        <time>2017-07-02T16:24:30Z</time>
        <name>WPT.741</name>
      </trkpt>
      <trkpt lat="37.496352430" lon="-106.831395360">
        <ele>3374.000</ele>
        <time>2017-07-02T16:24:34Z</time>
        <name>WPT.742</name>
      </trkpt>
      <trkpt lat="37.496386550" lon="-106.831441980">
        <ele>3377.000</ele>
        <time>2017-07-02T16:24:37Z</time>
        <name>WPT.743</name>
      </trkpt>
      <trkpt lat="37.496422740" lon="-106.831482440">
        <ele>3379.000</ele>
        <time>2017-07-02T16:24:40Z</time>
        <name>WPT.744</name>
      </trkpt>
      <trkpt lat="37.496452220" lon="-106.831521540">
        <ele>3381.000</ele>
        <time>2017-07-02T16:24:43Z</time>
        <name>WPT.745</name>
      </trkpt>
      <trkpt lat="37.496493740" lon="-106.831551520">
        <ele>3381.000</ele>
        <time>2017-07-02T16:24:48Z</time>
        <name>WPT.746</name>
      </trkpt>
      <trkpt lat="37.496530350" lon="-106.831580600">
        <ele>3383.000</ele>
        <time>2017-07-02T16:24:52Z</time>
        <name>WPT.747</name>
      </trkpt>
      <trkpt lat="37.496558140" lon="-106.831633910">
        <ele>3385.000</ele>
        <time>2017-07-02T16:24:56Z</time>
        <name>WPT.748</name>
      </trkpt>
      <trkpt lat="37.496584750" lon="-106.831681250">
        <ele>3388.000</ele>
        <time>2017-07-02T16:25:00Z</time>
        <name>WPT.749</name>
      </trkpt>
      <trkpt lat="37.496623530" lon="-106.831726770">
        <ele>3387.000</ele>
        <time>2017-07-02T16:25:03Z</time>
        <name>WPT.750</name>
      </trkpt>
      <trkpt lat="37.496648020" lon="-106.831768630">
        <ele>3385.000</ele>
        <time>2017-07-02T16:25:07Z</time>
        <name>WPT.751</name>
      </trkpt>
      <trkpt lat="37.496684370" lon="-106.831808040">
        <ele>3386.000</ele>
        <time>2017-07-02T16:25:10Z</time>
        <name>WPT.752</name>
      </trkpt>
      <trkpt lat="37.496719280" lon="-106.831845990">
        <ele>3388.000</ele>
        <time>2017-07-02T16:25:13Z</time>
        <name>WPT.753</name>
      </trkpt>
      <trkpt lat="37.496753980" lon="-106.831879690">
        <ele>3388.000</ele>
        <time>2017-07-02T16:25:16Z</time>
        <name>WPT.754</name>
      </trkpt>
      <trkpt lat="37.496790060" lon="-106.831910810">
        <ele>3389.000</ele>
        <time>2017-07-02T16:25:20Z</time>
        <name>WPT.755</name>
      </trkpt>
      <trkpt lat="37.496812730" lon="-106.831950500">
        <ele>3391.000</ele>
        <time>2017-07-02T16:25:27Z</time>
        <name>WPT.756</name>
      </trkpt>
      <trkpt lat="37.496847380" lon="-106.831978900">
        <ele>3391.000</ele>
        <time>2017-07-02T16:25:31Z</time>
        <name>WPT.757</name>
      </trkpt>
      <trkpt lat="37.496873290" lon="-106.832018790">
        <ele>3392.000</ele>
        <time>2017-07-02T16:25:36Z</time>
        <name>WPT.758</name>
      </trkpt>
      <trkpt lat="37.496880100" lon="-106.832070180">
        <ele>3394.000</ele>
        <time>2017-07-02T16:25:42Z</time>
        <name>WPT.759</name>
      </trkpt>
      <trkpt lat="37.496903340" lon="-106.832119330">
        <ele>3394.000</ele>
        <time>2017-07-02T16:25:51Z</time>
        <name>WPT.760</name>
      </trkpt>
      <trkpt lat="37.496926510" lon="-106.832160160">
        <ele>3394.000</ele>
        <time>2017-07-02T16:26:00Z</time>
        <name>WPT.761</name>
      </trkpt>
      <trkpt lat="37.496957230" lon="-106.832190220">
        <ele>3392.000</ele>
        <time>2017-07-02T16:26:04Z</time>
        <name>WPT.762</name>
      </trkpt>
      <trkpt lat="37.496988950" lon="-106.832214700">
        <ele>3393.000</ele>
        <time>2017-07-02T16:26:06Z</time>
        <name>WPT.763</name>
      </trkpt>
      <trkpt lat="37.497022490" lon="-106.832238500">
        <ele>3393.000</ele>
        <time>2017-07-02T16:26:09Z</time>
        <name>WPT.764</name>
      </trkpt>
      <trkpt lat="37.497056120" lon="-106.832266440">
        <ele>3393.000</ele>
        <time>2017-07-02T16:26:15Z</time>
        <name>WPT.765</name>
      </trkpt>
      <trkpt lat="37.497101880" lon="-106.832296220">
        <ele>3390.000</ele>
        <time>2017-07-02T16:26:18Z</time>
        <name>WPT.766</name>
      </trkpt>
      <trkpt lat="37.497130460" lon="-106.832335530">
        <ele>3447.000</ele>
        <time>2017-07-02T16:26:24Z</time>
        <name>WPT.767</name>
      </trkpt>
      <trkpt lat="37.497156210" lon="-106.832367220">
        <ele>3416.000</ele>
        <time>2017-07-02T16:26:27Z</time>
        <name>WPT.768</name>
      </trkpt>
      <trkpt lat="37.497184190" lon="-106.832404110">
        <ele>3404.000</ele>
        <time>2017-07-02T16:26:30Z</time>
        <name>WPT.769</name>
      </trkpt>
      <trkpt lat="37.497213660" lon="-106.832436780">
        <ele>3399.000</ele>
        <time>2017-07-02T16:26:33Z</time>
        <name>WPT.770</name>
      </trkpt>
      <trkpt lat="37.497233200" lon="-106.832475130">
        <ele>3393.000</ele>
        <time>2017-07-02T16:28:34Z</time>
        <name>WPT.771</name>
      </trkpt>
      <trkpt lat="37.497242960" lon="-106.832521380">
        <ele>3392.000</ele>
        <time>2017-07-02T16:28:59Z</time>
        <name>WPT.772</name>
      </trkpt>
      <trkpt lat="37.497287380" lon="-106.832526550">
        <ele>3392.000</ele>
        <time>2017-07-02T16:29:04Z</time>
        <name>WPT.773</name>
      </trkpt>
      <trkpt lat="37.497308480" lon="-106.832568970">
        <ele>3393.000</ele>
        <time>2017-07-02T16:29:18Z</time>
        <name>WPT.774</name>
      </trkpt>
      <trkpt lat="37.497292260" lon="-106.832609580">
        <ele>3392.000</ele>
        <time>2017-07-02T16:29:29Z</time>
        <name>WPT.775</name>
      </trkpt>
      <trkpt lat="37.497287200" lon="-106.832655120">
        <ele>3391.000</ele>
        <time>2017-07-02T16:29:42Z</time>
        <name>WPT.776</name>
      </trkpt>
      <trkpt lat="37.497302620" lon="-106.832706610">
        <ele>3393.000</ele>
        <time>2017-07-02T16:29:46Z</time>
        <name>WPT.777</name>
      </trkpt>
      <trkpt lat="37.497314390" lon="-106.832757970">
        <ele>3394.000</ele>
        <time>2017-07-02T16:29:50Z</time>
        <name>WPT.778</name>
      </trkpt>
      <trkpt lat="37.497304270" lon="-106.832802880">
        <ele>3394.000</ele>
        <time>2017-07-02T16:29:54Z</time>
        <name>WPT.779</name>
      </trkpt>
      <trkpt lat="37.497305240" lon="-106.832854510">
        <ele>3394.000</ele>
        <time>2017-07-02T16:29:58Z</time>
        <name>WPT.780</name>
      </trkpt>
      <trkpt lat="37.497305630" lon="-106.832906290">
        <ele>3393.000</ele>
        <time>2017-07-02T16:30:03Z</time>
        <name>WPT.781</name>
      </trkpt>
      <trkpt lat="37.497311630" lon="-106.832961370">
        <ele>3393.000</ele>
        <time>2017-07-02T16:30:07Z</time>
        <name>WPT.782</name>
      </trkpt>
      <trkpt lat="37.497327450" lon="-106.833013000">
        <ele>3392.000</ele>
        <time>2017-07-02T16:30:10Z</time>
        <name>WPT.783</name>
      </trkpt>
      <trkpt lat="37.497348630" lon="-106.833066560">
        <ele>3392.000</ele>
        <time>2017-07-02T16:30:13Z</time>
        <name>WPT.784</name>
      </trkpt>
      <trkpt lat="37.497368630" lon="-106.833119370">
        <ele>3390.000</ele>
        <time>2017-07-02T16:30:17Z</time>
        <name>WPT.785</name>
      </trkpt>
      <trkpt lat="37.497367880" lon="-106.833169880">
        <ele>3391.000</ele>
        <time>2017-07-02T16:30:20Z</time>
        <name>WPT.786</name>
      </trkpt>
      <trkpt lat="37.497352660" lon="-106.833211490">
        <ele>3392.000</ele>
        <time>2017-07-02T16:30:26Z</time>
        <name>WPT.787</name>
      </trkpt>
      <trkpt lat="37.497352470" lon="-106.833260020">
        <ele>3392.000</ele>
        <time>2017-07-02T16:30:35Z</time>
        <name>WPT.788</name>
      </trkpt>
      <trkpt lat="37.497344250" lon="-106.833304780">
        <ele>3393.000</ele>
        <time>2017-07-02T16:30:40Z</time>
        <name>WPT.789</name>
      </trkpt>
      <trkpt lat="37.497342840" lon="-106.833355970">
        <ele>3391.000</ele>
        <time>2017-07-02T16:30:44Z</time>
        <name>WPT.790</name>
      </trkpt>
      <trkpt lat="37.497338930" lon="-106.833406600">
        <ele>3392.000</ele>
        <time>2017-07-02T16:30:49Z</time>
        <name>WPT.791</name>
      </trkpt>
      <trkpt lat="37.497349740" lon="-106.833462990">
        <ele>3393.000</ele>
        <time>2017-07-02T16:30:54Z</time>
        <name>WPT.792</name>
      </trkpt>
      <trkpt lat="37.497374460" lon="-106.833499630">
        <ele>3392.000</ele>
        <time>2017-07-02T16:30:57Z</time>
        <name>WPT.793</name>
      </trkpt>
      <trkpt lat="37.497399630" lon="-106.833543630">
        <ele>3394.000</ele>
        <time>2017-07-02T16:31:02Z</time>
        <name>WPT.794</name>
      </trkpt>
      <trkpt lat="37.497424200" lon="-106.833584100">
        <ele>3391.000</ele>
        <time>2017-07-02T16:31:36Z</time>
        <name>WPT.795</name>
      </trkpt>
      <trkpt lat="37.497436590" lon="-106.833540430">
        <ele>3389.000</ele>
        <time>2017-07-02T16:31:58Z</time>
        <name>WPT.796</name>
      </trkpt>
      <trkpt lat="37.497435670" lon="-106.833590530">
        <ele>3393.000</ele>
        <time>2017-07-02T16:33:37Z</time>
        <name>WPT.797</name>
      </trkpt>
      <trkpt lat="37.497449950" lon="-106.833636750">
        <ele>3391.000</ele>
        <time>2017-07-02T16:33:42Z</time>
        <name>WPT.798</name>
      </trkpt>
      <trkpt lat="37.497468940" lon="-106.833692590">
        <ele>3391.000</ele>
        <time>2017-07-02T16:33:49Z</time>
        <name>WPT.799</name>
      </trkpt>
      <trkpt lat="37.497462650" lon="-106.833742030">
        <ele>3391.000</ele>
        <time>2017-07-02T16:33:53Z</time>
        <name>WPT.800</name>
      </trkpt>
      <trkpt lat="37.497455360" lon="-106.833789990">
        <ele>3392.000</ele>
        <time>2017-07-02T16:33:58Z</time>
        <name>WPT.801</name>
      </trkpt>
      <trkpt lat="37.497466390" lon="-106.833841400">
        <ele>3394.000</ele>
        <time>2017-07-02T16:34:03Z</time>
        <name>WPT.802</name>
      </trkpt>
      <trkpt lat="37.497475790" lon="-106.833889360">
        <ele>3393.000</ele>
        <time>2017-07-02T16:34:08Z</time>
        <name>WPT.803</name>
      </trkpt>
      <trkpt lat="37.497504000" lon="-106.833920010">
        <ele>3390.000</ele>
        <time>2017-07-02T16:34:17Z</time>
        <name>WPT.804</name>
      </trkpt>
      <trkpt lat="37.497544280" lon="-106.833929570">
        <ele>3390.000</ele>
        <time>2017-07-02T16:34:24Z</time>
        <name>WPT.805</name>
      </trkpt>
      <trkpt lat="37.497589500" lon="-106.833934510">
        <ele>3389.000</ele>
        <time>2017-07-02T16:34:31Z</time>
        <name>WPT.806</name>
      </trkpt>
      <trkpt lat="37.497629980" lon="-106.833946700">
        <ele>3389.000</ele>
        <time>2017-07-02T16:34:35Z</time>
        <name>WPT.807</name>
      </trkpt>
      <trkpt lat="37.497665950" lon="-106.833965990">
        <ele>3391.000</ele>
        <time>2017-07-02T16:34:40Z</time>
        <name>WPT.808</name>
      </trkpt>
      <trkpt lat="37.497701880" lon="-106.833982210">
        <ele>3391.000</ele>
        <time>2017-07-02T16:34:44Z</time>
        <name>WPT.809</name>
      </trkpt>
      <trkpt lat="37.497735690" lon="-106.834005930">
        <ele>3391.000</ele>
        <time>2017-07-02T16:34:52Z</time>
        <name>WPT.810</name>
      </trkpt>
      <trkpt lat="37.497773210" lon="-106.834024990">
        <ele>3391.000</ele>
        <time>2017-07-02T16:34:57Z</time>
        <name>WPT.811</name>
      </trkpt>
      <trkpt lat="37.497811940" lon="-106.834048210">
        <ele>3391.000</ele>
        <time>2017-07-02T16:35:03Z</time>
        <name>WPT.812</name>
      </trkpt>
      <trkpt lat="37.497845600" lon="-106.834080280">
        <ele>3389.000</ele>
        <time>2017-07-02T16:35:07Z</time>
        <name>WPT.813</name>
      </trkpt>
      <trkpt lat="37.497881390" lon="-106.834085800">
        <ele>3388.000</ele>
        <time>2017-07-02T16:35:21Z</time>
        <name>WPT.814</name>
      </trkpt>
      <trkpt lat="37.497891450" lon="-106.834135460">
        <ele>3388.000</ele>
        <time>2017-07-02T16:35:41Z</time>
        <name>WPT.815</name>
      </trkpt>
      <trkpt lat="37.497915900" lon="-106.834170200">
        <ele>3388.000</ele>
        <time>2017-07-02T16:35:46Z</time>
        <name>WPT.816</name>
      </trkpt>
      <trkpt lat="37.497954540" lon="-106.834188560">
        <ele>3386.000</ele>
        <time>2017-07-02T16:35:48Z</time>
        <name>WPT.817</name>
      </trkpt>
      <trkpt lat="37.497990380" lon="-106.834211700">
        <ele>3385.000</ele>
        <time>2017-07-02T16:35:52Z</time>
        <name>WPT.818</name>
      </trkpt>
      <trkpt lat="37.498026400" lon="-106.834248960">
        <ele>3383.000</ele>
        <time>2017-07-02T16:35:57Z</time>
        <name>WPT.819</name>
      </trkpt>
      <trkpt lat="37.498062940" lon="-106.834277000">
        <ele>3384.000</ele>
        <time>2017-07-02T16:36:00Z</time>
        <name>WPT.820</name>
      </trkpt>
      <trkpt lat="37.498078290" lon="-106.834317950">
        <ele>3386.000</ele>
        <time>2017-07-02T16:36:07Z</time>
        <name>WPT.821</name>
      </trkpt>
      <trkpt lat="37.498093630" lon="-106.834358930">
        <ele>3386.000</ele>
        <time>2017-07-02T16:37:37Z</time>
        <name>WPT.822</name>
      </trkpt>
      <trkpt lat="37.498130320" lon="-106.834363360">
        <ele>3387.000</ele>
        <time>2017-07-02T16:37:41Z</time>
        <name>WPT.823</name>
      </trkpt>
      <trkpt lat="37.498149790" lon="-106.834406080">
        <ele>3388.000</ele>
        <time>2017-07-02T16:37:45Z</time>
        <name>WPT.824</name>
      </trkpt>
      <trkpt lat="37.498156560" lon="-106.834456710">
        <ele>3389.000</ele>
        <time>2017-07-02T16:37:52Z</time>
        <name>WPT.825</name>
      </trkpt>
      <trkpt lat="37.498182790" lon="-106.834487910">
        <ele>3388.000</ele>
        <time>2017-07-02T16:37:54Z</time>
        <name>WPT.826</name>
      </trkpt>
      <trkpt lat="37.498203850" lon="-106.834529420">
        <ele>3388.000</ele>
        <time>2017-07-02T16:37:57Z</time>
        <name>WPT.827</name>
      </trkpt>
      <trkpt lat="37.498214820" lon="-106.834583330">
        <ele>3388.000</ele>
        <time>2017-07-02T16:38:02Z</time>
        <name>WPT.828</name>
      </trkpt>
      <trkpt lat="37.498238370" lon="-106.834622500">
        <ele>3388.000</ele>
        <time>2017-07-02T16:38:06Z</time>
        <name>WPT.829</name>
      </trkpt>
      <trkpt lat="37.498267780" lon="-106.834656320">
        <ele>3388.000</ele>
        <time>2017-07-02T16:38:10Z</time>
        <name>WPT.830</name>
      </trkpt>
      <trkpt lat="37.498295500" lon="-106.834686410">
        <ele>3389.000</ele>
        <time>2017-07-02T16:38:13Z</time>
        <name>WPT.831</name>
      </trkpt>
      <trkpt lat="37.498330780" lon="-106.834704440">
        <ele>3390.000</ele>
        <time>2017-07-02T16:38:17Z</time>
        <name>WPT.832</name>
      </trkpt>
      <trkpt lat="37.498364050" lon="-106.834727260">
        <ele>3389.000</ele>
        <time>2017-07-02T16:38:20Z</time>
        <name>WPT.833</name>
      </trkpt>
      <trkpt lat="37.498403630" lon="-106.834747010">
        <ele>3386.000</ele>
        <time>2017-07-02T16:38:27Z</time>
        <name>WPT.834</name>
      </trkpt>
      <trkpt lat="37.498442150" lon="-106.834748170">
        <ele>3386.000</ele>
        <time>2017-07-02T16:38:32Z</time>
        <name>WPT.835</name>
      </trkpt>
      <trkpt lat="37.498478850" lon="-106.834763090">
        <ele>3384.000</ele>
        <time>2017-07-02T16:38:48Z</time>
        <name>WPT.836</name>
      </trkpt>
      <trkpt lat="37.498479400" lon="-106.834812030">
        <ele>3382.000</ele>
        <time>2017-07-02T16:38:56Z</time>
        <name>WPT.837</name>
      </trkpt>
      <trkpt lat="37.498471680" lon="-106.834862760">
        <ele>3384.000</ele>
        <time>2017-07-02T16:39:00Z</time>
        <name>WPT.838</name>
      </trkpt>
      <trkpt lat="37.498460070" lon="-106.834919480">
        <ele>3382.000</ele>
        <time>2017-07-02T16:39:05Z</time>
        <name>WPT.839</name>
      </trkpt>
      <trkpt lat="37.498439170" lon="-106.834963100">
        <ele>3385.000</ele>
        <time>2017-07-02T16:39:08Z</time>
        <name>WPT.840</name>
      </trkpt>
      <trkpt lat="37.498428500" lon="-106.835008940">
        <ele>3384.000</ele>
        <time>2017-07-02T16:39:20Z</time>
        <name>WPT.841</name>
      </trkpt>
      <trkpt lat="37.498455900" lon="-106.835054180">
        <ele>3383.000</ele>
        <time>2017-07-02T16:40:10Z</time>
        <name>WPT.842</name>
      </trkpt>
      <trkpt lat="37.498487560" lon="-106.835077320">
        <ele>3384.000</ele>
        <time>2017-07-02T16:40:19Z</time>
        <name>WPT.843</name>
      </trkpt>
      <trkpt lat="37.498526990" lon="-106.835107400">
        <ele>3381.000</ele>
        <time>2017-07-02T16:41:42Z</time>
        <name>WPT.844</name>
      </trkpt>
      <trkpt lat="37.498573780" lon="-106.835109430">
        <ele>3378.000</ele>
        <time>2017-07-02T16:41:45Z</time>
        <name>WPT.845</name>
      </trkpt>
      <trkpt lat="37.498612690" lon="-106.835092490">
        <ele>3376.000</ele>
        <time>2017-07-02T16:41:48Z</time>
        <name>WPT.846</name>
      </trkpt>
      <trkpt lat="37.498645520" lon="-106.835069570">
        <ele>3377.000</ele>
        <time>2017-07-02T16:41:51Z</time>
        <name>WPT.847</name>
      </trkpt>
      <trkpt lat="37.498682280" lon="-106.835048550">
        <ele>3427.000</ele>
        <time>2017-07-02T16:41:55Z</time>
        <name>WPT.848</name>
      </trkpt>
      <trkpt lat="37.498723790" lon="-106.835026120">
        <ele>3395.000</ele>
        <time>2017-07-02T16:41:59Z</time>
        <name>WPT.849</name>
      </trkpt>
      <trkpt lat="37.498758440" lon="-106.834994560">
        <ele>3385.000</ele>
        <time>2017-07-02T16:42:02Z</time>
        <name>WPT.850</name>
      </trkpt>
      <trkpt lat="37.498803180" lon="-106.834987900">
        <ele>3380.000</ele>
        <time>2017-07-02T16:42:06Z</time>
        <name>WPT.851</name>
      </trkpt>
      <trkpt lat="37.498832460" lon="-106.835022430">
        <ele>3382.000</ele>
        <time>2017-07-02T16:42:10Z</time>
        <name>WPT.852</name>
      </trkpt>
      <trkpt lat="37.498852160" lon="-106.835063400">
        <ele>3383.000</ele>
        <time>2017-07-02T16:42:16Z</time>
        <name>WPT.853</name>
      </trkpt>
      <trkpt lat="37.498893350" lon="-106.835070110">
        <ele>3383.000</ele>
        <time>2017-07-02T16:42:19Z</time>
        <name>WPT.854</name>
      </trkpt>
      <trkpt lat="37.498936720" lon="-106.835092700">
        <ele>3384.000</ele>
        <time>2017-07-02T16:42:23Z</time>
        <name>WPT.855</name>
      </trkpt>
      <trkpt lat="37.498972960" lon="-106.835108240">
        <ele>3388.000</ele>
        <time>2017-07-02T16:42:28Z</time>
        <name>WPT.856</name>
      </trkpt>
      <trkpt lat="37.499014650" lon="-106.835136770">
        <ele>3388.000</ele>
        <time>2017-07-02T16:42:32Z</time>
        <name>WPT.857</name>
      </trkpt>
      <trkpt lat="37.499054440" lon="-106.835157670">
        <ele>3386.000</ele>
        <time>2017-07-02T16:42:35Z</time>
        <name>WPT.858</name>
      </trkpt>
      <trkpt lat="37.499089530" lon="-106.835184460">
        <ele>3388.000</ele>
        <time>2017-07-02T16:42:39Z</time>
        <name>WPT.859</name>
      </trkpt>
      <trkpt lat="37.499114140" lon="-106.835234860">
        <ele>3388.000</ele>
        <time>2017-07-02T16:42:42Z</time>
        <name>WPT.860</name>
      </trkpt>
      <trkpt lat="37.499149300" lon="-106.835271580">
        <ele>3391.000</ele>
        <time>2017-07-02T16:42:46Z</time>
        <name>WPT.861</name>
      </trkpt>
      <trkpt lat="37.499183210" lon="-106.835289250">
        <ele>3392.000</ele>
        <time>2017-07-02T16:42:49Z</time>
        <name>WPT.862</name>
      </trkpt>
      <trkpt lat="37.499224400" lon="-106.835280920">
        <ele>3391.000</ele>
        <time>2017-07-02T16:42:54Z</time>
        <name>WPT.863</name>
      </trkpt>
      <trkpt lat="37.499266780" lon="-106.835288450">
        <ele>3391.000</ele>
        <time>2017-07-02T16:42:58Z</time>
        <name>WPT.864</name>
      </trkpt>
      <trkpt lat="37.499306210" lon="-106.835303820">
        <ele>3391.000</ele>
        <time>2017-07-02T16:43:02Z</time>
        <name>WPT.865</name>
      </trkpt>
      <trkpt lat="37.499331860" lon="-106.835341350">
        <ele>3396.000</ele>
        <time>2017-07-02T16:43:20Z</time>
        <name>WPT.866</name>
      </trkpt>
      <trkpt lat="37.499367770" lon="-106.835327640">
        <ele>3398.000</ele>
        <time>2017-07-02T16:43:27Z</time>
        <name>WPT.867</name>
      </trkpt>
      <trkpt lat="37.499405700" lon="-106.835316840">
        <ele>3399.000</ele>
        <time>2017-07-02T16:43:32Z</time>
        <name>WPT.868</name>
      </trkpt>
      <trkpt lat="37.499439320" lon="-106.835299970">
        <ele>3401.000</ele>
        <time>2017-07-02T16:43:35Z</time>
        <name>WPT.869</name>
      </trkpt>
      <trkpt lat="37.499470340" lon="-106.835273440">
        <ele>3403.000</ele>
        <time>2017-07-02T16:43:41Z</time>
        <name>WPT.870</name>
      </trkpt>
      <trkpt lat="37.499515790" lon="-106.835275820">
        <ele>3401.000</ele>
        <time>2017-07-02T16:43:45Z</time>
        <name>WPT.871</name>
      </trkpt>
      <trkpt lat="37.499555020" lon="-106.835293010">
        <ele>3402.000</ele>
        <time>2017-07-02T16:43:50Z</time>
        <name>WPT.872</name>
      </trkpt>
      <trkpt lat="37.499577470" lon="-106.835328630">
        <ele>3400.000</ele>
        <time>2017-07-02T16:44:02Z</time>
        <name>WPT.873</name>
      </trkpt>
      <trkpt lat="37.499614980" lon="-106.835348370">
        <ele>3403.000</ele>
        <time>2017-07-02T16:44:07Z</time>
        <name>WPT.874</name>
      </trkpt>
      <trkpt lat="37.499652600" lon="-106.835352710">
        <ele>3403.000</ele>
        <time>2017-07-02T16:44:18Z</time>
        <name>WPT.875</name>
      </trkpt>
      <trkpt lat="37.499696220" lon="-106.835351280">
        <ele>3404.000</ele>
        <time>2017-07-02T16:44:25Z</time>
        <name>WPT.876</name>
      </trkpt>
      <trkpt lat="37.499731630" lon="-106.835372010">
        <ele>3403.000</ele>
        <time>2017-07-02T16:44:30Z</time>
        <name>WPT.877</name>
      </trkpt>
      <trkpt lat="37.499760760" lon="-106.835338030">
        <ele>3403.000</ele>
        <time>2017-07-02T16:44:35Z</time>
        <name>WPT.878</name>
      </trkpt>
      <trkpt lat="37.499797770" lon="-106.835332160">
        <ele>3403.000</ele>
        <time>2017-07-02T16:44:41Z</time>
        <name>WPT.879</name>
      </trkpt>
      <trkpt lat="37.499819410" lon="-106.835374370">
        <ele>3403.000</ele>
        <time>2017-07-02T16:44:48Z</time>
        <name>WPT.880</name>
      </trkpt>
      <trkpt lat="37.499852770" lon="-106.835400530">
        <ele>3431.000</ele>
        <time>2017-07-02T16:44:52Z</time>
        <name>WPT.881</name>
      </trkpt>
      <trkpt lat="37.499893630" lon="-106.835412720">
        <ele>3415.000</ele>
        <time>2017-07-02T16:44:56Z</time>
        <name>WPT.882</name>
      </trkpt>
      <trkpt lat="37.499938310" lon="-106.835411020">
        <ele>3406.000</ele>
        <time>2017-07-02T16:45:01Z</time>
        <name>WPT.883</name>
      </trkpt>
      <trkpt lat="37.499978250" lon="-106.835423460">
        <ele>3408.000</ele>
        <time>2017-07-02T16:45:05Z</time>
        <name>WPT.884</name>
      </trkpt>
      <trkpt lat="37.500017700" lon="-106.835435800">
        <ele>3406.000</ele>
        <time>2017-07-02T16:45:09Z</time>
        <name>WPT.885</name>
      </trkpt>
      <trkpt lat="37.500053430" lon="-106.835426230">
        <ele>3406.000</ele>
        <time>2017-07-02T16:45:13Z</time>
        <name>WPT.886</name>
      </trkpt>
      <trkpt lat="37.500084880" lon="-106.835402270">
        <ele>3407.000</ele>
        <time>2017-07-02T16:45:16Z</time>
        <name>WPT.887</name>
      </trkpt>
      <trkpt lat="37.500123030" lon="-106.835384630">
        <ele>3408.000</ele>
        <time>2017-07-02T16:45:20Z</time>
        <name>WPT.888</name>
      </trkpt>
      <trkpt lat="37.500164730" lon="-106.835371940">
        <ele>3410.000</ele>
        <time>2017-07-02T16:45:25Z</time>
        <name>WPT.889</name>
      </trkpt>
      <trkpt lat="37.500201150" lon="-106.835367920">
        <ele>3410.000</ele>
        <time>2017-07-02T16:45:30Z</time>
        <name>WPT.890</name>
      </trkpt>
      <trkpt lat="37.500234010" lon="-106.835342500">
        <ele>3444.000</ele>
        <time>2017-07-02T16:45:35Z</time>
        <name>WPT.891</name>
      </trkpt>
      <trkpt lat="37.500266990" lon="-106.835317960">
        <ele>3446.000</ele>
        <time>2017-07-02T16:45:38Z</time>
        <name>WPT.892</name>
      </trkpt>
      <trkpt lat="37.500309150" lon="-106.835305210">
        <ele>3430.000</ele>
        <time>2017-07-02T16:45:42Z</time>
        <name>WPT.893</name>
      </trkpt>
      <trkpt lat="37.500346750" lon="-106.835309340">
        <ele>3417.000</ele>
        <time>2017-07-02T16:45:49Z</time>
        <name>WPT.894</name>
      </trkpt>
      <trkpt lat="37.500358970" lon="-106.835266760">
        <ele>3408.000</ele>
        <time>2017-07-02T16:47:18Z</time>
        <name>WPT.895</name>
      </trkpt>
      <trkpt lat="37.500394760" lon="-106.835276600">
        <ele>3408.000</ele>
        <time>2017-07-02T16:47:23Z</time>
        <name>WPT.896</name>
      </trkpt>
      <trkpt lat="37.500434910" lon="-106.835266850">
        <ele>3407.000</ele>
        <time>2017-07-02T16:47:27Z</time>
        <name>WPT.897</name>
      </trkpt>
      <trkpt lat="37.500468050" lon="-106.835245940">
        <ele>3407.000</ele>
        <time>2017-07-02T16:47:32Z</time>
        <name>WPT.898</name>
      </trkpt>
      <trkpt lat="37.500504080" lon="-106.835248800">
        <ele>3405.000</ele>
        <time>2017-07-02T16:47:37Z</time>
        <name>WPT.899</name>
      </trkpt>
      <trkpt lat="37.500549370" lon="-106.835247710">
        <ele>3407.000</ele>
        <time>2017-07-02T16:47:42Z</time>
        <name>WPT.900</name>
      </trkpt>
      <trkpt lat="37.500584300" lon="-106.835234950">
        <ele>3409.000</ele>
        <time>2017-07-02T16:47:46Z</time>
        <name>WPT.901</name>
      </trkpt>
      <trkpt lat="37.500623640" lon="-106.835226970">
        <ele>3412.000</ele>
        <time>2017-07-02T16:47:51Z</time>
        <name>WPT.902</name>
      </trkpt>
      <trkpt lat="37.500659890" lon="-106.835221750">
        <ele>3412.000</ele>
        <time>2017-07-02T16:47:55Z</time>
        <name>WPT.903</name>
      </trkpt>
      <trkpt lat="37.500694450" lon="-106.835196400">
        <ele>3463.000</ele>
        <time>2017-07-02T16:48:01Z</time>
        <name>WPT.904</name>
      </trkpt>
      <trkpt lat="37.500729510" lon="-106.835181910">
        <ele>3433.000</ele>
        <time>2017-07-02T16:48:05Z</time>
        <name>WPT.905</name>
      </trkpt>
      <trkpt lat="37.500768510" lon="-106.835168670">
        <ele>3429.000</ele>
        <time>2017-07-02T16:48:09Z</time>
        <name>WPT.906</name>
      </trkpt>
      <trkpt lat="37.500805900" lon="-106.835156030">
        <ele>3422.000</ele>
        <time>2017-07-02T16:48:13Z</time>
        <name>WPT.907</name>
      </trkpt>
      <trkpt lat="37.500844570" lon="-106.835152490">
        <ele>3420.000</ele>
        <time>2017-07-02T16:48:19Z</time>
        <name>WPT.908</name>
      </trkpt>
      <trkpt lat="37.500876490" lon="-106.835174730">
        <ele>3417.000</ele>
        <time>2017-07-02T16:48:26Z</time>
        <name>WPT.909</name>
      </trkpt>
      <trkpt lat="37.500890240" lon="-106.835230210">
        <ele>3419.000</ele>
        <time>2017-07-02T16:48:31Z</time>
        <name>WPT.910</name>
      </trkpt>
      <trkpt lat="37.500921310" lon="-106.835263040">
        <ele>3420.000</ele>
        <time>2017-07-02T16:48:37Z</time>
        <name>WPT.911</name>
      </trkpt>
      <trkpt lat="37.500955000" lon="-106.835304160">
        <ele>3422.000</ele>
        <time>2017-07-02T16:48:41Z</time>
        <name>WPT.912</name>
      </trkpt>
      <trkpt lat="37.500962590" lon="-106.835353260">
        <ele>3419.000</ele>
        <time>2017-07-02T16:48:48Z</time>
        <name>WPT.913</name>
      </trkpt>
      <trkpt lat="37.500996770" lon="-106.835369330">
        <ele>3417.000</ele>
        <time>2017-07-02T16:49:09Z</time>
        <name>WPT.914</name>
      </trkpt>
      <trkpt lat="37.501026520" lon="-106.835407140">
        <ele>3418.000</ele>
        <time>2017-07-02T16:50:10Z</time>
        <name>WPT.915</name>
      </trkpt>
      <trkpt lat="37.501040800" lon="-106.835450610">
        <ele>3419.000</ele>
        <time>2017-07-02T16:50:16Z</time>
        <name>WPT.916</name>
      </trkpt>
      <trkpt lat="37.501042140" lon="-106.835502710">
        <ele>3423.000</ele>
        <time>2017-07-02T16:50:24Z</time>
        <name>WPT.917</name>
      </trkpt>
      <trkpt lat="37.501033750" lon="-106.835555100">
        <ele>3421.000</ele>
        <time>2017-07-02T16:50:30Z</time>
        <name>WPT.918</name>
      </trkpt>
      <trkpt lat="37.501039810" lon="-106.835612610">
        <ele>3421.000</ele>
        <time>2017-07-02T16:50:36Z</time>
        <name>WPT.919</name>
      </trkpt>
      <trkpt lat="37.501040710" lon="-106.835658250">
        <ele>3422.000</ele>
        <time>2017-07-02T16:50:42Z</time>
        <name>WPT.920</name>
      </trkpt>
      <trkpt lat="37.501043640" lon="-106.835706840">
        <ele>3420.000</ele>
        <time>2017-07-02T16:50:55Z</time>
        <name>WPT.921</name>
      </trkpt>
      <trkpt lat="37.501029040" lon="-106.835755840">
        <ele>3421.000</ele>
        <time>2017-07-02T16:51:00Z</time>
        <name>WPT.922</name>
      </trkpt>
      <trkpt lat="37.501017220" lon="-106.835803310">
        <ele>3428.000</ele>
        <time>2017-07-02T16:51:06Z</time>
        <name>WPT.923</name>
      </trkpt>
      <trkpt lat="37.501013960" lon="-106.835857670">
        <ele>3426.000</ele>
        <time>2017-07-02T16:51:10Z</time>
        <name>WPT.924</name>
      </trkpt>
      <trkpt lat="37.501000900" lon="-106.835911730">
        <ele>3428.000</ele>
        <time>2017-07-02T16:51:15Z</time>
        <name>WPT.925</name>
      </trkpt>
      <trkpt lat="37.500978070" lon="-106.835964300">
        <ele>3427.000</ele>
        <time>2017-07-02T16:51:19Z</time>
        <name>WPT.926</name>
      </trkpt>
      <trkpt lat="37.500972630" lon="-106.836016710">
        <ele>3429.000</ele>
        <time>2017-07-02T16:51:26Z</time>
        <name>WPT.927</name>
      </trkpt>
      <trkpt lat="37.500972170" lon="-106.836068420">
        <ele>3429.000</ele>
        <time>2017-07-02T16:51:36Z</time>
        <name>WPT.928</name>
      </trkpt>
      <trkpt lat="37.500975760" lon="-106.836113540">
        <ele>3434.000</ele>
        <time>2017-07-02T16:51:41Z</time>
        <name>WPT.929</name>
      </trkpt>
      <trkpt lat="37.500974900" lon="-106.836165800">
        <ele>3433.000</ele>
        <time>2017-07-02T16:51:47Z</time>
        <name>WPT.930</name>
      </trkpt>
      <trkpt lat="37.500979450" lon="-106.836213930">
        <ele>3433.000</ele>
        <time>2017-07-02T16:51:52Z</time>
        <name>WPT.931</name>
      </trkpt>
      <trkpt lat="37.500980330" lon="-106.836262720">
        <ele>3432.000</ele>
        <time>2017-07-02T16:51:58Z</time>
        <name>WPT.932</name>
      </trkpt>
      <trkpt lat="37.500986360" lon="-106.836308980">
        <ele>3430.000</ele>
        <time>2017-07-02T16:52:04Z</time>
        <name>WPT.933</name>
      </trkpt>
      <trkpt lat="37.500991590" lon="-106.836357750">
        <ele>3432.000</ele>
        <time>2017-07-02T16:52:09Z</time>
        <name>WPT.934</name>
      </trkpt>
      <trkpt lat="37.500993710" lon="-106.836406260">
        <ele>3433.000</ele>
        <time>2017-07-02T16:52:17Z</time>
        <name>WPT.935</name>
      </trkpt>
      <trkpt lat="37.501011700" lon="-106.836453530">
        <ele>3433.000</ele>
        <time>2017-07-02T16:52:22Z</time>
        <name>WPT.936</name>
      </trkpt>
      <trkpt lat="37.501016040" lon="-106.836506470">
        <ele>3431.000</ele>
        <time>2017-07-02T16:52:27Z</time>
        <name>WPT.937</name>
      </trkpt>
      <trkpt lat="37.501052110" lon="-106.836524660">
        <ele>3430.000</ele>
        <time>2017-07-02T16:52:33Z</time>
        <name>WPT.938</name>
      </trkpt>
      <trkpt lat="37.501012550" lon="-106.836536270">
        <ele>3431.000</ele>
        <time>2017-07-02T16:52:51Z</time>
        <name>WPT.939</name>
      </trkpt>
      <trkpt lat="37.500980910" lon="-106.836563140">
        <ele>3430.000</ele>
        <time>2017-07-02T16:52:55Z</time>
        <name>WPT.940</name>
      </trkpt>
      <trkpt lat="37.500968600" lon="-106.836622600">
        <ele>3430.000</ele>
        <time>2017-07-02T16:52:59Z</time>
        <name>WPT.941</name>
      </trkpt>
      <trkpt lat="37.500961510" lon="-106.836667240">
        <ele>3431.000</ele>
        <time>2017-07-02T16:53:02Z</time>
        <name>WPT.942</name>
      </trkpt>
      <trkpt lat="37.500950990" lon="-106.836714380">
        <ele>3432.000</ele>
        <time>2017-07-02T16:53:06Z</time>
        <name>WPT.943</name>
      </trkpt>
      <trkpt lat="37.500945040" lon="-106.836762740">
        <ele>3434.000</ele>
        <time>2017-07-02T16:53:10Z</time>
        <name>WPT.944</name>
      </trkpt>
      <trkpt lat="37.500956280" lon="-106.836806020">
        <ele>3429.000</ele>
        <time>2017-07-02T16:53:16Z</time>
        <name>WPT.945</name>
      </trkpt>
      <trkpt lat="37.500968410" lon="-106.836852240">
        <ele>3427.000</ele>
        <time>2017-07-02T16:53:21Z</time>
        <name>WPT.946</name>
      </trkpt>
      <trkpt lat="37.500968210" lon="-106.836901110">
        <ele>3429.000</ele>
        <time>2017-07-02T16:53:25Z</time>
        <name>WPT.947</name>
      </trkpt>
      <trkpt lat="37.500961650" lon="-106.836952050">
        <ele>3430.000</ele>
        <time>2017-07-02T16:53:30Z</time>
        <name>WPT.948</name>
      </trkpt>
      <trkpt lat="37.500950870" lon="-106.836999730">
        <ele>3429.000</ele>
        <time>2017-07-02T16:53:36Z</time>
        <name>WPT.949</name>
      </trkpt>
      <trkpt lat="37.500941980" lon="-106.837044940">
        <ele>3431.000</ele>
        <time>2017-07-02T16:53:46Z</time>
        <name>WPT.950</name>
      </trkpt>
      <trkpt lat="37.500966090" lon="-106.837081790">
        <ele>3434.000</ele>
        <time>2017-07-02T16:53:59Z</time>
        <name>WPT.951</name>
      </trkpt>
      <trkpt lat="37.500976590" lon="-106.837131900">
        <ele>3437.000</ele>
        <time>2017-07-02T16:54:24Z</time>
        <name>WPT.952</name>
      </trkpt>
      <trkpt lat="37.500982180" lon="-106.837185620">
        <ele>3438.000</ele>
        <time>2017-07-02T16:54:29Z</time>
        <name>WPT.953</name>
      </trkpt>
      <trkpt lat="37.500966940" lon="-106.837229840">
        <ele>3440.000</ele>
        <time>2017-07-02T16:55:02Z</time>
        <name>WPT.954</name>
      </trkpt>
      <trkpt lat="37.500979260" lon="-106.837275470">
        <ele>3439.000</ele>
        <time>2017-07-02T16:55:08Z</time>
        <name>WPT.955</name>
      </trkpt>
      <trkpt lat="37.500997360" lon="-106.837318170">
        <ele>3437.000</ele>
        <time>2017-07-02T16:55:14Z</time>
        <name>WPT.956</name>
      </trkpt>
      <trkpt lat="37.500989750" lon="-106.837364400">
        <ele>3438.000</ele>
        <time>2017-07-02T16:55:21Z</time>
        <name>WPT.957</name>
      </trkpt>
      <trkpt lat="37.500969720" lon="-106.837407920">
        <ele>3438.000</ele>
        <time>2017-07-02T16:55:26Z</time>
        <name>WPT.958</name>
      </trkpt>
      <trkpt lat="37.500949120" lon="-106.837452190">
        <ele>3439.000</ele>
        <time>2017-07-02T16:55:32Z</time>
        <name>WPT.959</name>
      </trkpt>
      <trkpt lat="37.500941250" lon="-106.837503270">
        <ele>3440.000</ele>
        <time>2017-07-02T16:55:38Z</time>
        <name>WPT.960</name>
      </trkpt>
      <trkpt lat="37.500937420" lon="-106.837549440">
        <ele>3439.000</ele>
        <time>2017-07-02T16:55:42Z</time>
        <name>WPT.961</name>
      </trkpt>
      <trkpt lat="37.500923170" lon="-106.837593020">
        <ele>3440.000</ele>
        <time>2017-07-02T16:55:45Z</time>
        <name>WPT.962</name>
      </trkpt>
      <trkpt lat="37.500922800" lon="-106.837641930">
        <ele>3440.000</ele>
        <time>2017-07-02T16:55:48Z</time>
        <name>WPT.963</name>
      </trkpt>
      <trkpt lat="37.500916550" lon="-106.837696710">
        <ele>3439.000</ele>
        <time>2017-07-02T16:55:51Z</time>
        <name>WPT.964</name>
      </trkpt>
      <trkpt lat="37.500918030" lon="-106.837754310">
        <ele>3438.000</ele>
        <time>2017-07-02T16:55:54Z</time>
        <name>WPT.965</name>
      </trkpt>
      <trkpt lat="37.500914880" lon="-106.837811590">
        <ele>3439.000</ele>
        <time>2017-07-02T16:55:58Z</time>
        <name>WPT.966</name>
      </trkpt>
      <trkpt lat="37.500905790" lon="-106.837868070">
        <ele>3437.000</ele>
        <time>2017-07-02T16:56:02Z</time>
        <name>WPT.967</name>
      </trkpt>
      <trkpt lat="37.500899910" lon="-106.837918790">
        <ele>3438.000</ele>
        <time>2017-07-02T16:56:05Z</time>
        <name>WPT.968</name>
      </trkpt>
      <trkpt lat="37.500895430" lon="-106.837964480">
        <ele>3438.000</ele>
        <time>2017-07-02T16:56:09Z</time>
        <name>WPT.969</name>
      </trkpt>
      <trkpt lat="37.500897210" lon="-106.838014570">
        <ele>3438.000</ele>
        <time>2017-07-02T16:56:12Z</time>
        <name>WPT.970</name>
      </trkpt>
      <trkpt lat="37.500890070" lon="-106.838062770">
        <ele>3437.000</ele>
        <time>2017-07-02T16:56:16Z</time>
        <name>WPT.971</name>
      </trkpt>
      <trkpt lat="37.500874690" lon="-106.838108420">
        <ele>3442.000</ele>
        <time>2017-07-02T16:56:21Z</time>
        <name>WPT.972</name>
      </trkpt>
      <trkpt lat="37.500847750" lon="-106.838153430">
        <ele>3443.000</ele>
        <time>2017-07-02T16:56:25Z</time>
        <name>WPT.973</name>
      </trkpt>
      <trkpt lat="37.500827440" lon="-106.838193640">
        <ele>3448.000</ele>
        <time>2017-07-02T16:56:30Z</time>
        <name>WPT.974</name>
      </trkpt>
      <trkpt lat="37.500808940" lon="-106.838241600">
        <ele>3448.000</ele>
        <time>2017-07-02T16:56:34Z</time>
        <name>WPT.975</name>
      </trkpt>
      <trkpt lat="37.500792370" lon="-106.838282110">
        <ele>3448.000</ele>
        <time>2017-07-02T16:56:37Z</time>
        <name>WPT.976</name>
      </trkpt>
      <trkpt lat="37.500777450" lon="-106.838323740">
        <ele>3450.000</ele>
        <time>2017-07-02T16:56:41Z</time>
        <name>WPT.977</name>
      </trkpt>
      <trkpt lat="37.500770620" lon="-106.838373810">
        <ele>3450.000</ele>
        <time>2017-07-02T16:56:45Z</time>
        <name>WPT.978</name>
      </trkpt>
      <trkpt lat="37.500761420" lon="-106.838420280">
        <ele>3450.000</ele>
        <time>2017-07-02T16:56:48Z</time>
        <name>WPT.979</name>
      </trkpt>
      <trkpt lat="37.500740870" lon="-106.838460710">
        <ele>3448.000</ele>
        <time>2017-07-02T16:56:51Z</time>
        <name>WPT.980</name>
      </trkpt>
      <trkpt lat="37.500732340" lon="-106.838517510">
        <ele>3444.000</ele>
        <time>2017-07-02T16:56:55Z</time>
        <name>WPT.981</name>
      </trkpt>
      <trkpt lat="37.500721510" lon="-106.838561700">
        <ele>3443.000</ele>
        <time>2017-07-02T16:56:57Z</time>
        <name>WPT.982</name>
      </trkpt>
      <trkpt lat="37.500710210" lon="-106.838609420">
        <ele>3441.000</ele>
        <time>2017-07-02T16:57:00Z</time>
        <name>WPT.983</name>
      </trkpt>
      <trkpt lat="37.500704480" lon="-106.838654890">
        <ele>3439.000</ele>
        <time>2017-07-02T16:57:03Z</time>
        <name>WPT.984</name>
      </trkpt>
      <trkpt lat="37.500698090" lon="-106.838702940">
        <ele>3439.000</ele>
        <time>2017-07-02T16:57:07Z</time>
        <name>WPT.985</name>
      </trkpt>
      <trkpt lat="37.500679820" lon="-106.838747440">
        <ele>3438.000</ele>
        <time>2017-07-02T16:57:10Z</time>
        <name>WPT.986</name>
      </trkpt>
      <trkpt lat="37.500644470" lon="-106.838776560">
        <ele>3437.000</ele>
        <time>2017-07-02T16:57:15Z</time>
        <name>WPT.987</name>
      </trkpt>
      <trkpt lat="37.500611080" lon="-106.838815060">
        <ele>3437.000</ele>
        <time>2017-07-02T16:57:20Z</time>
        <name>WPT.988</name>
      </trkpt>
      <trkpt lat="37.500595740" lon="-106.838858920">
        <ele>3437.000</ele>
        <time>2017-07-02T16:57:25Z</time>
        <name>WPT.989</name>
      </trkpt>
      <trkpt lat="37.500564400" lon="-106.838894310">
        <ele>3438.000</ele>
        <time>2017-07-02T16:57:29Z</time>
        <name>WPT.990</name>
      </trkpt>
      <trkpt lat="37.500536760" lon="-106.838934310">
        <ele>3437.000</ele>
        <time>2017-07-02T16:57:34Z</time>
        <name>WPT.991</name>
      </trkpt>
      <trkpt lat="37.500508130" lon="-106.838972200">
        <ele>3435.000</ele>
        <time>2017-07-02T16:57:38Z</time>
        <name>WPT.992</name>
      </trkpt>
      <trkpt lat="37.500502200" lon="-106.839022740">
        <ele>3436.000</ele>
        <time>2017-07-02T16:57:42Z</time>
        <name>WPT.993</name>
      </trkpt>
      <trkpt lat="37.500479220" lon="-106.839060000">
        <ele>3437.000</ele>
        <time>2017-07-02T16:57:45Z</time>
        <name>WPT.994</name>
      </trkpt>
      <trkpt lat="37.500451670" lon="-106.839092610">
        <ele>3438.000</ele>
        <time>2017-07-02T16:57:49Z</time>
        <name>WPT.995</name>
      </trkpt>
      <trkpt lat="37.500425260" lon="-106.839124270">
        <ele>3438.000</ele>
        <time>2017-07-02T16:57:52Z</time>
        <name>WPT.996</name>
      </trkpt>
      <trkpt lat="37.500393440" lon="-106.839151780">
        <ele>3439.000</ele>
        <time>2017-07-02T16:57:55Z</time>
        <name>WPT.997</name>
      </trkpt>
      <trkpt lat="37.500365840" lon="-106.839188430">
        <ele>3437.000</ele>
        <time>2017-07-02T16:58:00Z</time>
        <name>WPT.998</name>
      </trkpt>
      <trkpt lat="37.500327590" lon="-106.839197750">
        <ele>3437.000</ele>
        <time>2017-07-02T16:58:15Z</time>
        <name>WPT.999</name>
      </trkpt>
      <trkpt lat="37.500299780" lon="-106.839239380">
        <ele>3436.000</ele>
        <time>2017-07-02T16:58:20Z</time>
        <name>WPT.1000</name>
      </trkpt>
      <trkpt lat="37.500285420" lon="-106.839283090">
        <ele>3436.000</ele>
        <time>2017-07-02T16:58:24Z</time>
        <name>WPT.1001</name>
      </trkpt>
      <trkpt lat="37.500265150" lon="-106.839325520">
        <ele>3436.000</ele>
        <time>2017-07-02T16:58:28Z</time>
        <name>WPT.1002</name>
      </trkpt>
      <trkpt lat="37.500250360" lon="-106.839374690">
        <ele>3435.000</ele>
        <time>2017-07-02T16:58:31Z</time>
        <name>WPT.1003</name>
      </trkpt>
      <trkpt lat="37.500236990" lon="-106.839417360">
        <ele>3435.000</ele>
        <time>2017-07-02T16:58:34Z</time>
        <name>WPT.1004</name>
      </trkpt>
      <trkpt lat="37.500221830" lon="-106.839467040">
        <ele>3435.000</ele>
        <time>2017-07-02T16:58:39Z</time>
        <name>WPT.1005</name>
      </trkpt>
      <trkpt lat="37.500211110" lon="-106.839511550">
        <ele>3435.000</ele>
        <time>2017-07-02T16:58:42Z</time>
        <name>WPT.1006</name>
      </trkpt>
      <trkpt lat="37.500194870" lon="-106.839552150">
        <ele>3434.000</ele>
        <time>2017-07-02T16:58:46Z</time>
        <name>WPT.1007</name>
      </trkpt>
      <trkpt lat="37.500182850" lon="-106.839602500">
        <ele>3434.000</ele>
        <time>2017-07-02T16:58:50Z</time>
        <name>WPT.1008</name>
      </trkpt>
      <trkpt lat="37.500154740" lon="-106.839641630">
        <ele>3437.000</ele>
        <time>2017-07-02T16:58:54Z</time>
        <name>WPT.1009</name>
      </trkpt>
      <trkpt lat="37.500126080" lon="-106.839680890">
        <ele>3435.000</ele>
        <time>2017-07-02T16:58:58Z</time>
        <name>WPT.1010</name>
      </trkpt>
      <trkpt lat="37.500109010" lon="-106.839728320">
        <ele>3433.000</ele>
        <time>2017-07-02T16:59:01Z</time>
        <name>WPT.1011</name>
      </trkpt>
      <trkpt lat="37.500101330" lon="-106.839773510">
        <ele>3433.000</ele>
        <time>2017-07-02T16:59:04Z</time>
        <name>WPT.1012</name>
      </trkpt>
      <trkpt lat="37.500082370" lon="-106.839816780">
        <ele>3432.000</ele>
        <time>2017-07-02T16:59:07Z</time>
        <name>WPT.1013</name>
      </trkpt>
      <trkpt lat="37.500065340" lon="-106.839858070">
        <ele>3432.000</ele>
        <time>2017-07-02T16:59:11Z</time>
        <name>WPT.1014</name>
      </trkpt>
      <trkpt lat="37.500046900" lon="-106.839911820">
        <ele>3431.000</ele>
        <time>2017-07-02T16:59:14Z</time>
        <name>WPT.1015</name>
      </trkpt>
      <trkpt lat="37.500031740" lon="-106.839963630">
        <ele>3430.000</ele>
        <time>2017-07-02T16:59:18Z</time>
        <name>WPT.1016</name>
      </trkpt>
      <trkpt lat="37.500020020" lon="-106.840017360">
        <ele>3427.000</ele>
        <time>2017-07-02T16:59:21Z</time>
        <name>WPT.1017</name>
      </trkpt>
      <trkpt lat="37.500002900" lon="-106.840068120">
        <ele>3426.000</ele>
        <time>2017-07-02T16:59:25Z</time>
        <name>WPT.1018</name>
      </trkpt>
      <trkpt lat="37.499987130" lon="-106.840111660">
        <ele>3427.000</ele>
        <time>2017-07-02T16:59:28Z</time>
        <name>WPT.1019</name>
      </trkpt>
      <trkpt lat="37.499967400" lon="-106.840163280">
        <ele>3427.000</ele>
        <time>2017-07-02T16:59:31Z</time>
        <name>WPT.1020</name>
      </trkpt>
      <trkpt lat="37.499945700" lon="-106.840214280">
        <ele>3429.000</ele>
        <time>2017-07-02T16:59:36Z</time>
        <name>WPT.1021</name>
      </trkpt>
      <trkpt lat="37.499922270" lon="-106.840261540">
        <ele>3433.000</ele>
        <time>2017-07-02T16:59:41Z</time>
        <name>WPT.1022</name>
      </trkpt>
      <trkpt lat="37.499909310" lon="-106.840306170">
        <ele>3435.000</ele>
        <time>2017-07-02T16:59:44Z</time>
        <name>WPT.1023</name>
      </trkpt>
      <trkpt lat="37.499899300" lon="-106.840354550">
        <ele>3436.000</ele>
        <time>2017-07-02T16:59:49Z</time>
        <name>WPT.1024</name>
      </trkpt>
      <trkpt lat="37.499882920" lon="-106.840397810">
        <ele>3435.000</ele>
        <time>2017-07-02T16:59:52Z</time>
        <name>WPT.1025</name>
      </trkpt>
      <trkpt lat="37.499896770" lon="-106.840441890">
        <ele>3436.000</ele>
        <time>2017-07-02T17:00:05Z</time>
        <name>WPT.1026</name>
      </trkpt>
      <trkpt lat="37.499876560" lon="-106.840492580">
        <ele>3435.000</ele>
        <time>2017-07-02T17:00:20Z</time>
        <name>WPT.1027</name>
      </trkpt>
      <trkpt lat="37.499857240" lon="-106.840535820">
        <ele>3483.000</ele>
        <time>2017-07-02T17:00:24Z</time>
        <name>WPT.1028</name>
      </trkpt>
      <trkpt lat="37.499858710" lon="-106.840593450">
        <ele>3457.000</ele>
        <time>2017-07-02T17:00:27Z</time>
        <name>WPT.1029</name>
      </trkpt>
      <trkpt lat="37.499853370" lon="-106.840643480">
        <ele>3442.000</ele>
        <time>2017-07-02T17:00:31Z</time>
        <name>WPT.1030</name>
      </trkpt>
      <trkpt lat="37.499868620" lon="-106.840692710">
        <ele>3437.000</ele>
        <time>2017-07-02T17:00:34Z</time>
        <name>WPT.1031</name>
      </trkpt>
      <trkpt lat="37.499892570" lon="-106.840734850">
        <ele>3438.000</ele>
        <time>2017-07-02T17:00:39Z</time>
        <name>WPT.1032</name>
      </trkpt>
      <trkpt lat="37.499903840" lon="-106.840786390">
        <ele>3436.000</ele>
        <time>2017-07-02T17:00:44Z</time>
        <name>WPT.1033</name>
      </trkpt>
      <trkpt lat="37.499923390" lon="-106.840828710">
        <ele>3435.000</ele>
        <time>2017-07-02T17:00:50Z</time>
        <name>WPT.1034</name>
      </trkpt>
      <trkpt lat="37.499958880" lon="-106.840859210">
        <ele>3439.000</ele>
        <time>2017-07-02T17:00:56Z</time>
        <name>WPT.1035</name>
      </trkpt>
      <trkpt lat="37.499996790" lon="-106.840884270">
        <ele>3441.000</ele>
        <time>2017-07-02T17:01:00Z</time>
        <name>WPT.1036</name>
      </trkpt>
      <trkpt lat="37.500005700" lon="-106.840928360">
        <ele>3443.000</ele>
        <time>2017-07-02T17:01:13Z</time>
        <name>WPT.1037</name>
      </trkpt>
      <trkpt lat="37.500010510" lon="-106.840986270">
        <ele>3443.000</ele>
        <time>2017-07-02T17:01:26Z</time>
        <name>WPT.1038</name>
      </trkpt>
      <trkpt lat="37.500049570" lon="-106.841003480">
        <ele>3443.000</ele>
        <time>2017-07-02T17:01:31Z</time>
        <name>WPT.1039</name>
      </trkpt>
      <trkpt lat="37.500094240" lon="-106.840992380">
        <ele>3443.000</ele>
        <time>2017-07-02T17:01:38Z</time>
        <name>WPT.1040</name>
      </trkpt>
      <trkpt lat="37.500131390" lon="-106.841000920">
        <ele>3445.000</ele>
        <time>2017-07-02T17:01:43Z</time>
        <name>WPT.1041</name>
      </trkpt>
      <trkpt lat="37.500170690" lon="-106.841001480">
        <ele>3445.000</ele>
        <time>2017-07-02T17:01:47Z</time>
        <name>WPT.1042</name>
      </trkpt>
      <trkpt lat="37.500208690" lon="-106.841001000">
        <ele>3448.000</ele>
        <time>2017-07-02T17:01:51Z</time>
        <name>WPT.1043</name>
      </trkpt>
      <trkpt lat="37.500239570" lon="-106.841036160">
        <ele>3450.000</ele>
        <time>2017-07-02T17:01:56Z</time>
        <name>WPT.1044</name>
      </trkpt>
      <trkpt lat="37.500279240" lon="-106.841047660">
        <ele>3447.000</ele>
        <time>2017-07-02T17:02:00Z</time>
        <name>WPT.1045</name>
      </trkpt>
      <trkpt lat="37.500318830" lon="-106.841040600">
        <ele>3449.000</ele>
        <time>2017-07-02T17:02:03Z</time>
        <name>WPT.1046</name>
      </trkpt>
      <trkpt lat="37.500356920" lon="-106.841060590">
        <ele>3449.000</ele>
        <time>2017-07-02T17:02:13Z</time>
        <name>WPT.1047</name>
      </trkpt>
      <trkpt lat="37.500390350" lon="-106.841093750">
        <ele>3449.000</ele>
        <time>2017-07-02T17:02:18Z</time>
        <name>WPT.1048</name>
      </trkpt>
      <trkpt lat="37.500426810" lon="-106.841116780">
        <ele>3450.000</ele>
        <time>2017-07-02T17:02:22Z</time>
        <name>WPT.1049</name>
      </trkpt>
      <trkpt lat="37.500471490" lon="-106.841130130">
        <ele>3447.000</ele>
        <time>2017-07-02T17:02:25Z</time>
        <name>WPT.1050</name>
      </trkpt>
      <trkpt lat="37.500518330" lon="-106.841126470">
        <ele>3483.000</ele>
        <time>2017-07-02T17:02:29Z</time>
        <name>WPT.1051</name>
      </trkpt>
      <trkpt lat="37.500559050" lon="-106.841141680">
        <ele>3462.000</ele>
        <time>2017-07-02T17:02:33Z</time>
        <name>WPT.1052</name>
      </trkpt>
      <trkpt lat="37.500596200" lon="-106.841158390">
        <ele>3444.000</ele>
        <time>2017-07-02T17:02:38Z</time>
        <name>WPT.1053</name>
      </trkpt>
      <trkpt lat="37.500636930" lon="-106.841168070">
        <ele>3445.000</ele>
        <time>2017-07-02T17:02:41Z</time>
        <name>WPT.1054</name>
      </trkpt>
      <trkpt lat="37.500679440" lon="-106.841188990">
        <ele>3449.000</ele>
        <time>2017-07-02T17:02:51Z</time>
        <name>WPT.1055</name>
      </trkpt>
      <trkpt lat="37.500704450" lon="-106.841221780">
        <ele>3454.000</ele>
        <time>2017-07-02T17:02:56Z</time>
        <name>WPT.1056</name>
      </trkpt>
      <trkpt lat="37.500736080" lon="-106.841250140">
        <ele>3457.000</ele>
        <time>2017-07-02T17:02:59Z</time>
        <name>WPT.1057</name>
      </trkpt>
      <trkpt lat="37.500768640" lon="-106.841281760">
        <ele>3460.000</ele>
        <time>2017-07-02T17:03:04Z</time>
        <name>WPT.1058</name>
      </trkpt>
      <trkpt lat="37.500804130" lon="-106.841313550">
        <ele>3458.000</ele>
        <time>2017-07-02T17:03:08Z</time>
        <name>WPT.1059</name>
      </trkpt>
      <trkpt lat="37.500844290" lon="-106.841326280">
        <ele>3458.000</ele>
        <time>2017-07-02T17:03:12Z</time>
        <name>WPT.1060</name>
      </trkpt>
      <trkpt lat="37.500876100" lon="-106.841354030">
        <ele>3461.000</ele>
        <time>2017-07-02T17:03:16Z</time>
        <name>WPT.1061</name>
      </trkpt>
      <trkpt lat="37.500903790" lon="-106.841393930">
        <ele>3464.000</ele>
        <time>2017-07-02T17:03:21Z</time>
        <name>WPT.1062</name>
      </trkpt>
      <trkpt lat="37.500936460" lon="-106.841423130">
        <ele>3465.000</ele>
        <time>2017-07-02T17:03:27Z</time>
        <name>WPT.1063</name>
      </trkpt>
      <trkpt lat="37.500972530" lon="-106.841438070">
        <ele>3464.000</ele>
        <time>2017-07-02T17:03:33Z</time>
        <name>WPT.1064</name>
      </trkpt>
      <trkpt lat="37.501009270" lon="-106.841454950">
        <ele>3486.000</ele>
        <time>2017-07-02T17:03:42Z</time>
        <name>WPT.1065</name>
      </trkpt>
      <trkpt lat="37.500973230" lon="-106.841448380">
        <ele>3468.000</ele>
        <time>2017-07-02T17:04:02Z</time>
        <name>WPT.1066</name>
      </trkpt>
      <trkpt lat="37.500937280" lon="-106.841429510">
        <ele>3471.000</ele>
        <time>2017-07-02T17:04:08Z</time>
        <name>WPT.1067</name>
      </trkpt>
      <trkpt lat="37.500900920" lon="-106.841440250">
        <ele>3472.000</ele>
        <time>2017-07-02T17:04:11Z</time>
        <name>WPT.1068</name>
      </trkpt>
      <trkpt lat="37.500866350" lon="-106.841470770">
        <ele>3469.000</ele>
        <time>2017-07-02T17:04:15Z</time>
        <name>WPT.1069</name>
      </trkpt>
      <trkpt lat="37.500822790" lon="-106.841484790">
        <ele>3468.000</ele>
        <time>2017-07-02T17:04:19Z</time>
        <name>WPT.1070</name>
      </trkpt>
      <trkpt lat="37.500797510" lon="-106.841519400">
        <ele>3467.000</ele>
        <time>2017-07-02T17:04:25Z</time>
        <name>WPT.1071</name>
      </trkpt>
      <trkpt lat="37.500791620" lon="-106.841571100">
        <ele>3455.000</ele>
        <time>2017-07-02T17:04:29Z</time>
        <name>WPT.1072</name>
      </trkpt>
      <trkpt lat="37.500764600" lon="-106.841602450">
        <ele>3462.000</ele>
        <time>2017-07-02T17:04:53Z</time>
        <name>WPT.1073</name>
      </trkpt>
      <trkpt lat="37.500727660" lon="-106.841593640">
        <ele>3461.000</ele>
        <time>2017-07-02T17:05:03Z</time>
        <name>WPT.1074</name>
      </trkpt>
      <trkpt lat="37.500692090" lon="-106.841603710">
        <ele>3460.000</ele>
        <time>2017-07-02T17:05:30Z</time>
        <name>WPT.1075</name>
      </trkpt>
      <trkpt lat="37.500654910" lon="-106.841611690">
        <ele>3462.000</ele>
        <time>2017-07-02T17:05:36Z</time>
        <name>WPT.1076</name>
      </trkpt>
      <trkpt lat="37.500614180" lon="-106.841598610">
        <ele>3478.000</ele>
        <time>2017-07-02T17:05:41Z</time>
        <name>WPT.1077</name>
      </trkpt>
      <trkpt lat="37.500654520" lon="-106.841611570">
        <ele>3467.000</ele>
        <time>2017-07-02T17:06:14Z</time>
        <name>WPT.1078</name>
      </trkpt>
      <trkpt lat="37.500693860" lon="-106.841613310">
        <ele>3466.000</ele>
        <time>2017-07-02T17:06:28Z</time>
        <name>WPT.1079</name>
      </trkpt>
      <trkpt lat="37.500716060" lon="-106.841573420">
        <ele>3462.000</ele>
        <time>2017-07-02T17:44:43Z</time>
        <name>WPT.1080</name>
      </trkpt>
      <trkpt lat="37.500737590" lon="-106.841616310">
        <ele>3463.000</ele>
        <time>2017-07-02T17:47:22Z</time>
        <name>WPT.1081</name>
      </trkpt>
      <trkpt lat="37.500773900" lon="-106.841636370">
        <ele>3462.000</ele>
        <time>2017-07-02T17:47:27Z</time>
        <name>WPT.1082</name>
      </trkpt>
      <trkpt lat="37.500809360" lon="-106.841625970">
        <ele>3461.000</ele>
        <time>2017-07-02T17:47:35Z</time>
        <name>WPT.1083</name>
      </trkpt>
      <trkpt lat="37.500832650" lon="-106.841588150">
        <ele>3459.000</ele>
        <time>2017-07-02T17:49:27Z</time>
        <name>WPT.1084</name>
      </trkpt>
      <trkpt lat="37.500869090" lon="-106.841556370">
        <ele>3456.000</ele>
        <time>2017-07-02T17:49:34Z</time>
        <name>WPT.1085</name>
      </trkpt>
      <trkpt lat="37.500898290" lon="-106.841528920">
        <ele>3459.000</ele>
        <time>2017-07-02T17:49:37Z</time>
        <name>WPT.1086</name>
      </trkpt>
      <trkpt lat="37.500937480" lon="-106.841511790">
        <ele>3468.000</ele>
        <time>2017-07-02T17:49:43Z</time>
        <name>WPT.1087</name>
      </trkpt>
      <trkpt lat="37.500981140" lon="-106.841506640">
        <ele>3464.000</ele>
        <time>2017-07-02T17:49:51Z</time>
        <name>WPT.1088</name>
      </trkpt>
      <trkpt lat="37.501027310" lon="-106.841506340">
        <ele>3464.000</ele>
        <time>2017-07-02T17:49:58Z</time>
        <name>WPT.1089</name>
      </trkpt>
      <trkpt lat="37.501071800" lon="-106.841503490">
        <ele>3461.000</ele>
        <time>2017-07-02T17:50:02Z</time>
        <name>WPT.1090</name>
      </trkpt>
      <trkpt lat="37.501099210" lon="-106.841462160">
        <ele>3460.000</ele>
        <time>2017-07-02T17:50:06Z</time>
        <name>WPT.1091</name>
      </trkpt>
      <trkpt lat="37.501063250" lon="-106.841450300">
        <ele>3457.000</ele>
        <time>2017-07-02T17:50:58Z</time>
        <name>WPT.1092</name>
      </trkpt>
      <trkpt lat="37.501024230" lon="-106.841443820">
        <ele>3456.000</ele>
        <time>2017-07-02T17:51:06Z</time>
        <name>WPT.1093</name>
      </trkpt>
      <trkpt lat="37.500991290" lon="-106.841418770">
        <ele>3456.000</ele>
        <time>2017-07-02T17:51:10Z</time>
        <name>WPT.1094</name>
      </trkpt>
      <trkpt lat="37.500966320" lon="-106.841384340">
        <ele>3452.000</ele>
        <time>2017-07-02T17:51:13Z</time>
        <name>WPT.1095</name>
      </trkpt>
      <trkpt lat="37.500926880" lon="-106.841338460">
        <ele>3458.000</ele>
        <time>2017-07-02T17:51:18Z</time>
        <name>WPT.1096</name>
      </trkpt>
      <trkpt lat="37.500894330" lon="-106.841299770">
        <ele>3460.000</ele>
        <time>2017-07-02T17:51:23Z</time>
        <name>WPT.1097</name>
      </trkpt>
      <trkpt lat="37.500865200" lon="-106.841259920">
        <ele>3461.000</ele>
        <time>2017-07-02T17:51:27Z</time>
        <name>WPT.1098</name>
      </trkpt>
      <trkpt lat="37.500834840" lon="-106.841225890">
        <ele>3461.000</ele>
        <time>2017-07-02T17:51:30Z</time>
        <name>WPT.1099</name>
      </trkpt>
      <trkpt lat="37.500791600" lon="-106.841226450">
        <ele>3451.000</ele>
        <time>2017-07-02T17:51:35Z</time>
        <name>WPT.1100</name>
      </trkpt>
      <trkpt lat="37.500755510" lon="-106.841214620">
        <ele>3457.000</ele>
        <time>2017-07-02T17:51:39Z</time>
        <name>WPT.1101</name>
      </trkpt>
      <trkpt lat="37.500711670" lon="-106.841203760">
        <ele>3454.000</ele>
        <time>2017-07-02T17:51:43Z</time>
        <name>WPT.1102</name>
      </trkpt>
      <trkpt lat="37.500672280" lon="-106.841196520">
        <ele>3456.000</ele>
        <time>2017-07-02T17:51:47Z</time>
        <name>WPT.1103</name>
      </trkpt>
      <trkpt lat="37.500625280" lon="-106.841179810">
        <ele>3457.000</ele>
        <time>2017-07-02T17:51:50Z</time>
        <name>WPT.1104</name>
      </trkpt>
      <trkpt lat="37.500577430" lon="-106.841165340">
        <ele>3458.000</ele>
        <time>2017-07-02T17:51:55Z</time>
        <name>WPT.1105</name>
      </trkpt>
      <trkpt lat="37.500541490" lon="-106.841150300">
        <ele>3458.000</ele>
        <time>2017-07-02T17:51:59Z</time>
        <name>WPT.1106</name>
      </trkpt>
      <trkpt lat="37.500501870" lon="-106.841120140">
        <ele>3457.000</ele>
        <time>2017-07-02T17:52:06Z</time>
        <name>WPT.1107</name>
      </trkpt>
      <trkpt lat="37.500454790" lon="-106.841122400">
        <ele>3458.000</ele>
        <time>2017-07-02T17:52:15Z</time>
        <name>WPT.1108</name>
      </trkpt>
      <trkpt lat="37.500416810" lon="-106.841117360">
        <ele>3458.000</ele>
        <time>2017-07-02T17:52:17Z</time>
        <name>WPT.1109</name>
      </trkpt>
      <trkpt lat="37.500396330" lon="-106.841073390">
        <ele>3457.000</ele>
        <time>2017-07-02T17:52:22Z</time>
        <name>WPT.1110</name>
      </trkpt>
      <trkpt lat="37.500369710" lon="-106.841040870">
        <ele>3454.000</ele>
        <time>2017-07-02T17:52:30Z</time>
        <name>WPT.1111</name>
      </trkpt>
      <trkpt lat="37.500324120" lon="-106.841029020">
        <ele>3451.000</ele>
        <time>2017-07-02T17:52:34Z</time>
        <name>WPT.1112</name>
      </trkpt>
      <trkpt lat="37.500288140" lon="-106.841021940">
        <ele>3451.000</ele>
        <time>2017-07-02T17:52:36Z</time>
        <name>WPT.1113</name>
      </trkpt>
      <trkpt lat="37.500249240" lon="-106.841018000">
        <ele>3451.000</ele>
        <time>2017-07-02T17:52:38Z</time>
        <name>WPT.1114</name>
      </trkpt>
      <trkpt lat="37.500205750" lon="-106.841005070">
        <ele>3454.000</ele>
        <time>2017-07-02T17:52:40Z</time>
        <name>WPT.1115</name>
      </trkpt>
      <trkpt lat="37.500173280" lon="-106.840976590">
        <ele>3454.000</ele>
        <time>2017-07-02T17:52:42Z</time>
        <name>WPT.1116</name>
      </trkpt>
      <trkpt lat="37.500135620" lon="-106.840953110">
        <ele>3454.000</ele>
        <time>2017-07-02T17:52:46Z</time>
        <name>WPT.1117</name>
      </trkpt>
      <trkpt lat="37.500097280" lon="-106.840953200">
        <ele>3489.000</ele>
        <time>2017-07-02T17:52:50Z</time>
        <name>WPT.1118</name>
      </trkpt>
      <trkpt lat="37.500065730" lon="-106.840976830">
        <ele>3462.000</ele>
        <time>2017-07-02T17:52:55Z</time>
        <name>WPT.1119</name>
      </trkpt>
      <trkpt lat="37.500066760" lon="-106.840921870">
        <ele>3456.000</ele>
        <time>2017-07-02T17:53:10Z</time>
        <name>WPT.1120</name>
      </trkpt>
      <trkpt lat="37.500059610" lon="-106.840863200">
        <ele>3457.000</ele>
        <time>2017-07-02T17:53:23Z</time>
        <name>WPT.1121</name>
      </trkpt>
      <trkpt lat="37.500036480" lon="-106.840827510">
        <ele>3457.000</ele>
        <time>2017-07-02T17:53:27Z</time>
        <name>WPT.1122</name>
      </trkpt>
      <trkpt lat="37.500010820" lon="-106.840783670">
        <ele>3456.000</ele>
        <time>2017-07-02T17:53:31Z</time>
        <name>WPT.1123</name>
      </trkpt>
      <trkpt lat="37.499980340" lon="-106.840743320">
        <ele>3453.000</ele>
        <time>2017-07-02T17:53:34Z</time>
        <name>WPT.1124</name>
      </trkpt>
      <trkpt lat="37.499949270" lon="-106.840717410">
        <ele>3449.000</ele>
        <time>2017-07-02T17:53:43Z</time>
        <name>WPT.1125</name>
      </trkpt>
      <trkpt lat="37.499924200" lon="-106.840677570">
        <ele>3448.000</ele>
        <time>2017-07-02T17:53:56Z</time>
        <name>WPT.1126</name>
      </trkpt>
      <trkpt lat="37.499920740" lon="-106.840610180">
        <ele>3448.000</ele>
        <time>2017-07-02T17:54:00Z</time>
        <name>WPT.1127</name>
      </trkpt>
      <trkpt lat="37.499910670" lon="-106.840564240">
        <ele>3448.000</ele>
        <time>2017-07-02T17:54:04Z</time>
        <name>WPT.1128</name>
      </trkpt>
      <trkpt lat="37.499927450" lon="-106.840509640">
        <ele>3448.000</ele>
        <time>2017-07-02T17:54:11Z</time>
        <name>WPT.1129</name>
      </trkpt>
      <trkpt lat="37.499930500" lon="-106.840461840">
        <ele>3447.000</ele>
        <time>2017-07-02T17:54:16Z</time>
        <name>WPT.1130</name>
      </trkpt>
      <trkpt lat="37.499944260" lon="-106.840414640">
        <ele>3447.000</ele>
        <time>2017-07-02T17:54:19Z</time>
        <name>WPT.1131</name>
      </trkpt>
      <trkpt lat="37.499959120" lon="-106.840361420">
        <ele>3446.000</ele>
        <time>2017-07-02T17:54:22Z</time>
        <name>WPT.1132</name>
      </trkpt>
      <trkpt lat="37.499952190" lon="-106.840302660">
        <ele>3448.000</ele>
        <time>2017-07-02T17:54:26Z</time>
        <name>WPT.1133</name>
      </trkpt>
      <trkpt lat="37.499951010" lon="-106.840230920">
        <ele>3444.000</ele>
        <time>2017-07-02T17:54:29Z</time>
        <name>WPT.1134</name>
      </trkpt>
      <trkpt lat="37.499955260" lon="-106.840177310">
        <ele>3443.000</ele>
        <time>2017-07-02T17:54:32Z</time>
        <name>WPT.1135</name>
      </trkpt>
      <trkpt lat="37.499965680" lon="-106.840133540">
        <ele>3443.000</ele>
        <time>2017-07-02T17:54:35Z</time>
        <name>WPT.1136</name>
      </trkpt>
      <trkpt lat="37.499977790" lon="-106.840084700">
        <ele>3441.000</ele>
        <time>2017-07-02T17:54:38Z</time>
        <name>WPT.1137</name>
      </trkpt>
      <trkpt lat="37.499997230" lon="-106.840035140">
        <ele>3470.000</ele>
        <time>2017-07-02T17:54:41Z</time>
        <name>WPT.1138</name>
      </trkpt>
      <trkpt lat="37.500023250" lon="-106.839993310">
        <ele>3452.000</ele>
        <time>2017-07-02T17:54:45Z</time>
        <name>WPT.1139</name>
      </trkpt>
      <trkpt lat="37.500051180" lon="-106.839949970">
        <ele>3443.000</ele>
        <time>2017-07-02T17:54:50Z</time>
        <name>WPT.1140</name>
      </trkpt>
      <trkpt lat="37.500065520" lon="-106.839897190">
        <ele>3442.000</ele>
        <time>2017-07-02T17:54:53Z</time>
        <name>WPT.1141</name>
      </trkpt>
      <trkpt lat="37.500089560" lon="-106.839847330">
        <ele>3440.000</ele>
        <time>2017-07-02T17:54:58Z</time>
        <name>WPT.1142</name>
      </trkpt>
      <trkpt lat="37.500099200" lon="-106.839795420">
        <ele>3439.000</ele>
        <time>2017-07-02T17:55:02Z</time>
        <name>WPT.1143</name>
      </trkpt>
      <trkpt lat="37.500115440" lon="-106.839753110">
        <ele>3441.000</ele>
        <time>2017-07-02T17:55:06Z</time>
        <name>WPT.1144</name>
      </trkpt>
      <trkpt lat="37.500146720" lon="-106.839706970">
        <ele>3439.000</ele>
        <time>2017-07-02T17:55:10Z</time>
        <name>WPT.1145</name>
      </trkpt>
      <trkpt lat="37.500156980" lon="-106.839655360">
        <ele>3438.000</ele>
        <time>2017-07-02T17:55:14Z</time>
        <name>WPT.1146</name>
      </trkpt>
      <trkpt lat="37.500160290" lon="-106.839602850">
        <ele>3439.000</ele>
        <time>2017-07-02T17:55:18Z</time>
        <name>WPT.1147</name>
      </trkpt>
      <trkpt lat="37.500170440" lon="-106.839557560">
        <ele>3441.000</ele>
        <time>2017-07-02T17:55:21Z</time>
        <name>WPT.1148</name>
      </trkpt>
      <trkpt lat="37.500188770" lon="-106.839517750">
        <ele>3437.000</ele>
        <time>2017-07-02T17:55:24Z</time>
        <name>WPT.1149</name>
      </trkpt>
      <trkpt lat="37.500195880" lon="-106.839462050">
        <ele>3442.000</ele>
        <time>2017-07-02T17:55:33Z</time>
        <name>WPT.1150</name>
      </trkpt>
      <trkpt lat="37.500226760" lon="-106.839423790">
        <ele>3439.000</ele>
        <time>2017-07-02T17:55:36Z</time>
        <name>WPT.1151</name>
      </trkpt>
      <trkpt lat="37.500249860" lon="-106.839378540">
        <ele>3434.000</ele>
        <time>2017-07-02T17:55:42Z</time>
        <name>WPT.1152</name>
      </trkpt>
      <trkpt lat="37.500285280" lon="-106.839345410">
        <ele>3434.000</ele>
        <time>2017-07-02T17:55:44Z</time>
        <name>WPT.1153</name>
      </trkpt>
      <trkpt lat="37.500316480" lon="-106.839311990">
        <ele>3433.000</ele>
        <time>2017-07-02T17:55:47Z</time>
        <name>WPT.1154</name>
      </trkpt>
      <trkpt lat="37.500354130" lon="-106.839262800">
        <ele>3434.000</ele>
        <time>2017-07-02T17:55:50Z</time>
        <name>WPT.1155</name>
      </trkpt>
      <trkpt lat="37.500383070" lon="-106.839232230">
        <ele>3435.000</ele>
        <time>2017-07-02T17:55:54Z</time>
        <name>WPT.1156</name>
      </trkpt>
      <trkpt lat="37.500416780" lon="-106.839214320">
        <ele>3435.000</ele>
        <time>2017-07-02T17:56:09Z</time>
        <name>WPT.1157</name>
      </trkpt>
      <trkpt lat="37.500446040" lon="-106.839183750">
        <ele>3435.000</ele>
        <time>2017-07-02T17:56:12Z</time>
        <name>WPT.1158</name>
      </trkpt>
      <trkpt lat="37.500469650" lon="-106.839138690">
        <ele>3435.000</ele>
        <time>2017-07-02T17:56:15Z</time>
        <name>WPT.1159</name>
      </trkpt>
      <trkpt lat="37.500488440" lon="-106.839094080">
        <ele>3436.000</ele>
        <time>2017-07-02T17:56:18Z</time>
        <name>WPT.1160</name>
      </trkpt>
      <trkpt lat="37.500512540" lon="-106.839060240">
        <ele>3436.000</ele>
        <time>2017-07-02T17:56:21Z</time>
        <name>WPT.1161</name>
      </trkpt>
      <trkpt lat="37.500539850" lon="-106.839017700">
        <ele>3434.000</ele>
        <time>2017-07-02T17:56:26Z</time>
        <name>WPT.1162</name>
      </trkpt>
      <trkpt lat="37.500557790" lon="-106.838973340">
        <ele>3434.000</ele>
        <time>2017-07-02T17:56:31Z</time>
        <name>WPT.1163</name>
      </trkpt>
      <trkpt lat="37.500577710" lon="-106.838926300">
        <ele>3463.000</ele>
        <time>2017-07-02T17:56:35Z</time>
        <name>WPT.1164</name>
      </trkpt>
      <trkpt lat="37.500597760" lon="-106.838887170">
        <ele>3467.000</ele>
        <time>2017-07-02T17:56:41Z</time>
        <name>WPT.1165</name>
      </trkpt>
      <trkpt lat="37.500627570" lon="-106.838852380">
        <ele>3455.000</ele>
        <time>2017-07-02T17:56:45Z</time>
        <name>WPT.1166</name>
      </trkpt>
      <trkpt lat="37.500668740" lon="-106.838829960">
        <ele>3451.000</ele>
        <time>2017-07-02T17:56:49Z</time>
        <name>WPT.1167</name>
      </trkpt>
      <trkpt lat="37.500702250" lon="-106.838809410">
        <ele>3446.000</ele>
        <time>2017-07-02T17:56:53Z</time>
        <name>WPT.1168</name>
      </trkpt>
      <trkpt lat="37.500739060" lon="-106.838778650">
        <ele>3445.000</ele>
        <time>2017-07-02T17:56:56Z</time>
        <name>WPT.1169</name>
      </trkpt>
      <trkpt lat="37.500748550" lon="-106.838734180">
        <ele>3439.000</ele>
        <time>2017-07-02T17:56:59Z</time>
        <name>WPT.1170</name>
      </trkpt>
      <trkpt lat="37.500747440" lon="-106.838677970">
        <ele>3436.000</ele>
        <time>2017-07-02T17:57:02Z</time>
        <name>WPT.1171</name>
      </trkpt>
      <trkpt lat="37.500754800" lon="-106.838631630">
        <ele>3437.000</ele>
        <time>2017-07-02T17:57:05Z</time>
        <name>WPT.1172</name>
      </trkpt>
      <trkpt lat="37.500765610" lon="-106.838585000">
        <ele>3436.000</ele>
        <time>2017-07-02T17:57:07Z</time>
        <name>WPT.1173</name>
      </trkpt>
      <trkpt lat="37.500787230" lon="-106.838535930">
        <ele>3440.000</ele>
        <time>2017-07-02T17:57:11Z</time>
        <name>WPT.1174</name>
      </trkpt>
      <trkpt lat="37.500809550" lon="-106.838500130">
        <ele>3441.000</ele>
        <time>2017-07-02T17:57:14Z</time>
        <name>WPT.1175</name>
      </trkpt>
      <trkpt lat="37.500819050" lon="-106.838455300">
        <ele>3440.000</ele>
        <time>2017-07-02T17:57:17Z</time>
        <name>WPT.1176</name>
      </trkpt>
      <trkpt lat="37.500850610" lon="-106.838425960">
        <ele>3443.000</ele>
        <time>2017-07-02T17:57:21Z</time>
        <name>WPT.1177</name>
      </trkpt>
      <trkpt lat="37.500874370" lon="-106.838385170">
        <ele>3443.000</ele>
        <time>2017-07-02T17:57:24Z</time>
        <name>WPT.1178</name>
      </trkpt>
      <trkpt lat="37.500896570" lon="-106.838334670">
        <ele>3442.000</ele>
        <time>2017-07-02T17:57:27Z</time>
        <name>WPT.1179</name>
      </trkpt>
      <trkpt lat="37.500912230" lon="-106.838285720">
        <ele>3440.000</ele>
        <time>2017-07-02T17:57:31Z</time>
        <name>WPT.1180</name>
      </trkpt>
      <trkpt lat="37.500924490" lon="-106.838240330">
        <ele>3442.000</ele>
        <time>2017-07-02T17:57:36Z</time>
        <name>WPT.1181</name>
      </trkpt>
      <trkpt lat="37.500943680" lon="-106.838197070">
        <ele>3442.000</ele>
        <time>2017-07-02T17:57:40Z</time>
        <name>WPT.1182</name>
      </trkpt>
      <trkpt lat="37.500957180" lon="-106.838150520">
        <ele>3444.000</ele>
        <time>2017-07-02T17:57:43Z</time>
        <name>WPT.1183</name>
      </trkpt>
      <trkpt lat="37.500988580" lon="-106.838103320">
        <ele>3444.000</ele>
        <time>2017-07-02T17:57:47Z</time>
        <name>WPT.1184</name>
      </trkpt>
      <trkpt lat="37.501007710" lon="-106.838058950">
        <ele>3445.000</ele>
        <time>2017-07-02T17:57:50Z</time>
        <name>WPT.1185</name>
      </trkpt>
      <trkpt lat="37.501007630" lon="-106.838011740">
        <ele>3445.000</ele>
        <time>2017-07-02T17:57:54Z</time>
        <name>WPT.1186</name>
      </trkpt>
      <trkpt lat="37.501016000" lon="-106.837961100">
        <ele>3445.000</ele>
        <time>2017-07-02T17:57:59Z</time>
        <name>WPT.1187</name>
      </trkpt>
      <trkpt lat="37.501009770" lon="-106.837916380">
        <ele>3444.000</ele>
        <time>2017-07-02T17:58:04Z</time>
        <name>WPT.1188</name>
      </trkpt>
      <trkpt lat="37.501013630" lon="-106.837861190">
        <ele>3440.000</ele>
        <time>2017-07-02T17:58:08Z</time>
        <name>WPT.1189</name>
      </trkpt>
      <trkpt lat="37.501021670" lon="-106.837805860">
        <ele>3442.000</ele>
        <time>2017-07-02T17:58:12Z</time>
        <name>WPT.1190</name>
      </trkpt>
      <trkpt lat="37.501037420" lon="-106.837757650">
        <ele>3445.000</ele>
        <time>2017-07-02T17:58:16Z</time>
        <name>WPT.1191</name>
      </trkpt>
      <trkpt lat="37.501039110" lon="-106.837711630">
        <ele>3446.000</ele>
        <time>2017-07-02T17:58:19Z</time>
        <name>WPT.1192</name>
      </trkpt>
      <trkpt lat="37.501050520" lon="-106.837663840">
        <ele>3446.000</ele>
        <time>2017-07-02T17:58:23Z</time>
        <name>WPT.1193</name>
      </trkpt>
      <trkpt lat="37.501046890" lon="-106.837614640">
        <ele>3443.000</ele>
        <time>2017-07-02T17:58:27Z</time>
        <name>WPT.1194</name>
      </trkpt>
      <trkpt lat="37.501036810" lon="-106.837566300">
        <ele>3443.000</ele>
        <time>2017-07-02T17:58:33Z</time>
        <name>WPT.1195</name>
      </trkpt>
      <trkpt lat="37.501047130" lon="-106.837519550">
        <ele>3445.000</ele>
        <time>2017-07-02T17:58:41Z</time>
        <name>WPT.1196</name>
      </trkpt>
      <trkpt lat="37.501047170" lon="-106.837459200">
        <ele>3441.000</ele>
        <time>2017-07-02T17:58:46Z</time>
        <name>WPT.1197</name>
      </trkpt>
      <trkpt lat="37.501050610" lon="-106.837399980">
        <ele>3441.000</ele>
        <time>2017-07-02T17:58:53Z</time>
        <name>WPT.1198</name>
      </trkpt>
      <trkpt lat="37.501040240" lon="-106.837355950">
        <ele>3440.000</ele>
        <time>2017-07-02T17:58:57Z</time>
        <name>WPT.1199</name>
      </trkpt>
      <trkpt lat="37.501051820" lon="-106.837298060">
        <ele>3441.000</ele>
        <time>2017-07-02T17:59:02Z</time>
        <name>WPT.1200</name>
      </trkpt>
      <trkpt lat="37.501074350" lon="-106.837255790">
        <ele>3441.000</ele>
        <time>2017-07-02T17:59:06Z</time>
        <name>WPT.1201</name>
      </trkpt>
      <trkpt lat="37.501083430" lon="-106.837205250">
        <ele>3441.000</ele>
        <time>2017-07-02T17:59:11Z</time>
        <name>WPT.1202</name>
      </trkpt>
      <trkpt lat="37.501092620" lon="-106.837160700">
        <ele>3441.000</ele>
        <time>2017-07-02T17:59:16Z</time>
        <name>WPT.1203</name>
      </trkpt>
      <trkpt lat="37.501093770" lon="-106.837096660">
        <ele>3434.000</ele>
        <time>2017-07-02T17:59:19Z</time>
        <name>WPT.1204</name>
      </trkpt>
      <trkpt lat="37.501090930" lon="-106.837030500">
        <ele>3436.000</ele>
        <time>2017-07-02T17:59:22Z</time>
        <name>WPT.1205</name>
      </trkpt>
      <trkpt lat="37.501083300" lon="-106.836972800">
        <ele>3436.000</ele>
        <time>2017-07-02T17:59:25Z</time>
        <name>WPT.1206</name>
      </trkpt>
      <trkpt lat="37.501058440" lon="-106.836922240">
        <ele>3436.000</ele>
        <time>2017-07-02T17:59:28Z</time>
        <name>WPT.1207</name>
      </trkpt>
      <trkpt lat="37.501041370" lon="-106.836878970">
        <ele>3435.000</ele>
        <time>2017-07-02T17:59:31Z</time>
        <name>WPT.1208</name>
      </trkpt>
      <trkpt lat="37.501024740" lon="-106.836835360">
        <ele>3435.000</ele>
        <time>2017-07-02T17:59:34Z</time>
        <name>WPT.1209</name>
      </trkpt>
      <trkpt lat="37.501000660" lon="-106.836791590">
        <ele>3436.000</ele>
        <time>2017-07-02T17:59:38Z</time>
        <name>WPT.1210</name>
      </trkpt>
      <trkpt lat="37.500989350" lon="-106.836739030">
        <ele>3434.000</ele>
        <time>2017-07-02T17:59:43Z</time>
        <name>WPT.1211</name>
      </trkpt>
      <trkpt lat="37.500991070" lon="-106.836688530">
        <ele>3434.000</ele>
        <time>2017-07-02T17:59:47Z</time>
        <name>WPT.1212</name>
      </trkpt>
      <trkpt lat="37.501015170" lon="-106.836653660">
        <ele>3435.000</ele>
        <time>2017-07-02T17:59:50Z</time>
        <name>WPT.1213</name>
      </trkpt>
      <trkpt lat="37.501040350" lon="-106.836618240">
        <ele>3436.000</ele>
        <time>2017-07-02T17:59:54Z</time>
        <name>WPT.1214</name>
      </trkpt>
      <trkpt lat="37.501050160" lon="-106.836567910">
        <ele>3436.000</ele>
        <time>2017-07-02T17:59:59Z</time>
        <name>WPT.1215</name>
      </trkpt>
      <trkpt lat="37.501062370" lon="-106.836522240">
        <ele>3436.000</ele>
        <time>2017-07-02T18:00:02Z</time>
        <name>WPT.1216</name>
      </trkpt>
      <trkpt lat="37.501058840" lon="-106.836467030">
        <ele>3436.000</ele>
        <time>2017-07-02T18:00:05Z</time>
        <name>WPT.1217</name>
      </trkpt>
      <trkpt lat="37.501029090" lon="-106.836430280">
        <ele>3434.000</ele>
        <time>2017-07-02T18:00:09Z</time>
        <name>WPT.1218</name>
      </trkpt>
      <trkpt lat="37.501024810" lon="-106.836384650">
        <ele>3435.000</ele>
        <time>2017-07-02T18:00:19Z</time>
        <name>WPT.1219</name>
      </trkpt>
      <trkpt lat="37.501045440" lon="-106.836337860">
        <ele>3435.000</ele>
        <time>2017-07-02T18:00:23Z</time>
        <name>WPT.1220</name>
      </trkpt>
      <trkpt lat="37.501073410" lon="-106.836308030">
        <ele>3434.000</ele>
        <time>2017-07-02T18:00:30Z</time>
        <name>WPT.1221</name>
      </trkpt>
      <trkpt lat="37.501073600" lon="-106.836258360">
        <ele>3428.000</ele>
        <time>2017-07-02T18:00:35Z</time>
        <name>WPT.1222</name>
      </trkpt>
      <trkpt lat="37.501054000" lon="-106.836202250">
        <ele>3425.000</ele>
        <time>2017-07-02T18:00:39Z</time>
        <name>WPT.1223</name>
      </trkpt>
      <trkpt lat="37.501045880" lon="-106.836152950">
        <ele>3424.000</ele>
        <time>2017-07-02T18:00:43Z</time>
        <name>WPT.1224</name>
      </trkpt>
      <trkpt lat="37.501048370" lon="-106.836098330">
        <ele>3427.000</ele>
        <time>2017-07-02T18:00:49Z</time>
        <name>WPT.1225</name>
      </trkpt>
      <trkpt lat="37.501045880" lon="-106.836047360">
        <ele>3426.000</ele>
        <time>2017-07-02T18:00:53Z</time>
        <name>WPT.1226</name>
      </trkpt>
      <trkpt lat="37.501068290" lon="-106.835995830">
        <ele>3426.000</ele>
        <time>2017-07-02T18:00:57Z</time>
        <name>WPT.1227</name>
      </trkpt>
      <trkpt lat="37.501094810" lon="-106.835951390">
        <ele>3426.000</ele>
        <time>2017-07-02T18:01:00Z</time>
        <name>WPT.1228</name>
      </trkpt>
      <trkpt lat="37.501095290" lon="-106.835900780">
        <ele>3423.000</ele>
        <time>2017-07-02T18:01:03Z</time>
        <name>WPT.1229</name>
      </trkpt>
      <trkpt lat="37.501086820" lon="-106.835847870">
        <ele>3424.000</ele>
        <time>2017-07-02T18:01:07Z</time>
        <name>WPT.1230</name>
      </trkpt>
      <trkpt lat="37.501105910" lon="-106.835807250">
        <ele>3426.000</ele>
        <time>2017-07-02T18:01:12Z</time>
        <name>WPT.1231</name>
      </trkpt>
      <trkpt lat="37.501116600" lon="-106.835761880">
        <ele>3425.000</ele>
        <time>2017-07-02T18:01:17Z</time>
        <name>WPT.1232</name>
      </trkpt>
      <trkpt lat="37.501134600" lon="-106.835709500">
        <ele>3425.000</ele>
        <time>2017-07-02T18:01:22Z</time>
        <name>WPT.1233</name>
      </trkpt>
      <trkpt lat="37.501156240" lon="-106.835659560">
        <ele>3424.000</ele>
        <time>2017-07-02T18:01:26Z</time>
        <name>WPT.1234</name>
      </trkpt>
      <trkpt lat="37.501142020" lon="-106.835609480">
        <ele>3419.000</ele>
        <time>2017-07-02T18:01:31Z</time>
        <name>WPT.1235</name>
      </trkpt>
      <trkpt lat="37.501120010" lon="-106.835569610">
        <ele>3417.000</ele>
        <time>2017-07-02T18:01:34Z</time>
        <name>WPT.1236</name>
      </trkpt>
      <trkpt lat="37.501112410" lon="-106.835509500">
        <ele>3421.000</ele>
        <time>2017-07-02T18:01:38Z</time>
        <name>WPT.1237</name>
      </trkpt>
      <trkpt lat="37.501103870" lon="-106.835457290">
        <ele>3419.000</ele>
        <time>2017-07-02T18:01:42Z</time>
        <name>WPT.1238</name>
      </trkpt>
      <trkpt lat="37.501086350" lon="-106.835412400">
        <ele>3423.000</ele>
        <time>2017-07-02T18:01:46Z</time>
        <name>WPT.1239</name>
      </trkpt>
      <trkpt lat="37.501074650" lon="-106.835362020">
        <ele>3422.000</ele>
        <time>2017-07-02T18:01:49Z</time>
        <name>WPT.1240</name>
      </trkpt>
      <trkpt lat="37.501045080" lon="-106.835307080">
        <ele>3421.000</ele>
        <time>2017-07-02T18:01:53Z</time>
        <name>WPT.1241</name>
      </trkpt>
      <trkpt lat="37.501017680" lon="-106.835277410">
        <ele>3420.000</ele>
        <time>2017-07-02T18:01:55Z</time>
        <name>WPT.1242</name>
      </trkpt>
      <trkpt lat="37.500992830" lon="-106.835238260">
        <ele>3418.000</ele>
        <time>2017-07-02T18:01:58Z</time>
        <name>WPT.1243</name>
      </trkpt>
      <trkpt lat="37.500979070" lon="-106.835191740">
        <ele>3415.000</ele>
        <time>2017-07-02T18:02:01Z</time>
        <name>WPT.1244</name>
      </trkpt>
      <trkpt lat="37.500948790" lon="-106.835158940">
        <ele>3418.000</ele>
        <time>2017-07-02T18:02:08Z</time>
        <name>WPT.1245</name>
      </trkpt>
      <trkpt lat="37.500897420" lon="-106.835137830">
        <ele>3417.000</ele>
        <time>2017-07-02T18:02:12Z</time>
        <name>WPT.1246</name>
      </trkpt>
      <trkpt lat="37.500850920" lon="-106.835132300">
        <ele>3414.000</ele>
        <time>2017-07-02T18:02:15Z</time>
        <name>WPT.1247</name>
      </trkpt>
      <trkpt lat="37.500805490" lon="-106.835133210">
        <ele>3416.000</ele>
        <time>2017-07-02T18:02:19Z</time>
        <name>WPT.1248</name>
      </trkpt>
      <trkpt lat="37.500761810" lon="-106.835131300">
        <ele>3420.000</ele>
        <time>2017-07-02T18:02:22Z</time>
        <name>WPT.1249</name>
      </trkpt>
      <trkpt lat="37.500721580" lon="-106.835147810">
        <ele>3418.000</ele>
        <time>2017-07-02T18:02:26Z</time>
        <name>WPT.1250</name>
      </trkpt>
      <trkpt lat="37.500683610" lon="-106.835195330">
        <ele>3417.000</ele>
        <time>2017-07-02T18:02:30Z</time>
        <name>WPT.1251</name>
      </trkpt>
      <trkpt lat="37.500649930" lon="-106.835220200">
        <ele>3416.000</ele>
        <time>2017-07-02T18:02:34Z</time>
        <name>WPT.1252</name>
      </trkpt>
      <trkpt lat="37.500616200" lon="-106.835240940">
        <ele>3414.000</ele>
        <time>2017-07-02T18:02:37Z</time>
        <name>WPT.1253</name>
      </trkpt>
      <trkpt lat="37.500576230" lon="-106.835224080">
        <ele>3417.000</ele>
        <time>2017-07-02T18:02:40Z</time>
        <name>WPT.1254</name>
      </trkpt>
      <trkpt lat="37.500535990" lon="-106.835233270">
        <ele>3414.000</ele>
        <time>2017-07-02T18:02:46Z</time>
        <name>WPT.1255</name>
      </trkpt>
      <trkpt lat="37.500495030" lon="-106.835225750">
        <ele>3438.000</ele>
        <time>2017-07-02T18:02:50Z</time>
        <name>WPT.1256</name>
      </trkpt>
      <trkpt lat="37.500453760" lon="-106.835226280">
        <ele>3430.000</ele>
        <time>2017-07-02T18:02:53Z</time>
        <name>WPT.1257</name>
      </trkpt>
      <trkpt lat="37.500412210" lon="-106.835240190">
        <ele>3423.000</ele>
        <time>2017-07-02T18:02:56Z</time>
        <name>WPT.1258</name>
      </trkpt>
      <trkpt lat="37.500374410" lon="-106.835271830">
        <ele>3416.000</ele>
        <time>2017-07-02T18:03:02Z</time>
        <name>WPT.1259</name>
      </trkpt>
      <trkpt lat="37.500333680" lon="-106.835277750">
        <ele>3415.000</ele>
        <time>2017-07-02T18:03:05Z</time>
        <name>WPT.1260</name>
      </trkpt>
      <trkpt lat="37.500296810" lon="-106.835290010">
        <ele>3432.000</ele>
        <time>2017-07-02T18:03:08Z</time>
        <name>WPT.1261</name>
      </trkpt>
      <trkpt lat="37.500260160" lon="-106.835318160">
        <ele>3422.000</ele>
        <time>2017-07-02T18:03:13Z</time>
        <name>WPT.1262</name>
      </trkpt>
      <trkpt lat="37.500218630" lon="-106.835319100">
        <ele>3425.000</ele>
        <time>2017-07-02T18:03:17Z</time>
        <name>WPT.1263</name>
      </trkpt>
      <trkpt lat="37.500173690" lon="-106.835341740">
        <ele>3416.000</ele>
        <time>2017-07-02T18:03:20Z</time>
        <name>WPT.1264</name>
      </trkpt>
      <trkpt lat="37.500140310" lon="-106.835374420">
        <ele>3412.000</ele>
        <time>2017-07-02T18:03:23Z</time>
        <name>WPT.1265</name>
      </trkpt>
      <trkpt lat="37.500103370" lon="-106.835387390">
        <ele>3413.000</ele>
        <time>2017-07-02T18:03:26Z</time>
        <name>WPT.1266</name>
      </trkpt>
      <trkpt lat="37.500061210" lon="-106.835382280">
        <ele>3414.000</ele>
        <time>2017-07-02T18:03:32Z</time>
        <name>WPT.1267</name>
      </trkpt>
      <trkpt lat="37.500021640" lon="-106.835369210">
        <ele>3414.000</ele>
        <time>2017-07-02T18:03:35Z</time>
        <name>WPT.1268</name>
      </trkpt>
      <trkpt lat="37.499980570" lon="-106.835359450">
        <ele>3415.000</ele>
        <time>2017-07-02T18:03:39Z</time>
        <name>WPT.1269</name>
      </trkpt>
      <trkpt lat="37.499945060" lon="-106.835334650">
        <ele>3414.000</ele>
        <time>2017-07-02T18:03:44Z</time>
        <name>WPT.1270</name>
      </trkpt>
      <trkpt lat="37.499909330" lon="-106.835314190">
        <ele>3414.000</ele>
        <time>2017-07-02T18:03:47Z</time>
        <name>WPT.1271</name>
      </trkpt>
      <trkpt lat="37.499893790" lon="-106.835270180">
        <ele>3414.000</ele>
        <time>2017-07-02T18:03:54Z</time>
        <name>WPT.1272</name>
      </trkpt>
      <trkpt lat="37.499846880" lon="-106.835258690">
        <ele>3411.000</ele>
        <time>2017-07-02T18:03:58Z</time>
        <name>WPT.1273</name>
      </trkpt>
      <trkpt lat="37.499809900" lon="-106.835242900">
        <ele>3412.000</ele>
        <time>2017-07-02T18:04:01Z</time>
        <name>WPT.1274</name>
      </trkpt>
      <trkpt lat="37.499763020" lon="-106.835242230">
        <ele>3411.000</ele>
        <time>2017-07-02T18:04:04Z</time>
        <name>WPT.1275</name>
      </trkpt>
      <trkpt lat="37.499728130" lon="-106.835227290">
        <ele>3437.000</ele>
        <time>2017-07-02T18:04:11Z</time>
        <name>WPT.1276</name>
      </trkpt>
      <trkpt lat="37.499692620" lon="-106.835239500">
        <ele>3417.000</ele>
        <time>2017-07-02T18:04:15Z</time>
        <name>WPT.1277</name>
      </trkpt>
      <trkpt lat="37.499672950" lon="-106.835201460">
        <ele>3436.000</ele>
        <time>2017-07-02T18:04:22Z</time>
        <name>WPT.1278</name>
      </trkpt>
      <trkpt lat="37.499636940" lon="-106.835193330">
        <ele>3411.000</ele>
        <time>2017-07-02T18:04:30Z</time>
        <name>WPT.1279</name>
      </trkpt>
      <trkpt lat="37.499592770" lon="-106.835212010">
        <ele>3413.000</ele>
        <time>2017-07-02T18:04:33Z</time>
        <name>WPT.1280</name>
      </trkpt>
      <trkpt lat="37.499541590" lon="-106.835216130">
        <ele>3435.000</ele>
        <time>2017-07-02T18:04:36Z</time>
        <name>WPT.1281</name>
      </trkpt>
      <trkpt lat="37.499493380" lon="-106.835216040">
        <ele>3420.000</ele>
        <time>2017-07-02T18:04:40Z</time>
        <name>WPT.1282</name>
      </trkpt>
      <trkpt lat="37.499455870" lon="-106.835227100">
        <ele>3407.000</ele>
        <time>2017-07-02T18:04:44Z</time>
        <name>WPT.1283</name>
      </trkpt>
      <trkpt lat="37.499425410" lon="-106.835184210">
        <ele>3420.000</ele>
        <time>2017-07-02T18:04:49Z</time>
        <name>WPT.1284</name>
      </trkpt>
      <trkpt lat="37.499384600" lon="-106.835173820">
        <ele>3411.000</ele>
        <time>2017-07-02T18:04:52Z</time>
        <name>WPT.1285</name>
      </trkpt>
      <trkpt lat="37.499334790" lon="-106.835163970">
        <ele>3406.000</ele>
        <time>2017-07-02T18:04:56Z</time>
        <name>WPT.1286</name>
      </trkpt>
      <trkpt lat="37.499292030" lon="-106.835167780">
        <ele>3414.000</ele>
        <time>2017-07-02T18:05:00Z</time>
        <name>WPT.1287</name>
      </trkpt>
      <trkpt lat="37.499254420" lon="-106.835163580">
        <ele>3409.000</ele>
        <time>2017-07-02T18:05:03Z</time>
        <name>WPT.1288</name>
      </trkpt>
      <trkpt lat="37.499215400" lon="-106.835157790">
        <ele>3405.000</ele>
        <time>2017-07-02T18:05:06Z</time>
        <name>WPT.1289</name>
      </trkpt>
      <trkpt lat="37.499164310" lon="-106.835161000">
        <ele>3401.000</ele>
        <time>2017-07-02T18:05:09Z</time>
        <name>WPT.1290</name>
      </trkpt>
      <trkpt lat="37.499122110" lon="-106.835143370">
        <ele>3398.000</ele>
        <time>2017-07-02T18:05:12Z</time>
        <name>WPT.1291</name>
      </trkpt>
      <trkpt lat="37.499086790" lon="-106.835110820">
        <ele>3396.000</ele>
        <time>2017-07-02T18:05:16Z</time>
        <name>WPT.1292</name>
      </trkpt>
      <trkpt lat="37.499050520" lon="-106.835070770">
        <ele>3397.000</ele>
        <time>2017-07-02T18:05:20Z</time>
        <name>WPT.1293</name>
      </trkpt>
      <trkpt lat="37.499024980" lon="-106.835023470">
        <ele>3397.000</ele>
        <time>2017-07-02T18:05:25Z</time>
        <name>WPT.1294</name>
      </trkpt>
      <trkpt lat="37.498972210" lon="-106.835024030">
        <ele>3397.000</ele>
        <time>2017-07-02T18:05:33Z</time>
        <name>WPT.1295</name>
      </trkpt>
      <trkpt lat="37.498927220" lon="-106.835027120">
        <ele>3397.000</ele>
        <time>2017-07-02T18:05:36Z</time>
        <name>WPT.1296</name>
      </trkpt>
      <trkpt lat="37.498895580" lon="-106.835004310">
        <ele>3399.000</ele>
        <time>2017-07-02T18:05:39Z</time>
        <name>WPT.1297</name>
      </trkpt>
      <trkpt lat="37.498859070" lon="-106.834985010">
        <ele>3399.000</ele>
        <time>2017-07-02T18:05:42Z</time>
        <name>WPT.1298</name>
      </trkpt>
      <trkpt lat="37.498823960" lon="-106.834956000">
        <ele>3399.000</ele>
        <time>2017-07-02T18:05:47Z</time>
        <name>WPT.1299</name>
      </trkpt>
      <trkpt lat="37.498782190" lon="-106.834940280">
        <ele>3397.000</ele>
        <time>2017-07-02T18:05:52Z</time>
        <name>WPT.1300</name>
      </trkpt>
      <trkpt lat="37.498737570" lon="-106.834936180">
        <ele>3416.000</ele>
        <time>2017-07-02T18:05:57Z</time>
        <name>WPT.1301</name>
      </trkpt>
      <trkpt lat="37.498698440" lon="-106.834913210">
        <ele>3405.000</ele>
        <time>2017-07-02T18:06:00Z</time>
        <name>WPT.1302</name>
      </trkpt>
      <trkpt lat="37.498648020" lon="-106.834889480">
        <ele>3402.000</ele>
        <time>2017-07-02T18:06:03Z</time>
        <name>WPT.1303</name>
      </trkpt>
      <trkpt lat="37.498616500" lon="-106.834860690">
        <ele>3400.000</ele>
        <time>2017-07-02T18:06:06Z</time>
        <name>WPT.1304</name>
      </trkpt>
      <trkpt lat="37.498584830" lon="-106.834812980">
        <ele>3398.000</ele>
        <time>2017-07-02T18:06:09Z</time>
        <name>WPT.1305</name>
      </trkpt>
      <trkpt lat="37.498558900" lon="-106.834771650">
        <ele>3405.000</ele>
        <time>2017-07-02T18:06:13Z</time>
        <name>WPT.1306</name>
      </trkpt>
      <trkpt lat="37.498510830" lon="-106.834747190">
        <ele>3410.000</ele>
        <time>2017-07-02T18:06:16Z</time>
        <name>WPT.1307</name>
      </trkpt>
      <trkpt lat="37.498471630" lon="-106.834739870">
        <ele>3404.000</ele>
        <time>2017-07-02T18:06:18Z</time>
        <name>WPT.1308</name>
      </trkpt>
      <trkpt lat="37.498429300" lon="-106.834723760">
        <ele>3403.000</ele>
        <time>2017-07-02T18:06:26Z</time>
        <name>WPT.1309</name>
      </trkpt>
      <trkpt lat="37.498380250" lon="-106.834698150">
        <ele>3400.000</ele>
        <time>2017-07-02T18:06:29Z</time>
        <name>WPT.1310</name>
      </trkpt>
      <trkpt lat="37.498348770" lon="-106.834675390">
        <ele>3399.000</ele>
        <time>2017-07-02T18:06:31Z</time>
        <name>WPT.1311</name>
      </trkpt>
      <trkpt lat="37.498314260" lon="-106.834658060">
        <ele>3397.000</ele>
        <time>2017-07-02T18:06:35Z</time>
        <name>WPT.1312</name>
      </trkpt>
      <trkpt lat="37.498278910" lon="-106.834628390">
        <ele>3395.000</ele>
        <time>2017-07-02T18:06:37Z</time>
        <name>WPT.1313</name>
      </trkpt>
      <trkpt lat="37.498240630" lon="-106.834604450">
        <ele>3395.000</ele>
        <time>2017-07-02T18:06:40Z</time>
        <name>WPT.1314</name>
      </trkpt>
      <trkpt lat="37.498225670" lon="-106.834554600">
        <ele>3397.000</ele>
        <time>2017-07-02T18:06:47Z</time>
        <name>WPT.1315</name>
      </trkpt>
      <trkpt lat="37.498205170" lon="-106.834507180">
        <ele>3395.000</ele>
        <time>2017-07-02T18:06:50Z</time>
        <name>WPT.1316</name>
      </trkpt>
      <trkpt lat="37.498189190" lon="-106.834460960">
        <ele>3396.000</ele>
        <time>2017-07-02T18:06:54Z</time>
        <name>WPT.1317</name>
      </trkpt>
      <trkpt lat="37.498172860" lon="-106.834406630">
        <ele>3396.000</ele>
        <time>2017-07-02T18:06:58Z</time>
        <name>WPT.1318</name>
      </trkpt>
      <trkpt lat="37.498149830" lon="-106.834360250">
        <ele>3396.000</ele>
        <time>2017-07-02T18:07:02Z</time>
        <name>WPT.1319</name>
      </trkpt>
      <trkpt lat="37.498127450" lon="-106.834312100">
        <ele>3397.000</ele>
        <time>2017-07-02T18:07:06Z</time>
        <name>WPT.1320</name>
      </trkpt>
      <trkpt lat="37.498101670" lon="-106.834274730">
        <ele>3398.000</ele>
        <time>2017-07-02T18:07:09Z</time>
        <name>WPT.1321</name>
      </trkpt>
      <trkpt lat="37.498083440" lon="-106.834223320">
        <ele>3398.000</ele>
        <time>2017-07-02T18:07:13Z</time>
        <name>WPT.1322</name>
      </trkpt>
      <trkpt lat="37.498043740" lon="-106.834199710">
        <ele>3397.000</ele>
        <time>2017-07-02T18:07:17Z</time>
        <name>WPT.1323</name>
      </trkpt>
      <trkpt lat="37.498018640" lon="-106.834157700">
        <ele>3398.000</ele>
        <time>2017-07-02T18:07:20Z</time>
        <name>WPT.1324</name>
      </trkpt>
      <trkpt lat="37.497990220" lon="-106.834128740">
        <ele>3399.000</ele>
        <time>2017-07-02T18:07:24Z</time>
        <name>WPT.1325</name>
      </trkpt>
      <trkpt lat="37.497959600" lon="-106.834099480">
        <ele>3400.000</ele>
        <time>2017-07-02T18:07:27Z</time>
        <name>WPT.1326</name>
      </trkpt>
      <trkpt lat="37.497920760" lon="-106.834075830">
        <ele>3398.000</ele>
        <time>2017-07-02T18:07:32Z</time>
        <name>WPT.1327</name>
      </trkpt>
      <trkpt lat="37.497887950" lon="-106.834046200">
        <ele>3398.000</ele>
        <time>2017-07-02T18:07:35Z</time>
        <name>WPT.1328</name>
      </trkpt>
      <trkpt lat="37.497849380" lon="-106.834008910">
        <ele>3398.000</ele>
        <time>2017-07-02T18:07:38Z</time>
        <name>WPT.1329</name>
      </trkpt>
      <trkpt lat="37.497809280" lon="-106.833982880">
        <ele>3398.000</ele>
        <time>2017-07-02T18:07:40Z</time>
        <name>WPT.1330</name>
      </trkpt>
      <trkpt lat="37.497774060" lon="-106.833962980">
        <ele>3397.000</ele>
        <time>2017-07-02T18:07:43Z</time>
        <name>WPT.1331</name>
      </trkpt>
      <trkpt lat="37.497735800" lon="-106.833968020">
        <ele>3397.000</ele>
        <time>2017-07-02T18:07:46Z</time>
        <name>WPT.1332</name>
      </trkpt>
      <trkpt lat="37.497685100" lon="-106.833948230">
        <ele>3396.000</ele>
        <time>2017-07-02T18:07:49Z</time>
        <name>WPT.1333</name>
      </trkpt>
      <trkpt lat="37.497644010" lon="-106.833942380">
        <ele>3396.000</ele>
        <time>2017-07-02T18:07:52Z</time>
        <name>WPT.1334</name>
      </trkpt>
      <trkpt lat="37.497600330" lon="-106.833939370">
        <ele>3398.000</ele>
        <time>2017-07-02T18:07:55Z</time>
        <name>WPT.1335</name>
      </trkpt>
      <trkpt lat="37.497564610" lon="-106.833931620">
        <ele>3405.000</ele>
        <time>2017-07-02T18:08:05Z</time>
        <name>WPT.1336</name>
      </trkpt>
      <trkpt lat="37.497534630" lon="-106.833898150">
        <ele>3406.000</ele>
        <time>2017-07-02T18:08:09Z</time>
        <name>WPT.1337</name>
      </trkpt>
      <trkpt lat="37.497516140" lon="-106.833844180">
        <ele>3404.000</ele>
        <time>2017-07-02T18:08:14Z</time>
        <name>WPT.1338</name>
      </trkpt>
      <trkpt lat="37.497500280" lon="-106.833796340">
        <ele>3406.000</ele>
        <time>2017-07-02T18:08:17Z</time>
        <name>WPT.1339</name>
      </trkpt>
      <trkpt lat="37.497489800" lon="-106.833751050">
        <ele>3407.000</ele>
        <time>2017-07-02T18:08:20Z</time>
        <name>WPT.1340</name>
      </trkpt>
      <trkpt lat="37.497479640" lon="-106.833696860">
        <ele>3408.000</ele>
        <time>2017-07-02T18:08:26Z</time>
        <name>WPT.1341</name>
      </trkpt>
      <trkpt lat="37.497485360" lon="-106.833638230">
        <ele>3408.000</ele>
        <time>2017-07-02T18:08:29Z</time>
        <name>WPT.1342</name>
      </trkpt>
      <trkpt lat="37.497500500" lon="-106.833588130">
        <ele>3407.000</ele>
        <time>2017-07-02T18:08:34Z</time>
        <name>WPT.1343</name>
      </trkpt>
      <trkpt lat="37.497498210" lon="-106.833539520">
        <ele>3408.000</ele>
        <time>2017-07-02T18:08:37Z</time>
        <name>WPT.1344</name>
      </trkpt>
      <trkpt lat="37.497488800" lon="-106.833495430">
        <ele>3408.000</ele>
        <time>2017-07-02T18:08:39Z</time>
        <name>WPT.1345</name>
      </trkpt>
      <trkpt lat="37.497481540" lon="-106.833446260">
        <ele>3427.000</ele>
        <time>2017-07-02T18:08:42Z</time>
        <name>WPT.1346</name>
      </trkpt>
      <trkpt lat="37.497467830" lon="-106.833392050">
        <ele>3408.000</ele>
        <time>2017-07-02T18:08:46Z</time>
        <name>WPT.1347</name>
      </trkpt>
      <trkpt lat="37.497459640" lon="-106.833328150">
        <ele>3407.000</ele>
        <time>2017-07-02T18:08:52Z</time>
        <name>WPT.1348</name>
      </trkpt>
      <trkpt lat="37.497451460" lon="-106.833280500">
        <ele>3438.000</ele>
        <time>2017-07-02T18:08:56Z</time>
        <name>WPT.1349</name>
      </trkpt>
      <trkpt lat="37.497459180" lon="-106.833220100">
        <ele>3442.000</ele>
        <time>2017-07-02T18:09:01Z</time>
        <name>WPT.1350</name>
      </trkpt>
      <trkpt lat="37.497437160" lon="-106.833183540">
        <ele>3413.000</ele>
        <time>2017-07-02T18:09:09Z</time>
        <name>WPT.1351</name>
      </trkpt>
      <trkpt lat="37.497404810" lon="-106.833163150">
        <ele>3404.000</ele>
        <time>2017-07-02T18:10:24Z</time>
        <name>WPT.1352</name>
      </trkpt>
      <trkpt lat="37.497397690" lon="-106.833101630">
        <ele>3403.000</ele>
        <time>2017-07-02T18:11:51Z</time>
        <name>WPT.1353</name>
      </trkpt>
      <trkpt lat="37.497406910" lon="-106.833048140">
        <ele>3420.000</ele>
        <time>2017-07-02T18:11:56Z</time>
        <name>WPT.1354</name>
      </trkpt>
      <trkpt lat="37.497407510" lon="-106.833000110">
        <ele>3413.000</ele>
        <time>2017-07-02T18:12:01Z</time>
        <name>WPT.1355</name>
      </trkpt>
      <trkpt lat="37.497408370" lon="-106.832950650">
        <ele>3414.000</ele>
        <time>2017-07-02T18:12:07Z</time>
        <name>WPT.1356</name>
      </trkpt>
      <trkpt lat="37.497422530" lon="-106.832906080">
        <ele>3413.000</ele>
        <time>2017-07-02T18:12:11Z</time>
        <name>WPT.1357</name>
      </trkpt>
      <trkpt lat="37.497423300" lon="-106.832852420">
        <ele>3412.000</ele>
        <time>2017-07-02T18:12:15Z</time>
        <name>WPT.1358</name>
      </trkpt>
      <trkpt lat="37.497407640" lon="-106.832808510">
        <ele>3420.000</ele>
        <time>2017-07-02T18:12:23Z</time>
        <name>WPT.1359</name>
      </trkpt>
      <trkpt lat="37.497387700" lon="-106.832764280">
        <ele>3408.000</ele>
        <time>2017-07-02T18:12:29Z</time>
        <name>WPT.1360</name>
      </trkpt>
      <trkpt lat="37.497352640" lon="-106.832750180">
        <ele>3405.000</ele>
        <time>2017-07-02T18:12:34Z</time>
        <name>WPT.1361</name>
      </trkpt>
      <trkpt lat="37.497311790" lon="-106.832780280">
        <ele>3404.000</ele>
        <time>2017-07-02T18:12:45Z</time>
        <name>WPT.1362</name>
      </trkpt>
      <trkpt lat="37.497277080" lon="-106.832812290">
        <ele>3406.000</ele>
        <time>2017-07-02T18:12:49Z</time>
        <name>WPT.1363</name>
      </trkpt>
      <trkpt lat="37.497239230" lon="-106.832806830">
        <ele>3408.000</ele>
        <time>2017-07-02T18:12:52Z</time>
        <name>WPT.1364</name>
      </trkpt>
      <trkpt lat="37.497201010" lon="-106.832816700">
        <ele>3409.000</ele>
        <time>2017-07-02T18:12:55Z</time>
        <name>WPT.1365</name>
      </trkpt>
      <trkpt lat="37.497185050" lon="-106.832766180">
        <ele>3415.000</ele>
        <time>2017-07-02T18:13:11Z</time>
        <name>WPT.1366</name>
      </trkpt>
      <trkpt lat="37.497165690" lon="-106.832717580">
        <ele>3413.000</ele>
        <time>2017-07-02T18:13:16Z</time>
        <name>WPT.1367</name>
      </trkpt>
      <trkpt lat="37.497185610" lon="-106.832668160">
        <ele>3415.000</ele>
        <time>2017-07-02T18:13:20Z</time>
        <name>WPT.1368</name>
      </trkpt>
      <trkpt lat="37.497187620" lon="-106.832620410">
        <ele>3412.000</ele>
        <time>2017-07-02T18:13:24Z</time>
        <name>WPT.1369</name>
      </trkpt>
      <trkpt lat="37.497159620" lon="-106.832589530">
        <ele>3258.000</ele>
        <time>2017-07-02T18:13:29Z</time>
        <name>WPT.1370</name>
      </trkpt>
      <trkpt lat="37.497151090" lon="-106.832531720">
        <ele>3383.000</ele>
        <time>2017-07-02T18:13:36Z</time>
        <name>WPT.1371</name>
      </trkpt>
      <trkpt lat="37.497122520" lon="-106.832498160">
        <ele>3407.000</ele>
        <time>2017-07-02T18:13:41Z</time>
        <name>WPT.1372</name>
      </trkpt>
      <trkpt lat="37.497086250" lon="-106.832492510">
        <ele>3407.000</ele>
        <time>2017-07-02T18:13:51Z</time>
        <name>WPT.1373</name>
      </trkpt>
      <trkpt lat="37.497070330" lon="-106.832446820">
        <ele>3405.000</ele>
        <time>2017-07-02T18:14:16Z</time>
        <name>WPT.1374</name>
      </trkpt>
      <trkpt lat="37.497040600" lon="-106.832415350">
        <ele>3405.000</ele>
        <time>2017-07-02T18:14:24Z</time>
        <name>WPT.1375</name>
      </trkpt>
      <trkpt lat="37.497004160" lon="-106.832386110">
        <ele>3404.000</ele>
        <time>2017-07-02T18:14:28Z</time>
        <name>WPT.1376</name>
      </trkpt>
      <trkpt lat="37.496970600" lon="-106.832361820">
        <ele>3402.000</ele>
        <time>2017-07-02T18:14:32Z</time>
        <name>WPT.1377</name>
      </trkpt>
      <trkpt lat="37.496977720" lon="-106.832316630">
        <ele>3403.000</ele>
        <time>2017-07-02T18:14:37Z</time>
        <name>WPT.1378</name>
      </trkpt>
      <trkpt lat="37.496973720" lon="-106.832267800">
        <ele>3401.000</ele>
        <time>2017-07-02T18:14:42Z</time>
        <name>WPT.1379</name>
      </trkpt>
      <trkpt lat="37.496970920" lon="-106.832221820">
        <ele>3400.000</ele>
        <time>2017-07-02T18:14:46Z</time>
        <name>WPT.1380</name>
      </trkpt>
      <trkpt lat="37.496954740" lon="-106.832178440">
        <ele>3398.000</ele>
        <time>2017-07-02T18:14:51Z</time>
        <name>WPT.1381</name>
      </trkpt>
      <trkpt lat="37.496936050" lon="-106.832128670">
        <ele>3399.000</ele>
        <time>2017-07-02T18:14:55Z</time>
        <name>WPT.1382</name>
      </trkpt>
      <trkpt lat="37.496920750" lon="-106.832072450">
        <ele>3398.000</ele>
        <time>2017-07-02T18:15:00Z</time>
        <name>WPT.1383</name>
      </trkpt>
      <trkpt lat="37.496901210" lon="-106.832023850">
        <ele>3397.000</ele>
        <time>2017-07-02T18:15:03Z</time>
        <name>WPT.1384</name>
      </trkpt>
      <trkpt lat="37.496873530" lon="-106.831988840">
        <ele>3396.000</ele>
        <time>2017-07-02T18:15:06Z</time>
        <name>WPT.1385</name>
      </trkpt>
      <trkpt lat="37.496836750" lon="-106.831965510">
        <ele>3397.000</ele>
        <time>2017-07-02T18:15:11Z</time>
        <name>WPT.1386</name>
      </trkpt>
      <trkpt lat="37.496794930" lon="-106.831956960">
        <ele>3395.000</ele>
        <time>2017-07-02T18:15:15Z</time>
        <name>WPT.1387</name>
      </trkpt>
      <trkpt lat="37.496747900" lon="-106.831932010">
        <ele>3396.000</ele>
        <time>2017-07-02T18:15:18Z</time>
        <name>WPT.1388</name>
      </trkpt>
      <trkpt lat="37.496703430" lon="-106.831915220">
        <ele>3414.000</ele>
        <time>2017-07-02T18:15:21Z</time>
        <name>WPT.1389</name>
      </trkpt>
      <trkpt lat="37.496669090" lon="-106.831894550">
        <ele>3404.000</ele>
        <time>2017-07-02T18:15:25Z</time>
        <name>WPT.1390</name>
      </trkpt>
      <trkpt lat="37.496648890" lon="-106.831849210">
        <ele>3400.000</ele>
        <time>2017-07-02T18:15:29Z</time>
        <name>WPT.1391</name>
      </trkpt>
      <trkpt lat="37.496644420" lon="-106.831803640">
        <ele>3397.000</ele>
        <time>2017-07-02T18:15:32Z</time>
        <name>WPT.1392</name>
      </trkpt>
      <trkpt lat="37.496633230" lon="-106.831744320">
        <ele>3397.000</ele>
        <time>2017-07-02T18:15:36Z</time>
        <name>WPT.1393</name>
      </trkpt>
      <trkpt lat="37.496627770" lon="-106.831690980">
        <ele>3396.000</ele>
        <time>2017-07-02T18:15:43Z</time>
        <name>WPT.1394</name>
      </trkpt>
      <trkpt lat="37.496612670" lon="-106.831643650">
        <ele>3394.000</ele>
        <time>2017-07-02T18:15:46Z</time>
        <name>WPT.1395</name>
      </trkpt>
      <trkpt lat="37.496578040" lon="-106.831605340">
        <ele>3391.000</ele>
        <time>2017-07-02T18:15:50Z</time>
        <name>WPT.1396</name>
      </trkpt>
      <trkpt lat="37.496538620" lon="-106.831570670">
        <ele>3390.000</ele>
        <time>2017-07-02T18:15:54Z</time>
        <name>WPT.1397</name>
      </trkpt>
      <trkpt lat="37.496494960" lon="-106.831544280">
        <ele>3390.000</ele>
        <time>2017-07-02T18:15:58Z</time>
        <name>WPT.1398</name>
      </trkpt>
      <trkpt lat="37.496472180" lon="-106.831500850">
        <ele>3390.000</ele>
        <time>2017-07-02T18:16:01Z</time>
        <name>WPT.1399</name>
      </trkpt>
      <trkpt lat="37.496450790" lon="-106.831456070">
        <ele>3301.000</ele>
        <time>2017-07-02T18:16:03Z</time>
        <name>WPT.1400</name>
      </trkpt>
      <trkpt lat="37.496429610" lon="-106.831412960">
        <ele>3371.000</ele>
        <time>2017-07-02T18:16:10Z</time>
        <name>WPT.1401</name>
      </trkpt>
      <trkpt lat="37.496393780" lon="-106.831383030">
        <ele>3373.000</ele>
        <time>2017-07-02T18:16:13Z</time>
        <name>WPT.1402</name>
      </trkpt>
      <trkpt lat="37.496360800" lon="-106.831334510">
        <ele>3379.000</ele>
        <time>2017-07-02T18:16:18Z</time>
        <name>WPT.1403</name>
      </trkpt>
      <trkpt lat="37.496323870" lon="-106.831306780">
        <ele>3384.000</ele>
        <time>2017-07-02T18:16:22Z</time>
        <name>WPT.1404</name>
      </trkpt>
      <trkpt lat="37.496290290" lon="-106.831272780">
        <ele>3383.000</ele>
        <time>2017-07-02T18:16:25Z</time>
        <name>WPT.1405</name>
      </trkpt>
      <trkpt lat="37.496260830" lon="-106.831228650">
        <ele>3385.000</ele>
        <time>2017-07-02T18:16:28Z</time>
        <name>WPT.1406</name>
      </trkpt>
      <trkpt lat="37.496229820" lon="-106.831188780">
        <ele>3388.000</ele>
        <time>2017-07-02T18:16:32Z</time>
        <name>WPT.1407</name>
      </trkpt>
      <trkpt lat="37.496204460" lon="-106.831156410">
        <ele>3390.000</ele>
        <time>2017-07-02T18:16:34Z</time>
        <name>WPT.1408</name>
      </trkpt>
      <trkpt lat="37.496174100" lon="-106.831130790">
        <ele>3387.000</ele>
        <time>2017-07-02T18:16:36Z</time>
        <name>WPT.1409</name>
      </trkpt>
      <trkpt lat="37.496130190" lon="-106.831095610">
        <ele>3388.000</ele>
        <time>2017-07-02T18:16:39Z</time>
        <name>WPT.1410</name>
      </trkpt>
      <trkpt lat="37.496093700" lon="-106.831068950">
        <ele>3389.000</ele>
        <time>2017-07-02T18:16:42Z</time>
        <name>WPT.1411</name>
      </trkpt>
      <trkpt lat="37.496063660" lon="-106.831043580">
        <ele>3271.000</ele>
        <time>2017-07-02T18:16:46Z</time>
        <name>WPT.1412</name>
      </trkpt>
      <trkpt lat="37.496035180" lon="-106.831011760">
        <ele>3354.000</ele>
        <time>2017-07-02T18:16:49Z</time>
        <name>WPT.1413</name>
      </trkpt>
      <trkpt lat="37.496009540" lon="-106.830979730">
        <ele>3368.000</ele>
        <time>2017-07-02T18:16:52Z</time>
        <name>WPT.1414</name>
      </trkpt>
      <trkpt lat="37.495972750" lon="-106.830949410">
        <ele>3375.000</ele>
        <time>2017-07-02T18:16:55Z</time>
        <name>WPT.1415</name>
      </trkpt>
      <trkpt lat="37.495944470" lon="-106.830920410">
        <ele>3375.000</ele>
        <time>2017-07-02T18:17:00Z</time>
        <name>WPT.1416</name>
      </trkpt>
      <trkpt lat="37.495909660" lon="-106.830883340">
        <ele>3382.000</ele>
        <time>2017-07-02T18:17:03Z</time>
        <name>WPT.1417</name>
      </trkpt>
      <trkpt lat="37.495874000" lon="-106.830852940">
        <ele>3383.000</ele>
        <time>2017-07-02T18:17:07Z</time>
        <name>WPT.1418</name>
      </trkpt>
      <trkpt lat="37.495848410" lon="-106.830817270">
        <ele>3390.000</ele>
        <time>2017-07-02T18:17:19Z</time>
        <name>WPT.1419</name>
      </trkpt>
      <trkpt lat="37.495818300" lon="-106.830776590">
        <ele>3391.000</ele>
        <time>2017-07-02T18:17:22Z</time>
        <name>WPT.1420</name>
      </trkpt>
      <trkpt lat="37.495795490" lon="-106.830732360">
        <ele>3393.000</ele>
        <time>2017-07-02T18:17:25Z</time>
        <name>WPT.1421</name>
      </trkpt>
      <trkpt lat="37.495767990" lon="-106.830700850">
        <ele>3395.000</ele>
        <time>2017-07-02T18:17:29Z</time>
        <name>WPT.1422</name>
      </trkpt>
      <trkpt lat="37.495748010" lon="-106.830654890">
        <ele>3395.000</ele>
        <time>2017-07-02T18:17:33Z</time>
        <name>WPT.1423</name>
      </trkpt>
      <trkpt lat="37.495704650" lon="-106.830630270">
        <ele>3393.000</ele>
        <time>2017-07-02T18:17:35Z</time>
        <name>WPT.1424</name>
      </trkpt>
      <trkpt lat="37.495667610" lon="-106.830593610">
        <ele>3394.000</ele>
        <time>2017-07-02T18:17:39Z</time>
        <name>WPT.1425</name>
      </trkpt>
      <trkpt lat="37.495667070" lon="-106.830546480">
        <ele>3395.000</ele>
        <time>2017-07-02T18:17:44Z</time>
        <name>WPT.1426</name>
      </trkpt>
      <trkpt lat="37.495631980" lon="-106.830528080">
        <ele>3395.000</ele>
        <time>2017-07-02T18:17:49Z</time>
        <name>WPT.1427</name>
      </trkpt>
      <trkpt lat="37.495605610" lon="-106.830489560">
        <ele>3400.000</ele>
        <time>2017-07-02T18:18:51Z</time>
        <name>WPT.1428</name>
      </trkpt>
      <trkpt lat="37.495578690" lon="-106.830441270">
        <ele>3400.000</ele>
        <time>2017-07-02T18:18:54Z</time>
        <name>WPT.1429</name>
      </trkpt>
      <trkpt lat="37.495546080" lon="-106.830414960">
        <ele>3398.000</ele>
        <time>2017-07-02T18:18:57Z</time>
        <name>WPT.1430</name>
      </trkpt>
      <trkpt lat="37.495507660" lon="-106.830394190">
        <ele>3399.000</ele>
        <time>2017-07-02T18:19:00Z</time>
        <name>WPT.1431</name>
      </trkpt>
      <trkpt lat="37.495469710" lon="-106.830374310">
        <ele>3397.000</ele>
        <time>2017-07-02T18:19:03Z</time>
        <name>WPT.1432</name>
      </trkpt>
      <trkpt lat="37.495431150" lon="-106.830359920">
        <ele>3357.000</ele>
        <time>2017-07-02T18:19:08Z</time>
        <name>WPT.1433</name>
      </trkpt>
      <trkpt lat="37.495400510" lon="-106.830334170">
        <ele>3332.000</ele>
        <time>2017-07-02T18:19:11Z</time>
        <name>WPT.1434</name>
      </trkpt>
      <trkpt lat="37.495363980" lon="-106.830318010">
        <ele>3376.000</ele>
        <time>2017-07-02T18:19:15Z</time>
        <name>WPT.1435</name>
      </trkpt>
      <trkpt lat="37.495325560" lon="-106.830303120">
        <ele>3385.000</ele>
        <time>2017-07-02T18:19:18Z</time>
        <name>WPT.1436</name>
      </trkpt>
      <trkpt lat="37.495282260" lon="-106.830291460">
        <ele>3395.000</ele>
        <time>2017-07-02T18:19:26Z</time>
        <name>WPT.1437</name>
      </trkpt>
      <trkpt lat="37.495244300" lon="-106.830294620">
        <ele>3397.000</ele>
        <time>2017-07-02T18:19:33Z</time>
        <name>WPT.1438</name>
      </trkpt>
      <trkpt lat="37.495202750" lon="-106.830269800">
        <ele>3398.000</ele>
        <time>2017-07-02T18:19:37Z</time>
        <name>WPT.1439</name>
      </trkpt>
      <trkpt lat="37.495166360" lon="-106.830245530">
        <ele>3397.000</ele>
        <time>2017-07-02T18:19:40Z</time>
        <name>WPT.1440</name>
      </trkpt>
      <trkpt lat="37.495133460" lon="-106.830211850">
        <ele>3397.000</ele>
        <time>2017-07-02T18:19:44Z</time>
        <name>WPT.1441</name>
      </trkpt>
      <trkpt lat="37.495106520" lon="-106.830175770">
        <ele>3397.000</ele>
        <time>2017-07-02T18:19:47Z</time>
        <name>WPT.1442</name>
      </trkpt>
      <trkpt lat="37.495094410" lon="-106.830116600">
        <ele>3398.000</ele>
        <time>2017-07-02T18:19:51Z</time>
        <name>WPT.1443</name>
      </trkpt>
      <trkpt lat="37.495088240" lon="-106.830069580">
        <ele>3399.000</ele>
        <time>2017-07-02T18:19:55Z</time>
        <name>WPT.1444</name>
      </trkpt>
      <trkpt lat="37.495105480" lon="-106.830022800">
        <ele>3402.000</ele>
        <time>2017-07-02T18:20:00Z</time>
        <name>WPT.1445</name>
      </trkpt>
      <trkpt lat="37.495126350" lon="-106.829975600">
        <ele>3404.000</ele>
        <time>2017-07-02T18:20:03Z</time>
        <name>WPT.1446</name>
      </trkpt>
      <trkpt lat="37.495122420" lon="-106.829923480">
        <ele>3404.000</ele>
        <time>2017-07-02T18:20:07Z</time>
        <name>WPT.1447</name>
      </trkpt>
      <trkpt lat="37.495091950" lon="-106.829890940">
        <ele>3403.000</ele>
        <time>2017-07-02T18:20:10Z</time>
        <name>WPT.1448</name>
      </trkpt>
      <trkpt lat="37.495071440" lon="-106.829849090">
        <ele>3341.000</ele>
        <time>2017-07-02T18:20:15Z</time>
        <name>WPT.1449</name>
      </trkpt>
      <trkpt lat="37.495071630" lon="-106.829799390">
        <ele>3391.000</ele>
        <time>2017-07-02T18:20:22Z</time>
        <name>WPT.1450</name>
      </trkpt>
      <trkpt lat="37.495103920" lon="-106.829773050">
        <ele>3393.000</ele>
        <time>2017-07-02T18:20:27Z</time>
        <name>WPT.1451</name>
      </trkpt>
      <trkpt lat="37.495060030" lon="-106.829784930">
        <ele>3400.000</ele>
        <time>2017-07-02T18:20:42Z</time>
        <name>WPT.1452</name>
      </trkpt>
      <trkpt lat="37.495098520" lon="-106.829767010">
        <ele>3399.000</ele>
        <time>2017-07-02T18:21:18Z</time>
        <name>WPT.1453</name>
      </trkpt>
      <trkpt lat="37.495136040" lon="-106.829759610">
        <ele>3401.000</ele>
        <time>2017-07-02T18:21:21Z</time>
        <name>WPT.1454</name>
      </trkpt>
      <trkpt lat="37.495174420" lon="-106.829742240">
        <ele>3402.000</ele>
        <time>2017-07-02T18:21:24Z</time>
        <name>WPT.1455</name>
      </trkpt>
      <trkpt lat="37.495216000" lon="-106.829705420">
        <ele>3402.000</ele>
        <time>2017-07-02T18:21:27Z</time>
        <name>WPT.1456</name>
      </trkpt>
      <trkpt lat="37.495243100" lon="-106.829662500">
        <ele>3403.000</ele>
        <time>2017-07-02T18:21:30Z</time>
        <name>WPT.1457</name>
      </trkpt>
      <trkpt lat="37.495264540" lon="-106.829618440">
        <ele>3403.000</ele>
        <time>2017-07-02T18:21:34Z</time>
        <name>WPT.1458</name>
      </trkpt>
      <trkpt lat="37.495276000" lon="-106.829567730">
        <ele>3403.000</ele>
        <time>2017-07-02T18:21:39Z</time>
        <name>WPT.1459</name>
      </trkpt>
      <trkpt lat="37.495288990" lon="-106.829522700">
        <ele>3432.000</ele>
        <time>2017-07-02T18:21:42Z</time>
        <name>WPT.1460</name>
      </trkpt>
      <trkpt lat="37.495289820" lon="-106.829475940">
        <ele>3417.000</ele>
        <time>2017-07-02T18:21:44Z</time>
        <name>WPT.1461</name>
      </trkpt>
      <trkpt lat="37.495289760" lon="-106.829427000">
        <ele>3419.000</ele>
        <time>2017-07-02T18:21:46Z</time>
        <name>WPT.1462</name>
      </trkpt>
      <trkpt lat="37.495299320" lon="-106.829373140">
        <ele>3410.000</ele>
        <time>2017-07-02T18:21:50Z</time>
        <name>WPT.1463</name>
      </trkpt>
      <trkpt lat="37.495326960" lon="-106.829329420">
        <ele>3406.000</ele>
        <time>2017-07-02T18:22:28Z</time>
        <name>WPT.1464</name>
      </trkpt>
      <trkpt lat="37.495341230" lon="-106.829279730">
        <ele>3409.000</ele>
        <time>2017-07-02T18:22:33Z</time>
        <name>WPT.1465</name>
      </trkpt>
      <trkpt lat="37.495360980" lon="-106.829238680">
        <ele>3406.000</ele>
        <time>2017-07-02T18:22:37Z</time>
        <name>WPT.1466</name>
      </trkpt>
      <trkpt lat="37.495384700" lon="-106.829197210">
        <ele>3408.000</ele>
        <time>2017-07-02T18:22:42Z</time>
        <name>WPT.1467</name>
      </trkpt>
      <trkpt lat="37.495397730" lon="-106.829148490">
        <ele>3406.000</ele>
        <time>2017-07-02T18:22:46Z</time>
        <name>WPT.1468</name>
      </trkpt>
      <trkpt lat="37.495386370" lon="-106.829084690">
        <ele>3406.000</ele>
        <time>2017-07-02T18:22:49Z</time>
        <name>WPT.1469</name>
      </trkpt>
      <trkpt lat="37.495383860" lon="-106.829037030">
        <ele>3406.000</ele>
        <time>2017-07-02T18:22:52Z</time>
        <name>WPT.1470</name>
      </trkpt>
      <trkpt lat="37.495366380" lon="-106.828986100">
        <ele>3407.000</ele>
        <time>2017-07-02T18:22:55Z</time>
        <name>WPT.1471</name>
      </trkpt>
      <trkpt lat="37.495349060" lon="-106.828942240">
        <ele>3409.000</ele>
        <time>2017-07-02T18:22:59Z</time>
        <name>WPT.1472</name>
      </trkpt>
      <trkpt lat="37.495334640" lon="-106.828897750">
        <ele>3411.000</ele>
        <time>2017-07-02T18:23:03Z</time>
        <name>WPT.1473</name>
      </trkpt>
      <trkpt lat="37.495307650" lon="-106.828850360">
        <ele>3411.000</ele>
        <time>2017-07-02T18:23:07Z</time>
        <name>WPT.1474</name>
      </trkpt>
      <trkpt lat="37.495290020" lon="-106.828800590">
        <ele>3427.000</ele>
        <time>2017-07-02T18:23:11Z</time>
        <name>WPT.1475</name>
      </trkpt>
      <trkpt lat="37.495274500" lon="-106.828755130">
        <ele>3420.000</ele>
        <time>2017-07-02T18:23:14Z</time>
        <name>WPT.1476</name>
      </trkpt>
      <trkpt lat="37.495272150" lon="-106.828699490">
        <ele>3417.000</ele>
        <time>2017-07-02T18:23:18Z</time>
        <name>WPT.1477</name>
      </trkpt>
      <trkpt lat="37.495253820" lon="-106.828648970">
        <ele>3439.000</ele>
        <time>2017-07-02T18:23:22Z</time>
        <name>WPT.1478</name>
      </trkpt>
      <trkpt lat="37.495239250" lon="-106.828602170">
        <ele>3429.000</ele>
        <time>2017-07-02T18:23:25Z</time>
        <name>WPT.1479</name>
      </trkpt>
      <trkpt lat="37.495222710" lon="-106.828560460">
        <ele>3438.000</ele>
        <time>2017-07-02T18:23:29Z</time>
        <name>WPT.1480</name>
      </trkpt>
      <trkpt lat="37.495207450" lon="-106.828513720">
        <ele>3417.000</ele>
        <time>2017-07-02T18:23:43Z</time>
        <name>WPT.1481</name>
      </trkpt>
      <trkpt lat="37.495202070" lon="-106.828463630">
        <ele>3414.000</ele>
        <time>2017-07-02T18:23:47Z</time>
        <name>WPT.1482</name>
      </trkpt>
      <trkpt lat="37.495190520" lon="-106.828415010">
        <ele>3412.000</ele>
        <time>2017-07-02T18:23:53Z</time>
        <name>WPT.1483</name>
      </trkpt>
      <trkpt lat="37.495220400" lon="-106.828385160">
        <ele>3412.000</ele>
        <time>2017-07-02T18:24:18Z</time>
        <name>WPT.1484</name>
      </trkpt>
      <trkpt lat="37.495261200" lon="-106.828376770">
        <ele>3412.000</ele>
        <time>2017-07-02T18:24:21Z</time>
        <name>WPT.1485</name>
      </trkpt>
      <trkpt lat="37.495297420" lon="-106.828357390">
        <ele>3413.000</ele>
        <time>2017-07-02T18:24:25Z</time>
        <name>WPT.1486</name>
      </trkpt>
      <trkpt lat="37.495345810" lon="-106.828342860">
        <ele>3413.000</ele>
        <time>2017-07-02T18:24:30Z</time>
        <name>WPT.1487</name>
      </trkpt>
      <trkpt lat="37.495389000" lon="-106.828319050">
        <ele>3415.000</ele>
        <time>2017-07-02T18:24:35Z</time>
        <name>WPT.1488</name>
      </trkpt>
      <trkpt lat="37.495419370" lon="-106.828293440">
        <ele>3413.000</ele>
        <time>2017-07-02T18:24:40Z</time>
        <name>WPT.1489</name>
      </trkpt>
      <trkpt lat="37.495458300" lon="-106.828278460">
        <ele>3413.000</ele>
        <time>2017-07-02T18:26:26Z</time>
        <name>WPT.1490</name>
      </trkpt>
      <trkpt lat="37.495496640" lon="-106.828262890">
        <ele>3414.000</ele>
        <time>2017-07-02T18:26:31Z</time>
        <name>WPT.1491</name>
      </trkpt>
      <trkpt lat="37.495523400" lon="-106.828228590">
        <ele>3414.000</ele>
        <time>2017-07-02T18:26:41Z</time>
        <name>WPT.1492</name>
      </trkpt>
      <trkpt lat="37.495560710" lon="-106.828231780">
        <ele>3416.000</ele>
        <time>2017-07-02T18:26:56Z</time>
        <name>WPT.1493</name>
      </trkpt>
      <trkpt lat="37.495593090" lon="-106.828210980">
        <ele>3418.000</ele>
        <time>2017-07-02T18:27:06Z</time>
        <name>WPT.1494</name>
      </trkpt>
      <trkpt lat="37.495626480" lon="-106.828186210">
        <ele>3434.000</ele>
        <time>2017-07-02T18:27:24Z</time>
        <name>WPT.1495</name>
      </trkpt>
      <trkpt lat="37.495666730" lon="-106.828151880">
        <ele>3432.000</ele>
        <time>2017-07-02T18:27:27Z</time>
        <name>WPT.1496</name>
      </trkpt>
      <trkpt lat="37.495696750" lon="-106.828110930">
        <ele>3429.000</ele>
        <time>2017-07-02T18:27:31Z</time>
        <name>WPT.1497</name>
      </trkpt>
      <trkpt lat="37.495710620" lon="-106.828057380">
        <ele>3426.000</ele>
        <time>2017-07-02T18:27:37Z</time>
        <name>WPT.1498</name>
      </trkpt>
      <trkpt lat="37.495742800" lon="-106.828027900">
        <ele>3439.000</ele>
        <time>2017-07-02T18:27:45Z</time>
        <name>WPT.1499</name>
      </trkpt>
      <trkpt lat="37.495769120" lon="-106.827994220">
        <ele>3465.000</ele>
        <time>2017-07-02T18:27:49Z</time>
        <name>WPT.1500</name>
      </trkpt>
      <trkpt lat="37.495801090" lon="-106.827954390">
        <ele>3441.000</ele>
        <time>2017-07-02T18:27:53Z</time>
        <name>WPT.1501</name>
      </trkpt>
      <trkpt lat="37.495835460" lon="-106.827930050">
        <ele>3462.000</ele>
        <time>2017-07-02T18:27:57Z</time>
        <name>WPT.1502</name>
      </trkpt>
      <trkpt lat="37.495860450" lon="-106.827885390">
        <ele>3434.000</ele>
        <time>2017-07-02T18:28:01Z</time>
        <name>WPT.1503</name>
      </trkpt>
      <trkpt lat="37.495847820" lon="-106.827841860">
        <ele>3423.000</ele>
        <time>2017-07-02T18:28:13Z</time>
        <name>WPT.1504</name>
      </trkpt>
      <trkpt lat="37.495856050" lon="-106.827787140">
        <ele>3429.000</ele>
        <time>2017-07-02T18:28:35Z</time>
        <name>WPT.1505</name>
      </trkpt>
      <trkpt lat="37.495880770" lon="-106.827741070">
        <ele>3458.000</ele>
        <time>2017-07-02T18:28:38Z</time>
        <name>WPT.1506</name>
      </trkpt>
      <trkpt lat="37.495903440" lon="-106.827700860">
        <ele>3451.000</ele>
        <time>2017-07-02T18:28:43Z</time>
        <name>WPT.1507</name>
      </trkpt>
      <trkpt lat="37.495907530" lon="-106.827651890">
        <ele>3429.000</ele>
        <time>2017-07-02T18:28:58Z</time>
        <name>WPT.1508</name>
      </trkpt>
      <trkpt lat="37.495901830" lon="-106.827602660">
        <ele>3428.000</ele>
        <time>2017-07-02T18:29:21Z</time>
        <name>WPT.1509</name>
      </trkpt>
      <trkpt lat="37.495921340" lon="-106.827563810">
        <ele>3427.000</ele>
        <time>2017-07-02T18:29:27Z</time>
        <name>WPT.1510</name>
      </trkpt>
      <trkpt lat="37.495929310" lon="-106.827518720">
        <ele>3426.000</ele>
        <time>2017-07-02T18:29:33Z</time>
        <name>WPT.1511</name>
      </trkpt>
      <trkpt lat="37.495909160" lon="-106.827475970">
        <ele>3426.000</ele>
        <time>2017-07-02T18:29:40Z</time>
        <name>WPT.1512</name>
      </trkpt>
      <trkpt lat="37.495888650" lon="-106.827430630">
        <ele>3427.000</ele>
        <time>2017-07-02T18:29:45Z</time>
        <name>WPT.1513</name>
      </trkpt>
      <trkpt lat="37.495895670" lon="-106.827381690">
        <ele>3428.000</ele>
        <time>2017-07-02T18:29:53Z</time>
        <name>WPT.1514</name>
      </trkpt>
      <trkpt lat="37.495890560" lon="-106.827333010">
        <ele>3429.000</ele>
        <time>2017-07-02T18:30:00Z</time>
        <name>WPT.1515</name>
      </trkpt>
      <trkpt lat="37.495883780" lon="-106.827283470">
        <ele>3428.000</ele>
        <time>2017-07-02T18:30:06Z</time>
        <name>WPT.1516</name>
      </trkpt>
      <trkpt lat="37.495881450" lon="-106.827222160">
        <ele>3426.000</ele>
        <time>2017-07-02T18:30:10Z</time>
        <name>WPT.1517</name>
      </trkpt>
      <trkpt lat="37.495895190" lon="-106.827179740">
        <ele>3428.000</ele>
        <time>2017-07-02T18:30:17Z</time>
        <name>WPT.1518</name>
      </trkpt>
      <trkpt lat="37.495889640" lon="-106.827130240">
        <ele>3455.000</ele>
        <time>2017-07-02T18:30:49Z</time>
        <name>WPT.1519</name>
      </trkpt>
      <trkpt lat="37.495890110" lon="-106.827077190">
        <ele>3437.000</ele>
        <time>2017-07-02T18:30:54Z</time>
        <name>WPT.1520</name>
      </trkpt>
      <trkpt lat="37.495898080" lon="-106.827014390">
        <ele>3432.000</ele>
        <time>2017-07-02T18:30:58Z</time>
        <name>WPT.1521</name>
      </trkpt>
      <trkpt lat="37.495890990" lon="-106.826957410">
        <ele>3431.000</ele>
        <time>2017-07-02T18:31:02Z</time>
        <name>WPT.1522</name>
      </trkpt>
      <trkpt lat="37.495877120" lon="-106.826915360">
        <ele>3430.000</ele>
        <time>2017-07-02T18:31:05Z</time>
        <name>WPT.1523</name>
      </trkpt>
      <trkpt lat="37.495862360" lon="-106.826870310">
        <ele>3429.000</ele>
        <time>2017-07-02T18:31:08Z</time>
        <name>WPT.1524</name>
      </trkpt>
      <trkpt lat="37.495867690" lon="-106.826824610">
        <ele>3431.000</ele>
        <time>2017-07-02T18:31:15Z</time>
        <name>WPT.1525</name>
      </trkpt>
      <trkpt lat="37.495874530" lon="-106.826769020">
        <ele>3432.000</ele>
        <time>2017-07-02T18:31:20Z</time>
        <name>WPT.1526</name>
      </trkpt>
      <trkpt lat="37.495871720" lon="-106.826718830">
        <ele>3432.000</ele>
        <time>2017-07-02T18:31:24Z</time>
        <name>WPT.1527</name>
      </trkpt>
      <trkpt lat="37.495871090" lon="-106.826664380">
        <ele>3431.000</ele>
        <time>2017-07-02T18:31:28Z</time>
        <name>WPT.1528</name>
      </trkpt>
      <trkpt lat="37.495862870" lon="-106.826618030">
        <ele>3432.000</ele>
        <time>2017-07-02T18:31:34Z</time>
        <name>WPT.1529</name>
      </trkpt>
      <trkpt lat="37.495845640" lon="-106.826572630">
        <ele>3432.000</ele>
        <time>2017-07-02T18:31:38Z</time>
        <name>WPT.1530</name>
      </trkpt>
      <trkpt lat="37.495844490" lon="-106.826518540">
        <ele>3434.000</ele>
        <time>2017-07-02T18:31:44Z</time>
        <name>WPT.1531</name>
      </trkpt>
      <trkpt lat="37.495843060" lon="-106.826467380">
        <ele>3434.000</ele>
        <time>2017-07-02T18:31:49Z</time>
        <name>WPT.1532</name>
      </trkpt>
      <trkpt lat="37.495841250" lon="-106.826414630">
        <ele>3435.000</ele>
        <time>2017-07-02T18:31:55Z</time>
        <name>WPT.1533</name>
      </trkpt>
      <trkpt lat="37.495833680" lon="-106.826367220">
        <ele>3435.000</ele>
        <time>2017-07-02T18:31:59Z</time>
        <name>WPT.1534</name>
      </trkpt>
      <trkpt lat="37.495843050" lon="-106.826318890">
        <ele>3436.000</ele>
        <time>2017-07-02T18:32:05Z</time>
        <name>WPT.1535</name>
      </trkpt>
      <trkpt lat="37.495850080" lon="-106.826267290">
        <ele>3436.000</ele>
        <time>2017-07-02T18:32:11Z</time>
        <name>WPT.1536</name>
      </trkpt>
      <trkpt lat="37.495851210" lon="-106.826216700">
        <ele>3435.000</ele>
        <time>2017-07-02T18:32:20Z</time>
        <name>WPT.1537</name>
      </trkpt>
      <trkpt lat="37.495848880" lon="-106.826170130">
        <ele>3435.000</ele>
        <time>2017-07-02T18:32:24Z</time>
        <name>WPT.1538</name>
      </trkpt>
      <trkpt lat="37.495829430" lon="-106.826131930">
        <ele>3433.000</ele>
        <time>2017-07-02T18:32:32Z</time>
        <name>WPT.1539</name>
      </trkpt>
      <trkpt lat="37.495827000" lon="-106.826083250">
        <ele>3432.000</ele>
        <time>2017-07-02T18:33:25Z</time>
        <name>WPT.1540</name>
      </trkpt>
      <trkpt lat="37.495821210" lon="-106.826028710">
        <ele>3433.000</ele>
        <time>2017-07-02T18:33:29Z</time>
        <name>WPT.1541</name>
      </trkpt>
      <trkpt lat="37.495806830" lon="-106.825975940">
        <ele>3436.000</ele>
        <time>2017-07-02T18:33:34Z</time>
        <name>WPT.1542</name>
      </trkpt>
      <trkpt lat="37.495816870" lon="-106.825926480">
        <ele>3440.000</ele>
        <time>2017-07-02T18:33:39Z</time>
        <name>WPT.1543</name>
      </trkpt>
      <trkpt lat="37.495827390" lon="-106.825879120">
        <ele>3441.000</ele>
        <time>2017-07-02T18:33:43Z</time>
        <name>WPT.1544</name>
      </trkpt>
      <trkpt lat="37.495860330" lon="-106.825836740">
        <ele>3443.000</ele>
        <time>2017-07-02T18:33:48Z</time>
        <name>WPT.1545</name>
      </trkpt>
      <trkpt lat="37.495875970" lon="-106.825793320">
        <ele>3441.000</ele>
        <time>2017-07-02T18:33:52Z</time>
        <name>WPT.1546</name>
      </trkpt>
      <trkpt lat="37.495874300" lon="-106.825747640">
        <ele>3443.000</ele>
        <time>2017-07-02T18:33:57Z</time>
        <name>WPT.1547</name>
      </trkpt>
      <trkpt lat="37.495885470" lon="-106.825704220">
        <ele>3444.000</ele>
        <time>2017-07-02T18:34:01Z</time>
        <name>WPT.1548</name>
      </trkpt>
      <trkpt lat="37.495902810" lon="-106.825638780">
        <ele>3442.000</ele>
        <time>2017-07-02T18:34:05Z</time>
        <name>WPT.1549</name>
      </trkpt>
      <trkpt lat="37.495908400" lon="-106.825585820">
        <ele>3443.000</ele>
        <time>2017-07-02T18:34:08Z</time>
        <name>WPT.1550</name>
      </trkpt>
      <trkpt lat="37.495912740" lon="-106.825537170">
        <ele>3445.000</ele>
        <time>2017-07-02T18:34:12Z</time>
        <name>WPT.1551</name>
      </trkpt>
      <trkpt lat="37.495889100" lon="-106.825482170">
        <ele>3445.000</ele>
        <time>2017-07-02T18:34:17Z</time>
        <name>WPT.1552</name>
      </trkpt>
      <trkpt lat="37.495876420" lon="-106.825437090">
        <ele>3447.000</ele>
        <time>2017-07-02T18:34:22Z</time>
        <name>WPT.1553</name>
      </trkpt>
      <trkpt lat="37.495890120" lon="-106.825391950">
        <ele>3449.000</ele>
        <time>2017-07-02T18:34:26Z</time>
        <name>WPT.1554</name>
      </trkpt>
      <trkpt lat="37.495888450" lon="-106.825343760">
        <ele>3448.000</ele>
        <time>2017-07-02T18:34:29Z</time>
        <name>WPT.1555</name>
      </trkpt>
      <trkpt lat="37.495883280" lon="-106.825280680">
        <ele>3449.000</ele>
        <time>2017-07-02T18:34:34Z</time>
        <name>WPT.1556</name>
      </trkpt>
      <trkpt lat="37.495878760" lon="-106.825230980">
        <ele>3450.000</ele>
        <time>2017-07-02T18:34:38Z</time>
        <name>WPT.1557</name>
      </trkpt>
      <trkpt lat="37.495873270" lon="-106.825175270">
        <ele>3450.000</ele>
        <time>2017-07-02T18:34:42Z</time>
        <name>WPT.1558</name>
      </trkpt>
      <trkpt lat="37.495877150" lon="-106.825121410">
        <ele>3451.000</ele>
        <time>2017-07-02T18:34:47Z</time>
        <name>WPT.1559</name>
      </trkpt>
      <trkpt lat="37.495865840" lon="-106.825066170">
        <ele>3450.000</ele>
        <time>2017-07-02T18:34:52Z</time>
        <name>WPT.1560</name>
      </trkpt>
      <trkpt lat="37.495860280" lon="-106.825020250">
        <ele>3449.000</ele>
        <time>2017-07-02T18:34:57Z</time>
        <name>WPT.1561</name>
      </trkpt>
      <trkpt lat="37.495883890" lon="-106.824984670">
        <ele>3449.000</ele>
        <time>2017-07-02T18:35:34Z</time>
        <name>WPT.1562</name>
      </trkpt>
      <trkpt lat="37.495872200" lon="-106.824937830">
        <ele>3448.000</ele>
        <time>2017-07-02T18:36:49Z</time>
        <name>WPT.1563</name>
      </trkpt>
      <trkpt lat="37.495873290" lon="-106.824892050">
        <ele>3449.000</ele>
        <time>2017-07-02T18:36:53Z</time>
        <name>WPT.1564</name>
      </trkpt>
      <trkpt lat="37.495875270" lon="-106.824842240">
        <ele>3450.000</ele>
        <time>2017-07-02T18:36:58Z</time>
        <name>WPT.1565</name>
      </trkpt>
      <trkpt lat="37.495881690" lon="-106.824795150">
        <ele>3448.000</ele>
        <time>2017-07-02T18:37:02Z</time>
        <name>WPT.1566</name>
      </trkpt>
      <trkpt lat="37.495884900" lon="-106.824739790">
        <ele>3448.000</ele>
        <time>2017-07-02T18:37:05Z</time>
        <name>WPT.1567</name>
      </trkpt>
      <trkpt lat="37.495906510" lon="-106.824696740">
        <ele>3448.000</ele>
        <time>2017-07-02T18:37:10Z</time>
        <name>WPT.1568</name>
      </trkpt>
      <trkpt lat="37.495909150" lon="-106.824645600">
        <ele>3449.000</ele>
        <time>2017-07-02T18:37:14Z</time>
        <name>WPT.1569</name>
      </trkpt>
      <trkpt lat="37.495905840" lon="-106.824594640">
        <ele>3449.000</ele>
        <time>2017-07-02T18:37:18Z</time>
        <name>WPT.1570</name>
      </trkpt>
      <trkpt lat="37.495895320" lon="-106.824549800">
        <ele>3451.000</ele>
        <time>2017-07-02T18:37:23Z</time>
        <name>WPT.1571</name>
      </trkpt>
      <trkpt lat="37.495896940" lon="-106.824502860">
        <ele>3451.000</ele>
        <time>2017-07-02T18:37:28Z</time>
        <name>WPT.1572</name>
      </trkpt>
      <trkpt lat="37.495899260" lon="-106.824456370">
        <ele>3450.000</ele>
        <time>2017-07-02T18:37:31Z</time>
        <name>WPT.1573</name>
      </trkpt>
      <trkpt lat="37.495906240" lon="-106.824411250">
        <ele>3450.000</ele>
        <time>2017-07-02T18:37:34Z</time>
        <name>WPT.1574</name>
      </trkpt>
      <trkpt lat="37.495893240" lon="-106.824355780">
        <ele>3449.000</ele>
        <time>2017-07-02T18:37:41Z</time>
        <name>WPT.1575</name>
      </trkpt>
      <trkpt lat="37.495886020" lon="-106.824306450">
        <ele>3449.000</ele>
        <time>2017-07-02T18:37:45Z</time>
        <name>WPT.1576</name>
      </trkpt>
      <trkpt lat="37.495889270" lon="-106.824256570">
        <ele>3449.000</ele>
        <time>2017-07-02T18:37:48Z</time>
        <name>WPT.1577</name>
      </trkpt>
      <trkpt lat="37.495893010" lon="-106.824204920">
        <ele>3449.000</ele>
        <time>2017-07-02T18:37:52Z</time>
        <name>WPT.1578</name>
      </trkpt>
      <trkpt lat="37.495888490" lon="-106.824155250">
        <ele>3472.000</ele>
        <time>2017-07-02T18:37:57Z</time>
        <name>WPT.1579</name>
      </trkpt>
      <trkpt lat="37.495888510" lon="-106.824100930">
        <ele>3454.000</ele>
        <time>2017-07-02T18:38:03Z</time>
        <name>WPT.1580</name>
      </trkpt>
      <trkpt lat="37.495893380" lon="-106.824043100">
        <ele>3456.000</ele>
        <time>2017-07-02T18:38:09Z</time>
        <name>WPT.1581</name>
      </trkpt>
      <trkpt lat="37.495890620" lon="-106.823997000">
        <ele>3453.000</ele>
        <time>2017-07-02T18:38:12Z</time>
        <name>WPT.1582</name>
      </trkpt>
      <trkpt lat="37.495883450" lon="-106.823936070">
        <ele>3452.000</ele>
        <time>2017-07-02T18:38:17Z</time>
        <name>WPT.1583</name>
      </trkpt>
      <trkpt lat="37.495868950" lon="-106.823883400">
        <ele>3454.000</ele>
        <time>2017-07-02T18:38:22Z</time>
        <name>WPT.1584</name>
      </trkpt>
      <trkpt lat="37.495851750" lon="-106.823835430">
        <ele>3458.000</ele>
        <time>2017-07-02T18:38:29Z</time>
        <name>WPT.1585</name>
      </trkpt>
      <trkpt lat="37.495812160" lon="-106.823803250">
        <ele>3460.000</ele>
        <time>2017-07-02T18:38:34Z</time>
        <name>WPT.1586</name>
      </trkpt>
      <trkpt lat="37.495777090" lon="-106.823774990">
        <ele>3456.000</ele>
        <time>2017-07-02T18:38:36Z</time>
        <name>WPT.1587</name>
      </trkpt>
      <trkpt lat="37.495749070" lon="-106.823745570">
        <ele>3456.000</ele>
        <time>2017-07-02T18:38:39Z</time>
        <name>WPT.1588</name>
      </trkpt>
      <trkpt lat="37.495721280" lon="-106.823710410">
        <ele>3458.000</ele>
        <time>2017-07-02T18:38:43Z</time>
        <name>WPT.1589</name>
      </trkpt>
      <trkpt lat="37.495729100" lon="-106.823654480">
        <ele>3485.000</ele>
        <time>2017-07-02T18:38:48Z</time>
        <name>WPT.1590</name>
      </trkpt>
      <trkpt lat="37.495722180" lon="-106.823606940">
        <ele>3465.000</ele>
        <time>2017-07-02T18:38:52Z</time>
        <name>WPT.1591</name>
      </trkpt>
      <trkpt lat="37.495694900" lon="-106.823563570">
        <ele>3462.000</ele>
        <time>2017-07-02T18:38:56Z</time>
        <name>WPT.1592</name>
      </trkpt>
      <trkpt lat="37.495663870" lon="-106.823530120">
        <ele>3461.000</ele>
        <time>2017-07-02T18:39:00Z</time>
        <name>WPT.1593</name>
      </trkpt>
      <trkpt lat="37.495632150" lon="-106.823489330">
        <ele>3461.000</ele>
        <time>2017-07-02T18:39:04Z</time>
        <name>WPT.1594</name>
      </trkpt>
      <trkpt lat="37.495604360" lon="-106.823448090">
        <ele>3462.000</ele>
        <time>2017-07-02T18:39:07Z</time>
        <name>WPT.1595</name>
      </trkpt>
      <trkpt lat="37.495578360" lon="-106.823397720">
        <ele>3467.000</ele>
        <time>2017-07-02T18:39:12Z</time>
        <name>WPT.1596</name>
      </trkpt>
      <trkpt lat="37.495554540" lon="-106.823347320">
        <ele>3465.000</ele>
        <time>2017-07-02T18:39:15Z</time>
        <name>WPT.1597</name>
      </trkpt>
      <trkpt lat="37.495556680" lon="-106.823299690">
        <ele>3464.000</ele>
        <time>2017-07-02T18:39:21Z</time>
        <name>WPT.1598</name>
      </trkpt>
      <trkpt lat="37.495522440" lon="-106.823285080">
        <ele>3460.000</ele>
        <time>2017-07-02T18:39:42Z</time>
        <name>WPT.1599</name>
      </trkpt>
      <trkpt lat="37.495498580" lon="-106.823239550">
        <ele>3460.000</ele>
        <time>2017-07-02T18:39:48Z</time>
        <name>WPT.1600</name>
      </trkpt>
      <trkpt lat="37.495480870" lon="-106.823196390">
        <ele>3461.000</ele>
        <time>2017-07-02T18:39:53Z</time>
        <name>WPT.1601</name>
      </trkpt>
      <trkpt lat="37.495476200" lon="-106.823148040">
        <ele>3461.000</ele>
        <time>2017-07-02T18:39:56Z</time>
        <name>WPT.1602</name>
      </trkpt>
      <trkpt lat="37.495452290" lon="-106.823112810">
        <ele>3472.000</ele>
        <time>2017-07-02T18:40:00Z</time>
        <name>WPT.1603</name>
      </trkpt>
      <trkpt lat="37.495438510" lon="-106.823068430">
        <ele>3469.000</ele>
        <time>2017-07-02T18:40:05Z</time>
        <name>WPT.1604</name>
      </trkpt>
      <trkpt lat="37.495433550" lon="-106.823013600">
        <ele>3462.000</ele>
        <time>2017-07-02T18:40:09Z</time>
        <name>WPT.1605</name>
      </trkpt>
      <trkpt lat="37.495423080" lon="-106.822964730">
        <ele>3460.000</ele>
        <time>2017-07-02T18:40:13Z</time>
        <name>WPT.1606</name>
      </trkpt>
      <trkpt lat="37.495406720" lon="-106.822906840">
        <ele>3459.000</ele>
        <time>2017-07-02T18:40:18Z</time>
        <name>WPT.1607</name>
      </trkpt>
      <trkpt lat="37.495382930" lon="-106.822866970">
        <ele>3460.000</ele>
        <time>2017-07-02T18:40:21Z</time>
        <name>WPT.1608</name>
      </trkpt>
      <trkpt lat="37.495368420" lon="-106.822825490">
        <ele>3459.000</ele>
        <time>2017-07-02T18:40:25Z</time>
        <name>WPT.1609</name>
      </trkpt>
      <trkpt lat="37.495344090" lon="-106.822775470">
        <ele>3459.000</ele>
        <time>2017-07-02T18:40:28Z</time>
        <name>WPT.1610</name>
      </trkpt>
      <trkpt lat="37.495319940" lon="-106.822727510">
        <ele>3457.000</ele>
        <time>2017-07-02T18:40:33Z</time>
        <name>WPT.1611</name>
      </trkpt>
      <trkpt lat="37.495304380" lon="-106.822685490">
        <ele>3456.000</ele>
        <time>2017-07-02T18:40:35Z</time>
        <name>WPT.1612</name>
      </trkpt>
      <trkpt lat="37.495276440" lon="-106.822639560">
        <ele>3455.000</ele>
        <time>2017-07-02T18:40:39Z</time>
        <name>WPT.1613</name>
      </trkpt>
      <trkpt lat="37.495255220" lon="-106.822586230">
        <ele>3457.000</ele>
        <time>2017-07-02T18:40:42Z</time>
        <name>WPT.1614</name>
      </trkpt>
      <trkpt lat="37.495249230" lon="-106.822539790">
        <ele>3458.000</ele>
        <time>2017-07-02T18:40:45Z</time>
        <name>WPT.1615</name>
      </trkpt>
      <trkpt lat="37.495245500" lon="-106.822490290">
        <ele>3458.000</ele>
        <time>2017-07-02T18:40:49Z</time>
        <name>WPT.1616</name>
      </trkpt>
      <trkpt lat="37.495234800" lon="-106.822445170">
        <ele>3459.000</ele>
        <time>2017-07-02T18:40:53Z</time>
        <name>WPT.1617</name>
      </trkpt>
      <trkpt lat="37.495238870" lon="-106.822386250">
        <ele>3459.000</ele>
        <time>2017-07-02T18:40:58Z</time>
        <name>WPT.1618</name>
      </trkpt>
      <trkpt lat="37.495220140" lon="-106.822325290">
        <ele>3457.000</ele>
        <time>2017-07-02T18:41:01Z</time>
        <name>WPT.1619</name>
      </trkpt>
      <trkpt lat="37.495231990" lon="-106.822270280">
        <ele>3456.000</ele>
        <time>2017-07-02T18:41:05Z</time>
        <name>WPT.1620</name>
      </trkpt>
      <trkpt lat="37.495261650" lon="-106.822237150">
        <ele>3460.000</ele>
        <time>2017-07-02T18:41:18Z</time>
        <name>WPT.1621</name>
      </trkpt>
      <trkpt lat="37.495276100" lon="-106.822184270">
        <ele>3460.000</ele>
        <time>2017-07-02T18:41:22Z</time>
        <name>WPT.1622</name>
      </trkpt>
      <trkpt lat="37.495298290" lon="-106.822133890">
        <ele>3458.000</ele>
        <time>2017-07-02T18:41:27Z</time>
        <name>WPT.1623</name>
      </trkpt>
      <trkpt lat="37.495321210" lon="-106.822080870">
        <ele>3456.000</ele>
        <time>2017-07-02T18:41:29Z</time>
        <name>WPT.1624</name>
      </trkpt>
      <trkpt lat="37.495333800" lon="-106.822023720">
        <ele>3457.000</ele>
        <time>2017-07-02T18:41:33Z</time>
        <name>WPT.1625</name>
      </trkpt>
      <trkpt lat="37.495342200" lon="-106.821962810">
        <ele>3457.000</ele>
        <time>2017-07-02T18:41:36Z</time>
        <name>WPT.1626</name>
      </trkpt>
      <trkpt lat="37.495355110" lon="-106.821918720">
        <ele>3472.000</ele>
        <time>2017-07-02T18:41:41Z</time>
        <name>WPT.1627</name>
      </trkpt>
      <trkpt lat="37.495359600" lon="-106.821873250">
        <ele>3464.000</ele>
        <time>2017-07-02T18:41:44Z</time>
        <name>WPT.1628</name>
      </trkpt>
      <trkpt lat="37.495373270" lon="-106.821829450">
        <ele>3484.000</ele>
        <time>2017-07-02T18:41:50Z</time>
        <name>WPT.1629</name>
      </trkpt>
      <trkpt lat="37.495396300" lon="-106.821790350">
        <ele>3472.000</ele>
        <time>2017-07-02T18:41:55Z</time>
        <name>WPT.1630</name>
      </trkpt>
      <trkpt lat="37.495409560" lon="-106.821733730">
        <ele>3464.000</ele>
        <time>2017-07-02T18:42:09Z</time>
        <name>WPT.1631</name>
      </trkpt>
      <trkpt lat="37.495415230" lon="-106.821665470">
        <ele>3458.000</ele>
        <time>2017-07-02T18:42:20Z</time>
        <name>WPT.1632</name>
      </trkpt>
      <trkpt lat="37.495418220" lon="-106.821618890">
        <ele>3458.000</ele>
        <time>2017-07-02T18:42:22Z</time>
        <name>WPT.1633</name>
      </trkpt>
      <trkpt lat="37.495429660" lon="-106.821562210">
        <ele>3458.000</ele>
        <time>2017-07-02T18:42:25Z</time>
        <name>WPT.1634</name>
      </trkpt>
      <trkpt lat="37.495452190" lon="-106.821519160">
        <ele>3457.000</ele>
        <time>2017-07-02T18:42:29Z</time>
        <name>WPT.1635</name>
      </trkpt>
      <trkpt lat="37.495472110" lon="-106.821481300">
        <ele>3456.000</ele>
        <time>2017-07-02T18:42:31Z</time>
        <name>WPT.1636</name>
      </trkpt>
      <trkpt lat="37.495500230" lon="-106.821431730">
        <ele>3455.000</ele>
        <time>2017-07-02T18:42:34Z</time>
        <name>WPT.1637</name>
      </trkpt>
      <trkpt lat="37.495520800" lon="-106.821387490">
        <ele>3455.000</ele>
        <time>2017-07-02T18:42:37Z</time>
        <name>WPT.1638</name>
      </trkpt>
      <trkpt lat="37.495487200" lon="-106.821361170">
        <ele>3455.000</ele>
        <time>2017-07-02T18:42:43Z</time>
        <name>WPT.1639</name>
      </trkpt>
      <trkpt lat="37.495512030" lon="-106.821313490">
        <ele>3456.000</ele>
        <time>2017-07-02T18:42:51Z</time>
        <name>WPT.1640</name>
      </trkpt>
      <trkpt lat="37.495536550" lon="-106.821273820">
        <ele>3455.000</ele>
        <time>2017-07-02T18:42:55Z</time>
        <name>WPT.1641</name>
      </trkpt>
      <trkpt lat="37.495548950" lon="-106.821227330">
        <ele>3455.000</ele>
        <time>2017-07-02T18:43:00Z</time>
        <name>WPT.1642</name>
      </trkpt>
      <trkpt lat="37.495559220" lon="-106.821163320">
        <ele>3455.000</ele>
        <time>2017-07-02T18:43:03Z</time>
        <name>WPT.1643</name>
      </trkpt>
      <trkpt lat="37.495538980" lon="-106.821123250">
        <ele>3455.000</ele>
        <time>2017-07-02T18:43:08Z</time>
        <name>WPT.1644</name>
      </trkpt>
      <trkpt lat="37.495516990" lon="-106.821084900">
        <ele>3457.000</ele>
        <time>2017-07-02T18:43:16Z</time>
        <name>WPT.1645</name>
      </trkpt>
      <trkpt lat="37.495522450" lon="-106.821035720">
        <ele>3456.000</ele>
        <time>2017-07-02T18:43:29Z</time>
        <name>WPT.1646</name>
      </trkpt>
      <trkpt lat="37.495548470" lon="-106.820998830">
        <ele>3499.000</ele>
        <time>2017-07-02T18:43:34Z</time>
        <name>WPT.1647</name>
      </trkpt>
      <trkpt lat="37.495561810" lon="-106.820955720">
        <ele>3485.000</ele>
        <time>2017-07-02T18:43:38Z</time>
        <name>WPT.1648</name>
      </trkpt>
      <trkpt lat="37.495568860" lon="-106.820904480">
        <ele>3470.000</ele>
        <time>2017-07-02T18:43:41Z</time>
        <name>WPT.1649</name>
      </trkpt>
      <trkpt lat="37.495585740" lon="-106.820849000">
        <ele>3483.000</ele>
        <time>2017-07-02T18:43:45Z</time>
        <name>WPT.1650</name>
      </trkpt>
      <trkpt lat="37.495604350" lon="-106.820806210">
        <ele>3473.000</ele>
        <time>2017-07-02T18:43:48Z</time>
        <name>WPT.1651</name>
      </trkpt>
      <trkpt lat="37.495643220" lon="-106.820773510">
        <ele>3461.000</ele>
        <time>2017-07-02T18:43:50Z</time>
        <name>WPT.1652</name>
      </trkpt>
      <trkpt lat="37.495674410" lon="-106.820725520">
        <ele>3459.000</ele>
        <time>2017-07-02T18:43:53Z</time>
        <name>WPT.1653</name>
      </trkpt>
      <trkpt lat="37.495693800" lon="-106.820686660">
        <ele>3455.000</ele>
        <time>2017-07-02T18:43:56Z</time>
        <name>WPT.1654</name>
      </trkpt>
      <trkpt lat="37.495701390" lon="-106.820626090">
        <ele>3456.000</ele>
        <time>2017-07-02T18:44:00Z</time>
        <name>WPT.1655</name>
      </trkpt>
      <trkpt lat="37.495710970" lon="-106.820569910">
        <ele>3452.000</ele>
        <time>2017-07-02T18:44:05Z</time>
        <name>WPT.1656</name>
      </trkpt>
      <trkpt lat="37.495725410" lon="-106.820508540">
        <ele>3453.000</ele>
        <time>2017-07-02T18:44:08Z</time>
        <name>WPT.1657</name>
      </trkpt>
      <trkpt lat="37.495731440" lon="-106.820462470">
        <ele>3452.000</ele>
        <time>2017-07-02T18:44:10Z</time>
        <name>WPT.1658</name>
      </trkpt>
      <trkpt lat="37.495751880" lon="-106.820421260">
        <ele>3452.000</ele>
        <time>2017-07-02T18:44:14Z</time>
        <name>WPT.1659</name>
      </trkpt>
      <trkpt lat="37.495780280" lon="-106.820374060">
        <ele>3448.000</ele>
        <time>2017-07-02T18:44:18Z</time>
        <name>WPT.1660</name>
      </trkpt>
      <trkpt lat="37.495760610" lon="-106.820328020">
        <ele>3448.000</ele>
        <time>2017-07-02T18:44:22Z</time>
        <name>WPT.1661</name>
      </trkpt>
      <trkpt lat="37.495726920" lon="-106.820285630">
        <ele>3451.000</ele>
        <time>2017-07-02T18:44:25Z</time>
        <name>WPT.1662</name>
      </trkpt>
      <trkpt lat="37.495706160" lon="-106.820246790">
        <ele>3453.000</ele>
        <time>2017-07-02T18:44:28Z</time>
        <name>WPT.1663</name>
      </trkpt>
      <trkpt lat="37.495697850" lon="-106.820200610">
        <ele>3457.000</ele>
        <time>2017-07-02T18:44:31Z</time>
        <name>WPT.1664</name>
      </trkpt>
      <trkpt lat="37.495708270" lon="-106.820151680">
        <ele>3455.000</ele>
        <time>2017-07-02T18:44:34Z</time>
        <name>WPT.1665</name>
      </trkpt>
      <trkpt lat="37.495705170" lon="-106.820100190">
        <ele>3452.000</ele>
        <time>2017-07-02T18:44:38Z</time>
        <name>WPT.1666</name>
      </trkpt>
      <trkpt lat="37.495680620" lon="-106.820050460">
        <ele>3454.000</ele>
        <time>2017-07-02T18:44:41Z</time>
        <name>WPT.1667</name>
      </trkpt>
      <trkpt lat="37.495656040" lon="-106.820014660">
        <ele>3455.000</ele>
        <time>2017-07-02T18:44:45Z</time>
        <name>WPT.1668</name>
      </trkpt>
      <trkpt lat="37.495634730" lon="-106.819976530">
        <ele>3473.000</ele>
        <time>2017-07-02T18:44:49Z</time>
        <name>WPT.1669</name>
      </trkpt>
      <trkpt lat="37.495616740" lon="-106.819934860">
        <ele>3479.000</ele>
        <time>2017-07-02T18:44:53Z</time>
        <name>WPT.1670</name>
      </trkpt>
      <trkpt lat="37.495595900" lon="-106.819887890">
        <ele>3473.000</ele>
        <time>2017-07-02T18:44:56Z</time>
        <name>WPT.1671</name>
      </trkpt>
      <trkpt lat="37.495573020" lon="-106.819837560">
        <ele>3469.000</ele>
        <time>2017-07-02T18:44:59Z</time>
        <name>WPT.1672</name>
      </trkpt>
      <trkpt lat="37.495538160" lon="-106.819806670">
        <ele>3464.000</ele>
        <time>2017-07-02T18:45:04Z</time>
        <name>WPT.1673</name>
      </trkpt>
      <trkpt lat="37.495490930" lon="-106.819764370">
        <ele>3088.000</ele>
        <time>2017-07-02T18:45:08Z</time>
        <name>WPT.1674</name>
      </trkpt>
      <trkpt lat="37.495457000" lon="-106.819738770">
        <ele>3293.000</ele>
        <time>2017-07-02T18:45:11Z</time>
        <name>WPT.1675</name>
      </trkpt>
      <trkpt lat="37.495413250" lon="-106.819711040">
        <ele>3376.000</ele>
        <time>2017-07-02T18:45:16Z</time>
        <name>WPT.1676</name>
      </trkpt>
      <trkpt lat="37.495380340" lon="-106.819685520">
        <ele>3394.000</ele>
        <time>2017-07-02T18:45:18Z</time>
        <name>WPT.1677</name>
      </trkpt>
      <trkpt lat="37.495348620" lon="-106.819662810">
        <ele>3415.000</ele>
        <time>2017-07-02T18:45:21Z</time>
        <name>WPT.1678</name>
      </trkpt>
      <trkpt lat="37.495303430" lon="-106.819634760">
        <ele>3424.000</ele>
        <time>2017-07-02T18:45:24Z</time>
        <name>WPT.1679</name>
      </trkpt>
      <trkpt lat="37.495282090" lon="-106.819595440">
        <ele>3428.000</ele>
        <time>2017-07-02T18:45:29Z</time>
        <name>WPT.1680</name>
      </trkpt>
      <trkpt lat="37.495241700" lon="-106.819583180">
        <ele>3458.000</ele>
        <time>2017-07-02T18:45:37Z</time>
        <name>WPT.1681</name>
      </trkpt>
      <trkpt lat="37.495203020" lon="-106.819569240">
        <ele>3456.000</ele>
        <time>2017-07-02T18:46:55Z</time>
        <name>WPT.1682</name>
      </trkpt>
      <trkpt lat="37.495174970" lon="-106.819530590">
        <ele>3455.000</ele>
        <time>2017-07-02T18:47:00Z</time>
        <name>WPT.1683</name>
      </trkpt>
      <trkpt lat="37.495146600" lon="-106.819498050">
        <ele>3451.000</ele>
        <time>2017-07-02T18:47:05Z</time>
        <name>WPT.1684</name>
      </trkpt>
      <trkpt lat="37.495117450" lon="-106.819467720">
        <ele>3456.000</ele>
        <time>2017-07-02T18:47:21Z</time>
        <name>WPT.1685</name>
      </trkpt>
      <trkpt lat="37.495088970" lon="-106.819424810">
        <ele>3452.000</ele>
        <time>2017-07-02T18:47:26Z</time>
        <name>WPT.1686</name>
      </trkpt>
      <trkpt lat="37.495081140" lon="-106.819380450">
        <ele>3450.000</ele>
        <time>2017-07-02T18:47:30Z</time>
        <name>WPT.1687</name>
      </trkpt>
      <trkpt lat="37.495063330" lon="-106.819325570">
        <ele>3467.000</ele>
        <time>2017-07-02T18:47:36Z</time>
        <name>WPT.1688</name>
      </trkpt>
      <trkpt lat="37.495032770" lon="-106.819278300">
        <ele>3452.000</ele>
        <time>2017-07-02T18:47:39Z</time>
        <name>WPT.1689</name>
      </trkpt>
      <trkpt lat="37.495013400" lon="-106.819237880">
        <ele>3449.000</ele>
        <time>2017-07-02T18:47:41Z</time>
        <name>WPT.1690</name>
      </trkpt>
      <trkpt lat="37.494995290" lon="-106.819184640">
        <ele>3465.000</ele>
        <time>2017-07-02T18:47:46Z</time>
        <name>WPT.1691</name>
      </trkpt>
      <trkpt lat="37.494976370" lon="-106.819133660">
        <ele>3454.000</ele>
        <time>2017-07-02T18:47:50Z</time>
        <name>WPT.1692</name>
      </trkpt>
      <trkpt lat="37.494953340" lon="-106.819091580">
        <ele>3449.000</ele>
        <time>2017-07-02T18:47:54Z</time>
        <name>WPT.1693</name>
      </trkpt>
      <trkpt lat="37.494926780" lon="-106.819055200">
        <ele>3444.000</ele>
        <time>2017-07-02T18:47:59Z</time>
        <name>WPT.1694</name>
      </trkpt>
      <trkpt lat="37.494906040" lon="-106.819016320">
        <ele>3468.000</ele>
        <time>2017-07-02T18:48:02Z</time>
        <name>WPT.1695</name>
      </trkpt>
      <trkpt lat="37.494890560" lon="-106.818952130">
        <ele>3452.000</ele>
        <time>2017-07-02T18:48:05Z</time>
        <name>WPT.1696</name>
      </trkpt>
      <trkpt lat="37.494904190" lon="-106.818898920">
        <ele>3447.000</ele>
        <time>2017-07-02T18:48:16Z</time>
        <name>WPT.1697</name>
      </trkpt>
      <trkpt lat="37.494923530" lon="-106.818847290">
        <ele>3456.000</ele>
        <time>2017-07-02T18:48:20Z</time>
        <name>WPT.1698</name>
      </trkpt>
      <trkpt lat="37.494939780" lon="-106.818797860">
        <ele>3462.000</ele>
        <time>2017-07-02T18:48:23Z</time>
        <name>WPT.1699</name>
      </trkpt>
      <trkpt lat="37.494952720" lon="-106.818749210">
        <ele>3478.000</ele>
        <time>2017-07-02T18:48:26Z</time>
        <name>WPT.1700</name>
      </trkpt>
      <trkpt lat="37.494980320" lon="-106.818710500">
        <ele>3456.000</ele>
        <time>2017-07-02T18:48:31Z</time>
        <name>WPT.1701</name>
      </trkpt>
      <trkpt lat="37.495000450" lon="-106.818661990">
        <ele>3451.000</ele>
        <time>2017-07-02T18:48:34Z</time>
        <name>WPT.1702</name>
      </trkpt>
      <trkpt lat="37.495021510" lon="-106.818611670">
        <ele>3444.000</ele>
        <time>2017-07-02T18:48:37Z</time>
        <name>WPT.1703</name>
      </trkpt>
      <trkpt lat="37.495043740" lon="-106.818574450">
        <ele>3444.000</ele>
        <time>2017-07-02T18:48:45Z</time>
        <name>WPT.1704</name>
      </trkpt>
      <trkpt lat="37.495073620" lon="-106.818520470">
        <ele>3446.000</ele>
        <time>2017-07-02T18:48:49Z</time>
        <name>WPT.1705</name>
      </trkpt>
      <trkpt lat="37.495107150" lon="-106.818477660">
        <ele>3441.000</ele>
        <time>2017-07-02T18:48:51Z</time>
        <name>WPT.1706</name>
      </trkpt>
      <trkpt lat="37.495142190" lon="-106.818458820">
        <ele>3470.000</ele>
        <time>2017-07-02T18:48:53Z</time>
        <name>WPT.1707</name>
      </trkpt>
      <trkpt lat="37.495180250" lon="-106.818447470">
        <ele>3451.000</ele>
        <time>2017-07-02T18:49:00Z</time>
        <name>WPT.1708</name>
      </trkpt>
      <trkpt lat="37.495209310" lon="-106.818410730">
        <ele>3449.000</ele>
        <time>2017-07-02T18:49:04Z</time>
        <name>WPT.1709</name>
      </trkpt>
      <trkpt lat="37.495244760" lon="-106.818386420">
        <ele>3477.000</ele>
        <time>2017-07-02T18:49:09Z</time>
        <name>WPT.1710</name>
      </trkpt>
      <trkpt lat="37.495282540" lon="-106.818375150">
        <ele>3465.000</ele>
        <time>2017-07-02T18:49:12Z</time>
        <name>WPT.1711</name>
      </trkpt>
      <trkpt lat="37.495329420" lon="-106.818354740">
        <ele>3458.000</ele>
        <time>2017-07-02T18:49:15Z</time>
        <name>WPT.1712</name>
      </trkpt>
      <trkpt lat="37.495367560" lon="-106.818368230">
        <ele>3455.000</ele>
        <time>2017-07-02T18:49:19Z</time>
        <name>WPT.1713</name>
      </trkpt>
      <trkpt lat="37.495415670" lon="-106.818381280">
        <ele>3488.000</ele>
        <time>2017-07-02T18:49:22Z</time>
        <name>WPT.1714</name>
      </trkpt>
      <trkpt lat="37.495449930" lon="-106.818395380">
        <ele>3493.000</ele>
        <time>2017-07-02T18:49:24Z</time>
        <name>WPT.1715</name>
      </trkpt>
      <trkpt lat="37.495483870" lon="-106.818415290">
        <ele>3493.000</ele>
        <time>2017-07-02T18:49:27Z</time>
        <name>WPT.1716</name>
      </trkpt>
      <trkpt lat="37.495517410" lon="-106.818439600">
        <ele>3480.000</ele>
        <time>2017-07-02T18:49:32Z</time>
        <name>WPT.1717</name>
      </trkpt>
      <trkpt lat="37.495556730" lon="-106.818446000">
        <ele>3461.000</ele>
        <time>2017-07-02T18:49:37Z</time>
        <name>WPT.1718</name>
      </trkpt>
      <trkpt lat="37.495593570" lon="-106.818439020">
        <ele>3453.000</ele>
        <time>2017-07-02T18:49:40Z</time>
        <name>WPT.1719</name>
      </trkpt>
      <trkpt lat="37.495639580" lon="-106.818439270">
        <ele>3473.000</ele>
        <time>2017-07-02T18:49:52Z</time>
        <name>WPT.1720</name>
      </trkpt>
      <trkpt lat="37.495678340" lon="-106.818433000">
        <ele>3463.000</ele>
        <time>2017-07-02T18:49:55Z</time>
        <name>WPT.1721</name>
      </trkpt>
      <trkpt lat="37.495716290" lon="-106.818432800">
        <ele>3488.000</ele>
        <time>2017-07-02T18:49:58Z</time>
        <name>WPT.1722</name>
      </trkpt>
      <trkpt lat="37.495757290" lon="-106.818424630">
        <ele>3473.000</ele>
        <time>2017-07-02T18:50:01Z</time>
        <name>WPT.1723</name>
      </trkpt>
      <trkpt lat="37.495788670" lon="-106.818378400">
        <ele>3465.000</ele>
        <time>2017-07-02T18:50:05Z</time>
        <name>WPT.1724</name>
      </trkpt>
      <trkpt lat="37.495825420" lon="-106.818376670">
        <ele>3454.000</ele>
        <time>2017-07-02T18:50:25Z</time>
        <name>WPT.1725</name>
      </trkpt>
      <trkpt lat="37.495859890" lon="-106.818399280">
        <ele>3451.000</ele>
        <time>2017-07-02T18:50:28Z</time>
        <name>WPT.1726</name>
      </trkpt>
      <trkpt lat="37.495895720" lon="-106.818406290">
        <ele>3453.000</ele>
        <time>2017-07-02T18:50:31Z</time>
        <name>WPT.1727</name>
      </trkpt>
      <trkpt lat="37.495933090" lon="-106.818405060">
        <ele>3453.000</ele>
        <time>2017-07-02T18:50:34Z</time>
        <name>WPT.1728</name>
      </trkpt>
      <trkpt lat="37.495975560" lon="-106.818410900">
        <ele>3499.000</ele>
        <time>2017-07-02T18:50:38Z</time>
        <name>WPT.1729</name>
      </trkpt>
      <trkpt lat="37.496008390" lon="-106.818386160">
        <ele>3479.000</ele>
        <time>2017-07-02T18:50:42Z</time>
        <name>WPT.1730</name>
      </trkpt>
      <trkpt lat="37.496022950" lon="-106.818331500">
        <ele>3508.000</ele>
        <time>2017-07-02T18:50:45Z</time>
        <name>WPT.1731</name>
      </trkpt>
      <trkpt lat="37.496054680" lon="-106.818304500">
        <ele>3508.000</ele>
        <time>2017-07-02T18:50:50Z</time>
        <name>WPT.1732</name>
      </trkpt>
      <trkpt lat="37.496096570" lon="-106.818289470">
        <ele>3479.000</ele>
        <time>2017-07-02T18:50:55Z</time>
        <name>WPT.1733</name>
      </trkpt>
      <trkpt lat="37.496131690" lon="-106.818273800">
        <ele>3469.000</ele>
        <time>2017-07-02T18:50:58Z</time>
        <name>WPT.1734</name>
      </trkpt>
      <trkpt lat="37.496165980" lon="-106.818253030">
        <ele>3459.000</ele>
        <time>2017-07-02T18:51:05Z</time>
        <name>WPT.1735</name>
      </trkpt>
      <trkpt lat="37.496190400" lon="-106.818217230">
        <ele>3491.000</ele>
        <time>2017-07-02T18:51:09Z</time>
        <name>WPT.1736</name>
      </trkpt>
      <trkpt lat="37.496221700" lon="-106.818174310">
        <ele>3492.000</ele>
        <time>2017-07-02T18:51:12Z</time>
        <name>WPT.1737</name>
      </trkpt>
      <trkpt lat="37.496248200" lon="-106.818124310">
        <ele>3486.000</ele>
        <time>2017-07-02T18:51:15Z</time>
        <name>WPT.1738</name>
      </trkpt>
      <trkpt lat="37.496275610" lon="-106.818087850">
        <ele>3500.000</ele>
        <time>2017-07-02T18:51:17Z</time>
        <name>WPT.1739</name>
      </trkpt>
      <trkpt lat="37.496298530" lon="-106.818042610">
        <ele>3471.000</ele>
        <time>2017-07-02T18:51:21Z</time>
        <name>WPT.1740</name>
      </trkpt>
      <trkpt lat="37.496312400" lon="-106.817998740">
        <ele>3450.000</ele>
        <time>2017-07-02T18:51:40Z</time>
        <name>WPT.1741</name>
      </trkpt>
      <trkpt lat="37.496346680" lon="-106.817971640">
        <ele>3456.000</ele>
        <time>2017-07-02T18:52:37Z</time>
        <name>WPT.1742</name>
      </trkpt>
      <trkpt lat="37.496358060" lon="-106.817918150">
        <ele>3456.000</ele>
        <time>2017-07-02T18:52:41Z</time>
        <name>WPT.1743</name>
      </trkpt>
      <trkpt lat="37.496382720" lon="-106.817874090">
        <ele>3455.000</ele>
        <time>2017-07-02T18:52:45Z</time>
        <name>WPT.1744</name>
      </trkpt>
      <trkpt lat="37.496404200" lon="-106.817834670">
        <ele>3457.000</ele>
        <time>2017-07-02T18:52:48Z</time>
        <name>WPT.1745</name>
      </trkpt>
      <trkpt lat="37.496432990" lon="-106.817777820">
        <ele>3457.000</ele>
        <time>2017-07-02T18:52:51Z</time>
        <name>WPT.1746</name>
      </trkpt>
      <trkpt lat="37.496462540" lon="-106.817738840">
        <ele>3457.000</ele>
        <time>2017-07-02T18:52:53Z</time>
        <name>WPT.1747</name>
      </trkpt>
      <trkpt lat="37.496483750" lon="-106.817698960">
        <ele>3456.000</ele>
        <time>2017-07-02T18:52:55Z</time>
        <name>WPT.1748</name>
      </trkpt>
      <trkpt lat="37.496516540" lon="-106.817656720">
        <ele>3501.000</ele>
        <time>2017-07-02T18:52:58Z</time>
        <name>WPT.1749</name>
      </trkpt>
      <trkpt lat="37.496551760" lon="-106.817631960">
        <ele>3472.000</ele>
        <time>2017-07-02T18:53:01Z</time>
        <name>WPT.1750</name>
      </trkpt>
      <trkpt lat="37.496577310" lon="-106.817590580">
        <ele>3461.000</ele>
        <time>2017-07-02T18:53:07Z</time>
        <name>WPT.1751</name>
      </trkpt>
      <trkpt lat="37.496607520" lon="-106.817545560">
        <ele>3461.000</ele>
        <time>2017-07-02T18:53:11Z</time>
        <name>WPT.1752</name>
      </trkpt>
      <trkpt lat="37.496634220" lon="-106.817502220">
        <ele>3497.000</ele>
        <time>2017-07-02T18:53:14Z</time>
        <name>WPT.1753</name>
      </trkpt>
      <trkpt lat="37.496655400" lon="-106.817455950">
        <ele>3479.000</ele>
        <time>2017-07-02T18:53:16Z</time>
        <name>WPT.1754</name>
      </trkpt>
      <trkpt lat="37.496690260" lon="-106.817413580">
        <ele>3468.000</ele>
        <time>2017-07-02T18:53:19Z</time>
        <name>WPT.1755</name>
      </trkpt>
      <trkpt lat="37.496729540" lon="-106.817381450">
        <ele>3461.000</ele>
        <time>2017-07-02T18:53:22Z</time>
        <name>WPT.1756</name>
      </trkpt>
      <trkpt lat="37.496765180" lon="-106.817358200">
        <ele>3461.000</ele>
        <time>2017-07-02T18:53:28Z</time>
        <name>WPT.1757</name>
      </trkpt>
      <trkpt lat="37.496790300" lon="-106.817321240">
        <ele>3496.000</ele>
        <time>2017-07-02T18:53:31Z</time>
        <name>WPT.1758</name>
      </trkpt>
      <trkpt lat="37.496813550" lon="-106.817266250">
        <ele>3477.000</ele>
        <time>2017-07-02T18:53:34Z</time>
        <name>WPT.1759</name>
      </trkpt>
      <trkpt lat="37.496833720" lon="-106.817211370">
        <ele>3497.000</ele>
        <time>2017-07-02T18:53:37Z</time>
        <name>WPT.1760</name>
      </trkpt>
      <trkpt lat="37.496845810" lon="-106.817156920">
        <ele>3480.000</ele>
        <time>2017-07-02T18:53:40Z</time>
        <name>WPT.1761</name>
      </trkpt>
      <trkpt lat="37.496863380" lon="-106.817114430">
        <ele>3475.000</ele>
        <time>2017-07-02T18:53:42Z</time>
        <name>WPT.1762</name>
      </trkpt>
      <trkpt lat="37.496871740" lon="-106.817061730">
        <ele>3471.000</ele>
        <time>2017-07-02T18:53:45Z</time>
        <name>WPT.1763</name>
      </trkpt>
      <trkpt lat="37.496884260" lon="-106.817005850">
        <ele>3506.000</ele>
        <time>2017-07-02T18:53:50Z</time>
        <name>WPT.1764</name>
      </trkpt>
      <trkpt lat="37.496904850" lon="-106.816954030">
        <ele>3477.000</ele>
        <time>2017-07-02T18:53:55Z</time>
        <name>WPT.1765</name>
      </trkpt>
      <trkpt lat="37.496872720" lon="-106.816913780">
        <ele>3463.000</ele>
        <time>2017-07-02T18:54:12Z</time>
        <name>WPT.1766</name>
      </trkpt>
      <trkpt lat="37.496913270" lon="-106.816896800">
        <ele>3457.000</ele>
        <time>2017-07-02T18:54:34Z</time>
        <name>WPT.1767</name>
      </trkpt>
      <trkpt lat="37.496943710" lon="-106.816850270">
        <ele>3481.000</ele>
        <time>2017-07-02T18:54:37Z</time>
        <name>WPT.1768</name>
      </trkpt>
      <trkpt lat="37.496957060" lon="-106.816799470">
        <ele>3470.000</ele>
        <time>2017-07-02T18:54:40Z</time>
        <name>WPT.1769</name>
      </trkpt>
      <trkpt lat="37.496974700" lon="-106.816757870">
        <ele>3466.000</ele>
        <time>2017-07-02T18:54:42Z</time>
        <name>WPT.1770</name>
      </trkpt>
      <trkpt lat="37.497014660" lon="-106.816726260">
        <ele>3461.000</ele>
        <time>2017-07-02T18:54:49Z</time>
        <name>WPT.1771</name>
      </trkpt>
      <trkpt lat="37.497052540" lon="-106.816712470">
        <ele>3461.000</ele>
        <time>2017-07-02T18:54:53Z</time>
        <name>WPT.1772</name>
      </trkpt>
      <trkpt lat="37.497057280" lon="-106.816657310">
        <ele>3459.000</ele>
        <time>2017-07-02T18:54:57Z</time>
        <name>WPT.1773</name>
      </trkpt>
      <trkpt lat="37.497075650" lon="-106.816609180">
        <ele>3483.000</ele>
        <time>2017-07-02T18:55:14Z</time>
        <name>WPT.1774</name>
      </trkpt>
      <trkpt lat="37.497090510" lon="-106.816553400">
        <ele>3474.000</ele>
        <time>2017-07-02T18:55:18Z</time>
        <name>WPT.1775</name>
      </trkpt>
      <trkpt lat="37.497120920" lon="-106.816516210">
        <ele>3469.000</ele>
        <time>2017-07-02T18:55:22Z</time>
        <name>WPT.1776</name>
      </trkpt>
      <trkpt lat="37.497132550" lon="-106.816470230">
        <ele>3473.000</ele>
        <time>2017-07-02T18:55:25Z</time>
        <name>WPT.1777</name>
      </trkpt>
      <trkpt lat="37.497157410" lon="-106.816414580">
        <ele>3472.000</ele>
        <time>2017-07-02T18:55:28Z</time>
        <name>WPT.1778</name>
      </trkpt>
      <trkpt lat="37.497180490" lon="-106.816371720">
        <ele>3473.000</ele>
        <time>2017-07-02T18:55:31Z</time>
        <name>WPT.1779</name>
      </trkpt>
      <trkpt lat="37.497209960" lon="-106.816329430">
        <ele>3474.000</ele>
        <time>2017-07-02T18:55:34Z</time>
        <name>WPT.1780</name>
      </trkpt>
      <trkpt lat="37.497244610" lon="-106.816300930">
        <ele>3474.000</ele>
        <time>2017-07-02T18:55:37Z</time>
        <name>WPT.1781</name>
      </trkpt>
      <trkpt lat="37.497290470" lon="-106.816284900">
        <ele>3418.000</ele>
        <time>2017-07-02T18:56:14Z</time>
        <name>WPT.1782</name>
      </trkpt>
      <trkpt lat="37.497336170" lon="-106.816286060">
        <ele>3448.000</ele>
        <time>2017-07-02T18:56:19Z</time>
        <name>WPT.1783</name>
      </trkpt>
      <trkpt lat="37.497375630" lon="-106.816268500">
        <ele>3216.000</ele>
        <time>2017-07-02T18:56:23Z</time>
        <name>WPT.1784</name>
      </trkpt>
      <trkpt lat="37.497401870" lon="-106.816235740">
        <ele>3282.000</ele>
        <time>2017-07-02T18:56:26Z</time>
        <name>WPT.1785</name>
      </trkpt>
      <trkpt lat="37.497413300" lon="-106.816182040">
        <ele>2970.000</ele>
        <time>2017-07-02T18:56:30Z</time>
        <name>WPT.1786</name>
      </trkpt>
      <trkpt lat="37.497430450" lon="-106.816137150">
        <ele>3254.000</ele>
        <time>2017-07-02T18:56:36Z</time>
        <name>WPT.1787</name>
      </trkpt>
      <trkpt lat="37.497449800" lon="-106.816092590">
        <ele>3234.000</ele>
        <time>2017-07-02T18:56:40Z</time>
        <name>WPT.1788</name>
      </trkpt>
      <trkpt lat="37.497488690" lon="-106.816070900">
        <ele>3354.000</ele>
        <time>2017-07-02T18:56:44Z</time>
        <name>WPT.1789</name>
      </trkpt>
      <trkpt lat="37.497517350" lon="-106.816030030">
        <ele>3369.000</ele>
        <time>2017-07-02T18:56:47Z</time>
        <name>WPT.1790</name>
      </trkpt>
      <trkpt lat="37.497524450" lon="-106.815980570">
        <ele>3407.000</ele>
        <time>2017-07-02T18:56:51Z</time>
        <name>WPT.1791</name>
      </trkpt>
      <trkpt lat="37.497534610" lon="-106.815932090">
        <ele>3413.000</ele>
        <time>2017-07-02T18:56:53Z</time>
        <name>WPT.1792</name>
      </trkpt>
      <trkpt lat="37.497553400" lon="-106.815887810">
        <ele>3417.000</ele>
        <time>2017-07-02T18:56:55Z</time>
        <name>WPT.1793</name>
      </trkpt>
      <trkpt lat="37.497570190" lon="-106.815845310">
        <ele>3444.000</ele>
        <time>2017-07-02T18:56:59Z</time>
        <name>WPT.1794</name>
      </trkpt>
      <trkpt lat="37.497589520" lon="-106.815803490">
        <ele>3459.000</ele>
        <time>2017-07-02T18:57:03Z</time>
        <name>WPT.1795</name>
      </trkpt>
      <trkpt lat="37.497611710" lon="-106.815762690">
        <ele>3465.000</ele>
        <time>2017-07-02T18:57:08Z</time>
        <name>WPT.1796</name>
      </trkpt>
      <trkpt lat="37.497631040" lon="-106.815718550">
        <ele>3468.000</ele>
        <time>2017-07-02T18:57:12Z</time>
        <name>WPT.1797</name>
      </trkpt>
      <trkpt lat="37.497652230" lon="-106.815673690">
        <ele>3472.000</ele>
        <time>2017-07-02T18:57:16Z</time>
        <name>WPT.1798</name>
      </trkpt>
      <trkpt lat="37.497668590" lon="-106.815622470">
        <ele>3475.000</ele>
        <time>2017-07-02T18:57:20Z</time>
        <name>WPT.1799</name>
      </trkpt>
      <trkpt lat="37.497682490" lon="-106.815568850">
        <ele>3478.000</ele>
        <time>2017-07-02T18:57:24Z</time>
        <name>WPT.1800</name>
      </trkpt>
      <trkpt lat="37.497693930" lon="-106.815524980">
        <ele>3478.000</ele>
        <time>2017-07-02T18:57:28Z</time>
        <name>WPT.1801</name>
      </trkpt>
      <trkpt lat="37.497701660" lon="-106.815475840">
        <ele>3478.000</ele>
        <time>2017-07-02T18:57:33Z</time>
        <name>WPT.1802</name>
      </trkpt>
      <trkpt lat="37.497707870" lon="-106.815430740">
        <ele>3477.000</ele>
        <time>2017-07-02T18:57:37Z</time>
        <name>WPT.1803</name>
      </trkpt>
      <trkpt lat="37.497711850" lon="-106.815385360">
        <ele>3138.000</ele>
        <time>2017-07-02T18:58:07Z</time>
        <name>WPT.1804</name>
      </trkpt>
      <trkpt lat="37.497706900" lon="-106.815313670">
        <ele>3348.000</ele>
        <time>2017-07-02T18:58:13Z</time>
        <name>WPT.1805</name>
      </trkpt>
      <trkpt lat="37.497696620" lon="-106.815266010">
        <ele>3383.000</ele>
        <time>2017-07-02T18:58:15Z</time>
        <name>WPT.1806</name>
      </trkpt>
      <trkpt lat="37.497677820" lon="-106.815201860">
        <ele>3439.000</ele>
        <time>2017-07-02T18:58:18Z</time>
        <name>WPT.1807</name>
      </trkpt>
      <trkpt lat="37.497660180" lon="-106.815152920">
        <ele>3444.000</ele>
        <time>2017-07-02T18:58:20Z</time>
        <name>WPT.1808</name>
      </trkpt>
      <trkpt lat="37.497644160" lon="-106.815100380">
        <ele>3452.000</ele>
        <time>2017-07-02T18:58:23Z</time>
        <name>WPT.1809</name>
      </trkpt>
      <trkpt lat="37.497652220" lon="-106.815053260">
        <ele>3452.000</ele>
        <time>2017-07-02T18:58:27Z</time>
        <name>WPT.1810</name>
      </trkpt>
      <trkpt lat="37.497661610" lon="-106.815006740">
        <ele>3456.000</ele>
        <time>2017-07-02T18:58:35Z</time>
        <name>WPT.1811</name>
      </trkpt>
      <trkpt lat="37.497625700" lon="-106.814987600">
        <ele>3450.000</ele>
        <time>2017-07-02T18:58:51Z</time>
        <name>WPT.1812</name>
      </trkpt>
      <trkpt lat="37.497615630" lon="-106.814941460">
        <ele>3467.000</ele>
        <time>2017-07-02T18:58:55Z</time>
        <name>WPT.1813</name>
      </trkpt>
      <trkpt lat="37.497584560" lon="-106.814898640">
        <ele>3477.000</ele>
        <time>2017-07-02T18:58:59Z</time>
        <name>WPT.1814</name>
      </trkpt>
      <trkpt lat="37.497552110" lon="-106.814876680">
        <ele>3481.000</ele>
        <time>2017-07-02T18:59:06Z</time>
        <name>WPT.1815</name>
      </trkpt>
      <trkpt lat="37.497531420" lon="-106.814818200">
        <ele>3479.000</ele>
        <time>2017-07-02T18:59:09Z</time>
        <name>WPT.1816</name>
      </trkpt>
      <trkpt lat="37.497521900" lon="-106.814767870">
        <ele>3482.000</ele>
        <time>2017-07-02T18:59:12Z</time>
        <name>WPT.1817</name>
      </trkpt>
      <trkpt lat="37.497511000" lon="-106.814709920">
        <ele>3482.000</ele>
        <time>2017-07-02T18:59:15Z</time>
        <name>WPT.1818</name>
      </trkpt>
      <trkpt lat="37.497486210" lon="-106.814656400">
        <ele>3483.000</ele>
        <time>2017-07-02T18:59:18Z</time>
        <name>WPT.1819</name>
      </trkpt>
      <trkpt lat="37.497452570" lon="-106.814616660">
        <ele>3480.000</ele>
        <time>2017-07-02T18:59:22Z</time>
        <name>WPT.1820</name>
      </trkpt>
      <trkpt lat="37.497426980" lon="-106.814571280">
        <ele>3479.000</ele>
        <time>2017-07-02T18:59:28Z</time>
        <name>WPT.1821</name>
      </trkpt>
      <trkpt lat="37.497411140" lon="-106.814526830">
        <ele>3481.000</ele>
        <time>2017-07-02T18:59:32Z</time>
        <name>WPT.1822</name>
      </trkpt>
      <trkpt lat="37.497401360" lon="-106.814470660">
        <ele>3328.000</ele>
        <time>2017-07-02T18:59:37Z</time>
        <name>WPT.1823</name>
      </trkpt>
      <trkpt lat="37.497383300" lon="-106.814429620">
        <ele>3389.000</ele>
        <time>2017-07-02T18:59:40Z</time>
        <name>WPT.1824</name>
      </trkpt>
      <trkpt lat="37.497361730" lon="-106.814383010">
        <ele>3437.000</ele>
        <time>2017-07-02T18:59:44Z</time>
        <name>WPT.1825</name>
      </trkpt>
      <trkpt lat="37.497345430" lon="-106.814339890">
        <ele>3441.000</ele>
        <time>2017-07-02T18:59:48Z</time>
        <name>WPT.1826</name>
      </trkpt>
      <trkpt lat="37.497302640" lon="-106.814320880">
        <ele>3463.000</ele>
        <time>2017-07-02T18:59:54Z</time>
        <name>WPT.1827</name>
      </trkpt>
      <trkpt lat="37.497265350" lon="-106.814304650">
        <ele>3460.000</ele>
        <time>2017-07-02T18:59:56Z</time>
        <name>WPT.1828</name>
      </trkpt>
      <trkpt lat="37.497225190" lon="-106.814274420">
        <ele>3470.000</ele>
        <time>2017-07-02T18:59:59Z</time>
        <name>WPT.1829</name>
      </trkpt>
      <trkpt lat="37.497187040" lon="-106.814255380">
        <ele>3475.000</ele>
        <time>2017-07-02T19:00:02Z</time>
        <name>WPT.1830</name>
      </trkpt>
      <trkpt lat="37.497152600" lon="-106.814240780">
        <ele>3477.000</ele>
        <time>2017-07-02T19:00:04Z</time>
        <name>WPT.1831</name>
      </trkpt>
      <trkpt lat="37.497112230" lon="-106.814219960">
        <ele>3479.000</ele>
        <time>2017-07-02T19:00:07Z</time>
        <name>WPT.1832</name>
      </trkpt>
      <trkpt lat="37.497079780" lon="-106.814185520">
        <ele>3483.000</ele>
        <time>2017-07-02T19:00:12Z</time>
        <name>WPT.1833</name>
      </trkpt>
      <trkpt lat="37.497044640" lon="-106.814155190">
        <ele>3483.000</ele>
        <time>2017-07-02T19:00:17Z</time>
        <name>WPT.1834</name>
      </trkpt>
      <trkpt lat="37.497010200" lon="-106.814128200">
        <ele>3489.000</ele>
        <time>2017-07-02T19:00:22Z</time>
        <name>WPT.1835</name>
      </trkpt>
      <trkpt lat="37.496967290" lon="-106.814119550">
        <ele>3493.000</ele>
        <time>2017-07-02T19:00:34Z</time>
        <name>WPT.1836</name>
      </trkpt>
      <trkpt lat="37.496929840" lon="-106.814116260">
        <ele>3493.000</ele>
        <time>2017-07-02T19:00:37Z</time>
        <name>WPT.1837</name>
      </trkpt>
      <trkpt lat="37.496893780" lon="-106.814075510">
        <ele>3492.000</ele>
        <time>2017-07-02T19:00:43Z</time>
        <name>WPT.1838</name>
      </trkpt>
      <trkpt lat="37.496856660" lon="-106.814033880">
        <ele>3215.000</ele>
        <time>2017-07-02T19:00:46Z</time>
        <name>WPT.1839</name>
      </trkpt>
      <trkpt lat="37.496815410" lon="-106.814015800">
        <ele>3364.000</ele>
        <time>2017-07-02T19:00:50Z</time>
        <name>WPT.1840</name>
      </trkpt>
      <trkpt lat="37.496779240" lon="-106.814009150">
        <ele>3500.000</ele>
        <time>2017-07-02T19:02:04Z</time>
        <name>WPT.1841</name>
      </trkpt>
      <trkpt lat="37.496751410" lon="-106.813976800">
        <ele>3499.000</ele>
        <time>2017-07-02T19:02:10Z</time>
        <name>WPT.1842</name>
      </trkpt>
      <trkpt lat="37.496722980" lon="-106.813946610">
        <ele>3492.000</ele>
        <time>2017-07-02T19:02:21Z</time>
        <name>WPT.1843</name>
      </trkpt>
      <trkpt lat="37.496682610" lon="-106.813920610">
        <ele>3502.000</ele>
        <time>2017-07-02T19:02:25Z</time>
        <name>WPT.1844</name>
      </trkpt>
      <trkpt lat="37.496648800" lon="-106.813904570">
        <ele>3502.000</ele>
        <time>2017-07-02T19:02:27Z</time>
        <name>WPT.1845</name>
      </trkpt>
      <trkpt lat="37.496610540" lon="-106.813895550">
        <ele>3503.000</ele>
        <time>2017-07-02T19:02:31Z</time>
        <name>WPT.1846</name>
      </trkpt>
      <trkpt lat="37.496564910" lon="-106.813883260">
        <ele>3132.000</ele>
        <time>2017-07-02T19:02:36Z</time>
        <name>WPT.1847</name>
      </trkpt>
      <trkpt lat="37.496526420" lon="-106.813852220">
        <ele>3223.000</ele>
        <time>2017-07-02T19:02:40Z</time>
        <name>WPT.1848</name>
      </trkpt>
      <trkpt lat="37.496498490" lon="-106.813809230">
        <ele>3404.000</ele>
        <time>2017-07-02T19:02:45Z</time>
        <name>WPT.1849</name>
      </trkpt>
      <trkpt lat="37.496461260" lon="-106.813783780">
        <ele>3451.000</ele>
        <time>2017-07-02T19:02:56Z</time>
        <name>WPT.1850</name>
      </trkpt>
      <trkpt lat="37.496423500" lon="-106.813772480">
        <ele>3465.000</ele>
        <time>2017-07-02T19:02:59Z</time>
        <name>WPT.1851</name>
      </trkpt>
      <trkpt lat="37.496389220" lon="-106.813736030">
        <ele>3472.000</ele>
        <time>2017-07-02T19:03:02Z</time>
        <name>WPT.1852</name>
      </trkpt>
      <trkpt lat="37.496352090" lon="-106.813696270">
        <ele>3491.000</ele>
        <time>2017-07-02T19:03:07Z</time>
        <name>WPT.1853</name>
      </trkpt>
      <trkpt lat="37.496321880" lon="-106.813644700">
        <ele>3498.000</ele>
        <time>2017-07-02T19:03:12Z</time>
        <name>WPT.1854</name>
      </trkpt>
      <trkpt lat="37.496290410" lon="-106.813618590">
        <ele>3504.000</ele>
        <time>2017-07-02T19:03:16Z</time>
        <name>WPT.1855</name>
      </trkpt>
      <trkpt lat="37.496275710" lon="-106.813576740">
        <ele>3507.000</ele>
        <time>2017-07-02T19:03:20Z</time>
        <name>WPT.1856</name>
      </trkpt>
      <trkpt lat="37.496267210" lon="-106.813530620">
        <ele>3519.000</ele>
        <time>2017-07-02T19:04:05Z</time>
        <name>WPT.1857</name>
      </trkpt>
      <trkpt lat="37.496276250" lon="-106.813483630">
        <ele>3515.000</ele>
        <time>2017-07-02T19:04:09Z</time>
        <name>WPT.1858</name>
      </trkpt>
      <trkpt lat="37.496289210" lon="-106.813431980">
        <ele>3531.000</ele>
        <time>2017-07-02T19:04:13Z</time>
        <name>WPT.1859</name>
      </trkpt>
      <trkpt lat="37.496317940" lon="-106.813402900">
        <ele>3525.000</ele>
        <time>2017-07-02T19:04:16Z</time>
        <name>WPT.1860</name>
      </trkpt>
      <trkpt lat="37.496346760" lon="-106.813361140">
        <ele>3516.000</ele>
        <time>2017-07-02T19:04:19Z</time>
        <name>WPT.1861</name>
      </trkpt>
      <trkpt lat="37.496348740" lon="-106.813304490">
        <ele>3524.000</ele>
        <time>2017-07-02T19:04:27Z</time>
        <name>WPT.1862</name>
      </trkpt>
      <trkpt lat="37.496351360" lon="-106.813256000">
        <ele>3520.000</ele>
        <time>2017-07-02T19:04:32Z</time>
        <name>WPT.1863</name>
      </trkpt>
      <trkpt lat="37.496345990" lon="-106.813206700">
        <ele>3518.000</ele>
        <time>2017-07-02T19:04:37Z</time>
        <name>WPT.1864</name>
      </trkpt>
      <trkpt lat="37.496342120" lon="-106.813157430">
        <ele>3514.000</ele>
        <time>2017-07-02T19:04:41Z</time>
        <name>WPT.1865</name>
      </trkpt>
      <trkpt lat="37.496335700" lon="-106.813105110">
        <ele>3517.000</ele>
        <time>2017-07-02T19:04:47Z</time>
        <name>WPT.1866</name>
      </trkpt>
      <trkpt lat="37.496344490" lon="-106.813053930">
        <ele>3517.000</ele>
        <time>2017-07-02T19:04:52Z</time>
        <name>WPT.1867</name>
      </trkpt>
      <trkpt lat="37.496351350" lon="-106.813007840">
        <ele>3521.000</ele>
        <time>2017-07-02T19:04:55Z</time>
        <name>WPT.1868</name>
      </trkpt>
      <trkpt lat="37.496354090" lon="-106.812956540">
        <ele>3521.000</ele>
        <time>2017-07-02T19:05:00Z</time>
        <name>WPT.1869</name>
      </trkpt>
      <trkpt lat="37.496364290" lon="-106.812906940">
        <ele>3523.000</ele>
        <time>2017-07-02T19:05:05Z</time>
        <name>WPT.1870</name>
      </trkpt>
      <trkpt lat="37.496359720" lon="-106.812847200">
        <ele>3525.000</ele>
        <time>2017-07-02T19:05:08Z</time>
        <name>WPT.1871</name>
      </trkpt>
      <trkpt lat="37.496339440" lon="-106.812803660">
        <ele>3524.000</ele>
        <time>2017-07-02T19:05:10Z</time>
        <name>WPT.1872</name>
      </trkpt>
      <trkpt lat="37.496326340" lon="-106.812756400">
        <ele>3526.000</ele>
        <time>2017-07-02T19:05:16Z</time>
        <name>WPT.1873</name>
      </trkpt>
      <trkpt lat="37.496342320" lon="-106.812714720">
        <ele>3522.000</ele>
        <time>2017-07-02T19:05:27Z</time>
        <name>WPT.1874</name>
      </trkpt>
      <trkpt lat="37.496348090" lon="-106.812668450">
        <ele>3525.000</ele>
        <time>2017-07-02T19:06:13Z</time>
        <name>WPT.1875</name>
      </trkpt>
      <trkpt lat="37.496358280" lon="-106.812616240">
        <ele>3525.000</ele>
        <time>2017-07-02T19:06:16Z</time>
        <name>WPT.1876</name>
      </trkpt>
      <trkpt lat="37.496362680" lon="-106.812559480">
        <ele>3521.000</ele>
        <time>2017-07-02T19:06:19Z</time>
        <name>WPT.1877</name>
      </trkpt>
      <trkpt lat="37.496362260" lon="-106.812510560">
        <ele>3519.000</ele>
        <time>2017-07-02T19:06:22Z</time>
        <name>WPT.1878</name>
      </trkpt>
      <trkpt lat="37.496361580" lon="-106.812450050">
        <ele>3519.000</ele>
        <time>2017-07-02T19:06:25Z</time>
        <name>WPT.1879</name>
      </trkpt>
      <trkpt lat="37.496364790" lon="-106.812403240">
        <ele>3521.000</ele>
        <time>2017-07-02T19:06:30Z</time>
        <name>WPT.1880</name>
      </trkpt>
      <trkpt lat="37.496364380" lon="-106.812346590">
        <ele>3522.000</ele>
        <time>2017-07-02T19:06:33Z</time>
        <name>WPT.1881</name>
      </trkpt>
      <trkpt lat="37.496354560" lon="-106.812293370">
        <ele>3522.000</ele>
        <time>2017-07-02T19:06:39Z</time>
        <name>WPT.1882</name>
      </trkpt>
      <trkpt lat="37.496321720" lon="-106.812261590">
        <ele>3522.000</ele>
        <time>2017-07-02T19:06:45Z</time>
        <name>WPT.1883</name>
      </trkpt>
      <trkpt lat="37.496314220" lon="-106.812216540">
        <ele>3523.000</ele>
        <time>2017-07-02T19:06:51Z</time>
        <name>WPT.1884</name>
      </trkpt>
      <trkpt lat="37.496325070" lon="-106.812161780">
        <ele>3524.000</ele>
        <time>2017-07-02T19:06:58Z</time>
        <name>WPT.1885</name>
      </trkpt>
      <trkpt lat="37.496315210" lon="-106.812105250">
        <ele>3524.000</ele>
        <time>2017-07-02T19:07:01Z</time>
        <name>WPT.1886</name>
      </trkpt>
      <trkpt lat="37.496296300" lon="-106.812065290">
        <ele>3523.000</ele>
        <time>2017-07-02T19:07:03Z</time>
        <name>WPT.1887</name>
      </trkpt>
      <trkpt lat="37.496270710" lon="-106.812015790">
        <ele>3524.000</ele>
        <time>2017-07-02T19:07:06Z</time>
        <name>WPT.1888</name>
      </trkpt>
      <trkpt lat="37.496271380" lon="-106.811967620">
        <ele>3524.000</ele>
        <time>2017-07-02T19:07:11Z</time>
        <name>WPT.1889</name>
      </trkpt>
      <trkpt lat="37.496251890" lon="-106.811921580">
        <ele>3525.000</ele>
        <time>2017-07-02T19:07:16Z</time>
        <name>WPT.1890</name>
      </trkpt>
      <trkpt lat="37.496239920" lon="-106.811866270">
        <ele>3528.000</ele>
        <time>2017-07-02T19:07:30Z</time>
        <name>WPT.1891</name>
      </trkpt>
      <trkpt lat="37.496249020" lon="-106.811813550">
        <ele>3528.000</ele>
        <time>2017-07-02T19:07:33Z</time>
        <name>WPT.1892</name>
      </trkpt>
      <trkpt lat="37.496217100" lon="-106.811789240">
        <ele>3527.000</ele>
        <time>2017-07-02T19:07:46Z</time>
        <name>WPT.1893</name>
      </trkpt>
      <trkpt lat="37.496197560" lon="-106.811744630">
        <ele>3528.000</ele>
        <time>2017-07-02T19:07:49Z</time>
        <name>WPT.1894</name>
      </trkpt>
      <trkpt lat="37.496163750" lon="-106.811710430">
        <ele>3527.000</ele>
        <time>2017-07-02T19:07:52Z</time>
        <name>WPT.1895</name>
      </trkpt>
      <trkpt lat="37.496137050" lon="-106.811679000">
        <ele>3529.000</ele>
        <time>2017-07-02T19:07:56Z</time>
        <name>WPT.1896</name>
      </trkpt>
      <trkpt lat="37.496109570" lon="-106.811628800">
        <ele>3528.000</ele>
        <time>2017-07-02T19:07:59Z</time>
        <name>WPT.1897</name>
      </trkpt>
      <trkpt lat="37.496078120" lon="-106.811592920">
        <ele>3530.000</ele>
        <time>2017-07-02T19:08:01Z</time>
        <name>WPT.1898</name>
      </trkpt>
      <trkpt lat="37.496043370" lon="-106.811548950">
        <ele>3530.000</ele>
        <time>2017-07-02T19:08:03Z</time>
        <name>WPT.1899</name>
      </trkpt>
      <trkpt lat="37.496004470" lon="-106.811517190">
        <ele>3531.000</ele>
        <time>2017-07-02T19:08:05Z</time>
        <name>WPT.1900</name>
      </trkpt>
      <trkpt lat="37.495968340" lon="-106.811503140">
        <ele>3531.000</ele>
        <time>2017-07-02T19:08:13Z</time>
        <name>WPT.1901</name>
      </trkpt>
      <trkpt lat="37.495943280" lon="-106.811470440">
        <ele>3531.000</ele>
        <time>2017-07-02T19:08:17Z</time>
        <name>WPT.1902</name>
      </trkpt>
      <trkpt lat="37.495917020" lon="-106.811437290">
        <ele>3530.000</ele>
        <time>2017-07-02T19:08:22Z</time>
        <name>WPT.1903</name>
      </trkpt>
      <trkpt lat="37.495918530" lon="-106.811390070">
        <ele>3531.000</ele>
        <time>2017-07-02T19:08:27Z</time>
        <name>WPT.1904</name>
      </trkpt>
      <trkpt lat="37.495921790" lon="-106.811339910">
        <ele>3532.000</ele>
        <time>2017-07-02T19:08:30Z</time>
        <name>WPT.1905</name>
      </trkpt>
      <trkpt lat="37.495906020" lon="-106.811297990">
        <ele>3532.000</ele>
        <time>2017-07-02T19:08:33Z</time>
        <name>WPT.1906</name>
      </trkpt>
      <trkpt lat="37.495872500" lon="-106.811262420">
        <ele>3532.000</ele>
        <time>2017-07-02T19:08:35Z</time>
        <name>WPT.1907</name>
      </trkpt>
      <trkpt lat="37.495833590" lon="-106.811217340">
        <ele>3535.000</ele>
        <time>2017-07-02T19:08:38Z</time>
        <name>WPT.1908</name>
      </trkpt>
      <trkpt lat="37.495808500" lon="-106.811181470">
        <ele>3537.000</ele>
        <time>2017-07-02T19:08:40Z</time>
        <name>WPT.1909</name>
      </trkpt>
      <trkpt lat="37.495774970" lon="-106.811150720">
        <ele>3538.000</ele>
        <time>2017-07-02T19:08:43Z</time>
        <name>WPT.1910</name>
      </trkpt>
      <trkpt lat="37.495733160" lon="-106.811149090">
        <ele>3540.000</ele>
        <time>2017-07-02T19:08:47Z</time>
        <name>WPT.1911</name>
      </trkpt>
      <trkpt lat="37.495706700" lon="-106.811098830">
        <ele>3542.000</ele>
        <time>2017-07-02T19:08:53Z</time>
        <name>WPT.1912</name>
      </trkpt>
      <trkpt lat="37.495667090" lon="-106.811064620">
        <ele>3541.000</ele>
        <time>2017-07-02T19:08:56Z</time>
        <name>WPT.1913</name>
      </trkpt>
      <trkpt lat="37.495637460" lon="-106.811035710">
        <ele>3540.000</ele>
        <time>2017-07-02T19:08:59Z</time>
        <name>WPT.1914</name>
      </trkpt>
      <trkpt lat="37.495610380" lon="-106.810987770">
        <ele>3541.000</ele>
        <time>2017-07-02T19:09:02Z</time>
        <name>WPT.1915</name>
      </trkpt>
      <trkpt lat="37.495597990" lon="-106.810944160">
        <ele>3542.000</ele>
        <time>2017-07-02T19:09:04Z</time>
        <name>WPT.1916</name>
      </trkpt>
      <trkpt lat="37.495579380" lon="-106.810902130">
        <ele>3542.000</ele>
        <time>2017-07-02T19:09:06Z</time>
        <name>WPT.1917</name>
      </trkpt>
      <trkpt lat="37.495550080" lon="-106.810865280">
        <ele>3540.000</ele>
        <time>2017-07-02T19:09:11Z</time>
        <name>WPT.1918</name>
      </trkpt>
      <trkpt lat="37.495511010" lon="-106.810850240">
        <ele>3540.000</ele>
        <time>2017-07-02T19:09:21Z</time>
        <name>WPT.1919</name>
      </trkpt>
      <trkpt lat="37.495500780" lon="-106.810801440">
        <ele>3540.000</ele>
        <time>2017-07-02T19:10:47Z</time>
        <name>WPT.1920</name>
      </trkpt>
      <trkpt lat="37.495484700" lon="-106.810759190">
        <ele>3540.000</ele>
        <time>2017-07-02T19:10:50Z</time>
        <name>WPT.1921</name>
      </trkpt>
      <trkpt lat="37.495471050" lon="-106.810708020">
        <ele>3540.000</ele>
        <time>2017-07-02T19:10:54Z</time>
        <name>WPT.1922</name>
      </trkpt>
      <trkpt lat="37.495467810" lon="-106.810659430">
        <ele>3539.000</ele>
        <time>2017-07-02T19:10:58Z</time>
        <name>WPT.1923</name>
      </trkpt>
      <trkpt lat="37.495450210" lon="-106.810612430">
        <ele>3540.000</ele>
        <time>2017-07-02T19:11:02Z</time>
        <name>WPT.1924</name>
      </trkpt>
      <trkpt lat="37.495422660" lon="-106.810573480">
        <ele>3540.000</ele>
        <time>2017-07-02T19:11:05Z</time>
        <name>WPT.1925</name>
      </trkpt>
      <trkpt lat="37.495406000" lon="-106.810530780">
        <ele>3541.000</ele>
        <time>2017-07-02T19:11:09Z</time>
        <name>WPT.1926</name>
      </trkpt>
      <trkpt lat="37.495380980" lon="-106.810479230">
        <ele>3539.000</ele>
        <time>2017-07-02T19:11:12Z</time>
        <name>WPT.1927</name>
      </trkpt>
      <trkpt lat="37.495371200" lon="-106.810432550">
        <ele>3538.000</ele>
        <time>2017-07-02T19:11:15Z</time>
        <name>WPT.1928</name>
      </trkpt>
      <trkpt lat="37.495355420" lon="-106.810380080">
        <ele>3538.000</ele>
        <time>2017-07-02T19:11:18Z</time>
        <name>WPT.1929</name>
      </trkpt>
      <trkpt lat="37.495329210" lon="-106.810326200">
        <ele>3538.000</ele>
        <time>2017-07-02T19:11:22Z</time>
        <name>WPT.1930</name>
      </trkpt>
      <trkpt lat="37.495318770" lon="-106.810276370">
        <ele>3537.000</ele>
        <time>2017-07-02T19:11:26Z</time>
        <name>WPT.1931</name>
      </trkpt>
      <trkpt lat="37.495322100" lon="-106.810227190">
        <ele>3537.000</ele>
        <time>2017-07-02T19:11:29Z</time>
        <name>WPT.1932</name>
      </trkpt>
      <trkpt lat="37.495324550" lon="-106.810181200">
        <ele>3538.000</ele>
        <time>2017-07-02T19:11:33Z</time>
        <name>WPT.1933</name>
      </trkpt>
      <trkpt lat="37.495326460" lon="-106.810128060">
        <ele>3537.000</ele>
        <time>2017-07-02T19:11:38Z</time>
        <name>WPT.1934</name>
      </trkpt>
      <trkpt lat="37.495323930" lon="-106.810078930">
        <ele>3536.000</ele>
        <time>2017-07-02T19:11:41Z</time>
        <name>WPT.1935</name>
      </trkpt>
      <trkpt lat="37.495293070" lon="-106.810042980">
        <ele>3537.000</ele>
        <time>2017-07-02T19:11:45Z</time>
        <name>WPT.1936</name>
      </trkpt>
      <trkpt lat="37.495260920" lon="-106.810010650">
        <ele>3536.000</ele>
        <time>2017-07-02T19:11:48Z</time>
        <name>WPT.1937</name>
      </trkpt>
      <trkpt lat="37.495254140" lon="-106.809951720">
        <ele>3535.000</ele>
        <time>2017-07-02T19:11:53Z</time>
        <name>WPT.1938</name>
      </trkpt>
      <trkpt lat="37.495249720" lon="-106.809906660">
        <ele>3535.000</ele>
        <time>2017-07-02T19:11:56Z</time>
        <name>WPT.1939</name>
      </trkpt>
      <trkpt lat="37.495235700" lon="-106.809864780">
        <ele>3533.000</ele>
        <time>2017-07-02T19:12:00Z</time>
        <name>WPT.1940</name>
      </trkpt>
      <trkpt lat="37.495217770" lon="-106.809820480">
        <ele>3533.000</ele>
        <time>2017-07-02T19:12:04Z</time>
        <name>WPT.1941</name>
      </trkpt>
      <trkpt lat="37.495196590" lon="-106.809779550">
        <ele>3534.000</ele>
        <time>2017-07-02T19:12:08Z</time>
        <name>WPT.1942</name>
      </trkpt>
      <trkpt lat="37.495182860" lon="-106.809733470">
        <ele>3534.000</ele>
        <time>2017-07-02T19:12:11Z</time>
        <name>WPT.1943</name>
      </trkpt>
      <trkpt lat="37.495152430" lon="-106.809696700">
        <ele>3534.000</ele>
        <time>2017-07-02T19:12:13Z</time>
        <name>WPT.1944</name>
      </trkpt>
      <trkpt lat="37.495132100" lon="-106.809650940">
        <ele>3534.000</ele>
        <time>2017-07-02T19:12:17Z</time>
        <name>WPT.1945</name>
      </trkpt>
      <trkpt lat="37.495129070" lon="-106.809597950">
        <ele>3534.000</ele>
        <time>2017-07-02T19:12:20Z</time>
        <name>WPT.1946</name>
      </trkpt>
      <trkpt lat="37.495113540" lon="-106.809539540">
        <ele>3534.000</ele>
        <time>2017-07-02T19:12:23Z</time>
        <name>WPT.1947</name>
      </trkpt>
      <trkpt lat="37.495100400" lon="-106.809496650">
        <ele>3534.000</ele>
        <time>2017-07-02T19:12:25Z</time>
        <name>WPT.1948</name>
      </trkpt>
      <trkpt lat="37.495082540" lon="-106.809454930">
        <ele>3533.000</ele>
        <time>2017-07-02T19:12:29Z</time>
        <name>WPT.1949</name>
      </trkpt>
      <trkpt lat="37.495054760" lon="-106.809410020">
        <ele>3533.000</ele>
        <time>2017-07-02T19:12:32Z</time>
        <name>WPT.1950</name>
      </trkpt>
      <trkpt lat="37.495027090" lon="-106.809355330">
        <ele>3533.000</ele>
        <time>2017-07-02T19:12:36Z</time>
        <name>WPT.1951</name>
      </trkpt>
      <trkpt lat="37.495011100" lon="-106.809305960">
        <ele>3533.000</ele>
        <time>2017-07-02T19:12:38Z</time>
        <name>WPT.1952</name>
      </trkpt>
      <trkpt lat="37.494992530" lon="-106.809257040">
        <ele>3533.000</ele>
        <time>2017-07-02T19:12:40Z</time>
        <name>WPT.1953</name>
      </trkpt>
      <trkpt lat="37.494978290" lon="-106.809214340">
        <ele>3533.000</ele>
        <time>2017-07-02T19:12:44Z</time>
        <name>WPT.1954</name>
      </trkpt>
      <trkpt lat="37.494984200" lon="-106.809157820">
        <ele>3533.000</ele>
        <time>2017-07-02T19:12:48Z</time>
        <name>WPT.1955</name>
      </trkpt>
      <trkpt lat="37.494982630" lon="-106.809092310">
        <ele>3534.000</ele>
        <time>2017-07-02T19:12:52Z</time>
        <name>WPT.1956</name>
      </trkpt>
      <trkpt lat="37.494978000" lon="-106.809041080">
        <ele>3533.000</ele>
        <time>2017-07-02T19:12:54Z</time>
        <name>WPT.1957</name>
      </trkpt>
      <trkpt lat="37.494969100" lon="-106.808992100">
        <ele>3532.000</ele>
        <time>2017-07-02T19:12:57Z</time>
        <name>WPT.1958</name>
      </trkpt>
      <trkpt lat="37.494949350" lon="-106.808940040">
        <ele>3532.000</ele>
        <time>2017-07-02T19:13:02Z</time>
        <name>WPT.1959</name>
      </trkpt>
      <trkpt lat="37.494961350" lon="-106.808885230">
        <ele>3534.000</ele>
        <time>2017-07-02T19:13:06Z</time>
        <name>WPT.1960</name>
      </trkpt>
      <trkpt lat="37.494981370" lon="-106.808838450">
        <ele>3536.000</ele>
        <time>2017-07-02T19:13:09Z</time>
        <name>WPT.1961</name>
      </trkpt>
      <trkpt lat="37.494967850" lon="-106.808791510">
        <ele>3535.000</ele>
        <time>2017-07-02T19:13:13Z</time>
        <name>WPT.1962</name>
      </trkpt>
      <trkpt lat="37.494946990" lon="-106.808741490">
        <ele>3535.000</ele>
        <time>2017-07-02T19:13:16Z</time>
        <name>WPT.1963</name>
      </trkpt>
      <trkpt lat="37.494937150" lon="-106.808689970">
        <ele>3537.000</ele>
        <time>2017-07-02T19:13:20Z</time>
        <name>WPT.1964</name>
      </trkpt>
      <trkpt lat="37.494936760" lon="-106.808644230">
        <ele>3537.000</ele>
        <time>2017-07-02T19:13:26Z</time>
        <name>WPT.1965</name>
      </trkpt>
      <trkpt lat="37.494922170" lon="-106.808598530">
        <ele>3537.000</ele>
        <time>2017-07-02T19:13:45Z</time>
        <name>WPT.1966</name>
      </trkpt>
      <trkpt lat="37.494938040" lon="-106.808553650">
        <ele>3538.000</ele>
        <time>2017-07-02T19:13:48Z</time>
        <name>WPT.1967</name>
      </trkpt>
      <trkpt lat="37.494924660" lon="-106.808499490">
        <ele>3537.000</ele>
        <time>2017-07-02T19:13:51Z</time>
        <name>WPT.1968</name>
      </trkpt>
      <trkpt lat="37.494910680" lon="-106.808449520">
        <ele>3537.000</ele>
        <time>2017-07-02T19:13:56Z</time>
        <name>WPT.1969</name>
      </trkpt>
      <trkpt lat="37.494883580" lon="-106.808391360">
        <ele>3536.000</ele>
        <time>2017-07-02T19:13:59Z</time>
        <name>WPT.1970</name>
      </trkpt>
      <trkpt lat="37.494856770" lon="-106.808344960">
        <ele>3537.000</ele>
        <time>2017-07-02T19:14:02Z</time>
        <name>WPT.1971</name>
      </trkpt>
      <trkpt lat="37.494838220" lon="-106.808289270">
        <ele>3540.000</ele>
        <time>2017-07-02T19:14:05Z</time>
        <name>WPT.1972</name>
      </trkpt>
      <trkpt lat="37.494826540" lon="-106.808238610">
        <ele>3538.000</ele>
        <time>2017-07-02T19:14:08Z</time>
        <name>WPT.1973</name>
      </trkpt>
      <trkpt lat="37.494793750" lon="-106.808195390">
        <ele>3538.000</ele>
        <time>2017-07-02T19:14:12Z</time>
        <name>WPT.1974</name>
      </trkpt>
      <trkpt lat="37.494762640" lon="-106.808154780">
        <ele>3537.000</ele>
        <time>2017-07-02T19:14:16Z</time>
        <name>WPT.1975</name>
      </trkpt>
      <trkpt lat="37.494765580" lon="-106.808099400">
        <ele>3538.000</ele>
        <time>2017-07-02T19:14:19Z</time>
        <name>WPT.1976</name>
      </trkpt>
      <trkpt lat="37.494743480" lon="-106.808059020">
        <ele>3534.000</ele>
        <time>2017-07-02T19:14:23Z</time>
        <name>WPT.1977</name>
      </trkpt>
      <trkpt lat="37.494713350" lon="-106.808013060">
        <ele>3533.000</ele>
        <time>2017-07-02T19:14:25Z</time>
        <name>WPT.1978</name>
      </trkpt>
      <trkpt lat="37.494693020" lon="-106.807960840">
        <ele>3532.000</ele>
        <time>2017-07-02T19:14:28Z</time>
        <name>WPT.1979</name>
      </trkpt>
      <trkpt lat="37.494690420" lon="-106.807903570">
        <ele>3535.000</ele>
        <time>2017-07-02T19:14:31Z</time>
        <name>WPT.1980</name>
      </trkpt>
      <trkpt lat="37.494688520" lon="-106.807857110">
        <ele>3535.000</ele>
        <time>2017-07-02T19:14:33Z</time>
        <name>WPT.1981</name>
      </trkpt>
      <trkpt lat="37.494666990" lon="-106.807809290">
        <ele>3535.000</ele>
        <time>2017-07-02T19:14:36Z</time>
        <name>WPT.1982</name>
      </trkpt>
      <trkpt lat="37.494640950" lon="-106.807766790">
        <ele>3534.000</ele>
        <time>2017-07-02T19:14:41Z</time>
        <name>WPT.1983</name>
      </trkpt>
      <trkpt lat="37.494610670" lon="-106.807719660">
        <ele>3534.000</ele>
        <time>2017-07-02T19:14:44Z</time>
        <name>WPT.1984</name>
      </trkpt>
      <trkpt lat="37.494615360" lon="-106.807767130">
        <ele>3530.000</ele>
        <time>2017-07-02T19:14:54Z</time>
        <name>WPT.1985</name>
      </trkpt>
      <trkpt lat="37.494584760" lon="-106.807797210">
        <ele>3531.000</ele>
        <time>2017-07-02T19:15:00Z</time>
        <name>WPT.1986</name>
      </trkpt>
      <trkpt lat="37.494548850" lon="-106.807785180">
        <ele>3530.000</ele>
        <time>2017-07-02T19:15:15Z</time>
        <name>WPT.1987</name>
      </trkpt>
      <trkpt lat="37.494576630" lon="-106.807822580">
        <ele>3531.000</ele>
        <time>2017-07-02T19:15:26Z</time>
        <name>WPT.1988</name>
      </trkpt>
      <trkpt lat="37.494595650" lon="-106.807783780">
        <ele>3532.000</ele>
        <time>2017-07-02T19:15:31Z</time>
        <name>WPT.1989</name>
      </trkpt>
      <trkpt lat="37.494552450" lon="-106.807749390">
        <ele>3531.000</ele>
        <time>2017-07-02T19:15:37Z</time>
        <name>WPT.1990</name>
      </trkpt>
      <trkpt lat="37.494560860" lon="-106.807694370">
        <ele>3533.000</ele>
        <time>2017-07-02T19:15:53Z</time>
        <name>WPT.1991</name>
      </trkpt>
      <trkpt lat="37.494549800" lon="-106.807648180">
        <ele>3534.000</ele>
        <time>2017-07-02T19:15:56Z</time>
        <name>WPT.1992</name>
      </trkpt>
      <trkpt lat="37.494518760" lon="-106.807613890">
        <ele>3535.000</ele>
        <time>2017-07-02T19:15:59Z</time>
        <name>WPT.1993</name>
      </trkpt>
      <trkpt lat="37.494478000" lon="-106.807596440">
        <ele>3536.000</ele>
        <time>2017-07-02T19:16:04Z</time>
        <name>WPT.1994</name>
      </trkpt>
      <trkpt lat="37.494427820" lon="-106.807582010">
        <ele>3536.000</ele>
        <time>2017-07-02T19:16:07Z</time>
        <name>WPT.1995</name>
      </trkpt>
      <trkpt lat="37.494383190" lon="-106.807565540">
        <ele>3535.000</ele>
        <time>2017-07-02T19:16:10Z</time>
        <name>WPT.1996</name>
      </trkpt>
      <trkpt lat="37.494345660" lon="-106.807537430">
        <ele>3536.000</ele>
        <time>2017-07-02T19:16:13Z</time>
        <name>WPT.1997</name>
      </trkpt>
      <trkpt lat="37.494312320" lon="-106.807498960">
        <ele>3536.000</ele>
        <time>2017-07-02T19:16:17Z</time>
        <name>WPT.1998</name>
      </trkpt>
      <trkpt lat="37.494279860" lon="-106.807474510">
        <ele>3536.000</ele>
        <time>2017-07-02T19:16:20Z</time>
        <name>WPT.1999</name>
      </trkpt>
      <trkpt lat="37.494231540" lon="-106.807440730">
        <ele>3536.000</ele>
        <time>2017-07-02T19:16:23Z</time>
        <name>WPT.2000</name>
      </trkpt>
      <trkpt lat="37.494181950" lon="-106.807415740">
        <ele>3535.000</ele>
        <time>2017-07-02T19:16:25Z</time>
        <name>WPT.2001</name>
      </trkpt>
      <trkpt lat="37.494150690" lon="-106.807390760">
        <ele>3535.000</ele>
        <time>2017-07-02T19:16:27Z</time>
        <name>WPT.2002</name>
      </trkpt>
      <trkpt lat="37.494123590" lon="-106.807358660">
        <ele>3535.000</ele>
        <time>2017-07-02T19:16:30Z</time>
        <name>WPT.2003</name>
      </trkpt>
      <trkpt lat="37.494095590" lon="-106.807326050">
        <ele>3535.000</ele>
        <time>2017-07-02T19:16:34Z</time>
        <name>WPT.2004</name>
      </trkpt>
      <trkpt lat="37.494052090" lon="-106.807292670">
        <ele>3535.000</ele>
        <time>2017-07-02T19:16:39Z</time>
        <name>WPT.2005</name>
      </trkpt>
      <trkpt lat="37.494021540" lon="-106.807268220">
        <ele>3533.000</ele>
        <time>2017-07-02T19:16:42Z</time>
        <name>WPT.2006</name>
      </trkpt>
      <trkpt lat="37.493983020" lon="-106.807241900">
        <ele>3533.000</ele>
        <time>2017-07-02T19:16:45Z</time>
        <name>WPT.2007</name>
      </trkpt>
      <trkpt lat="37.493944290" lon="-106.807222460">
        <ele>3533.000</ele>
        <time>2017-07-02T19:16:48Z</time>
        <name>WPT.2008</name>
      </trkpt>
      <trkpt lat="37.493915960" lon="-106.807185380">
        <ele>3535.000</ele>
        <time>2017-07-02T19:16:52Z</time>
        <name>WPT.2009</name>
      </trkpt>
      <trkpt lat="37.493879810" lon="-106.807185440">
        <ele>3534.000</ele>
        <time>2017-07-02T19:16:55Z</time>
        <name>WPT.2010</name>
      </trkpt>
      <trkpt lat="37.493841750" lon="-106.807164960">
        <ele>3531.000</ele>
        <time>2017-07-02T19:17:02Z</time>
        <name>WPT.2011</name>
      </trkpt>
      <trkpt lat="37.493806640" lon="-106.807141860">
        <ele>3532.000</ele>
        <time>2017-07-02T19:17:05Z</time>
        <name>WPT.2012</name>
      </trkpt>
      <trkpt lat="37.493767960" lon="-106.807126960">
        <ele>3529.000</ele>
        <time>2017-07-02T19:17:09Z</time>
        <name>WPT.2013</name>
      </trkpt>
      <trkpt lat="37.493737180" lon="-106.807087670">
        <ele>3525.000</ele>
        <time>2017-07-02T19:17:25Z</time>
        <name>WPT.2014</name>
      </trkpt>
      <trkpt lat="37.493699300" lon="-106.807085240">
        <ele>3522.000</ele>
        <time>2017-07-02T19:17:27Z</time>
        <name>WPT.2015</name>
      </trkpt>
      <trkpt lat="37.493657070" lon="-106.807065660">
        <ele>3521.000</ele>
        <time>2017-07-02T19:17:30Z</time>
        <name>WPT.2016</name>
      </trkpt>
      <trkpt lat="37.493617550" lon="-106.807045170">
        <ele>3523.000</ele>
        <time>2017-07-02T19:17:35Z</time>
        <name>WPT.2017</name>
      </trkpt>
      <trkpt lat="37.493578540" lon="-106.807039070">
        <ele>3524.000</ele>
        <time>2017-07-02T19:17:39Z</time>
        <name>WPT.2018</name>
      </trkpt>
      <trkpt lat="37.493541400" lon="-106.807051320">
        <ele>3526.000</ele>
        <time>2017-07-02T19:17:42Z</time>
        <name>WPT.2019</name>
      </trkpt>
      <trkpt lat="37.493502500" lon="-106.807057920">
        <ele>3525.000</ele>
        <time>2017-07-02T19:17:53Z</time>
        <name>WPT.2020</name>
      </trkpt>
      <trkpt lat="37.493473280" lon="-106.807028410">
        <ele>3524.000</ele>
        <time>2017-07-02T19:18:00Z</time>
        <name>WPT.2021</name>
      </trkpt>
      <trkpt lat="37.493448200" lon="-106.806976430">
        <ele>3525.000</ele>
        <time>2017-07-02T19:18:04Z</time>
        <name>WPT.2022</name>
      </trkpt>
      <trkpt lat="37.493428170" lon="-106.806933210">
        <ele>3527.000</ele>
        <time>2017-07-02T19:18:11Z</time>
        <name>WPT.2023</name>
      </trkpt>
      <trkpt lat="37.493398420" lon="-106.806895190">
        <ele>3528.000</ele>
        <time>2017-07-02T19:18:17Z</time>
        <name>WPT.2024</name>
      </trkpt>
      <trkpt lat="37.493363940" lon="-106.806865730">
        <ele>3528.000</ele>
        <time>2017-07-02T19:18:21Z</time>
        <name>WPT.2025</name>
      </trkpt>
      <trkpt lat="37.493329620" lon="-106.806848480">
        <ele>3527.000</ele>
        <time>2017-07-02T19:18:25Z</time>
        <name>WPT.2026</name>
      </trkpt>
      <trkpt lat="37.493304460" lon="-106.806812730">
        <ele>3527.000</ele>
        <time>2017-07-02T19:18:31Z</time>
        <name>WPT.2027</name>
      </trkpt>
      <trkpt lat="37.493286640" lon="-106.806768530">
        <ele>3527.000</ele>
        <time>2017-07-02T19:18:40Z</time>
        <name>WPT.2028</name>
      </trkpt>
      <trkpt lat="37.493258740" lon="-106.806734730">
        <ele>3529.000</ele>
        <time>2017-07-02T19:18:48Z</time>
        <name>WPT.2029</name>
      </trkpt>
      <trkpt lat="37.493246210" lon="-106.806683580">
        <ele>3529.000</ele>
        <time>2017-07-02T19:18:53Z</time>
        <name>WPT.2030</name>
      </trkpt>
      <trkpt lat="37.493258760" lon="-106.806636250">
        <ele>3532.000</ele>
        <time>2017-07-02T19:18:58Z</time>
        <name>WPT.2031</name>
      </trkpt>
      <trkpt lat="37.493242910" lon="-106.806594000">
        <ele>3534.000</ele>
        <time>2017-07-02T19:19:06Z</time>
        <name>WPT.2032</name>
      </trkpt>
      <trkpt lat="37.493229280" lon="-106.806544600">
        <ele>3535.000</ele>
        <time>2017-07-02T19:19:18Z</time>
        <name>WPT.2033</name>
      </trkpt>
      <trkpt lat="37.493207910" lon="-106.806493990">
        <ele>3535.000</ele>
        <time>2017-07-02T19:19:24Z</time>
        <name>WPT.2034</name>
      </trkpt>
      <trkpt lat="37.493175960" lon="-106.806459820">
        <ele>3537.000</ele>
        <time>2017-07-02T19:19:28Z</time>
        <name>WPT.2035</name>
      </trkpt>
      <trkpt lat="37.493133240" lon="-106.806440570">
        <ele>3537.000</ele>
        <time>2017-07-02T19:19:32Z</time>
        <name>WPT.2036</name>
      </trkpt>
      <trkpt lat="37.493098780" lon="-106.806415870">
        <ele>3538.000</ele>
        <time>2017-07-02T19:19:46Z</time>
        <name>WPT.2037</name>
      </trkpt>
      <trkpt lat="37.493061290" lon="-106.806394900">
        <ele>3538.000</ele>
        <time>2017-07-02T19:19:52Z</time>
        <name>WPT.2038</name>
      </trkpt>
      <trkpt lat="37.493050880" lon="-106.806338990">
        <ele>3536.000</ele>
        <time>2017-07-02T19:20:29Z</time>
        <name>WPT.2039</name>
      </trkpt>
      <trkpt lat="37.493020240" lon="-106.806308060">
        <ele>3537.000</ele>
        <time>2017-07-02T19:20:32Z</time>
        <name>WPT.2040</name>
      </trkpt>
      <trkpt lat="37.492983140" lon="-106.806298210">
        <ele>3537.000</ele>
        <time>2017-07-02T19:20:36Z</time>
        <name>WPT.2041</name>
      </trkpt>
      <trkpt lat="37.492962540" lon="-106.806252120">
        <ele>3536.000</ele>
        <time>2017-07-02T19:20:40Z</time>
        <name>WPT.2042</name>
      </trkpt>
      <trkpt lat="37.492956660" lon="-106.806205350">
        <ele>3538.000</ele>
        <time>2017-07-02T19:20:42Z</time>
        <name>WPT.2043</name>
      </trkpt>
      <trkpt lat="37.492941020" lon="-106.806159540">
        <ele>3539.000</ele>
        <time>2017-07-02T19:20:44Z</time>
        <name>WPT.2044</name>
      </trkpt>
      <trkpt lat="37.492914910" lon="-106.806111740">
        <ele>3539.000</ele>
        <time>2017-07-02T19:20:47Z</time>
        <name>WPT.2045</name>
      </trkpt>
      <trkpt lat="37.492890200" lon="-106.806068310">
        <ele>3540.000</ele>
        <time>2017-07-02T19:20:51Z</time>
        <name>WPT.2046</name>
      </trkpt>
      <trkpt lat="37.492873780" lon="-106.806027250">
        <ele>3541.000</ele>
        <time>2017-07-02T19:20:56Z</time>
        <name>WPT.2047</name>
      </trkpt>
      <trkpt lat="37.492875330" lon="-106.805977160">
        <ele>3542.000</ele>
        <time>2017-07-02T19:21:01Z</time>
        <name>WPT.2048</name>
      </trkpt>
      <trkpt lat="37.492841230" lon="-106.805937820">
        <ele>3545.000</ele>
        <time>2017-07-02T19:21:52Z</time>
        <name>WPT.2049</name>
      </trkpt>
      <trkpt lat="37.492821740" lon="-106.805892800">
        <ele>3546.000</ele>
        <time>2017-07-02T19:21:56Z</time>
        <name>WPT.2050</name>
      </trkpt>
      <trkpt lat="37.492826860" lon="-106.805845160">
        <ele>3547.000</ele>
        <time>2017-07-02T19:22:00Z</time>
        <name>WPT.2051</name>
      </trkpt>
      <trkpt lat="37.492854230" lon="-106.805814460">
        <ele>3547.000</ele>
        <time>2017-07-02T19:22:04Z</time>
        <name>WPT.2052</name>
      </trkpt>
      <trkpt lat="37.492870830" lon="-106.805767290">
        <ele>3549.000</ele>
        <time>2017-07-02T19:22:08Z</time>
        <name>WPT.2053</name>
      </trkpt>
      <trkpt lat="37.492878380" lon="-106.805709900">
        <ele>3549.000</ele>
        <time>2017-07-02T19:22:12Z</time>
        <name>WPT.2054</name>
      </trkpt>
      <trkpt lat="37.492886500" lon="-106.805663940">
        <ele>3550.000</ele>
        <time>2017-07-02T19:22:15Z</time>
        <name>WPT.2055</name>
      </trkpt>
      <trkpt lat="37.492897100" lon="-106.805610170">
        <ele>3552.000</ele>
        <time>2017-07-02T19:22:19Z</time>
        <name>WPT.2056</name>
      </trkpt>
      <trkpt lat="37.492919610" lon="-106.805563090">
        <ele>3551.000</ele>
        <time>2017-07-02T19:22:22Z</time>
        <name>WPT.2057</name>
      </trkpt>
      <trkpt lat="37.492928140" lon="-106.805508040">
        <ele>3552.000</ele>
        <time>2017-07-02T19:22:25Z</time>
        <name>WPT.2058</name>
      </trkpt>
      <trkpt lat="37.492926820" lon="-106.805456000">
        <ele>3553.000</ele>
        <time>2017-07-02T19:22:27Z</time>
        <name>WPT.2059</name>
      </trkpt>
      <trkpt lat="37.492916390" lon="-106.805410300">
        <ele>3555.000</ele>
        <time>2017-07-02T19:22:29Z</time>
        <name>WPT.2060</name>
      </trkpt>
      <trkpt lat="37.492890730" lon="-106.805369650">
        <ele>3556.000</ele>
        <time>2017-07-02T19:22:32Z</time>
        <name>WPT.2061</name>
      </trkpt>
      <trkpt lat="37.492910500" lon="-106.805330420">
        <ele>3556.000</ele>
        <time>2017-07-02T19:22:52Z</time>
        <name>WPT.2062</name>
      </trkpt>
      <trkpt lat="37.492910400" lon="-106.805268280">
        <ele>3556.000</ele>
        <time>2017-07-02T19:22:55Z</time>
        <name>WPT.2063</name>
      </trkpt>
      <trkpt lat="37.492889270" lon="-106.805226170">
        <ele>3557.000</ele>
        <time>2017-07-02T19:22:59Z</time>
        <name>WPT.2064</name>
      </trkpt>
      <trkpt lat="37.492861230" lon="-106.805182070">
        <ele>3557.000</ele>
        <time>2017-07-02T19:23:04Z</time>
        <name>WPT.2065</name>
      </trkpt>
      <trkpt lat="37.492841720" lon="-106.805126370">
        <ele>3555.000</ele>
        <time>2017-07-02T19:23:08Z</time>
        <name>WPT.2066</name>
      </trkpt>
      <trkpt lat="37.492818600" lon="-106.805074570">
        <ele>3558.000</ele>
        <time>2017-07-02T19:23:11Z</time>
        <name>WPT.2067</name>
      </trkpt>
      <trkpt lat="37.492826790" lon="-106.805020750">
        <ele>3557.000</ele>
        <time>2017-07-02T19:23:15Z</time>
        <name>WPT.2068</name>
      </trkpt>
      <trkpt lat="37.492840240" lon="-106.804977630">
        <ele>3558.000</ele>
        <time>2017-07-02T19:23:19Z</time>
        <name>WPT.2069</name>
      </trkpt>
      <trkpt lat="37.492835380" lon="-106.804930570">
        <ele>3559.000</ele>
        <time>2017-07-02T19:23:22Z</time>
        <name>WPT.2070</name>
      </trkpt>
      <trkpt lat="37.492823600" lon="-106.804880180">
        <ele>3559.000</ele>
        <time>2017-07-02T19:23:26Z</time>
        <name>WPT.2071</name>
      </trkpt>
      <trkpt lat="37.492805500" lon="-106.804828690">
        <ele>3558.000</ele>
        <time>2017-07-02T19:23:29Z</time>
        <name>WPT.2072</name>
      </trkpt>
      <trkpt lat="37.492803840" lon="-106.804782450">
        <ele>3558.000</ele>
        <time>2017-07-02T19:23:32Z</time>
        <name>WPT.2073</name>
      </trkpt>
      <trkpt lat="37.492807590" lon="-106.804733620">
        <ele>3560.000</ele>
        <time>2017-07-02T19:23:36Z</time>
        <name>WPT.2074</name>
      </trkpt>
      <trkpt lat="37.492798830" lon="-106.804686720">
        <ele>3560.000</ele>
        <time>2017-07-02T19:23:39Z</time>
        <name>WPT.2075</name>
      </trkpt>
      <trkpt lat="37.492799150" lon="-106.804637480">
        <ele>3560.000</ele>
        <time>2017-07-02T19:23:44Z</time>
        <name>WPT.2076</name>
      </trkpt>
      <trkpt lat="37.492787760" lon="-106.804584720">
        <ele>3559.000</ele>
        <time>2017-07-02T19:23:47Z</time>
        <name>WPT.2077</name>
      </trkpt>
      <trkpt lat="37.492779620" lon="-106.804530070">
        <ele>3561.000</ele>
        <time>2017-07-02T19:23:52Z</time>
        <name>WPT.2078</name>
      </trkpt>
      <trkpt lat="37.492756410" lon="-106.804479950">
        <ele>3561.000</ele>
        <time>2017-07-02T19:23:55Z</time>
        <name>WPT.2079</name>
      </trkpt>
      <trkpt lat="37.492735590" lon="-106.804442420">
        <ele>3560.000</ele>
        <time>2017-07-02T19:23:58Z</time>
        <name>WPT.2080</name>
      </trkpt>
      <trkpt lat="37.492729400" lon="-106.804383010">
        <ele>3561.000</ele>
        <time>2017-07-02T19:24:02Z</time>
        <name>WPT.2081</name>
      </trkpt>
      <trkpt lat="37.492715680" lon="-106.804328110">
        <ele>3561.000</ele>
        <time>2017-07-02T19:24:06Z</time>
        <name>WPT.2082</name>
      </trkpt>
      <trkpt lat="37.492713920" lon="-106.804280520">
        <ele>3560.000</ele>
        <time>2017-07-02T19:24:09Z</time>
        <name>WPT.2083</name>
      </trkpt>
      <trkpt lat="37.492720230" lon="-106.804233110">
        <ele>3560.000</ele>
        <time>2017-07-02T19:24:13Z</time>
        <name>WPT.2084</name>
      </trkpt>
      <trkpt lat="37.492715010" lon="-106.804180410">
        <ele>3558.000</ele>
        <time>2017-07-02T19:24:16Z</time>
        <name>WPT.2085</name>
      </trkpt>
      <trkpt lat="37.492714610" lon="-106.804119440">
        <ele>3557.000</ele>
        <time>2017-07-02T19:24:20Z</time>
        <name>WPT.2086</name>
      </trkpt>
      <trkpt lat="37.492713720" lon="-106.804071740">
        <ele>3558.000</ele>
        <time>2017-07-02T19:24:23Z</time>
        <name>WPT.2087</name>
      </trkpt>
      <trkpt lat="37.492709620" lon="-106.804026720">
        <ele>3562.000</ele>
        <time>2017-07-02T19:24:29Z</time>
        <name>WPT.2088</name>
      </trkpt>
      <trkpt lat="37.492706900" lon="-106.803973830">
        <ele>3559.000</ele>
        <time>2017-07-02T19:24:34Z</time>
        <name>WPT.2089</name>
      </trkpt>
      <trkpt lat="37.492707490" lon="-106.803925440">
        <ele>3558.000</ele>
        <time>2017-07-02T19:24:39Z</time>
        <name>WPT.2090</name>
      </trkpt>
      <trkpt lat="37.492690070" lon="-106.803865760">
        <ele>3558.000</ele>
        <time>2017-07-02T19:24:57Z</time>
        <name>WPT.2091</name>
      </trkpt>
      <trkpt lat="37.492689130" lon="-106.803813040">
        <ele>3558.000</ele>
        <time>2017-07-02T19:25:00Z</time>
        <name>WPT.2092</name>
      </trkpt>
      <trkpt lat="37.492695120" lon="-106.803765020">
        <ele>3558.000</ele>
        <time>2017-07-02T19:25:03Z</time>
        <name>WPT.2093</name>
      </trkpt>
      <trkpt lat="37.492702930" lon="-106.803704870">
        <ele>3558.000</ele>
        <time>2017-07-02T19:25:06Z</time>
        <name>WPT.2094</name>
      </trkpt>
      <trkpt lat="37.492713910" lon="-106.803643410">
        <ele>3560.000</ele>
        <time>2017-07-02T19:25:10Z</time>
        <name>WPT.2095</name>
      </trkpt>
      <trkpt lat="37.492719550" lon="-106.803585440">
        <ele>3560.000</ele>
        <time>2017-07-02T19:25:13Z</time>
        <name>WPT.2096</name>
      </trkpt>
      <trkpt lat="37.492724220" lon="-106.803537080">
        <ele>3560.000</ele>
        <time>2017-07-02T19:25:15Z</time>
        <name>WPT.2097</name>
      </trkpt>
      <trkpt lat="37.492726880" lon="-106.803491110">
        <ele>3560.000</ele>
        <time>2017-07-02T19:25:19Z</time>
        <name>WPT.2098</name>
      </trkpt>
      <trkpt lat="37.492718500" lon="-106.803446030">
        <ele>3560.000</ele>
        <time>2017-07-02T19:25:22Z</time>
        <name>WPT.2099</name>
      </trkpt>
      <trkpt lat="37.492723690" lon="-106.803382880">
        <ele>3557.000</ele>
        <time>2017-07-02T19:26:04Z</time>
        <name>WPT.2100</name>
      </trkpt>
      <trkpt lat="37.492718610" lon="-106.803334040">
        <ele>3558.000</ele>
        <time>2017-07-02T19:26:07Z</time>
        <name>WPT.2101</name>
      </trkpt>
      <trkpt lat="37.492726010" lon="-106.803278780">
        <ele>3558.000</ele>
        <time>2017-07-02T19:26:11Z</time>
        <name>WPT.2102</name>
      </trkpt>
      <trkpt lat="37.492728880" lon="-106.803229540">
        <ele>3558.000</ele>
        <time>2017-07-02T19:26:14Z</time>
        <name>WPT.2103</name>
      </trkpt>
      <trkpt lat="37.492735850" lon="-106.803174450">
        <ele>3557.000</ele>
        <time>2017-07-02T19:26:17Z</time>
        <name>WPT.2104</name>
      </trkpt>
      <trkpt lat="37.492742810" lon="-106.803112410">
        <ele>3559.000</ele>
        <time>2017-07-02T19:26:20Z</time>
        <name>WPT.2105</name>
      </trkpt>
      <trkpt lat="37.492744910" lon="-106.803063390">
        <ele>3559.000</ele>
        <time>2017-07-02T19:26:22Z</time>
        <name>WPT.2106</name>
      </trkpt>
      <trkpt lat="37.492739720" lon="-106.803001850">
        <ele>3560.000</ele>
        <time>2017-07-02T19:26:25Z</time>
        <name>WPT.2107</name>
      </trkpt>
      <trkpt lat="37.492732680" lon="-106.802956900">
        <ele>3560.000</ele>
        <time>2017-07-02T19:26:27Z</time>
        <name>WPT.2108</name>
      </trkpt>
      <trkpt lat="37.492735600" lon="-106.802910260">
        <ele>3561.000</ele>
        <time>2017-07-02T19:26:29Z</time>
        <name>WPT.2109</name>
      </trkpt>
      <trkpt lat="37.492740170" lon="-106.802858330">
        <ele>3561.000</ele>
        <time>2017-07-02T19:26:31Z</time>
        <name>WPT.2110</name>
      </trkpt>
      <trkpt lat="37.492744230" lon="-106.802802440">
        <ele>3560.000</ele>
        <time>2017-07-02T19:26:33Z</time>
        <name>WPT.2111</name>
      </trkpt>
      <trkpt lat="37.492749840" lon="-106.802753610">
        <ele>3560.000</ele>
        <time>2017-07-02T19:26:35Z</time>
        <name>WPT.2112</name>
      </trkpt>
      <trkpt lat="37.492756410" lon="-106.802703680">
        <ele>3560.000</ele>
        <time>2017-07-02T19:26:38Z</time>
        <name>WPT.2113</name>
      </trkpt>
      <trkpt lat="37.492761680" lon="-106.802656910">
        <ele>3560.000</ele>
        <time>2017-07-02T19:26:42Z</time>
        <name>WPT.2114</name>
      </trkpt>
      <trkpt lat="37.492776040" lon="-106.802611950">
        <ele>3559.000</ele>
        <time>2017-07-02T19:26:46Z</time>
        <name>WPT.2115</name>
      </trkpt>
      <trkpt lat="37.492797060" lon="-106.802565430">
        <ele>3560.000</ele>
        <time>2017-07-02T19:26:50Z</time>
        <name>WPT.2116</name>
      </trkpt>
      <trkpt lat="37.492802320" lon="-106.802518220">
        <ele>3560.000</ele>
        <time>2017-07-02T19:26:54Z</time>
        <name>WPT.2117</name>
      </trkpt>
      <trkpt lat="37.492815930" lon="-106.802475450">
        <ele>3562.000</ele>
        <time>2017-07-02T19:26:58Z</time>
        <name>WPT.2118</name>
      </trkpt>
      <trkpt lat="37.492824030" lon="-106.802430120">
        <ele>3562.000</ele>
        <time>2017-07-02T19:27:02Z</time>
        <name>WPT.2119</name>
      </trkpt>
      <trkpt lat="37.492812930" lon="-106.802380070">
        <ele>3561.000</ele>
        <time>2017-07-02T19:27:07Z</time>
        <name>WPT.2120</name>
      </trkpt>
      <trkpt lat="37.492817290" lon="-106.802330130">
        <ele>3561.000</ele>
        <time>2017-07-02T19:27:10Z</time>
        <name>WPT.2121</name>
      </trkpt>
      <trkpt lat="37.492828700" lon="-106.802263910">
        <ele>3562.000</ele>
        <time>2017-07-02T19:27:13Z</time>
        <name>WPT.2122</name>
      </trkpt>
      <trkpt lat="37.492844290" lon="-106.802220300">
        <ele>3561.000</ele>
        <time>2017-07-02T19:27:15Z</time>
        <name>WPT.2123</name>
      </trkpt>
      <trkpt lat="37.492856160" lon="-106.802165210">
        <ele>3561.000</ele>
        <time>2017-07-02T19:27:17Z</time>
        <name>WPT.2124</name>
      </trkpt>
      <trkpt lat="37.492873110" lon="-106.802118340">
        <ele>3564.000</ele>
        <time>2017-07-02T19:27:19Z</time>
        <name>WPT.2125</name>
      </trkpt>
      <trkpt lat="37.492902710" lon="-106.802079330">
        <ele>3564.000</ele>
        <time>2017-07-02T19:27:21Z</time>
        <name>WPT.2126</name>
      </trkpt>
      <trkpt lat="37.492926810" lon="-106.802042390">
        <ele>3564.000</ele>
        <time>2017-07-02T19:27:23Z</time>
        <name>WPT.2127</name>
      </trkpt>
      <trkpt lat="37.492963510" lon="-106.801991330">
        <ele>3564.000</ele>
        <time>2017-07-02T19:27:26Z</time>
        <name>WPT.2128</name>
      </trkpt>
      <trkpt lat="37.492996360" lon="-106.801966480">
        <ele>3566.000</ele>
        <time>2017-07-02T19:27:29Z</time>
        <name>WPT.2129</name>
      </trkpt>
      <trkpt lat="37.493046860" lon="-106.801957060">
        <ele>3567.000</ele>
        <time>2017-07-02T19:27:32Z</time>
        <name>WPT.2130</name>
      </trkpt>
      <trkpt lat="37.493091090" lon="-106.801924640">
        <ele>3569.000</ele>
        <time>2017-07-02T19:27:35Z</time>
        <name>WPT.2131</name>
      </trkpt>
      <trkpt lat="37.493126390" lon="-106.801897890">
        <ele>3573.000</ele>
        <time>2017-07-02T19:27:38Z</time>
        <name>WPT.2132</name>
      </trkpt>
      <trkpt lat="37.493161840" lon="-106.801884500">
        <ele>3573.000</ele>
        <time>2017-07-02T19:27:41Z</time>
        <name>WPT.2133</name>
      </trkpt>
      <trkpt lat="37.493186480" lon="-106.801848690">
        <ele>3572.000</ele>
        <time>2017-07-02T19:27:46Z</time>
        <name>WPT.2134</name>
      </trkpt>
      <trkpt lat="37.493210320" lon="-106.801805050">
        <ele>3572.000</ele>
        <time>2017-07-02T19:27:49Z</time>
        <name>WPT.2135</name>
      </trkpt>
      <trkpt lat="37.493226370" lon="-106.801746990">
        <ele>3574.000</ele>
        <time>2017-07-02T19:27:52Z</time>
        <name>WPT.2136</name>
      </trkpt>
      <trkpt lat="37.493218180" lon="-106.801702940">
        <ele>3575.000</ele>
        <time>2017-07-02T19:27:54Z</time>
        <name>WPT.2137</name>
      </trkpt>
      <trkpt lat="37.493186830" lon="-106.801664120">
        <ele>3573.000</ele>
        <time>2017-07-02T19:27:58Z</time>
        <name>WPT.2138</name>
      </trkpt>
      <trkpt lat="37.493136060" lon="-106.801648450">
        <ele>3573.000</ele>
        <time>2017-07-02T19:28:01Z</time>
        <name>WPT.2139</name>
      </trkpt>
      <trkpt lat="37.493097690" lon="-106.801632440">
        <ele>3573.000</ele>
        <time>2017-07-02T19:28:04Z</time>
        <name>WPT.2140</name>
      </trkpt>
      <trkpt lat="37.493060360" lon="-106.801598840">
        <ele>3573.000</ele>
        <time>2017-07-02T19:28:07Z</time>
        <name>WPT.2141</name>
      </trkpt>
      <trkpt lat="37.493018180" lon="-106.801583680">
        <ele>3571.000</ele>
        <time>2017-07-02T19:28:10Z</time>
        <name>WPT.2142</name>
      </trkpt>
      <trkpt lat="37.492985250" lon="-106.801559830">
        <ele>3570.000</ele>
        <time>2017-07-02T19:28:13Z</time>
        <name>WPT.2143</name>
      </trkpt>
      <trkpt lat="37.492964570" lon="-106.801520520">
        <ele>3571.000</ele>
        <time>2017-07-02T19:28:18Z</time>
        <name>WPT.2144</name>
      </trkpt>
      <trkpt lat="37.492974230" lon="-106.801474120">
        <ele>3573.000</ele>
        <time>2017-07-02T19:28:23Z</time>
        <name>WPT.2145</name>
      </trkpt>
      <trkpt lat="37.493003750" lon="-106.801445590">
        <ele>3574.000</ele>
        <time>2017-07-02T19:28:26Z</time>
        <name>WPT.2146</name>
      </trkpt>
      <trkpt lat="37.493042250" lon="-106.801438750">
        <ele>3575.000</ele>
        <time>2017-07-02T19:28:32Z</time>
        <name>WPT.2147</name>
      </trkpt>
      <trkpt lat="37.493077880" lon="-106.801429440">
        <ele>3573.000</ele>
        <time>2017-07-02T19:28:35Z</time>
        <name>WPT.2148</name>
      </trkpt>
      <trkpt lat="37.493085350" lon="-106.801384660">
        <ele>3570.000</ele>
        <time>2017-07-02T19:28:41Z</time>
        <name>WPT.2149</name>
      </trkpt>
      <trkpt lat="37.493074710" lon="-106.801374710">
        <ele>3572.000</ele>
        <time>2017-07-02T19:30:38Z</time>
        <name>WPT.2150</name>
      </trkpt>
    </trkseg>
  </trk>
</gpx>
